GFSGL_sfc_wetblb_000.txt.gz
Wetbulb
50.71 49.84 49.00 48.21 46.89 46.55 46.46 46.18 46.20 46.46 45.54 44.95 44.32 43.96 43.15 41.70 41.32 40.68 40.74 40.97 40.24 39.85 40.00 40.06 39.48 40.37 39.75 39.84 40.27 39.95 38.89 38.58 35.59 37.97 40.44 41.96 42.15 42.56 43.14 44.14 44.10 44.33 44.64
47.75 47.37 47.21 46.61 46.41 45.76 45.64 45.22 45.11 44.50 44.53 44.15 42.92 41.54 41.31 40.97 40.47 39.57 39.56 39.79 39.02 38.31 38.65 38.89 38.12 37.91 38.03 38.61 38.42 37.93 37.97 38.80 36.99 35.39 38.55 39.38 40.35 41.99 42.54 42.33 42.25 42.87 43.67
46.59 46.22 45.81 45.77 45.49 44.63 44.01 43.50 43.11 42.35 41.84 41.64 41.43 40.85 40.25 40.07 40.29 39.52 38.80 38.65 38.58 38.56 38.11 37.10 36.76 36.85 36.34 36.89 36.98 36.55 36.87 36.86 37.11 35.73 35.54 38.40 39.20 40.31 40.00 40.96 41.16 41.99 41.97
45.56 44.93 44.63 44.60 44.07 42.93 42.05 41.83 41.79 41.62 41.09 40.83 40.39 39.88 39.54 38.68 38.19 38.11 37.82 37.53 37.11 36.63 36.33 36.13 35.74 35.27 34.92 34.92 34.86 34.72 34.86 34.83 35.02 34.47 34.49 35.11 36.48 38.12 38.38 37.05 36.99 39.48 39.38
44.36 43.49 42.09 42.28 42.01 41.77 41.44 40.84 40.60 39.89 38.88 38.57 37.87 37.73 37.79 37.18 36.61 36.04 35.93 36.26 35.99 35.56 35.39 35.38 35.44 34.86 32.74 32.54 32.43 32.93 33.33 33.35 33.82 33.86 33.60 34.44 34.62 34.96 34.88 36.71 35.69 36.95 38.27
43.16 41.14 40.85 41.26 40.86 39.87 39.61 39.24 38.51 37.70 37.41 37.40 36.87 36.67 36.14 35.96 32.64 32.18 32.79 34.39 34.36 34.21 33.98 34.64 34.57 33.64 33.20 32.22 31.49 30.92 31.40 31.08 31.42 31.14 30.65 30.27 32.14 32.74 34.34 33.01 33.10 31.75 30.19
41.42 40.30 40.42 40.69 38.86 38.53 38.04 37.35 36.84 36.60 36.95 36.20 35.88 35.70 35.01 35.30 30.14 29.98 29.63 31.91 32.37 32.65 32.93 32.88 32.23 32.51 32.12 32.53 31.76 31.47 30.76 30.21 28.86 29.56 27.98 29.14 29.36 31.59 32.21 31.56 31.86 31.50 31.08
40.86 40.20 40.37 39.01 37.59 37.45 36.83 36.17 36.27 36.36 35.59 35.25 34.93 34.49 33.89 33.58 29.96 28.66 27.93 30.32 31.70 31.87 31.97 31.98 31.44 31.58 32.17 30.47 29.74 28.86 29.56 30.94 31.82 31.43 30.78 30.75 31.98 32.44 33.18 33.34 33.15 32.91 33.56
40.04 39.14 39.03 38.32 36.96 36.19 35.76 35.52 36.06 35.38 35.01 34.45 33.78 32.96 32.33 32.20 29.85 27.71 27.59 29.22 29.31 29.52 30.49 31.22 30.26 29.04 29.36 29.63 29.08 28.77 29.07 29.98 32.13 32.33 31.97 31.87 31.91 32.14 32.45 32.45 31.00 29.96 29.97
39.55 39.59 39.33 38.48 36.67 35.54 35.60 35.83 35.95 35.61 34.09 33.59 32.10 32.31 30.55 30.17 28.60 27.12 27.24 27.98 27.00 27.30 28.50 29.07 29.02 29.71 29.35 28.93 29.17 29.19 27.50 28.44 30.18 31.52 32.22 32.62 32.50 32.64 31.47 32.60 32.73 29.14 29.37
39.99 39.68 39.25 38.27 36.31 36.21 36.26 36.45 35.81 34.62 33.05 31.21 30.64 30.19 30.11 29.08 28.17 26.84 26.39 26.11 26.96 26.06 26.70 28.41 30.35 28.94 27.50 27.10 26.87 27.57 26.83 28.52 27.34 28.04 28.67 30.01 31.28 32.71 33.64 34.51 34.47 33.02 30.43
40.13 39.37 38.34 37.30 36.34 35.94 36.12 35.94 34.68 33.62 31.00 29.43 30.31 30.14 29.39 30.29 27.49 26.68 26.26 26.50 27.15 27.15 27.04 28.92 30.29 26.08 26.07 25.29 25.45 25.47 25.04 25.89 27.48 27.89 28.40 27.96 29.12 30.83 32.63 34.00 34.43 34.27 35.26
38.30 37.66 37.35 36.45 36.16 36.23 35.41 34.49 32.87 31.87 28.82 27.84 27.21 27.07 27.20 27.97 27.87 26.29 26.29 26.22 26.12 27.00 29.09 27.09 24.91 24.80 24.80 25.23 24.44 24.19 24.87 28.13 27.23 26.88 27.34 28.29 30.24 32.33 33.43 33.64 34.18 34.38 34.46
36.67 36.63 36.57 35.84 34.92 35.65 34.95 33.27 32.04 29.54 27.47 26.77 26.19 25.46 25.75 25.37 25.12 25.86 25.99 26.20 26.01 26.93 26.25 28.47 25.46 24.47 25.41 25.66 25.96 25.75 26.49 26.58 25.68 25.87 26.71 28.65 30.84 31.75 32.27 33.22 31.83 32.80 31.59
35.64 35.33 34.93 34.57 34.44 33.99 33.48 32.34 30.57 29.90 27.05 25.64 25.26 25.07 23.54 22.55 23.21 24.72 24.06 23.86 24.45 24.07 25.04 25.08 23.48 22.75 23.89 24.12 23.93 24.48 25.64 25.98 25.45 26.27 26.91 27.42 28.65 30.53 31.81 32.73 32.09 32.13 30.92
32.62 33.52 34.21 33.69 34.07 32.66 31.82 31.31 26.60 25.28 24.10 23.59 23.09 23.41 24.20 23.25 23.17 23.17 23.01 22.69 22.28 22.42 22.88 20.80 20.10 20.35 21.96 22.58 22.71 22.87 24.06 23.81 24.39 25.45 26.60 26.76 27.13 28.47 29.91 31.32 30.20 30.80 30.36
32.09 32.08 33.67 31.74 31.92 31.09 30.35 29.19 27.41 28.53 24.34 22.70 22.17 22.02 21.58 21.62 21.70 21.57 21.37 21.13 20.92 21.22 19.71 19.16 18.89 19.46 20.93 21.38 21.43 21.63 21.70 23.30 24.67 24.39 25.40 25.67 26.24 27.42 29.74 30.12 30.64 29.91 29.32
32.09 29.39 32.37 32.71 32.18 30.95 29.67 28.25 27.61 25.96 25.09 25.33 24.10 21.35 20.97 20.79 20.40 20.18 19.79 20.21 18.87 18.89 18.10 17.95 17.83 19.13 19.74 20.10 20.32 20.34 21.51 22.89 23.15 23.35 24.24 25.16 25.46 25.99 26.95 27.81 29.32 29.42 30.65
31.01 31.31 31.43 32.17 30.90 28.77 28.86 27.91 27.21 26.08 25.57 24.29 24.21 23.10 22.53 20.71 20.15 19.77 19.47 18.92 16.96 16.47 16.69 17.49 18.55 18.57 19.09 20.08 20.55 20.69 22.11 22.29 22.86 23.45 23.55 23.97 24.78 25.42 25.53 26.14 27.17 27.18 28.14
29.81 28.39 28.73 30.47 29.72 28.65 28.04 27.20 26.42 25.77 25.09 24.13 22.72 21.24 20.95 21.33 19.73 19.24 19.11 18.59 17.41 16.36 16.71 17.23 17.97 18.61 18.96 19.42 20.40 21.23 21.79 21.90 21.83 22.29 23.16 23.96 24.39 25.33 24.89 24.96 25.35 25.69 25.87
30.61 29.43 27.05 29.78 28.87 28.22 27.19 26.28 26.05 25.26 24.40 23.92 22.93 21.54 17.95 19.47 18.74 18.47 17.87 17.30 16.79 16.76 16.84 17.29 18.14 18.51 18.87 19.11 19.35 20.31 20.90 21.32 21.30 21.14 22.24 23.51 25.13 24.12 24.84 25.34 25.35 25.49 24.98
30.22 30.49 29.96 28.91 28.60 27.55 27.12 26.71 25.90 25.10 24.39 23.51 23.51 22.39 18.22 20.35 19.22 18.52 18.24 17.65 17.31 17.37 17.38 17.38 17.80 18.16 17.79 17.69 18.18 18.87 19.59 19.89 20.70 20.56 21.08 22.78 23.74 24.28 24.79 24.47 24.25 24.58 24.34
30.28 29.73 29.20 28.27 28.23 26.51 26.69 26.27 25.57 25.44 24.79 24.14 23.67 22.68 21.70 20.67 19.74 19.21 18.69 18.33 17.93 17.11 16.89 17.09 17.14 16.21 17.24 17.91 18.41 18.55 18.26 18.18 19.38 20.52 20.11 21.58 22.64 22.67 23.83 23.65 23.18 23.37 22.90
29.61 29.86 28.94 28.80 28.01 26.74 26.28 25.95 25.90 24.18 23.98 24.25 24.12 23.48 22.53 21.62 20.80 19.79 19.92 19.98 18.84 18.45 17.65 16.32 16.05 15.48 15.70 16.23 17.38 17.63 16.88 16.59 18.38 19.39 20.31 20.85 21.16 21.98 22.65 22.43 22.51 21.81 22.17
30.52 29.97 29.73 29.10 28.03 26.89 26.26 26.10 25.84 25.50 25.07 24.57 24.12 23.89 22.94 22.30 21.06 20.88 20.86 20.71 19.40 18.30 16.88 16.62 16.42 15.55 15.26 14.80 14.87 14.75 13.77 13.32 14.76 14.21 20.41 20.64 19.77 19.81 19.97 21.06 21.09 21.84 21.01
29.47 29.85 29.63 29.80 28.81 27.76 26.46 25.70 25.50 25.49 24.91 24.80 24.54 24.09 23.30 22.22 21.48 21.02 20.62 19.74 19.05 18.46 16.56 17.15 16.46 15.24 15.13 15.97 14.24 13.11 12.39 12.56 13.45 13.65 18.60 19.92 18.68 18.49 19.23 18.76 18.41 20.48 19.80

GFSGL_sfc_wetblb_003.txt.gz
Wetbulb
51.67 50.15 49.38 49.10 48.83 48.18 47.45 47.28 46.84 46.34 45.84 44.92 44.48 43.59 42.80 41.79 41.74 41.56 41.31 41.15 40.45 40.67 41.01 40.76 40.35 40.81 39.94 39.68 40.64 40.07 39.17 38.98 35.93 38.51 40.62 42.93 43.41 43.98 44.11 45.98 45.92 45.67 45.39
48.88 48.64 47.91 47.86 47.86 47.01 46.50 45.37 44.98 44.86 44.63 43.96 42.75 41.94 41.48 41.48 40.97 40.37 39.99 39.34 38.94 38.44 38.77 38.85 38.61 39.26 39.25 39.16 38.92 38.01 38.19 38.72 36.80 35.38 38.49 39.88 41.35 43.29 44.08 44.20 43.19 43.46 44.19
48.12 47.21 46.72 46.28 45.90 45.47 44.35 43.98 43.58 43.26 42.94 42.67 42.24 41.16 40.42 40.14 39.60 39.24 38.98 38.80 38.42 38.07 37.74 37.44 36.95 36.87 36.24 37.32 37.27 37.16 37.11 37.29 37.55 36.28 35.86 38.96 40.04 41.16 40.97 42.37 42.60 43.75 42.78
47.06 46.01 45.28 44.54 44.08 43.63 42.92 42.43 42.26 41.84 40.71 39.82 39.58 39.13 38.86 38.50 38.33 38.16 37.80 36.99 36.42 36.90 37.33 37.02 36.60 36.07 35.57 35.30 35.19 35.40 35.50 35.07 35.17 34.97 35.10 35.82 37.24 38.71 39.43 38.27 38.49 41.14 40.80
46.24 45.63 44.10 43.45 43.20 42.72 41.68 41.17 41.06 40.23 39.43 39.19 38.69 38.57 38.45 37.92 36.93 36.15 35.73 34.81 34.36 34.80 36.35 36.39 37.07 36.72 34.44 34.10 33.23 32.89 32.48 32.29 32.74 32.94 33.42 34.60 35.76 36.35 35.77 38.13 37.28 38.82 40.04
45.68 44.36 43.60 42.76 42.19 41.24 40.51 40.00 39.32 38.77 38.51 38.40 37.80 37.53 37.05 36.68 31.92 31.13 31.11 32.33 31.89 32.06 32.48 34.10 35.15 35.35 35.18 34.35 33.65 33.43 32.33 29.75 29.23 30.62 31.41 31.55 32.89 34.16 35.63 35.37 34.85 33.72 32.00
44.78 43.91 42.78 41.84 41.01 40.03 39.44 38.67 37.90 37.66 37.93 37.07 36.93 36.74 35.82 35.74 30.55 30.00 29.35 30.82 30.19 30.67 31.64 32.50 32.62 33.69 33.59 33.29 32.67 32.52 31.94 31.66 29.64 29.47 27.42 28.46 29.37 32.00 33.16 32.45 32.72 32.71 32.46
43.48 42.70 42.16 41.17 40.47 39.77 38.57 37.84 37.61 37.58 36.94 36.22 35.93 35.88 34.88 34.36 31.71 29.35 28.26 29.40 29.52 30.01 30.85 31.24 31.42 31.54 32.59 31.72 30.72 30.51 30.51 30.59 31.03 31.16 30.87 30.89 32.06 32.88 32.83 32.68 32.33 32.79 33.99
42.46 41.86 41.17 41.15 39.92 38.34 37.44 37.31 37.38 36.85 36.48 35.88 35.57 34.51 32.98 32.39 31.44 29.38 28.14 28.13 27.63 27.82 29.05 29.76 30.30 29.72 30.13 30.15 28.80 28.05 28.46 29.49 32.12 32.76 32.61 32.45 32.28 32.33 32.75 32.60 30.82 30.17 29.76
41.57 40.89 41.02 40.78 39.38 38.06 37.67 37.17 37.35 36.96 35.92 35.42 34.19 33.19 31.72 31.04 31.17 28.95 28.12 27.83 26.29 26.90 28.43 28.78 29.37 29.64 29.66 29.69 29.50 28.63 27.39 28.45 29.41 30.48 31.57 32.22 33.74 33.69 31.99 32.01 31.26 28.43 29.09
41.22 40.67 40.55 40.33 39.40 38.53 37.65 37.61 36.76 36.25 35.49 34.04 33.06 32.59 31.66 31.42 30.48 28.69 27.50 27.20 26.69 26.71 26.38 27.38 29.78 27.37 27.01 27.44 27.28 27.19 26.63 27.98 27.29 27.80 28.36 29.40 30.65 31.45 33.30 34.71 33.87 31.96 29.80
40.57 39.99 39.33 39.30 38.37 37.67 37.23 36.81 36.28 35.16 33.60 32.35 31.75 31.75 31.95 32.13 29.43 27.90 27.30 26.86 26.86 25.78 25.81 28.00 28.94 26.06 25.88 25.79 25.62 25.96 25.68 25.63 26.99 27.07 27.81 28.12 29.12 29.82 31.43 33.31 34.40 35.35 35.01
38.75 38.38 38.11 38.30 37.63 37.32 36.22 35.35 34.35 34.11 31.78 29.75 28.89 28.75 28.53 29.34 28.98 27.35 26.02 25.94 25.49 26.36 27.59 26.15 27.11 25.95 25.74 26.14 27.20 25.18 25.33 27.19 28.19 26.85 27.13 28.46 30.41 32.20 33.03 33.41 34.42 34.92 34.94
37.15 37.00 37.21 36.56 35.74 36.35 36.13 35.05 33.71 31.89 29.16 28.45 26.51 25.91 25.74 25.42 26.76 25.65 24.97 25.47 25.03 24.57 24.76 26.01 26.15 25.42 25.92 27.12 27.41 27.56 28.37 27.95 26.66 26.89 27.54 28.65 30.44 31.31 32.33 33.22 32.53 32.58 32.20
35.52 35.70 35.47 35.64 35.56 34.98 34.83 34.07 32.67 31.68 28.07 26.01 25.31 24.41 23.60 22.60 23.76 23.80 23.52 23.07 23.22 23.00 23.55 24.82 23.33 22.37 23.16 25.36 25.36 25.65 26.63 26.56 26.19 26.36 27.15 27.40 28.41 29.45 30.37 33.20 31.97 32.11 31.07
33.69 34.17 34.78 34.50 34.63 33.65 33.21 32.60 27.27 26.66 25.21 24.27 22.86 23.47 24.21 23.07 22.99 23.01 22.71 22.87 22.52 22.64 22.98 20.74 20.20 20.45 21.77 22.91 22.78 23.45 24.54 24.26 24.56 25.37 26.56 27.21 26.91 27.76 28.88 31.89 32.14 30.98 29.95
32.77 32.77 33.68 32.96 32.70 31.87 30.91 29.62 28.23 29.39 26.14 25.01 23.05 22.54 22.17 21.85 21.88 22.06 22.06 21.94 22.03 21.60 19.92 19.56 19.15 20.06 20.81 21.32 21.45 21.63 22.00 23.83 24.94 25.22 25.59 25.47 26.56 26.83 28.19 29.11 30.52 31.30 30.51
32.83 31.26 31.98 32.21 31.89 31.44 29.85 28.83 28.74 27.35 26.45 27.65 26.23 22.87 22.87 22.41 21.74 21.48 21.41 22.21 20.17 20.24 19.21 18.97 18.94 19.17 19.86 20.34 20.63 21.04 22.62 23.86 24.07 24.66 25.00 25.60 25.92 26.51 27.09 26.98 28.08 27.92 28.57
31.83 30.63 31.31 31.75 31.06 29.71 29.86 29.37 28.96 27.95 27.23 27.05 26.96 26.49 25.03 23.34 22.88 21.95 21.43 19.75 18.37 17.69 17.78 18.21 19.42 19.35 19.50 20.31 21.12 22.16 23.33 23.00 23.48 23.98 24.56 25.15 25.64 26.43 26.28 26.62 26.35 27.36 27.72
33.95 29.92 29.73 30.40 30.06 29.87 29.12 28.12 27.42 27.14 26.80 26.55 25.80 25.02 23.46 22.25 22.30 21.81 21.42 19.78 18.61 17.97 17.85 18.11 18.89 19.58 19.71 19.85 20.62 21.70 22.68 22.70 22.14 22.13 23.36 25.24 26.37 26.38 25.43 25.79 26.10 25.64 25.91
33.04 31.24 29.67 29.66 29.77 28.60 28.32 27.93 27.38 26.80 26.22 25.95 26.26 24.52 19.95 20.43 21.61 21.37 20.28 19.69 18.40 18.09 17.96 18.26 19.02 19.23 19.48 19.54 19.39 20.03 20.78 21.43 21.41 21.34 21.83 23.78 25.15 24.96 25.84 25.89 26.00 26.14 25.46
30.47 30.60 30.02 29.74 29.20 29.17 28.01 27.51 27.61 26.62 26.57 25.84 25.94 25.77 21.49 23.73 22.69 21.32 20.84 20.45 19.97 19.29 18.84 18.64 18.77 18.44 18.37 18.25 18.37 18.76 19.00 19.05 19.57 20.34 20.82 22.73 24.09 24.16 25.16 24.97 24.75 24.90 24.61
30.81 29.99 29.78 30.00 29.84 27.88 28.52 28.19 27.56 27.61 26.87 26.64 26.30 25.13 25.14 24.02 22.68 21.89 21.45 21.41 20.94 19.84 19.58 18.49 18.15 17.21 17.97 18.27 19.04 18.38 16.88 16.02 16.84 19.19 19.32 21.33 22.17 22.79 23.86 23.79 23.70 22.78 23.04
30.86 30.51 29.32 30.15 30.19 28.48 28.03 27.95 27.53 26.96 27.01 26.51 26.81 26.32 25.39 24.35 23.59 22.72 22.61 22.64 21.58 21.15 19.97 18.75 17.96 16.90 16.70 17.21 18.11 17.83 17.08 15.65 16.21 16.39 17.87 21.02 20.58 20.80 21.96 21.84 22.38 22.35 21.94
32.04 31.32 30.38 30.03 30.09 29.45 28.42 27.74 27.38 27.59 27.99 27.36 27.08 26.58 25.87 25.03 23.92 23.58 23.54 22.81 21.77 20.97 19.54 18.48 18.40 17.41 16.85 16.53 15.79 14.96 13.85 13.35 14.52 14.55 18.30 20.81 19.55 19.55 20.19 20.26 19.57 21.91 20.87
30.68 30.26 30.56 30.71 30.25 30.16 29.35 27.47 27.03 27.30 27.16 26.98 27.16 27.16 26.21 24.86 24.43 23.77 23.23 21.99 21.07 20.30 19.63 18.83 18.43 17.13 17.03 17.98 16.11 14.53 13.11 12.49 12.95 13.02 17.47 18.41 17.43 17.70 16.98 18.71 17.69 19.48 19.13

GFSGL_sfc_wetblb_006.txt.gz
Wetbulb
49.43 48.25 47.94 47.55 47.18 46.69 45.72 44.31 43.60 43.32 42.87 41.99 42.30 42.07 41.51 40.91 40.91 40.63 39.50 39.50 38.31 37.21 38.04 38.62 38.40 38.74 38.11 38.22 37.98 37.16 35.69 35.03 32.27 34.38 37.06 38.14 38.34 39.87 41.03 41.32 43.08 42.33 41.85
48.46 47.84 46.54 46.55 45.47 44.40 44.06 42.73 42.36 41.48 42.17 41.27 40.95 40.21 40.08 39.58 39.55 38.82 38.49 38.53 37.71 36.64 36.67 36.40 36.63 38.13 36.08 35.88 36.04 35.23 34.88 34.94 32.63 30.72 33.00 35.01 34.30 36.12 37.55 38.78 41.61 42.67 41.58
48.21 46.87 46.00 44.62 43.33 42.46 42.27 42.10 41.81 40.87 40.65 39.90 38.54 37.38 36.96 36.76 36.20 35.70 35.40 35.69 34.24 33.18 33.40 33.45 34.00 34.10 32.52 32.61 33.23 32.91 33.66 34.97 33.41 31.68 30.53 32.35 33.22 34.22 34.67 36.33 37.40 37.86 40.99
47.22 46.13 44.64 43.44 42.12 41.24 41.34 40.40 39.94 39.73 38.31 37.46 37.36 37.21 37.01 36.51 36.35 35.19 34.70 33.16 32.35 32.21 32.18 31.73 32.11 32.79 32.95 32.79 32.59 31.11 31.86 29.47 29.80 29.39 29.26 30.09 30.88 32.83 33.26 32.08 31.98 34.10 34.65
45.84 44.98 44.37 43.63 42.38 41.85 40.66 39.82 39.44 38.61 37.86 37.16 36.57 36.18 36.20 35.97 33.55 31.83 31.40 30.36 29.81 29.68 29.94 30.85 31.52 33.38 35.43 33.65 32.56 30.33 28.97 27.41 26.98 27.39 27.15 28.44 29.45 29.99 30.11 33.16 32.41 32.81 33.70
45.23 44.15 44.82 43.78 42.26 41.00 40.25 39.57 38.27 37.38 36.75 36.04 35.40 35.17 34.32 35.66 31.90 31.07 29.68 27.53 28.83 28.12 26.80 28.09 29.52 32.33 32.54 34.24 34.20 33.76 31.38 26.80 25.94 25.68 25.50 25.01 26.17 28.02 29.71 29.07 28.27 27.22 25.96
44.22 44.31 43.97 41.56 40.44 40.71 40.00 39.05 37.23 35.53 35.40 34.91 34.53 34.54 33.37 32.88 32.37 31.24 29.62 27.49 26.67 26.09 26.00 26.68 27.93 30.96 31.02 30.92 31.54 31.63 31.55 32.62 29.56 27.67 25.63 25.78 25.42 26.73 27.72 26.77 25.97 26.11 26.14
42.57 43.20 42.40 41.63 40.60 40.27 39.14 38.14 36.93 35.57 34.44 33.79 33.75 33.37 32.05 32.46 32.83 32.40 29.89 26.18 25.46 25.31 25.75 25.76 26.06 26.77 28.64 29.55 28.60 27.21 27.39 28.31 29.34 29.60 28.53 28.19 28.98 29.28 29.11 29.52 28.97 29.40 28.30
41.04 41.04 40.76 40.59 39.64 38.75 37.64 36.99 35.70 34.45 33.80 33.29 33.52 32.10 30.40 30.06 32.65 31.69 29.61 25.52 25.42 24.70 25.80 26.61 27.30 26.61 28.72 30.04 27.19 25.89 25.91 27.10 31.22 32.46 32.79 32.72 32.85 33.01 32.58 29.56 26.80 26.75 25.45
40.17 40.24 39.63 39.64 39.05 38.04 37.45 36.23 34.93 34.28 33.79 32.82 31.53 30.82 31.74 29.20 32.07 31.14 28.53 25.15 22.83 24.07 25.53 26.21 27.64 28.10 27.90 28.29 27.24 26.98 25.90 27.29 27.67 28.05 27.12 27.98 29.73 31.20 32.74 31.53 29.05 24.89 24.14
40.66 40.13 39.68 39.08 38.02 38.02 36.84 35.47 33.77 32.67 31.54 30.63 29.73 29.72 29.58 29.97 28.65 29.46 28.20 25.22 23.92 23.69 23.31 23.68 25.87 28.87 27.94 27.02 26.72 25.18 25.06 26.08 25.61 25.26 25.10 25.63 26.82 27.82 29.01 30.38 31.68 29.64 25.73
40.05 39.07 38.40 38.18 37.96 37.37 34.92 33.39 32.87 31.22 29.90 28.37 26.00 27.05 27.69 27.12 28.90 28.06 26.98 25.91 25.34 23.35 23.10 25.28 25.01 27.33 26.78 26.56 26.05 26.49 26.94 25.75 23.72 23.45 24.37 25.30 26.40 27.32 29.55 29.93 30.53 32.28 32.63
38.22 37.03 37.03 36.82 36.76 35.97 32.60 31.38 30.42 29.97 27.47 26.50 25.87 24.11 24.32 25.44 24.99 26.05 24.91 24.63 24.37 23.48 23.97 24.64 26.07 26.38 25.90 26.00 27.15 27.07 25.70 24.54 25.15 24.75 24.73 26.24 27.96 29.09 30.00 29.50 30.96 31.57 31.82
35.86 35.26 35.43 34.48 33.76 33.82 33.65 31.95 29.94 28.02 26.40 26.17 24.08 22.31 21.85 22.34 21.77 21.81 22.52 22.61 23.31 22.96 22.61 23.01 24.84 24.51 24.21 25.34 26.28 26.32 26.36 26.46 24.72 25.23 25.03 26.68 28.53 28.39 29.08 30.26 31.13 30.27 28.99
34.84 34.21 32.77 32.35 32.58 32.27 32.49 29.25 29.03 27.43 25.87 23.81 22.82 21.67 18.48 17.36 20.09 22.62 22.27 21.87 22.09 22.37 21.76 22.74 21.35 20.51 21.00 22.98 22.80 23.86 24.66 24.23 24.03 24.02 24.80 25.82 26.72 27.19 27.35 27.76 29.65 27.50 26.92
31.76 31.49 31.71 31.09 31.14 30.73 30.25 29.42 28.72 27.17 26.69 25.72 23.98 21.13 19.69 22.61 23.64 23.53 23.34 23.52 23.88 23.25 21.38 19.33 18.34 19.08 19.33 20.56 20.82 21.20 22.17 22.76 22.76 23.81 23.57 24.88 25.08 25.08 25.70 27.28 30.56 26.47 23.25
30.80 30.63 30.70 29.85 30.84 29.48 28.70 28.07 25.87 28.53 28.05 27.01 25.35 24.67 24.50 23.01 24.04 23.72 23.16 23.05 23.74 22.19 18.69 18.38 18.34 17.67 18.06 19.21 19.47 19.99 20.23 22.55 23.38 23.09 23.75 23.47 24.43 24.38 25.60 25.76 26.68 26.14 26.18
31.16 29.72 30.75 31.50 30.40 29.25 27.68 28.10 28.02 26.64 24.28 24.97 27.06 25.52 23.81 24.57 24.64 23.84 23.08 21.70 18.72 19.13 18.13 17.42 17.06 17.70 17.97 18.16 18.60 19.35 20.31 21.28 21.03 21.43 22.62 23.54 21.91 23.94 25.24 23.48 24.58 25.73 26.04
31.46 29.94 29.13 30.55 29.97 29.19 28.80 28.67 28.22 27.49 25.77 24.98 24.32 24.28 21.31 23.63 24.39 24.08 23.27 15.91 15.14 16.07 16.62 16.84 17.26 17.81 17.83 18.24 18.22 18.71 19.92 20.94 19.89 19.99 20.49 22.34 23.68 24.20 23.56 24.21 23.99 21.35 22.62
31.92 28.40 26.57 29.43 29.82 29.42 28.81 27.66 26.78 26.62 26.14 24.76 23.41 21.53 19.10 17.10 16.93 17.00 17.66 13.96 12.08 15.49 16.31 16.64 17.54 17.87 17.60 17.44 17.29 17.71 18.21 18.48 18.80 18.63 18.43 19.84 22.24 23.76 23.49 23.20 23.90 23.21 23.79
31.05 30.15 28.76 29.01 28.72 29.06 27.98 27.17 27.34 26.43 25.55 25.43 23.44 19.39 14.27 14.97 17.81 15.60 15.60 15.16 12.31 12.78 13.66 16.04 16.71 16.61 16.59 16.51 16.94 16.02 16.13 15.77 15.99 16.50 16.70 18.11 20.74 20.73 22.64 23.85 23.24 23.14 22.72
28.90 28.69 29.98 29.68 29.45 28.75 28.46 27.34 26.84 26.64 26.12 25.39 24.18 22.96 16.72 16.85 18.05 15.84 18.57 16.07 14.55 12.54 14.11 14.34 15.72 15.70 15.79 15.44 16.12 14.79 13.77 12.15 12.31 13.62 14.08 15.59 18.59 18.98 20.53 21.99 19.70 17.00 21.50
28.82 29.69 29.24 29.06 29.46 28.71 27.70 27.58 27.49 27.41 27.07 25.70 24.76 24.39 24.06 23.03 17.03 16.09 15.34 17.00 18.28 15.35 12.79 12.90 13.54 14.57 14.33 14.29 15.64 15.26 13.70 11.86 12.01 12.89 11.89 12.78 17.36 17.00 18.10 17.62 18.83 15.33 13.78
30.16 30.33 29.08 28.78 29.38 28.99 27.27 27.72 28.24 26.71 26.53 26.29 26.29 25.82 24.64 23.93 17.99 16.92 15.36 16.01 14.50 15.96 13.64 10.73 12.93 14.51 13.92 13.03 13.31 13.12 13.62 11.92 12.40 12.69 11.79 13.98 15.98 15.58 15.99 16.00 12.65 16.41 9.87
29.73 30.39 29.74 29.23 29.18 29.25 29.05 28.29 27.70 27.45 27.25 27.70 26.77 26.57 24.48 24.23 20.54 18.28 16.40 15.39 13.84 12.55 12.18 9.79 11.82 14.44 13.45 13.23 12.84 12.12 10.49 11.58 10.34 10.61 11.93 14.16 13.20 12.21 12.88 15.01 12.23 15.32 9.53
29.48 29.65 28.49 29.73 29.32 29.47 29.14 28.76 27.72 26.90 26.79 27.04 27.10 26.76 26.34 24.03 20.05 20.09 17.15 14.98 13.57 12.37 11.17 11.02 10.85 12.97 14.29 14.29 12.76 13.33 11.41 10.93 9.89 10.16 11.12 14.01 12.25 11.93 10.88 11.61 11.19 12.61 10.96

GFSGL_sfc_wetblb_012.txt.gz
Wetbulb
43.63 43.43 42.77 41.61 40.89 40.52 39.55 38.64 38.60 38.26 37.71 38.12 38.28 37.30 35.44 34.59 34.10 33.19 33.39 34.39 32.26 30.63 30.19 29.99 29.92 30.06 29.08 29.53 30.38 31.35 32.43 33.77 30.75 31.67 32.77 31.78 31.04 31.64 33.11 34.54 37.15 41.67 42.43
43.84 43.26 42.52 41.38 40.29 38.63 38.90 39.24 37.40 37.07 37.69 37.17 37.89 34.93 33.77 32.93 32.42 31.63 31.24 31.08 29.84 29.06 28.88 28.43 28.17 29.99 27.14 27.46 27.83 27.99 28.74 30.04 29.18 26.39 28.08 29.35 29.28 30.90 31.58 30.74 34.64 37.49 39.34
42.36 42.02 41.49 41.66 40.29 37.67 37.54 37.30 38.66 37.09 37.35 38.10 34.80 33.97 33.28 32.89 32.14 31.01 30.05 29.29 28.00 27.67 27.52 27.23 26.89 26.78 25.64 25.95 26.32 27.08 27.65 30.01 28.93 26.69 26.01 27.81 28.43 29.58 29.96 31.05 31.40 32.18 36.00
39.26 39.99 39.68 39.42 39.65 36.89 37.36 37.89 38.53 38.79 39.30 37.97 34.71 34.04 34.37 32.51 31.35 30.15 29.16 27.24 26.83 27.10 27.70 27.13 26.23 25.42 24.49 24.88 26.07 26.38 27.79 26.78 26.94 25.33 24.90 25.42 25.77 28.05 29.01 28.16 26.48 28.41 28.91
36.70 36.46 38.57 38.97 38.94 38.62 39.12 38.53 38.48 38.97 38.99 35.74 33.72 33.58 32.36 31.10 30.76 28.23 28.13 27.04 26.10 25.78 26.24 26.35 25.69 26.56 28.68 27.80 27.78 26.32 28.48 26.95 26.48 25.37 24.86 23.87 23.54 23.44 24.08 26.50 24.88 25.09 26.01
35.98 38.06 39.29 39.24 38.99 38.71 38.58 39.00 37.83 37.73 34.37 34.74 32.69 31.60 29.70 31.46 32.01 31.64 30.03 26.05 26.14 25.33 23.82 24.82 24.67 26.46 26.59 28.08 28.55 29.31 29.00 27.57 26.46 26.59 25.20 23.38 22.09 22.60 23.89 23.36 22.83 21.82 22.03
36.48 37.91 37.94 38.91 37.54 37.22 38.10 37.91 36.88 35.57 35.56 30.61 29.55 29.22 28.60 28.12 32.54 33.27 31.22 27.51 25.69 24.22 23.67 23.58 24.22 25.93 26.16 25.66 27.16 28.35 28.06 29.06 27.80 27.60 26.08 24.11 23.12 23.89 24.15 22.87 22.10 22.41 22.54
35.92 36.36 36.45 36.62 35.81 36.32 36.15 35.58 35.63 35.32 30.85 28.79 28.78 28.32 27.43 29.09 31.86 31.22 30.29 25.69 24.24 24.56 24.38 24.12 23.45 23.74 24.86 25.23 25.53 26.82 26.49 26.89 26.78 26.87 25.65 26.05 26.09 26.11 25.80 26.07 25.10 24.76 27.08
35.44 35.28 35.80 35.76 35.40 35.09 34.80 33.92 33.93 30.94 28.87 29.07 28.83 27.58 26.57 26.13 29.22 29.23 27.09 23.06 23.46 22.55 24.16 24.21 24.45 24.19 26.20 28.07 25.79 24.54 24.10 25.03 27.67 29.67 30.52 30.29 30.81 31.36 30.54 28.89 26.70 25.70 23.97
35.62 35.64 35.90 35.82 35.26 34.28 33.51 32.91 30.38 28.77 29.57 28.69 27.15 26.05 27.12 23.62 26.92 27.60 26.30 22.45 17.88 21.57 22.21 23.33 24.60 24.41 26.31 27.80 26.47 24.87 22.33 22.79 23.43 23.87 24.50 25.59 26.40 26.24 27.94 26.91 24.77 23.19 23.06
35.64 35.66 35.06 33.95 32.83 32.60 30.88 29.99 28.74 28.57 27.35 24.12 23.37 24.14 24.42 24.42 23.04 25.78 25.54 22.46 21.48 21.49 20.76 21.42 22.80 25.58 26.21 26.47 27.30 25.32 24.61 26.51 25.28 25.44 23.35 22.95 23.62 24.61 25.53 26.10 26.35 25.38 23.50
34.29 33.63 32.44 31.92 31.97 31.54 27.99 27.54 27.47 25.47 24.32 22.28 11.45 16.98 20.41 21.34 24.14 24.12 24.66 24.29 24.21 20.65 20.40 22.10 23.51 25.15 25.96 26.14 25.86 26.72 26.67 25.85 25.33 23.01 22.70 22.81 23.50 24.75 27.17 28.67 29.03 29.10 27.88
32.68 31.17 30.29 30.69 30.86 29.72 26.42 25.14 24.75 24.00 20.54 20.87 22.35 15.04 18.87 21.43 19.16 23.47 23.73 24.28 24.01 21.61 21.96 23.35 23.36 23.86 24.28 24.61 24.85 25.38 24.61 23.44 22.85 21.99 22.61 23.82 25.58 27.39 29.03 29.08 29.87 30.47 30.82
30.79 29.90 29.56 28.99 28.79 28.30 26.81 26.62 24.35 19.73 18.40 23.01 20.05 17.66 15.27 17.44 16.94 18.27 20.29 17.16 22.66 22.19 21.21 21.58 21.19 22.22 21.63 22.33 22.33 23.21 22.81 22.83 22.17 21.62 22.29 24.17 26.02 26.28 26.38 27.95 26.43 26.59 28.61
30.74 29.99 28.52 27.27 27.12 27.34 25.64 24.89 24.84 23.32 21.96 19.61 18.51 17.19 6.11 5.60 15.47 24.54 23.06 20.89 21.48 19.22 15.26 17.68 18.37 17.53 17.57 18.20 18.71 19.93 20.77 22.09 21.18 21.89 21.97 22.53 23.91 25.06 25.51 26.60 27.36 27.19 24.68
29.94 28.92 27.59 25.33 23.87 25.81 25.96 26.24 28.62 27.78 27.19 28.16 26.24 15.96 12.63 20.37 24.68 25.58 24.65 23.08 22.19 21.25 14.21 13.67 13.86 14.39 14.76 16.49 15.75 16.48 18.23 20.19 20.40 20.57 20.36 21.04 21.76 22.79 23.93 24.41 24.16 20.89 22.59
30.19 29.27 27.72 26.15 24.71 22.85 21.87 22.58 17.17 23.62 28.62 28.70 29.08 26.95 26.03 24.23 25.53 24.92 24.16 21.97 21.00 18.57 9.02 9.92 9.83 13.24 14.41 16.05 15.46 16.05 15.58 17.38 19.14 18.62 18.54 18.94 19.66 21.79 22.02 20.08 18.51 17.82 20.11
30.11 28.84 26.42 27.54 23.16 23.34 16.34 22.15 25.50 17.38 13.90 16.25 23.66 27.28 26.38 24.64 24.57 23.99 22.98 19.10 10.55 11.86 9.72 8.01 11.75 14.05 14.40 15.23 14.76 14.34 14.89 14.11 13.46 15.20 15.83 16.45 16.84 19.59 18.78 19.50 18.96 15.72 19.43
31.62 29.56 23.43 20.36 20.35 20.93 17.78 20.76 23.46 22.54 20.73 18.81 15.81 18.91 18.49 23.13 23.21 23.14 21.62 7.08 5.37 6.43 8.45 9.58 7.34 14.10 13.25 13.66 11.92 11.64 9.10 10.36 10.18 10.48 12.68 13.88 14.68 17.18 17.28 19.07 17.79 13.87 13.86
31.11 27.60 20.51 19.71 22.94 24.15 19.80 19.56 23.82 23.16 21.64 21.52 17.21 13.00 12.03 11.41 4.76 1.96 -0.74 -2.90 -2.01 4.32 3.33 7.57 7.97 9.31 7.49 9.94 9.65 8.59 8.73 6.95 8.00 8.89 9.22 9.97 11.55 14.76 15.96 17.08 16.35 16.61 14.62
29.32 27.45 26.43 26.06 25.84 25.35 20.69 21.47 21.63 22.67 22.56 18.84 16.50 10.73 10.66 9.91 6.66 4.73 4.99 1.45 2.09 2.95 1.15 4.69 2.40 0.88 3.54 5.47 11.58 8.23 7.29 2.09 6.78 7.62 8.01 8.86 8.95 10.49 14.33 14.77 14.00 12.93 13.74
27.30 26.37 25.22 26.13 23.93 17.50 21.51 24.71 21.55 19.92 18.00 21.73 20.11 17.34 10.80 3.49 5.23 9.92 11.99 6.86 5.63 5.23 4.99 3.42 3.97 4.33 4.55 6.26 6.00 3.51 6.19 3.99 4.89 6.28 5.96 7.44 8.96 11.31 10.64 9.00 6.67 5.88 7.76
22.27 16.70 17.37 19.23 20.47 16.34 13.41 17.57 21.95 20.34 20.82 21.27 21.43 16.01 10.61 10.67 11.60 12.12 11.71 9.38 4.21 4.80 2.28 1.53 -1.34 2.17 1.12 0.57 0.79 5.22 6.34 8.01 7.23 5.69 5.06 4.76 7.43 8.39 4.90 3.43 3.75 5.46 3.47
18.82 15.11 17.23 17.79 11.31 11.83 9.06 15.76 25.39 21.29 23.47 21.05 13.80 11.40 14.41 16.30 10.45 9.52 9.11 7.27 0.87 2.30 -3.27 -0.23 2.70 4.87 3.74 0.56 -0.46 2.72 7.52 6.49 7.92 8.39 6.48 5.72 6.98 8.23 3.81 5.04 3.49 2.53 0.92
17.77 15.98 15.54 17.24 16.71 15.24 11.69 13.54 18.86 26.00 23.59 20.59 14.95 8.34 12.41 10.13 11.52 9.55 9.91 5.56 5.88 2.33 4.89 0.51 1.27 2.98 3.89 3.56 4.34 6.32 4.34 7.64 7.65 8.06 7.49 7.79 7.03 6.67 5.17 5.53 2.54 3.21 -0.15
27.84 26.79 22.48 21.11 19.71 16.68 15.42 15.61 18.03 22.54 19.43 23.75 22.74 18.79 13.74 12.14 12.24 9.50 10.14 3.37 5.22 5.87 3.22 -0.45 1.96 4.59 3.30 4.50 6.43 7.56 5.69 7.52 7.99 8.27 7.42 9.21 6.33 5.31 4.77 4.10 4.45 3.74 3.90

GFSGL_sfc_wetblb_015.txt.gz
Wetbulb
42.54 42.03 41.50 41.24 40.50 39.80 38.80 37.94 38.26 38.17 37.11 37.98 39.14 38.54 37.18 34.89 33.20 32.35 32.37 32.34 31.26 29.30 28.54 28.52 28.26 28.47 27.12 26.84 27.25 27.36 27.48 27.95 26.09 28.03 31.23 31.86 31.39 31.27 31.94 32.43 33.70 33.62 37.85
40.05 40.29 40.50 40.41 39.60 38.27 37.03 37.21 36.89 38.20 38.11 36.78 37.26 37.64 34.64 33.95 32.29 31.97 30.55 30.54 28.75 27.48 27.55 27.11 26.98 28.92 25.72 25.41 25.41 24.95 25.42 26.64 26.38 24.39 26.97 27.78 28.29 30.56 30.27 29.42 33.34 35.30 32.78
37.51 37.13 37.26 38.01 38.19 38.19 36.34 36.46 36.73 35.87 35.36 36.56 36.95 35.22 33.11 33.16 32.87 31.28 29.44 28.31 27.54 27.27 27.08 26.54 26.39 25.72 24.04 23.55 23.86 24.06 24.93 27.18 26.30 25.53 25.54 26.63 26.78 27.46 27.25 29.01 30.07 29.66 32.37
35.49 35.74 36.91 37.52 37.71 36.49 36.21 35.62 35.58 35.96 36.66 36.07 37.13 34.48 33.50 33.59 31.32 29.29 28.39 27.92 26.95 27.11 27.29 26.78 25.95 25.25 23.44 23.15 23.88 23.83 26.59 26.42 27.03 27.20 25.88 25.37 26.49 26.53 26.17 25.55 25.24 26.80 26.08
35.11 35.80 37.00 37.83 37.53 37.40 37.17 37.05 36.75 37.36 37.27 37.86 33.97 33.91 32.26 30.80 29.87 28.17 28.53 27.37 26.41 25.79 26.54 26.42 26.18 26.79 29.07 27.22 25.42 24.40 23.88 24.17 26.57 26.10 26.02 26.41 25.59 23.15 22.88 24.44 23.91 23.72 24.44
34.36 36.08 37.27 37.71 37.69 37.22 37.09 37.06 37.01 36.91 36.01 33.28 34.48 30.07 28.65 30.74 32.41 32.68 32.14 27.52 27.22 26.19 24.83 25.20 25.03 26.38 26.17 27.25 27.45 27.75 26.88 24.89 24.33 24.69 24.06 25.02 24.92 22.83 22.97 23.00 22.53 21.19 20.30
34.05 36.47 36.27 36.49 36.44 35.14 35.91 35.98 35.07 33.53 35.94 31.38 28.13 28.31 27.78 28.33 32.32 32.29 31.17 28.02 25.83 24.57 23.93 23.48 23.73 25.08 25.21 24.66 25.99 26.95 27.10 27.93 27.16 25.73 24.06 23.90 24.96 25.47 23.79 22.72 21.73 21.71 21.47
33.54 34.90 35.28 34.93 34.66 34.68 34.41 34.22 33.12 32.75 30.87 27.65 27.72 28.07 27.40 28.38 29.63 29.70 28.09 23.96 22.69 23.29 22.66 22.61 22.58 22.99 24.65 25.06 25.60 25.10 25.54 25.82 26.38 27.04 26.63 25.40 25.48 26.34 25.66 25.36 24.28 23.85 24.47
34.09 34.02 34.54 34.59 34.37 33.73 32.99 32.41 31.98 30.37 28.34 27.90 28.27 27.05 24.42 23.65 27.46 27.92 26.21 22.69 22.40 21.77 22.95 22.68 23.45 23.27 25.04 27.91 26.02 25.02 25.03 25.28 27.40 27.92 27.94 28.93 29.73 30.40 30.35 26.86 25.59 24.76 23.16
33.90 34.23 34.57 34.36 32.88 31.52 30.56 30.74 28.85 28.94 29.22 28.04 26.12 25.27 26.01 22.61 25.39 25.94 25.00 20.37 15.83 21.11 21.71 22.34 23.83 24.35 26.23 26.57 25.59 24.05 22.12 23.43 24.46 24.15 23.70 25.37 26.26 25.72 27.18 25.75 22.84 22.07 22.19
33.97 33.87 33.32 31.96 30.82 30.35 28.55 27.87 27.82 27.43 26.36 24.27 23.44 23.81 23.89 23.53 22.27 25.49 25.25 19.65 20.32 21.71 20.92 20.75 22.70 25.00 26.03 26.30 26.04 25.36 24.55 26.08 25.94 25.48 25.09 23.56 23.59 24.01 24.73 25.35 25.11 23.62 21.93
32.90 32.55 31.32 30.27 30.43 29.81 26.96 26.94 26.88 25.17 24.21 22.12 10.15 16.39 20.65 21.20 23.60 24.17 25.25 24.86 24.42 21.10 20.15 21.35 22.30 24.17 24.98 24.69 24.67 25.87 25.36 24.53 23.56 23.20 23.52 23.64 24.14 24.83 26.80 27.83 28.19 27.83 26.83
31.46 31.01 29.79 29.91 29.22 28.19 25.82 24.85 24.28 23.50 20.17 20.27 22.06 15.11 18.60 21.62 19.05 23.29 24.67 24.47 24.07 17.73 19.82 22.05 22.67 22.64 22.44 22.36 23.25 24.02 22.92 22.13 21.57 20.17 21.36 22.69 24.66 26.64 28.44 28.52 29.06 29.62 30.04
30.34 31.10 30.55 29.28 28.93 28.07 26.75 26.37 24.22 20.14 18.84 22.17 19.71 17.98 15.48 16.75 16.52 17.51 21.32 16.52 21.85 19.50 17.69 17.31 18.43 20.59 18.63 19.14 19.24 20.60 20.90 21.68 21.18 20.82 21.16 23.27 25.11 25.77 26.00 27.55 26.80 27.20 26.73
30.73 31.36 29.86 29.60 27.71 27.33 25.50 24.96 25.83 24.71 23.54 20.09 18.58 17.18 5.13 5.68 15.17 23.99 22.34 18.48 13.11 17.05 10.33 9.89 13.17 14.97 15.00 16.79 16.49 17.16 18.19 19.25 18.63 19.56 19.72 20.24 22.21 23.94 25.04 26.59 26.97 27.01 23.39
31.19 31.15 30.43 29.34 27.01 26.40 25.02 25.42 28.86 27.93 27.62 28.76 28.27 16.13 12.24 20.45 24.69 25.84 24.74 22.96 22.07 20.05 11.35 5.06 2.92 7.01 12.39 15.08 14.21 14.17 15.06 15.16 16.42 17.78 17.78 18.64 19.02 21.10 22.79 24.18 24.32 22.62 23.05
30.39 30.88 28.58 29.09 27.26 24.28 23.26 23.16 18.88 23.58 27.82 28.52 28.82 27.94 26.60 24.81 25.48 24.84 23.67 21.79 20.62 17.22 5.85 3.42 -0.87 2.75 9.04 14.41 13.95 13.97 12.78 12.60 13.99 14.99 15.33 15.52 16.77 19.01 20.30 20.78 20.88 21.19 21.94
30.67 29.50 29.75 27.88 28.23 27.62 25.19 20.39 18.40 18.69 13.65 14.81 23.13 26.61 27.93 26.02 24.81 24.02 23.11 18.74 9.85 10.67 7.83 4.34 2.57 4.57 7.09 12.92 13.76 12.37 11.67 9.86 9.25 9.86 12.37 12.76 13.30 15.84 17.38 18.61 19.37 16.13 17.49
30.98 30.23 28.69 27.16 23.87 22.83 21.71 16.74 19.72 21.41 20.70 15.29 13.97 17.95 17.99 25.29 23.76 23.06 21.19 7.32 5.21 5.41 7.22 7.98 2.68 6.20 5.98 7.35 4.74 8.07 5.41 6.10 4.17 4.35 7.83 10.60 11.21 13.12 14.99 16.86 16.21 15.89 15.26
31.67 30.32 27.16 25.43 23.91 24.69 24.18 21.31 21.65 20.80 20.84 18.55 13.71 12.03 9.97 10.27 5.27 1.96 -0.51 -3.23 -3.77 4.03 3.68 7.21 7.85 6.07 2.00 1.98 -2.14 -1.41 5.70 5.42 6.65 6.46 4.49 4.78 6.55 10.10 12.84 14.09 14.83 10.14 11.97
31.70 29.98 27.03 26.22 23.42 22.11 19.73 19.42 22.21 20.12 23.25 21.58 14.62 9.30 12.31 11.52 9.68 5.04 6.39 3.84 5.28 5.35 3.31 5.40 3.12 -0.94 0.02 -0.73 4.07 -1.05 -0.33 -0.90 5.77 5.58 5.54 6.11 4.45 5.81 10.53 10.10 10.15 11.15 12.51
30.28 28.76 27.32 26.38 25.50 17.65 18.33 22.21 23.19 20.50 20.39 16.13 18.65 13.65 11.08 3.30 6.94 8.42 8.27 8.86 7.27 7.02 6.85 4.36 5.04 5.02 4.35 5.07 2.40 -4.68 -2.71 -3.77 1.69 4.88 4.34 5.23 6.55 7.29 7.37 6.32 5.08 4.06 7.52
29.60 28.17 23.92 20.32 18.71 15.59 12.17 17.60 18.84 19.60 20.80 18.01 19.35 16.97 8.55 9.62 13.81 11.44 10.50 10.09 5.88 4.37 5.09 2.85 1.03 3.43 0.63 -2.19 -3.95 1.01 -0.03 -0.08 0.47 3.75 5.31 4.79 6.91 6.92 3.19 1.93 3.54 4.01 3.47
28.84 25.09 21.24 18.02 9.53 12.54 10.16 14.36 15.06 16.87 22.03 23.56 22.62 14.50 12.61 11.91 11.21 10.33 9.52 8.19 2.99 2.03 -1.26 2.18 4.21 5.50 3.92 -1.64 -4.51 -2.16 3.33 -0.57 -0.37 2.10 3.70 5.72 6.76 8.24 5.96 5.93 3.65 1.32 0.06
28.63 24.94 19.33 19.06 22.08 21.21 16.43 14.85 15.64 16.65 22.30 24.72 21.68 17.84 16.74 12.58 10.19 10.54 10.13 7.54 5.50 0.53 4.33 3.23 3.04 4.86 5.00 3.78 1.86 3.04 0.99 3.61 -0.14 0.40 1.15 6.03 5.08 4.49 5.35 6.47 3.61 5.37 1.99
30.24 27.42 27.00 27.12 24.67 23.56 21.53 20.84 21.50 20.12 21.68 22.18 22.26 22.61 19.17 16.05 15.10 13.25 10.55 6.14 5.83 5.28 5.40 1.40 2.39 4.87 4.16 3.14 3.60 4.01 1.88 2.54 -0.35 1.04 -0.20 4.22 6.00 5.74 4.13 4.31 4.81 4.50 5.67

GFSGL_sfc_wetblb_018.txt.gz
Wetbulb
39.33 39.58 39.17 38.62 38.28 37.89 37.70 37.16 37.00 37.04 37.28 37.00 36.86 36.79 37.42 36.67 33.94 32.66 31.58 31.76 31.70 29.79 28.83 28.46 28.10 28.07 27.26 27.14 27.07 26.31 25.47 25.77 22.46 24.97 28.28 30.72 30.94 32.01 33.92 34.26 34.56 35.70 35.65
37.66 37.46 36.87 37.26 37.64 37.69 36.42 36.47 36.43 36.30 36.64 36.16 36.40 37.73 37.36 34.36 32.20 30.66 31.06 30.63 29.01 27.74 27.71 27.38 27.17 28.70 26.20 25.61 25.20 24.22 24.12 24.64 23.74 22.23 25.84 27.21 28.34 30.83 30.77 30.79 32.66 34.93 33.20
35.74 35.42 35.68 36.15 36.38 36.07 35.67 35.88 35.78 35.04 34.63 35.64 37.84 36.11 35.50 33.12 31.67 31.96 29.57 28.59 27.49 27.39 27.10 26.58 26.36 26.39 24.83 24.52 23.87 23.39 24.07 25.33 25.14 25.45 25.20 27.62 28.27 29.14 29.30 29.31 29.97 31.28 32.08
34.61 34.06 34.87 35.70 36.00 35.60 35.66 35.59 35.19 35.43 34.72 37.13 36.38 35.91 32.92 32.33 31.37 29.00 28.22 27.53 27.30 27.32 27.40 26.85 26.49 25.88 24.88 24.23 24.37 24.51 24.42 24.06 24.33 23.51 24.53 26.98 27.45 28.73 27.83 27.36 27.03 28.52 28.12
33.99 33.51 34.86 35.80 36.65 36.51 36.33 35.95 36.00 35.89 36.22 38.60 36.24 33.29 31.13 30.32 29.80 28.36 28.62 28.18 27.07 26.57 26.84 27.05 26.88 27.40 29.13 27.56 25.58 24.64 24.94 24.50 24.37 24.01 23.58 24.85 25.41 26.40 26.29 27.08 26.30 26.23 26.72
33.27 33.21 35.22 35.64 35.91 36.13 35.45 34.82 35.37 34.70 34.04 34.19 31.68 30.01 28.52 29.87 32.67 32.98 30.78 27.93 26.82 25.73 24.17 24.11 24.38 25.30 25.48 26.63 26.56 27.06 26.63 24.86 24.06 23.55 23.14 22.33 23.12 25.87 26.32 25.43 25.09 23.28 22.50
32.38 32.98 34.92 34.96 34.60 34.73 34.18 34.00 33.64 32.85 32.24 29.62 27.63 27.49 27.18 28.76 30.67 30.44 29.80 26.23 23.87 23.04 22.27 21.99 22.41 24.21 24.30 24.16 25.64 26.62 26.85 27.55 26.88 26.38 23.60 24.06 24.05 25.90 26.80 25.53 25.20 23.53 23.44
31.49 32.75 33.97 33.75 33.26 33.34 32.91 32.65 32.19 31.32 30.16 27.81 27.36 27.23 27.02 26.32 28.18 28.59 28.18 24.57 23.00 22.83 22.59 22.29 22.00 22.31 23.93 24.50 25.50 25.43 25.17 26.04 26.69 26.44 25.93 25.92 27.03 27.83 26.92 26.60 26.15 25.63 25.49
31.85 32.75 33.26 33.14 32.64 32.48 31.04 30.27 29.88 29.13 27.59 27.81 27.85 26.08 23.20 22.97 26.89 26.77 25.75 22.60 22.31 21.89 22.87 22.95 23.19 22.72 24.85 27.46 25.69 24.70 24.26 25.40 27.47 28.20 28.47 28.51 28.37 28.62 28.86 27.81 24.54 24.60 23.31
31.45 32.50 32.97 32.60 31.76 29.92 29.48 28.58 28.91 27.38 27.81 26.93 26.04 24.69 25.61 22.43 24.73 26.15 25.33 20.72 16.45 20.73 22.37 22.70 23.24 23.64 25.58 26.13 24.87 23.11 22.33 23.20 24.64 26.06 26.57 26.59 27.05 26.44 26.84 25.86 25.03 23.23 23.19
31.86 32.24 31.91 31.45 29.85 29.36 28.01 27.06 26.51 26.51 26.01 24.16 24.27 23.70 23.72 23.65 22.40 25.27 26.13 20.63 20.56 21.97 21.18 20.59 22.19 24.13 24.76 25.09 25.15 23.63 23.87 24.37 24.07 24.26 24.84 25.54 25.89 25.62 25.51 25.68 25.69 24.28 22.65
31.44 31.30 30.66 29.81 30.45 29.64 27.01 26.55 26.81 24.47 23.52 21.94 10.28 16.47 20.79 21.48 23.82 23.69 25.91 25.19 24.09 16.57 18.74 19.93 20.79 23.45 23.16 23.13 22.93 24.22 24.07 22.83 22.06 21.95 21.91 23.04 23.97 25.03 27.01 28.50 27.69 26.58 26.56
30.37 29.66 29.39 29.84 30.27 29.09 25.96 25.11 24.14 23.41 19.68 20.24 21.69 15.82 17.99 21.48 19.92 23.01 24.33 24.58 23.23 15.70 18.55 20.35 21.60 21.39 20.97 21.06 21.53 21.93 21.04 20.57 20.53 19.97 20.21 21.69 23.79 25.50 27.06 27.90 29.21 29.83 29.53
29.72 29.82 29.50 29.03 28.64 28.98 28.20 26.48 24.08 19.26 20.22 22.80 20.59 18.67 16.00 16.85 16.63 17.45 21.06 17.99 19.76 19.31 16.00 15.03 15.59 18.81 15.20 17.37 18.62 18.69 18.09 18.75 18.79 18.60 19.20 20.77 23.27 24.96 26.05 27.95 27.16 27.86 26.83
29.94 30.28 30.74 29.64 29.63 28.12 26.44 24.88 25.06 24.72 24.52 21.61 20.21 17.58 6.72 5.37 15.09 21.15 21.53 16.30 11.56 16.02 8.69 7.98 10.24 11.42 13.68 15.72 15.87 16.28 16.35 15.56 15.64 17.04 17.73 18.36 19.77 21.71 23.96 26.03 26.21 26.84 25.81
28.96 30.70 30.80 29.53 28.43 27.55 25.77 24.67 28.69 27.65 28.28 28.99 28.79 17.82 12.77 21.03 24.45 26.10 24.92 23.22 21.99 19.62 10.83 4.13 -0.92 -1.46 5.56 13.27 13.72 13.54 14.18 12.20 12.45 15.04 15.78 16.47 16.89 18.43 20.71 23.17 23.95 23.76 23.63
29.88 30.87 30.70 28.08 27.70 25.71 24.20 25.69 20.28 24.04 28.59 29.06 29.42 29.49 27.55 22.74 25.94 25.79 24.10 22.47 20.49 16.82 6.44 3.51 -3.09 -3.64 1.44 11.08 12.74 13.03 11.99 11.45 11.90 11.14 13.39 13.88 15.15 16.75 18.74 19.81 20.75 20.48 20.96
30.96 30.15 29.99 29.74 27.88 27.49 25.65 24.30 21.09 18.76 16.47 15.47 22.95 26.41 28.04 28.65 27.18 25.51 24.22 19.48 10.53 10.61 8.48 5.09 2.32 2.16 6.85 10.05 10.86 10.75 11.14 9.33 8.28 8.54 9.43 10.89 12.15 14.36 15.80 16.80 17.38 17.45 18.24
31.69 31.64 30.30 29.16 26.97 24.97 23.91 23.47 18.83 18.74 20.15 16.86 13.57 18.11 16.74 27.03 26.65 24.59 22.77 9.80 7.50 6.96 8.00 9.12 4.87 6.74 7.87 8.10 1.23 -0.01 -1.11 5.91 6.58 4.23 5.92 7.27 7.85 11.14 13.71 14.41 14.44 11.60 13.37
32.35 31.55 29.89 28.04 26.21 24.69 19.05 18.85 21.19 21.26 23.16 22.08 16.11 15.29 10.13 11.76 7.45 3.73 -0.39 -2.73 -1.28 6.88 6.63 8.64 9.43 8.43 5.04 4.54 -1.46 -5.27 -0.38 -0.43 5.49 7.43 6.47 4.82 5.55 7.09 10.58 11.63 12.01 12.35 13.85
31.87 31.60 29.78 26.78 25.11 25.49 23.18 19.17 18.44 20.82 23.28 23.77 18.66 10.00 11.51 14.23 13.50 8.69 7.71 2.31 6.14 7.87 6.67 7.67 6.94 3.23 2.66 1.84 5.62 1.40 0.67 -3.09 1.05 5.29 7.02 7.91 5.72 6.34 9.19 9.55 9.43 11.88 13.27
30.06 29.45 28.87 27.70 26.10 25.36 24.77 20.47 18.08 19.03 20.73 21.38 20.34 14.76 10.26 15.20 12.68 10.97 9.89 9.63 8.73 9.11 9.47 7.86 7.83 7.79 7.55 8.01 6.18 -2.55 -1.28 -2.19 -1.35 0.91 2.85 6.42 8.26 9.36 8.18 8.24 8.29 8.66 10.36
29.97 29.61 28.93 27.00 26.09 19.13 11.54 15.51 15.20 19.67 22.16 21.37 19.07 19.72 13.06 13.56 12.12 12.74 13.29 11.43 9.69 7.95 6.67 5.77 4.55 5.57 5.34 2.13 0.74 4.39 3.49 4.79 3.94 -0.75 -0.74 0.99 7.22 9.24 9.10 7.90 7.87 8.46 8.23
29.83 30.14 27.95 25.15 22.34 18.52 14.25 13.29 18.11 20.17 17.33 17.62 19.37 21.28 19.98 17.44 15.01 14.35 13.33 11.67 8.16 5.86 1.16 3.07 5.91 7.48 7.11 1.82 -0.68 0.94 5.23 2.89 2.86 4.02 -0.44 0.71 4.27 8.45 8.58 9.57 9.49 8.23 7.22
30.80 30.53 28.20 24.98 23.38 22.79 23.85 22.61 21.43 19.95 19.56 20.85 22.05 23.46 21.83 19.89 17.61 15.05 14.94 12.98 10.72 6.31 5.88 2.87 4.66 6.91 7.21 6.36 4.04 4.60 1.65 5.80 0.72 -0.13 1.93 2.48 1.44 1.73 5.80 8.75 7.74 9.15 7.62
30.85 30.56 29.31 27.56 25.55 25.70 25.52 24.72 24.30 23.90 23.40 23.90 24.47 24.28 22.87 21.58 21.19 19.95 18.45 14.20 11.79 10.40 10.33 6.31 5.49 5.96 6.12 6.30 5.81 4.40 0.36 1.91 0.69 -0.61 -0.54 5.14 2.78 3.51 3.83 6.27 7.82 8.09 8.64

GFSGL_sfc_wetblb_021.txt.gz
Wetbulb
44.44 44.04 44.15 44.34 44.36 44.74 43.88 43.60 43.53 43.90 43.48 42.88 43.02 42.59 42.00 40.30 40.15 40.98 39.72 38.66 37.17 37.59 37.36 35.90 34.96 35.30 34.33 34.35 33.87 32.69 31.12 30.27 26.48 29.39 31.30 32.44 32.29 32.90 34.28 35.97 37.02 38.85 39.73
43.10 43.24 42.91 43.44 43.65 43.45 43.01 42.81 43.04 42.13 42.33 41.76 41.60 41.52 40.65 39.31 41.41 39.13 37.33 36.99 36.20 35.45 34.81 34.05 33.56 33.39 32.72 33.06 32.08 30.60 29.99 30.09 27.64 25.32 28.68 29.74 31.24 33.08 33.46 34.22 35.20 37.80 38.53
42.14 41.87 42.07 42.41 42.56 42.41 42.17 42.56 42.60 42.07 42.04 41.97 40.75 40.44 40.36 40.93 37.78 37.13 36.04 34.97 34.11 33.93 33.65 32.99 32.46 32.15 31.04 30.92 30.41 29.46 29.23 28.40 28.24 26.34 26.28 29.65 30.28 31.31 32.23 33.75 34.68 35.93 37.02
41.15 41.05 41.00 41.48 41.88 42.23 42.53 42.56 42.28 41.59 41.44 41.39 41.39 40.68 38.36 37.28 36.01 34.86 34.03 34.35 34.09 33.63 33.04 32.31 31.28 30.11 29.19 28.97 27.87 27.53 27.16 26.33 26.08 25.83 25.72 26.43 27.89 30.34 30.62 30.32 30.88 34.45 34.45
40.31 39.98 40.02 40.62 41.70 41.97 42.00 41.87 41.11 41.01 41.04 40.69 39.19 37.59 35.48 35.01 34.16 34.63 34.51 33.46 32.35 31.18 30.66 29.52 29.01 28.13 27.64 27.68 27.11 26.58 26.04 25.11 25.37 25.33 25.29 25.42 25.63 26.64 25.91 28.91 28.64 30.83 33.61
39.17 38.78 39.00 39.79 40.70 40.72 40.98 40.38 40.01 40.07 39.62 39.47 36.87 34.75 34.20 33.76 32.41 31.77 31.61 31.29 29.92 28.44 27.36 27.71 27.61 26.73 27.18 26.57 26.42 26.80 26.87 26.16 26.24 24.78 24.43 25.49 26.53 27.09 28.11 27.43 28.13 26.55 27.15
37.67 38.00 37.93 39.19 39.16 39.64 39.46 39.05 38.84 38.09 38.53 37.42 34.82 33.31 32.57 32.23 29.56 29.66 28.95 30.34 28.37 27.48 26.69 26.24 25.86 26.52 26.28 26.34 26.57 27.14 27.84 27.66 27.23 26.95 25.34 25.82 25.64 27.11 27.55 27.60 27.71 27.85 27.05
37.06 37.21 38.16 38.40 38.21 38.56 38.28 38.00 37.38 37.06 37.33 36.29 33.46 32.49 31.55 29.54 27.98 27.72 27.24 28.60 27.60 26.87 26.33 26.04 25.83 25.54 26.12 25.43 27.00 26.66 26.70 27.16 28.01 28.21 28.39 28.28 28.52 28.79 28.66 28.72 28.60 28.47 29.58
36.31 36.67 37.47 37.77 37.16 37.21 36.58 36.29 36.15 35.91 35.26 34.11 33.26 31.02 29.64 28.90 26.64 26.91 27.29 27.49 26.44 25.96 26.18 26.55 25.80 24.93 25.16 26.75 25.64 24.99 24.72 25.46 27.97 27.97 28.67 29.27 29.27 29.37 29.30 28.43 26.76 26.55 25.75
36.32 36.29 36.96 37.32 36.30 36.21 35.45 35.26 34.92 34.40 33.70 33.14 30.61 30.13 26.99 27.94 25.04 26.10 27.09 27.90 25.90 25.57 26.15 25.57 24.27 24.16 24.80 25.09 24.46 24.05 22.48 24.31 25.11 26.08 27.04 28.60 29.10 29.07 28.34 29.02 27.98 25.93 25.89
36.29 36.40 36.62 36.02 35.94 35.50 35.02 34.67 33.87 33.53 32.55 30.88 29.35 29.22 28.18 27.19 27.14 25.41 26.14 27.37 25.98 24.89 23.84 23.45 24.62 23.49 23.93 23.82 23.73 24.27 23.64 24.44 24.38 24.84 25.78 27.15 27.71 28.24 29.37 29.95 30.11 28.59 26.76
35.35 35.52 34.76 34.90 34.68 34.22 34.39 34.07 32.89 32.35 30.58 28.61 27.25 28.06 28.86 28.18 25.47 25.38 25.49 26.11 25.54 24.56 23.35 23.26 23.62 22.73 22.53 22.30 22.95 22.84 22.12 22.87 23.99 23.70 24.01 24.73 25.37 26.25 28.00 29.47 31.00 30.97 31.34
34.58 34.50 34.20 34.52 34.45 34.11 33.56 33.14 31.55 30.95 29.74 29.14 28.14 28.61 28.51 28.43 28.19 24.52 24.78 25.58 24.88 24.16 24.35 22.48 21.22 21.09 20.66 21.39 20.99 21.05 20.56 21.60 21.67 21.77 21.74 22.73 24.81 26.58 28.87 30.37 30.98 31.35 31.65
33.46 34.01 34.65 33.85 33.28 34.14 33.85 32.59 31.11 30.19 29.35 28.57 28.76 28.14 28.23 27.79 27.70 27.38 27.07 27.44 24.18 23.89 22.26 22.06 19.62 19.51 18.96 19.96 21.00 21.48 20.88 19.78 19.50 20.37 21.03 23.11 25.07 26.31 27.48 29.26 29.22 30.27 29.85
32.92 33.43 33.86 33.63 32.74 32.94 32.77 31.62 30.52 31.03 30.64 30.16 29.86 29.04 28.28 27.32 27.74 26.36 26.78 26.57 25.76 23.56 20.22 21.09 20.34 19.28 18.91 19.71 20.20 19.53 19.16 18.20 18.44 19.93 20.61 21.11 22.79 24.19 25.34 27.39 28.10 29.17 28.31
31.75 32.48 33.63 33.27 33.39 32.57 31.82 31.00 29.67 29.17 28.74 29.38 29.37 27.98 30.17 26.95 25.56 26.03 26.88 25.09 23.07 20.37 20.88 19.28 17.97 17.70 17.57 17.78 18.25 18.39 18.46 16.29 16.71 18.69 19.98 20.15 20.28 21.88 23.07 25.68 26.43 26.29 26.20
31.22 32.14 33.25 32.54 32.98 31.92 31.07 30.65 29.79 31.14 29.79 29.83 30.23 30.09 30.00 28.91 26.56 27.28 26.89 25.05 22.63 20.35 20.73 20.21 18.86 17.83 17.42 17.68 17.65 17.61 17.02 16.74 15.35 16.69 18.24 18.73 19.45 20.75 22.27 22.91 23.93 24.41 24.75
31.51 31.62 33.22 33.42 32.79 32.38 31.74 31.62 31.09 29.52 29.06 29.54 28.23 28.09 28.80 28.72 28.90 28.26 26.75 25.00 23.19 21.29 20.98 20.24 19.78 19.60 18.67 18.01 17.74 16.97 16.92 16.84 16.02 14.78 16.49 17.01 17.80 19.09 20.45 20.40 21.84 21.41 22.65
32.33 32.23 32.26 32.91 32.48 31.94 31.96 31.18 30.45 29.51 28.61 28.42 28.64 25.56 26.62 26.75 28.16 28.77 26.68 25.67 24.35 23.49 22.58 21.20 21.51 20.36 19.87 19.18 18.36 17.02 16.15 16.40 14.69 14.56 15.19 15.60 16.13 17.22 18.34 19.08 19.75 19.10 19.59
32.86 31.89 32.02 32.09 32.03 31.54 31.06 30.07 29.59 29.05 28.50 28.44 28.23 28.31 28.77 23.02 26.89 27.21 26.45 25.23 23.92 23.70 24.06 22.54 22.17 21.59 20.92 20.01 19.32 17.87 17.20 17.47 16.37 15.67 14.94 15.75 16.05 16.30 16.33 17.23 18.45 18.95 19.79
32.30 31.71 31.48 32.34 30.99 30.93 30.56 29.83 29.08 28.96 28.17 28.02 28.27 30.61 25.03 26.35 27.07 27.69 27.23 25.51 23.91 24.42 24.72 24.07 23.58 22.52 21.75 20.53 19.16 19.01 17.10 17.18 16.23 14.75 14.96 15.50 15.59 15.42 15.84 17.14 17.76 18.31 18.68
30.95 31.15 31.22 31.05 31.27 30.87 30.00 30.32 29.78 28.64 28.27 27.88 28.60 29.17 21.85 23.02 26.40 26.97 27.04 26.90 26.86 25.36 25.96 25.60 24.52 23.58 22.97 21.67 20.93 19.98 17.49 16.28 17.05 15.81 14.68 13.58 15.39 16.38 16.13 15.61 16.21 16.64 17.17
32.02 31.83 31.21 30.39 31.21 30.13 29.82 29.92 28.96 28.51 27.94 27.82 27.68 27.52 28.15 27.16 26.94 26.39 26.71 27.27 27.16 25.56 25.17 24.00 23.86 22.81 22.53 20.79 20.93 20.03 18.37 17.86 18.08 16.20 13.57 13.94 15.17 16.32 15.74 15.35 14.97 14.69 14.79
32.04 31.45 30.89 30.22 30.55 29.71 28.98 28.68 28.58 25.68 27.10 27.64 27.98 27.70 27.19 28.24 28.06 27.89 27.46 27.98 27.16 26.35 25.14 21.94 21.98 22.00 22.39 21.32 20.81 19.47 18.70 17.90 17.77 16.35 11.78 13.18 14.28 15.18 15.42 14.76 15.14 14.26 14.36
30.30 30.59 31.54 31.38 31.15 30.41 29.19 28.26 28.57 28.98 28.72 27.96 28.06 28.30 28.81 29.44 28.67 28.47 28.47 27.50 25.46 25.22 24.21 20.96 21.02 21.17 19.52 18.44 19.59 18.34 17.57 14.55 15.07 12.25 14.12 12.91 13.33 12.71 13.66 14.17 14.40 14.87 14.24
30.30 31.12 31.93 31.42 31.27 30.87 29.88 29.47 29.68 30.07 29.64 29.97 29.79 29.53 29.74 29.61 29.48 29.34 28.58 27.34 25.39 24.11 24.06 23.96 22.01 19.63 20.02 19.88 19.11 16.99 12.52 11.71 13.35 9.30 13.03 14.39 13.74 14.57 14.97 13.90 13.13 15.05 13.89

GFSGL_sfc_wetblb_027.txt.gz
Wetbulb
49.80 48.13 47.14 47.40 48.28 48.14 47.85 47.10 46.56 46.59 46.05 45.31 44.64 44.37 44.17 43.99 44.35 44.21 43.76 43.58 42.64 42.35 42.27 41.04 40.14 40.34 38.85 38.75 39.15 38.15 37.00 36.25 32.68 34.76 36.21 36.57 35.60 35.32 35.93 37.11 37.57 37.68 38.25
48.07 46.67 47.26 48.38 47.66 47.45 46.96 46.41 46.60 45.95 46.14 45.14 44.08 43.78 43.60 43.42 42.99 42.03 41.59 41.63 39.60 39.70 39.72 39.25 38.67 38.53 37.76 37.40 36.63 35.41 35.35 35.22 33.47 30.50 32.62 33.22 32.93 34.01 34.60 34.69 35.33 35.59 36.44
45.97 46.85 47.99 47.33 47.08 46.83 46.55 46.30 46.33 46.00 45.43 44.62 43.78 43.27 42.78 42.75 41.66 40.89 40.08 39.69 39.59 39.48 39.11 38.29 37.31 36.83 35.13 34.96 34.33 32.99 32.97 33.10 32.82 30.18 29.22 31.88 32.36 33.33 33.11 33.95 34.13 34.58 35.61
46.08 46.34 47.01 46.78 46.81 46.64 46.08 45.73 45.70 45.65 44.45 43.62 43.34 43.14 42.84 41.99 40.83 40.26 39.41 39.28 38.94 38.42 38.37 37.26 36.12 34.95 33.82 32.12 31.00 31.05 31.04 29.74 29.22 28.13 28.36 28.90 30.39 32.11 32.21 31.01 30.52 33.64 32.94
46.24 46.18 46.36 46.79 46.47 45.69 44.96 45.16 45.32 44.60 43.59 43.53 43.02 42.52 41.86 40.81 39.45 38.66 38.38 37.32 36.74 36.76 37.04 35.84 35.55 32.64 29.89 29.84 29.35 29.08 28.52 26.97 26.96 25.99 26.36 27.63 28.12 28.57 28.65 30.79 29.97 31.25 32.16
46.03 45.80 45.82 45.51 44.82 44.07 43.75 44.05 44.01 43.04 42.77 42.85 42.20 41.57 40.21 39.55 31.62 31.48 31.23 35.33 35.77 35.24 34.24 34.37 34.40 33.87 32.89 30.81 30.15 28.77 28.47 26.47 26.12 27.21 26.68 25.79 26.31 27.89 29.54 29.44 29.23 28.16 26.30
45.71 45.09 44.66 44.21 43.02 42.52 42.63 42.41 41.92 42.01 42.66 41.80 41.47 40.89 39.84 38.76 31.30 30.10 29.32 33.25 34.52 34.50 33.92 33.07 32.71 33.00 31.55 31.54 30.07 28.87 28.84 30.06 28.64 28.79 26.38 26.92 26.99 28.12 28.64 27.94 28.20 28.27 27.96
44.36 44.00 43.69 42.60 41.58 41.84 41.55 41.22 41.42 41.98 41.68 41.13 40.64 40.10 39.20 36.35 30.32 28.94 28.60 32.40 34.48 34.19 33.65 33.17 32.26 31.65 30.21 27.39 26.98 27.05 28.02 29.01 29.89 29.60 28.59 28.07 28.38 28.96 28.56 28.98 28.82 28.93 30.17
42.78 42.73 41.92 41.39 40.59 40.29 40.01 40.22 40.90 41.07 40.59 40.13 39.95 38.89 37.85 35.80 29.84 28.78 28.12 32.79 33.17 32.75 33.16 32.77 31.55 30.08 27.30 26.06 25.31 24.77 25.86 27.31 30.16 29.92 28.88 29.05 29.65 30.04 30.35 29.49 28.33 27.29 26.80
41.85 40.98 40.96 40.54 39.97 39.59 39.90 39.78 40.64 40.68 39.75 39.52 38.32 38.90 34.25 36.68 29.46 28.86 28.00 31.90 31.21 31.33 32.19 31.81 28.51 26.74 25.11 24.85 24.24 23.83 22.94 25.41 25.65 25.81 26.83 28.63 30.04 30.75 30.65 30.42 30.01 27.31 26.88
41.01 40.34 39.71 39.95 39.84 40.15 39.72 39.58 39.85 39.27 38.93 38.36 37.05 37.43 37.05 35.49 33.83 29.17 27.80 29.63 30.93 29.99 29.48 29.67 30.95 26.54 24.83 24.23 24.02 24.06 24.04 23.96 24.10 25.78 26.54 27.62 28.93 29.58 30.63 31.71 31.87 30.69 28.46
39.62 38.38 38.89 39.83 39.80 39.21 38.82 38.99 38.60 38.70 37.50 36.24 35.31 35.09 35.76 35.35 31.57 29.53 28.29 27.18 28.02 28.22 28.41 29.53 29.72 26.00 24.27 23.84 24.18 24.56 23.52 23.79 26.60 25.44 25.41 25.76 26.48 27.31 28.73 31.07 32.24 33.50 33.82
37.88 37.89 38.51 39.06 39.29 39.50 37.92 36.53 36.67 36.93 35.85 34.90 33.69 33.95 33.74 35.16 35.41 30.82 29.03 27.59 26.72 27.51 29.58 28.62 25.94 25.58 24.83 25.43 25.37 24.50 23.65 26.06 24.31 23.31 23.41 24.31 26.01 27.98 29.54 30.88 32.47 33.19 34.43
36.87 37.24 37.86 37.92 37.75 37.39 37.49 37.76 35.57 34.19 34.90 33.96 33.30 32.82 33.60 33.98 34.35 34.01 31.27 30.45 28.30 28.38 29.23 29.72 27.34 25.72 25.57 24.70 26.16 27.66 27.23 26.30 23.94 23.42 23.26 25.19 27.21 27.53 27.54 29.40 29.47 30.26 30.25
36.47 36.76 37.20 36.86 36.62 36.82 37.11 37.12 36.28 36.07 35.59 34.01 34.34 33.83 34.17 32.97 32.68 32.07 31.66 31.58 31.19 29.52 26.44 27.70 27.96 28.06 26.98 27.07 27.26 26.82 26.96 26.34 24.62 23.67 23.79 23.61 24.22 24.79 25.67 28.29 28.38 28.97 28.58
35.03 35.26 36.10 36.15 35.87 36.08 35.20 34.33 34.47 32.39 32.15 31.90 31.38 31.86 35.71 32.22 30.86 29.84 29.23 28.20 27.79 27.13 25.71 26.39 27.05 27.50 26.26 26.07 25.88 25.61 26.09 25.24 24.61 23.42 23.42 23.57 22.61 23.07 23.81 25.83 26.90 26.36 25.88
33.50 34.83 35.12 34.77 35.93 34.80 33.99 33.93 32.33 35.08 32.41 31.49 31.26 31.27 31.15 31.39 31.67 31.01 29.94 28.81 28.33 26.80 24.86 26.56 27.58 27.69 27.03 26.37 26.42 25.72 24.77 25.25 24.15 24.51 23.64 23.31 22.72 22.23 23.58 23.74 24.40 24.52 24.34
35.77 32.71 35.66 36.22 35.35 34.74 33.97 33.95 34.24 33.86 33.66 34.40 32.35 31.15 31.28 31.19 31.04 30.89 30.50 29.07 27.31 27.27 26.48 26.54 26.88 28.13 27.18 26.67 26.84 25.99 25.34 24.88 24.27 23.50 22.87 23.11 22.59 22.39 21.74 22.15 22.67 22.88 23.01
36.65 36.83 36.78 36.15 35.46 34.07 34.28 34.35 33.67 33.67 33.23 33.57 34.45 32.06 31.71 30.66 30.78 30.62 30.06 28.98 28.03 27.45 27.85 28.32 30.14 29.17 27.91 27.35 27.74 26.63 25.51 24.12 23.59 22.44 22.87 22.89 22.58 22.17 21.57 21.22 22.22 22.50 22.68
37.97 33.75 33.36 35.01 34.37 33.95 33.28 33.59 33.38 33.24 32.66 32.73 32.90 33.13 33.10 31.68 31.30 30.45 30.73 30.46 29.73 29.33 29.10 28.57 30.02 30.11 29.52 28.46 28.25 27.17 25.83 25.34 24.40 23.86 23.52 22.91 22.99 22.29 21.59 21.18 20.77 20.92 21.71
38.17 36.66 33.65 35.13 33.93 34.50 34.32 33.53 33.23 33.01 32.70 32.91 33.12 34.24 31.88 31.65 31.99 32.22 31.88 32.04 31.42 31.05 30.71 29.99 30.45 31.13 30.26 28.92 27.44 26.85 25.88 25.57 24.47 23.63 22.84 22.65 21.95 20.75 22.39 22.32 22.10 20.93 21.16
37.23 36.49 35.08 33.95 34.88 35.19 34.21 33.90 33.66 32.95 32.42 32.56 33.15 34.41 31.29 31.65 31.37 31.36 32.16 32.42 32.82 33.03 32.95 32.04 30.81 30.46 30.43 29.07 28.52 27.81 26.13 25.40 24.99 24.14 23.39 22.29 21.47 22.02 22.47 21.92 21.77 20.98 20.15
37.27 35.98 35.12 33.69 33.90 33.43 33.65 33.58 33.21 33.29 33.14 33.07 33.47 33.36 33.61 32.64 32.10 32.03 31.76 32.21 32.98 33.02 33.26 32.70 31.82 31.15 31.39 31.31 31.10 28.82 26.60 25.84 25.80 25.34 22.75 21.78 21.28 21.95 21.56 21.29 20.87 20.30 19.48
35.73 35.56 34.26 31.89 32.00 33.25 33.17 32.57 32.99 32.10 32.84 33.05 32.38 32.38 32.75 32.75 32.38 32.38 32.57 32.93 33.25 32.75 32.38 32.34 31.93 30.89 30.69 30.69 30.61 29.20 27.77 27.69 26.43 24.43 21.89 21.14 20.81 21.29 21.13 20.45 20.42 20.21 19.90
35.40 34.38 33.28 32.68 32.84 32.57 32.02 32.28 32.38 32.20 32.20 32.02 31.66 32.02 32.96 32.93 33.09 32.90 32.93 33.11 33.11 32.57 32.75 32.37 32.13 31.38 30.41 30.02 29.66 28.09 27.59 26.24 25.20 24.27 23.03 21.17 20.14 19.58 18.62 19.44 19.36 19.10 19.93
32.88 33.08 32.72 33.46 32.99 32.00 31.41 30.88 30.69 30.80 30.30 30.22 30.74 31.08 31.50 31.57 32.23 32.69 32.79 32.69 32.39 32.77 32.82 33.11 32.55 31.63 30.70 30.33 29.72 28.78 27.63 25.27 22.18 20.97 22.15 22.05 20.67 20.22 20.54 19.94 19.07 18.70 19.34

GFSGL_sfc_wetblb_033.txt.gz
Wetbulb
46.04 44.75 43.83 43.14 42.97 44.04 44.82 45.02 43.74 43.60 42.46 41.16 41.43 40.14 39.18 38.92 38.49 37.70 36.61 36.47 36.40 36.18 36.22 35.64 36.07 37.59 35.49 34.91 31.53 29.29 27.23 26.06 22.71 25.11 26.91 27.52 26.89 27.47 29.71 30.28 31.61 31.28 31.70
45.29 44.01 43.21 43.49 44.08 44.49 44.68 44.98 44.58 42.58 41.48 41.09 40.90 39.68 39.51 38.96 37.88 36.83 36.10 36.38 35.53 34.81 34.31 34.20 35.32 35.71 30.19 28.27 26.76 25.11 24.59 24.71 23.19 22.20 23.59 24.86 24.89 26.38 28.03 27.57 30.50 32.47 31.38
44.55 42.54 43.02 44.78 44.55 44.36 44.31 44.87 43.18 40.98 41.97 40.47 40.04 39.06 39.22 38.77 37.67 37.26 36.16 35.91 35.59 34.69 34.13 33.63 33.04 31.00 26.64 25.49 24.92 23.95 24.04 26.55 23.32 22.19 22.43 24.46 24.55 25.88 25.99 27.42 28.30 27.89 31.47
43.86 42.37 44.19 44.44 44.81 44.10 44.33 41.67 41.76 42.32 40.40 39.39 39.38 40.22 39.88 39.31 38.32 38.06 36.77 35.03 33.38 33.07 33.20 32.44 31.71 28.44 26.27 25.16 25.38 23.46 24.31 22.61 22.54 21.84 22.15 22.36 23.58 25.48 25.35 23.57 24.93 27.04 26.92
44.57 44.70 44.49 45.29 45.00 44.09 42.49 42.11 42.02 40.93 39.99 40.12 40.56 39.90 39.72 38.66 37.79 35.35 34.50 32.23 31.19 31.08 31.11 31.33 30.05 30.38 32.82 28.22 25.72 23.13 22.98 21.84 21.54 21.51 21.27 21.99 22.57 22.98 23.14 26.37 23.35 23.61 24.81
44.92 44.86 45.03 44.37 43.81 42.05 41.11 40.65 40.24 39.57 39.48 40.39 38.80 38.66 37.79 37.73 34.99 34.63 32.43 30.03 30.71 29.72 27.85 28.86 28.33 31.05 31.00 31.45 30.02 29.01 26.57 22.07 20.32 18.75 21.41 20.99 22.20 24.71 24.99 22.14 21.68 20.42 19.15
45.82 45.04 44.81 44.87 42.63 40.35 40.60 39.86 38.67 37.71 38.19 37.64 38.07 38.25 37.14 34.22 34.06 33.76 32.20 29.16 28.57 27.90 27.95 27.38 28.18 29.69 27.27 25.21 25.98 26.22 25.46 26.51 25.85 22.75 21.06 21.97 20.54 21.70 21.82 21.75 21.91 21.49 21.34
44.17 43.25 42.34 41.27 39.48 39.23 39.04 37.69 37.50 37.95 37.01 36.94 37.02 37.25 36.52 33.98 33.99 33.30 31.16 27.24 26.92 27.68 27.83 27.49 26.33 24.71 24.76 24.49 23.16 22.14 22.25 22.84 23.77 24.47 22.01 21.06 22.00 23.44 23.75 24.93 24.40 24.34 25.03
40.43 39.51 39.43 39.60 38.68 38.25 37.35 37.22 37.76 37.08 36.12 36.40 37.33 36.13 34.26 31.87 33.45 32.44 29.28 26.86 27.54 27.63 28.53 28.12 27.84 24.66 26.77 26.65 23.13 21.81 21.12 22.01 25.72 27.22 26.66 27.61 28.10 28.97 28.89 27.94 25.51 24.60 22.59
38.03 37.96 38.24 38.22 37.89 37.08 37.21 37.10 36.56 36.04 36.43 36.37 35.08 34.96 34.53 30.94 33.03 32.08 29.77 26.06 26.37 26.48 26.84 26.59 28.56 24.74 26.15 25.55 21.71 20.04 18.16 20.11 21.91 21.84 22.34 23.77 25.78 26.19 28.73 26.83 24.95 23.14 23.06
38.44 38.85 38.78 38.81 38.02 37.87 37.24 36.25 35.63 35.01 33.84 32.48 32.13 32.04 32.43 30.28 29.47 32.44 31.50 26.76 26.04 25.99 25.82 24.93 24.82 27.02 26.59 27.03 26.27 21.16 19.71 22.55 23.20 21.76 21.56 22.19 23.48 24.52 25.48 26.09 26.10 25.20 23.97
38.09 38.18 38.01 37.52 37.41 37.36 35.84 35.83 34.96 32.94 31.16 31.51 29.80 29.66 28.98 30.23 30.65 32.48 32.49 30.55 28.36 23.14 25.01 24.91 24.57 29.17 28.36 27.69 25.91 25.68 26.32 24.77 16.50 18.05 18.56 19.34 20.43 21.54 23.72 24.92 25.86 26.38 26.97
37.42 36.79 36.07 36.66 36.64 36.59 33.70 32.19 31.62 31.16 29.23 29.15 29.09 26.59 28.16 29.70 29.04 31.93 32.46 31.61 30.22 23.39 24.49 25.36 28.00 28.82 28.51 27.00 27.78 27.71 24.18 20.26 16.47 13.06 15.93 17.17 18.66 21.70 23.95 24.25 25.37 25.30 26.53
34.15 34.46 34.76 34.29 33.96 33.54 33.44 32.56 31.24 28.27 26.66 28.79 28.14 27.88 27.18 27.86 29.41 28.13 29.10 29.36 30.12 27.19 24.60 25.07 23.65 24.22 21.28 21.73 22.14 24.23 22.49 20.09 18.27 16.83 14.68 16.61 19.13 19.51 18.95 21.45 21.72 23.02 23.41
33.95 34.02 32.47 32.48 31.90 32.12 32.81 31.89 29.96 29.07 28.80 27.67 27.57 27.97 25.73 23.89 28.76 32.45 28.93 26.76 25.22 25.53 18.51 24.15 20.57 18.64 20.08 22.97 21.83 21.82 21.16 20.20 17.78 14.48 13.71 15.11 17.93 19.24 18.96 20.32 21.26 22.56 19.41
31.77 30.88 28.18 27.71 28.56 30.55 30.18 29.91 32.35 31.91 32.89 33.03 32.82 29.49 28.62 32.00 32.96 33.70 33.07 31.57 30.96 29.69 24.41 18.24 11.36 9.88 15.34 20.60 19.65 19.15 17.80 17.31 18.00 17.09 13.06 15.74 15.58 15.43 17.58 19.91 20.54 19.52 19.27
29.56 29.57 28.56 29.37 28.94 28.61 27.81 27.99 26.96 29.19 33.11 33.23 33.41 33.38 33.20 32.53 32.90 33.05 32.65 31.85 31.17 28.20 16.76 15.96 11.36 13.66 16.37 21.15 21.79 19.29 17.11 16.43 16.99 16.11 14.10 12.35 13.26 16.26 16.03 18.03 17.40 17.55 18.27
29.92 30.26 29.84 29.84 29.72 29.73 28.20 28.01 26.74 27.15 26.44 27.22 29.99 32.11 32.57 33.02 32.63 32.47 32.38 31.45 26.67 27.46 21.87 19.87 18.45 18.43 19.91 21.87 21.27 19.77 16.72 14.06 13.69 13.75 10.43 7.27 6.84 11.66 12.08 15.01 17.42 9.49 16.20
30.67 30.19 30.52 30.66 30.32 31.51 31.06 28.99 27.87 27.80 26.95 27.45 28.23 26.54 27.17 31.94 32.45 32.28 32.01 29.00 24.78 23.59 23.47 23.81 22.30 21.43 21.63 21.96 20.91 19.57 14.81 10.45 8.86 6.27 7.30 7.79 9.18 10.75 9.48 12.47 15.62 11.87 11.47
33.70 30.26 28.97 30.57 30.67 31.20 31.26 30.14 29.37 27.98 28.13 27.90 27.17 27.41 25.40 24.23 28.96 30.15 29.86 28.82 26.81 24.42 24.13 24.06 24.37 23.62 23.08 23.95 24.75 23.19 16.99 11.96 10.25 7.85 6.46 9.76 4.27 5.76 6.53 7.32 10.19 9.34 13.97
31.74 31.80 30.52 31.79 31.69 31.41 30.40 31.01 31.50 29.42 27.30 27.38 27.45 28.03 27.84 27.74 28.76 27.70 27.08 27.91 27.43 26.14 25.82 25.15 25.04 24.80 24.54 22.94 21.44 22.21 22.57 18.38 16.84 13.58 11.79 8.70 1.58 5.86 7.57 8.57 10.69 13.09 15.17
27.16 26.50 26.79 26.98 28.25 28.77 30.87 31.04 30.23 29.24 27.34 24.68 27.48 25.59 25.23 26.29 28.68 29.75 30.00 29.41 28.68 28.30 28.38 27.82 26.97 26.45 26.36 25.99 25.48 22.55 22.71 22.44 20.15 16.79 13.50 10.27 9.44 7.21 6.06 9.22 6.49 8.24 10.10
23.85 23.51 24.27 25.17 26.16 26.49 26.91 27.95 29.66 30.58 27.25 22.97 23.74 25.45 24.57 27.39 28.99 29.77 30.91 30.98 30.89 30.86 31.17 30.12 29.44 28.89 27.76 27.21 27.98 27.22 25.36 23.25 21.95 20.53 17.42 11.49 10.37 6.75 3.64 7.13 6.40 6.08 6.44
23.96 23.43 22.74 22.81 24.71 25.95 25.96 27.81 29.87 27.81 25.64 23.51 27.31 29.95 28.05 27.32 27.86 27.14 30.20 31.34 31.75 31.73 31.73 31.49 31.07 30.45 30.27 29.34 29.40 28.73 27.62 26.67 24.86 22.84 19.54 15.64 12.62 9.71 4.31 6.05 6.03 4.20 5.77
19.20 19.07 19.51 19.91 20.48 20.59 21.62 25.53 28.75 28.74 27.11 26.18 20.19 20.24 23.68 22.81 22.71 23.60 23.94 23.64 24.33 24.68 24.96 27.51 31.09 31.36 31.22 30.97 29.87 28.72 28.17 27.77 26.68 22.59 20.43 16.21 12.56 8.93 5.88 6.12 3.36 6.28 4.15
15.20 15.86 13.45 14.25 15.16 17.02 17.82 18.85 19.66 21.31 21.74 21.98 20.14 19.88 17.88 14.47 15.01 15.28 18.33 19.65 19.44 19.14 19.70 21.60 23.02 24.51 28.76 29.93 30.80 30.05 28.81 27.49 26.13 22.66 20.88 18.75 14.89 9.47 6.87 5.15 4.32 5.32 6.88

GFSGL_sfc_wetblb_036.txt.gz
Wetbulb
45.35 43.82 43.37 43.40 44.13 44.29 44.27 44.15 43.35 43.24 42.82 42.48 42.25 39.65 39.49 38.42 37.85 36.81 36.00 35.74 35.34 34.82 35.08 35.49 35.02 35.93 34.80 33.41 30.58 29.46 27.79 26.02 21.95 23.20 24.67 25.04 24.15 24.74 27.04 27.98 29.60 28.87 29.60
45.51 43.96 42.59 43.03 45.26 44.96 44.11 44.01 43.77 43.66 43.81 41.59 41.12 39.13 38.51 37.64 37.05 36.03 35.89 35.97 35.08 34.86 33.96 33.55 33.61 35.28 30.72 28.26 26.50 25.44 24.56 24.28 22.74 20.74 22.03 22.53 23.12 24.67 25.43 24.91 28.24 30.70 28.83
45.46 43.68 42.04 43.14 43.97 43.59 43.78 44.12 44.75 42.64 41.07 39.86 39.25 38.00 37.86 37.82 37.37 36.48 36.41 35.69 35.17 35.58 34.45 32.57 32.10 31.86 27.90 26.20 25.21 24.39 24.03 26.15 22.68 21.76 21.51 22.61 22.52 23.80 24.31 25.63 26.08 26.25 30.02
44.27 43.26 43.84 43.83 44.12 43.68 42.78 43.90 42.04 41.17 39.51 39.87 38.82 38.63 38.64 38.65 38.39 37.79 36.69 35.35 34.49 33.60 32.45 31.52 31.15 29.25 27.28 25.94 25.32 23.58 23.68 22.26 22.36 21.46 21.70 21.72 21.70 23.78 23.88 22.89 24.06 25.35 24.80
45.14 44.13 44.53 44.16 44.32 44.33 42.14 41.52 40.75 40.37 39.88 39.77 38.38 38.44 39.11 38.79 38.29 37.06 35.93 33.52 31.80 31.16 31.16 30.82 29.51 29.90 32.52 28.57 25.06 23.04 22.60 21.42 21.15 20.80 20.58 21.13 21.40 21.37 21.87 23.83 23.20 22.53 23.35
44.39 44.78 45.52 44.12 41.42 41.57 40.69 39.79 38.09 39.67 39.30 38.03 38.56 38.55 38.24 38.22 36.35 36.38 34.02 31.22 31.28 30.14 28.26 28.72 28.43 30.75 31.48 31.62 30.56 28.95 25.81 21.26 19.57 17.44 19.85 19.12 19.79 20.60 22.31 21.09 20.68 19.99 19.59
45.12 45.01 44.51 43.44 41.85 40.33 39.77 39.34 38.30 37.58 37.51 37.13 37.15 37.04 36.67 36.62 35.56 35.85 33.91 29.98 28.94 28.13 27.17 27.43 27.64 29.08 28.41 26.00 27.49 26.60 25.24 25.96 24.24 20.85 19.13 19.51 19.31 20.32 20.81 20.71 21.63 21.61 22.03
43.86 43.08 42.40 40.30 39.21 38.84 37.59 37.64 37.89 37.59 37.06 36.29 35.82 35.79 35.73 35.47 34.66 34.83 32.87 28.34 27.37 27.80 27.51 27.65 26.22 25.53 25.17 24.75 23.40 22.37 22.50 22.38 22.93 23.56 21.47 20.73 21.18 23.06 24.31 25.46 25.81 26.26 25.44
38.23 38.31 38.68 38.33 37.76 37.93 37.49 37.36 37.66 36.09 35.74 34.93 35.30 35.01 34.16 33.66 34.27 33.96 30.94 27.26 26.64 27.33 28.89 28.67 27.41 25.42 26.78 28.56 23.65 22.49 21.57 21.69 25.03 26.30 26.65 27.30 27.27 27.57 27.84 26.47 22.86 22.30 20.06
36.40 36.99 37.78 38.45 38.33 37.75 37.50 36.28 35.35 35.16 34.41 34.20 33.82 33.58 34.05 31.67 33.74 34.16 31.49 27.83 26.91 27.27 27.43 27.11 29.38 25.90 27.86 27.00 22.55 20.97 18.21 20.08 21.28 21.94 22.39 23.15 24.53 24.53 26.98 25.12 23.87 21.30 21.46
38.78 39.18 39.54 39.59 38.92 37.61 35.66 34.92 33.37 32.87 32.45 31.27 30.66 31.04 30.85 31.00 30.15 34.15 33.61 27.22 27.06 26.39 26.41 25.53 25.43 28.48 27.96 27.84 27.76 21.81 19.44 22.34 22.59 22.53 21.63 21.37 21.88 22.80 23.63 24.41 24.49 23.20 22.11
39.18 38.78 37.99 36.39 36.23 35.76 33.51 33.08 32.70 30.93 29.17 28.91 24.96 28.39 28.17 30.02 31.72 32.26 33.57 32.33 28.68 24.59 25.91 26.24 25.27 28.60 28.72 28.69 27.45 26.77 27.14 24.82 17.72 17.49 17.66 18.70 18.91 19.79 21.88 22.86 24.07 24.63 25.27
37.10 35.50 34.59 34.80 34.73 34.26 31.97 30.20 28.99 28.63 26.11 27.38 27.58 25.86 26.86 28.82 28.07 32.37 32.83 32.69 31.75 26.21 26.29 26.70 27.48 28.48 29.31 28.09 28.75 28.35 24.23 21.02 18.48 12.22 16.79 16.58 17.73 20.01 22.60 22.53 23.46 23.66 25.04
33.64 33.18 33.13 32.77 32.39 31.37 31.21 30.41 29.23 25.85 25.00 27.58 27.22 27.06 26.91 26.87 27.01 27.10 29.01 29.87 32.36 29.50 26.10 27.32 23.92 24.23 20.83 22.08 21.38 24.09 22.93 20.86 19.68 18.22 15.22 15.41 17.55 18.16 18.39 19.97 19.06 20.66 21.58
32.83 32.69 31.40 30.31 30.18 30.14 30.53 30.46 29.78 29.23 28.41 27.32 26.55 26.77 23.76 24.53 26.75 30.69 29.97 27.99 28.93 28.79 24.47 21.99 21.47 20.69 22.62 21.84 21.32 21.80 21.35 21.04 18.81 15.99 13.22 13.74 16.03 17.71 17.40 18.93 18.97 19.09 16.63
30.77 30.02 28.01 27.22 27.55 28.71 28.84 29.70 32.01 31.49 31.58 32.35 32.58 28.19 28.45 30.72 32.24 33.04 33.30 33.12 31.97 30.36 24.46 22.51 22.06 20.97 20.45 19.90 18.31 18.33 18.45 17.64 18.45 17.62 13.05 14.74 14.19 13.61 14.86 18.23 19.31 15.95 15.94
29.29 29.33 28.27 28.19 27.86 28.06 28.57 28.21 28.03 31.64 32.54 32.75 33.10 33.36 33.16 32.71 33.19 33.15 33.38 33.45 32.84 30.93 25.78 20.89 21.44 17.11 17.16 18.85 19.55 19.28 18.25 18.55 16.86 17.64 15.79 14.50 11.49 14.12 13.05 15.16 15.46 15.81 15.60
29.64 29.35 28.84 28.71 28.69 29.10 28.72 29.31 29.81 29.31 29.65 29.53 30.14 30.94 31.68 32.46 32.93 33.25 33.04 32.74 30.09 30.31 25.16 22.43 20.48 18.09 18.04 19.36 19.74 19.33 19.53 14.74 14.95 14.83 11.67 7.93 3.50 9.46 10.59 12.31 13.84 9.98 13.00
32.26 31.53 31.87 31.81 31.55 31.42 31.37 31.58 31.76 31.57 31.10 30.77 30.02 26.26 26.55 31.02 32.04 32.69 32.68 30.56 29.30 26.12 26.85 25.13 23.06 21.58 20.05 20.66 19.82 17.15 14.79 14.05 13.96 10.21 10.26 7.98 1.53 9.84 8.60 9.87 8.75 11.34 10.15
28.12 26.96 25.77 26.02 26.18 26.12 27.14 27.92 29.21 30.06 30.58 30.19 29.39 28.68 25.39 21.24 21.62 29.01 29.92 29.90 29.93 27.23 26.88 25.39 24.88 24.35 22.88 21.66 19.94 19.14 16.68 16.95 17.16 13.66 10.00 4.56 1.61 5.81 5.65 4.83 3.86 9.10 15.47
22.64 23.08 21.86 23.90 23.64 23.91 24.11 24.31 25.56 26.26 27.92 29.25 30.99 29.59 24.41 25.79 28.10 22.10 23.38 25.96 28.83 27.88 27.32 26.43 25.25 25.18 25.42 24.24 23.06 21.80 20.65 20.28 20.17 19.33 16.42 11.66 3.84 4.54 8.35 4.89 4.63 9.39 13.67
21.13 22.15 23.05 22.72 22.76 22.68 22.83 24.29 24.94 25.08 25.32 26.03 27.54 27.65 27.67 23.50 25.86 25.45 28.06 29.07 28.32 29.24 29.63 28.72 26.46 25.82 25.84 25.54 24.94 23.29 21.67 20.78 19.63 19.49 16.93 12.86 11.20 9.29 6.09 5.31 4.53 3.59 7.41
19.77 17.93 18.17 19.40 19.07 18.88 19.06 20.04 19.40 22.10 25.74 27.24 29.22 27.79 23.36 24.32 24.77 25.92 28.50 28.81 28.46 30.16 29.53 29.17 28.34 27.52 27.80 27.82 28.00 27.02 24.62 22.77 23.25 23.09 20.10 15.31 11.58 9.82 3.86 4.48 4.36 3.98 3.86
14.81 15.31 12.97 12.90 12.97 13.86 14.57 14.92 17.23 17.16 17.06 20.75 24.38 24.32 22.81 22.28 21.39 20.33 20.95 20.29 21.98 21.82 22.24 22.55 25.95 29.35 29.45 28.54 28.49 28.36 27.89 27.41 26.10 23.97 23.01 19.17 15.80 11.42 5.71 4.55 4.90 2.28 2.39
11.10 10.28 8.22 8.75 9.59 9.91 10.01 12.08 12.17 12.90 13.50 13.93 14.70 15.96 16.63 17.20 16.64 15.12 13.49 13.02 15.57 16.98 18.78 20.27 21.49 22.76 23.67 24.17 28.88 28.79 28.90 28.05 27.77 25.52 24.35 21.01 18.93 15.26 12.06 8.37 4.05 4.67 1.86
9.55 9.43 7.25 6.75 7.43 7.23 7.42 8.25 7.67 9.23 10.37 11.12 11.94 12.34 12.72 13.06 13.40 12.88 12.59 12.84 12.46 13.36 15.58 17.02 18.04 18.74 19.44 20.25 21.21 25.62 29.29 28.47 27.86 26.33 24.29 22.11 18.68 15.81 12.49 11.54 7.18 2.79 5.04

GFSGL_sfc_wetblb_039.txt.gz
Wetbulb
45.52 45.77 45.32 46.30 45.75 45.75 45.25 44.12 43.25 43.63 42.70 41.79 41.93 41.24 40.82 39.51 36.90 36.02 36.47 36.17 36.28 35.21 35.41 34.81 34.59 34.72 34.49 34.36 31.52 29.76 27.01 25.52 22.90 24.58 24.61 24.20 23.09 23.20 25.10 25.34 27.20 26.65 27.51
46.01 44.57 44.28 44.90 45.04 44.17 44.33 43.56 43.00 41.55 40.85 42.40 42.96 41.48 39.66 38.35 36.71 35.90 35.46 35.76 34.95 33.43 33.52 33.58 34.27 35.64 32.74 29.79 27.47 26.08 25.26 24.68 23.27 21.00 21.48 22.14 22.40 23.24 23.58 23.48 26.78 28.97 26.98
45.07 45.25 44.61 44.02 44.28 43.99 43.35 43.58 41.88 41.86 42.40 41.32 40.49 39.34 38.86 37.59 36.07 36.26 35.29 34.93 34.20 33.90 33.94 33.32 33.01 31.35 29.84 27.09 26.23 24.99 24.15 25.86 22.73 21.13 21.06 22.00 21.97 22.31 23.13 24.13 24.82 25.55 28.07
45.41 44.20 43.07 43.97 43.82 43.85 43.79 43.34 42.34 40.70 41.12 39.87 40.31 39.57 39.06 38.06 38.18 37.75 35.97 34.30 33.64 34.11 33.86 31.97 31.01 29.85 28.33 26.45 25.66 24.29 23.57 21.96 21.72 20.95 20.86 21.13 21.21 22.71 22.51 21.99 22.54 24.36 23.81
45.39 44.57 43.46 43.89 44.24 44.45 42.36 40.21 41.57 40.96 40.20 40.18 39.50 39.09 38.60 39.01 38.62 37.17 35.55 34.04 32.73 31.77 31.48 30.47 29.81 29.91 32.00 28.59 25.27 22.94 22.17 21.25 20.71 20.14 19.53 19.73 20.22 19.83 20.26 21.41 20.85 21.52 22.57
44.04 43.89 44.41 45.15 43.20 41.54 40.46 39.65 38.66 38.63 38.83 39.22 39.23 38.64 37.89 37.84 36.92 36.93 35.39 31.97 31.43 30.58 29.02 28.28 28.26 31.37 31.92 33.92 31.87 29.59 25.27 21.67 19.65 16.96 18.20 18.07 18.32 19.51 19.73 19.29 19.75 19.62 19.22
44.23 44.91 44.58 42.88 41.54 39.93 39.38 38.76 38.16 37.98 38.67 38.73 38.07 36.38 35.23 35.00 36.27 36.76 35.61 31.02 29.54 28.87 27.43 27.27 27.64 28.65 29.54 27.85 30.68 29.55 27.70 27.04 24.42 20.18 18.05 18.59 18.41 19.64 20.16 20.49 21.32 22.22 22.07
43.60 43.79 42.68 40.09 38.48 38.40 38.33 38.17 38.28 39.14 38.01 35.25 34.33 34.25 33.56 33.83 35.51 35.58 34.44 28.57 27.95 28.11 26.97 27.25 26.34 26.63 27.00 25.71 23.96 23.14 22.97 23.26 23.11 22.70 20.82 20.82 20.95 21.90 22.45 23.76 24.64 24.61 23.92
37.11 38.05 38.48 39.03 38.82 38.93 38.44 39.15 38.88 37.00 34.38 33.60 33.43 32.49 31.83 31.68 34.66 34.76 32.38 27.08 26.76 26.67 28.37 28.86 27.48 26.19 28.41 30.07 24.34 23.09 22.59 22.97 25.43 26.46 26.92 27.30 27.25 27.03 26.08 21.19 20.53 20.82 18.44
37.09 38.00 38.86 39.13 39.15 39.05 38.64 37.05 34.79 34.51 34.02 32.45 31.97 31.77 32.80 31.12 33.28 34.60 33.12 25.92 25.89 27.00 26.78 27.84 30.88 28.09 28.41 29.37 23.76 21.61 19.56 21.43 21.33 21.34 22.39 23.38 24.10 23.96 25.62 23.31 21.80 19.45 19.38
40.41 41.03 40.96 40.52 39.44 39.01 36.04 33.92 32.86 31.74 30.89 29.93 29.80 29.63 29.75 30.40 30.47 33.93 34.74 28.03 28.20 27.52 27.27 26.53 26.98 29.82 29.36 29.42 28.04 22.39 21.05 22.76 21.82 21.74 22.21 21.65 21.95 22.35 22.87 23.31 23.09 21.37 19.78
39.52 39.24 38.74 37.38 36.16 35.64 32.87 32.38 31.65 29.84 28.48 28.55 25.07 27.36 27.70 29.11 31.78 32.45 34.02 33.78 30.03 27.12 26.74 26.91 27.54 29.62 29.93 29.30 27.93 27.80 28.11 24.57 20.98 19.58 18.28 18.77 18.70 19.18 21.20 22.04 23.11 23.23 23.52
36.59 34.62 33.97 33.71 33.40 33.24 31.66 30.56 29.02 28.32 26.38 27.18 27.45 26.10 26.89 28.05 27.68 31.69 33.02 33.07 32.87 28.89 28.33 27.82 28.99 29.57 29.82 28.58 29.33 29.51 25.22 21.57 18.92 12.53 16.48 17.95 17.04 19.62 22.04 22.31 23.06 22.62 22.82
32.30 31.80 31.97 31.29 31.09 30.46 30.24 30.06 28.51 26.63 25.62 28.03 27.62 27.22 26.38 26.87 26.34 26.69 27.16 27.95 31.71 31.54 28.81 27.72 28.10 27.40 25.63 23.33 22.34 25.67 22.64 20.46 19.66 18.43 16.70 15.70 16.57 17.32 17.28 19.44 17.55 19.24 18.59
31.58 31.27 30.82 30.10 29.66 29.66 29.56 29.66 29.56 29.52 29.41 28.99 28.74 28.00 24.65 26.50 26.99 29.07 28.48 26.12 26.58 28.34 29.35 28.02 24.90 24.48 23.28 22.48 21.88 22.22 21.14 19.85 17.84 14.54 13.45 14.31 15.27 17.15 16.12 17.17 17.38 17.64 13.17
29.66 29.40 27.89 27.43 27.68 28.31 28.03 28.71 31.76 31.31 31.74 32.41 32.54 30.25 31.00 30.87 32.16 32.83 32.94 33.14 33.03 31.61 27.75 24.63 24.79 23.77 22.78 22.13 20.62 20.35 17.95 17.41 19.22 17.71 13.99 15.15 15.79 14.70 13.93 16.30 17.25 14.10 14.29
28.71 29.14 29.10 28.53 28.40 28.40 28.57 28.49 28.06 30.95 32.82 32.82 32.92 32.89 33.14 33.32 33.52 33.16 33.23 33.15 32.83 32.18 27.56 26.26 23.64 23.83 22.95 21.55 21.57 20.36 18.83 18.02 18.62 17.32 16.20 14.71 15.51 13.60 12.40 13.82 13.11 13.33 12.95
28.96 29.06 28.11 27.95 28.03 27.61 26.72 27.53 28.28 27.83 27.57 28.78 31.89 32.16 32.60 32.81 33.23 33.47 32.95 32.19 28.92 30.45 29.71 26.45 23.16 24.27 22.70 21.52 21.11 20.13 19.67 17.74 13.95 14.89 12.72 13.82 11.46 11.31 9.72 11.87 12.51 6.41 10.91
25.00 23.85 23.16 21.65 21.81 22.04 22.92 22.81 23.16 23.29 23.44 24.46 26.64 27.85 29.33 31.04 31.43 32.03 32.42 27.44 29.07 28.62 28.69 28.15 25.74 24.89 23.52 22.41 21.49 21.05 19.64 15.89 10.66 7.66 13.97 13.86 10.04 11.75 9.23 10.93 8.06 8.02 8.42
21.97 21.41 20.54 22.46 22.27 22.01 21.73 21.22 21.41 22.10 22.81 23.52 23.68 24.21 26.46 28.27 27.71 27.31 24.38 23.62 28.96 28.28 28.40 26.58 26.70 25.89 24.87 23.10 21.31 20.35 17.95 14.87 12.54 12.05 13.08 13.99 11.83 9.73 9.96 7.70 1.29 3.34 11.38
20.02 20.55 18.51 20.07 19.93 19.11 20.06 18.61 19.71 18.10 17.07 18.69 22.01 25.20 26.42 26.16 27.43 28.02 26.23 24.66 28.67 29.09 28.96 28.07 27.00 26.92 25.64 24.39 23.55 21.75 20.68 20.34 18.73 17.44 17.24 15.92 11.54 8.55 10.25 7.93 3.68 8.42 11.42
17.67 17.35 16.38 15.14 15.94 14.95 14.74 16.62 16.02 16.36 15.75 15.08 15.81 17.56 19.92 26.36 27.48 28.07 26.93 26.59 29.00 27.90 28.08 29.44 28.52 26.87 26.34 25.84 25.08 24.63 23.17 22.02 20.91 20.36 19.13 17.08 15.48 13.80 11.06 5.48 2.74 2.95 6.61
13.79 12.80 11.09 12.16 11.28 10.40 10.75 10.80 12.38 11.11 11.92 12.56 13.96 14.84 15.06 15.90 16.12 17.56 18.36 19.89 20.61 19.83 20.55 21.26 23.64 26.76 27.30 27.08 27.23 26.72 24.94 23.72 23.75 23.25 21.57 19.58 16.95 15.04 9.37 7.38 5.91 1.86 3.10
10.79 7.42 8.31 7.11 7.17 7.00 5.64 5.97 7.64 7.11 8.68 9.92 10.51 11.95 12.33 13.26 13.14 12.95 13.67 14.22 14.01 14.15 15.79 17.75 20.01 21.19 21.73 23.00 27.50 28.43 27.97 27.39 26.72 25.16 24.26 22.58 18.90 15.49 12.98 7.67 7.08 3.05 1.46
3.96 0.25 0.76 3.16 2.53 2.06 2.16 4.14 3.01 2.86 4.39 5.79 7.05 8.58 10.34 11.05 11.37 10.75 11.67 11.64 10.36 9.77 10.69 11.72 14.31 17.03 18.62 18.16 19.45 21.44 24.14 27.31 27.66 25.43 24.10 23.54 20.55 17.08 15.36 13.34 6.40 7.37 2.79
4.36 3.47 2.68 -0.13 0.17 0.03 -0.50 0.71 -0.62 0.61 1.52 2.34 3.54 5.63 7.16 8.61 9.05 8.33 9.23 8.88 8.15 8.32 8.37 9.95 11.49 12.37 14.84 17.05 18.12 19.77 20.63 21.25 26.78 27.26 25.45 23.85 20.93 18.90 16.19 14.59 10.94 10.23 10.04

GFSGL_sfc_wetblb_042.txt.gz
Wetbulb
52.89 50.32 49.55 48.32 48.44 49.18 47.77 47.54 45.82 43.84 41.98 41.09 41.43 41.29 40.74 40.22 39.27 38.40 37.58 36.55 36.41 35.59 35.52 34.15 33.96 34.36 33.87 33.78 33.68 32.44 31.11 30.16 26.17 26.13 26.61 26.59 25.48 25.76 26.58 26.54 27.60 27.47 28.33
49.37 46.89 48.32 48.91 48.56 47.31 46.25 44.41 42.20 40.90 41.62 41.58 41.40 40.75 40.55 39.48 39.19 36.98 35.82 37.42 35.43 33.99 33.49 33.90 33.86 35.48 33.07 32.63 30.77 28.59 26.59 25.95 24.35 22.33 23.53 24.04 24.07 25.20 25.04 24.52 26.39 28.26 28.24
47.55 45.90 46.57 46.03 46.23 44.69 43.30 43.16 42.87 42.47 41.77 41.93 41.32 41.03 40.76 40.64 37.65 36.68 36.97 35.89 34.95 34.21 33.43 32.66 32.77 32.38 30.21 29.04 27.51 26.30 25.45 26.40 24.40 22.71 22.23 23.83 23.99 24.24 24.12 25.15 25.49 26.42 27.82
45.99 46.61 45.37 44.05 43.43 43.90 44.01 42.84 43.10 42.50 41.01 40.69 41.09 40.32 39.64 38.67 38.15 37.78 36.68 35.77 34.08 33.78 33.23 33.11 33.08 31.13 29.49 28.46 27.18 25.73 25.02 23.49 22.83 22.13 22.03 22.28 22.18 23.48 23.53 22.43 22.36 24.38 24.14
45.94 45.27 42.68 43.03 42.64 43.23 42.53 40.80 40.88 39.72 39.60 39.84 40.08 40.68 40.97 39.52 38.56 38.35 37.16 35.05 33.22 32.31 32.60 32.23 30.95 30.84 32.82 30.13 26.68 25.04 23.64 22.30 22.11 21.68 20.89 20.86 20.40 20.18 19.79 22.37 20.64 22.11 23.54
43.60 41.87 42.59 43.17 42.40 41.23 39.46 38.50 38.91 40.07 40.77 41.04 40.68 40.15 39.69 40.05 38.29 37.28 36.00 33.28 32.60 31.55 30.74 29.41 29.39 32.53 32.94 34.18 33.28 30.96 26.01 22.85 21.75 19.69 19.97 19.05 18.71 19.71 21.57 20.20 20.28 20.08 18.98
42.82 43.12 43.37 42.03 40.13 39.94 39.51 39.05 38.83 39.41 40.42 40.25 39.51 39.32 37.74 35.66 35.58 36.53 36.18 33.14 30.95 30.15 29.11 28.95 28.41 29.15 30.49 28.18 31.69 32.26 30.28 29.07 24.70 22.71 19.88 19.38 18.97 20.93 21.31 20.56 21.57 21.88 21.90
41.65 41.13 41.35 39.79 38.64 38.82 39.42 39.25 39.47 39.84 39.46 38.74 36.51 34.69 33.52 33.45 34.97 35.64 34.75 31.81 29.36 29.15 28.42 27.96 27.73 27.90 28.79 27.66 26.65 25.97 25.26 24.74 24.85 24.37 22.33 21.15 21.72 22.97 22.90 23.29 23.21 22.89 23.79
36.78 37.39 38.59 39.11 39.10 39.14 39.15 39.86 40.22 38.95 36.89 35.65 33.88 32.49 31.46 31.59 33.97 34.66 33.65 29.43 27.76 27.64 27.79 28.02 28.04 28.66 29.90 31.09 25.62 24.18 23.59 23.86 26.99 28.43 27.42 26.94 27.43 27.63 27.03 23.63 20.54 19.93 18.07
36.97 38.55 39.69 40.33 40.50 40.07 39.37 38.43 36.59 35.51 33.89 32.96 31.81 31.34 32.15 30.99 33.03 34.45 33.92 27.89 26.98 27.42 26.97 28.57 31.48 29.11 29.93 30.70 27.19 23.85 21.58 22.77 23.46 22.33 22.69 23.95 25.63 24.75 26.03 24.06 22.44 19.00 18.88
40.38 41.03 40.97 40.74 40.24 39.68 37.83 34.62 33.31 31.96 30.60 29.79 29.95 29.92 29.61 30.02 30.03 33.76 34.50 29.37 27.99 27.70 27.57 27.57 28.38 30.85 31.74 31.10 30.21 24.40 22.94 24.08 22.97 21.79 21.90 22.75 23.37 23.36 23.66 24.26 23.99 22.12 19.59
39.25 38.76 37.78 36.56 35.46 34.68 32.49 31.77 31.30 29.58 28.40 28.40 25.34 28.14 28.30 29.04 30.89 32.00 33.92 33.94 31.48 27.54 27.69 28.30 28.76 30.66 31.22 31.35 29.98 28.42 27.58 25.11 22.47 21.01 20.44 20.69 20.88 21.16 22.54 23.20 23.75 24.07 24.21
34.04 33.77 32.53 32.17 32.02 31.51 30.10 29.50 28.72 27.75 25.16 27.20 27.97 27.85 28.22 29.01 28.07 31.46 32.90 33.09 32.83 30.58 29.33 29.65 30.37 30.35 31.32 30.69 30.58 29.52 27.30 25.56 22.35 19.97 20.07 20.21 20.82 21.74 23.09 22.95 24.03 23.56 23.58
30.71 30.52 30.59 30.14 29.85 29.32 29.18 29.23 27.80 26.03 26.09 28.06 27.69 27.83 27.97 28.54 26.69 27.70 27.57 27.14 29.76 30.80 28.72 30.13 28.61 28.14 27.65 29.31 27.99 29.42 27.84 25.64 23.06 21.10 19.87 20.25 19.43 19.14 19.79 21.41 19.76 20.29 19.58
29.79 29.64 29.20 28.61 28.22 28.46 28.41 28.02 28.27 28.37 28.32 28.18 28.53 28.09 27.71 28.67 30.42 31.09 29.90 28.13 26.65 27.93 25.61 28.32 27.82 26.66 26.24 25.67 25.41 25.39 25.31 23.81 21.85 19.91 18.04 17.84 17.72 18.21 18.73 19.89 19.41 19.20 16.97
29.33 28.96 27.16 27.02 26.30 27.97 27.95 27.59 30.71 30.57 31.86 32.12 32.44 30.04 31.01 32.46 33.04 33.36 32.89 33.07 33.32 32.34 27.99 27.76 25.91 23.93 24.43 24.45 24.55 24.17 24.22 22.90 22.83 20.65 18.45 18.30 17.96 17.64 17.51 18.27 18.97 17.57 15.97
26.57 26.39 24.84 23.98 23.64 23.03 22.86 22.67 20.93 24.13 27.05 27.29 27.96 28.64 29.39 30.06 31.04 31.94 33.05 33.08 33.30 32.02 29.31 28.45 27.14 26.97 26.38 25.13 25.20 24.23 22.57 22.07 22.03 20.92 19.80 17.91 17.34 17.21 15.85 16.94 16.84 16.37 15.85
23.46 23.38 21.27 21.33 20.77 21.13 18.74 20.67 20.58 20.52 19.12 19.72 23.98 25.26 26.56 28.09 28.96 29.75 30.24 31.11 30.46 31.03 30.11 29.18 28.53 28.08 27.02 25.71 24.78 23.94 23.02 21.76 18.98 19.21 17.29 16.23 14.72 15.84 15.02 15.40 16.43 13.47 14.36
21.32 20.79 20.76 19.25 19.11 19.01 19.07 19.10 19.98 19.46 18.10 16.78 17.82 19.13 19.89 21.16 24.31 27.81 29.05 28.31 28.18 28.88 28.99 28.39 28.79 28.44 27.52 26.58 25.46 24.47 23.63 21.05 18.56 15.58 17.09 14.54 13.30 15.42 13.82 15.02 14.78 10.54 10.72
20.15 19.80 17.84 18.83 18.43 16.99 16.72 15.50 16.39 16.59 16.33 15.60 14.63 14.65 16.69 16.73 15.18 16.52 24.06 25.32 26.87 27.53 29.09 28.14 28.13 28.00 27.35 25.78 24.93 24.20 22.04 20.08 18.11 15.63 15.31 14.77 13.45 14.37 14.99 14.32 11.81 12.19 14.71
17.46 17.29 13.91 15.16 14.50 14.26 12.84 13.22 12.87 13.56 11.44 11.95 12.63 13.33 13.98 14.53 14.59 15.13 15.52 15.05 20.76 26.54 28.49 28.45 28.63 28.38 27.88 25.75 25.52 23.45 21.93 20.87 20.34 18.83 18.01 15.91 14.35 15.27 15.73 15.91 13.27 12.61 14.04
14.31 12.73 12.50 11.82 11.57 10.20 9.64 10.06 9.54 8.86 8.59 8.98 9.59 11.18 11.13 11.84 12.94 12.87 13.36 13.17 13.95 14.95 17.26 19.52 21.77 24.85 26.84 26.23 25.84 24.40 22.89 22.14 22.10 21.08 19.08 17.67 16.69 16.39 16.59 15.48 11.92 11.19 13.40
11.70 7.06 7.67 8.84 7.17 4.66 4.12 4.97 5.90 3.88 4.39 5.05 6.02 7.20 8.23 8.49 9.90 10.50 10.78 11.91 12.05 11.91 13.15 13.83 16.07 18.43 19.03 21.17 24.68 26.83 25.47 24.61 24.77 24.43 22.12 19.76 18.32 17.41 16.51 15.52 12.84 10.59 10.81
7.73 2.37 5.41 2.56 0.11 1.36 -5.99 -5.45 -2.95 -0.67 1.72 1.73 1.39 3.14 4.85 5.86 6.77 7.97 8.19 9.89 10.00 10.08 10.85 11.22 12.05 12.93 13.33 15.43 19.14 21.13 22.66 26.81 27.20 26.01 25.25 23.04 20.74 19.26 16.98 16.33 14.67 12.03 11.48
-2.25 -5.45 -5.27 -3.82 -5.63 -9.07 -10.35 -6.02 -7.08 -7.82 -3.48 -2.22 -1.22 -0.21 2.70 2.44 4.90 4.31 5.11 7.54 8.15 8.04 8.94 9.57 10.64 9.26 10.36 10.86 13.73 18.34 19.87 21.03 22.03 26.27 25.87 24.74 22.10 19.36 18.17 17.47 15.89 13.66 10.80
1.62 -1.38 -3.13 -5.45 -8.17 -10.89 -11.98 -11.25 -9.45 -10.54 -6.86 -4.34 -3.39 -2.34 -0.78 -0.42 2.60 1.54 2.49 3.98 4.82 5.58 7.25 8.57 8.38 7.37 7.35 10.49 13.90 15.95 15.86 17.71 20.28 21.06 25.72 24.68 21.91 19.71 18.22 17.63 15.66 15.28 13.34

GFSGL_sfc_wetblb_045.txt.gz
Wetbulb
60.12 59.90 59.50 58.54 57.72 56.98 54.88 53.75 50.53 48.97 47.41 45.91 45.87 45.72 44.89 42.52 42.75 41.46 42.04 43.06 42.24 43.27 42.83 42.29 41.84 42.17 41.34 41.24 41.28 40.52 38.99 37.71 33.76 35.89 36.27 36.32 34.82 34.23 34.45 34.44 33.15 32.80 33.55
59.60 57.78 57.64 56.76 54.94 54.43 53.00 52.16 50.77 48.03 46.25 45.39 45.12 43.63 42.37 42.25 43.00 41.97 41.86 40.05 42.08 41.90 41.81 41.75 41.19 40.57 40.79 41.08 40.44 39.41 38.52 38.21 35.06 32.35 34.89 33.42 32.65 33.79 33.29 31.82 31.17 31.84 32.62
55.98 55.30 54.90 54.29 52.64 52.01 51.11 49.77 47.59 45.89 46.07 43.85 43.30 42.06 41.81 42.17 43.25 41.26 42.17 42.95 42.14 41.76 41.89 41.18 41.13 40.70 39.82 40.22 39.55 38.34 37.60 35.75 35.02 32.46 31.80 33.49 32.35 32.75 31.48 31.28 30.62 31.56 31.50
52.46 51.58 51.20 50.89 51.04 50.00 48.40 48.01 47.22 46.07 44.19 43.69 43.58 43.18 42.60 41.00 42.56 42.38 42.00 41.21 41.15 40.97 41.11 40.80 40.58 39.91 39.72 39.98 38.64 37.55 36.09 34.56 33.59 31.83 31.40 31.19 31.42 31.85 30.33 27.88 28.20 30.46 29.77
51.20 50.41 49.09 48.08 47.98 47.71 46.28 44.14 44.15 42.72 41.91 42.40 41.46 42.37 42.44 42.05 41.17 40.67 41.59 41.92 42.11 41.11 40.73 39.85 40.07 40.03 38.66 38.39 36.78 36.86 35.07 33.44 32.40 31.27 30.31 30.37 29.55 29.36 27.42 28.01 26.91 28.26 29.58
49.37 47.56 46.67 46.52 44.29 41.77 40.70 40.34 40.63 41.03 42.02 43.04 41.82 41.19 41.21 41.10 39.33 39.10 39.22 41.25 39.86 39.07 39.18 39.61 39.57 36.15 36.17 35.00 34.53 33.37 33.83 33.31 31.47 30.77 30.11 28.63 28.68 29.01 27.66 26.96 26.40 25.26 24.02
46.47 45.74 44.53 42.58 40.69 40.46 40.97 41.06 41.41 41.24 42.34 41.72 41.66 41.51 40.42 41.21 38.34 37.48 36.23 38.93 39.11 39.24 38.90 38.94 38.21 35.84 34.39 36.00 33.79 33.61 33.15 30.97 29.24 32.30 29.55 29.35 28.60 28.54 27.57 26.34 26.52 26.05 25.61
44.69 43.80 42.55 40.86 40.03 40.62 40.85 41.06 41.16 41.14 40.81 40.83 40.71 41.13 41.52 40.03 35.74 35.50 34.95 38.65 38.40 38.23 37.91 38.06 37.94 37.15 34.36 33.96 33.57 33.37 33.63 33.83 32.46 30.67 31.12 30.90 30.57 29.06 28.45 28.05 27.41 27.14 27.76
41.12 41.05 41.44 41.83 41.09 41.02 40.71 40.55 41.04 40.73 40.77 41.78 40.98 39.99 38.81 38.40 34.99 34.60 35.11 37.80 36.96 36.76 37.53 36.92 36.54 36.01 33.94 32.33 33.56 31.91 31.66 31.80 31.31 29.90 29.52 29.39 27.96 27.28 28.63 28.69 26.41 24.97 23.68
40.89 41.42 42.17 42.34 41.67 41.61 41.20 39.70 38.98 39.75 38.95 38.60 37.78 38.38 36.56 37.30 35.88 34.57 35.03 36.99 35.79 36.03 36.94 36.03 32.44 34.03 32.56 32.37 33.78 31.84 29.65 30.82 30.95 29.84 29.82 29.30 28.68 29.30 27.77 28.42 27.85 24.25 24.03
42.48 42.91 42.37 41.00 40.15 39.34 38.11 38.02 38.50 37.87 37.15 36.93 35.59 37.03 36.90 36.41 36.67 34.31 34.48 35.74 35.90 35.57 35.18 35.28 35.70 32.20 32.24 32.23 31.94 32.86 31.50 32.46 29.76 29.48 29.30 28.78 28.49 28.87 29.40 29.92 29.53 27.39 24.88
39.61 37.44 37.01 37.32 37.06 37.04 36.97 36.71 36.43 35.99 35.00 35.04 34.54 34.74 36.16 36.26 34.10 34.36 34.12 33.74 34.83 35.20 34.66 35.77 35.89 33.06 32.35 32.07 32.37 32.48 30.90 29.29 30.19 29.32 28.41 26.98 27.37 28.05 29.41 29.88 29.68 29.10 28.94
36.52 35.73 35.71 35.39 34.87 34.90 34.75 34.62 34.63 34.93 34.05 33.71 33.27 33.61 34.39 35.31 35.92 33.78 32.74 32.91 32.63 34.00 36.13 35.37 33.46 32.65 32.13 31.54 31.64 31.73 30.85 29.91 29.55 28.08 27.79 27.37 28.57 29.78 29.67 28.70 28.63 28.71 28.06
34.46 34.17 34.40 34.19 34.01 34.20 34.27 33.91 33.34 32.79 31.87 31.34 31.26 30.78 31.29 31.89 33.31 34.33 34.74 35.46 34.24 33.25 32.49 33.89 33.12 31.83 31.91 32.75 31.68 32.08 32.44 31.98 30.04 28.83 28.68 29.16 29.52 28.17 27.64 28.67 26.91 26.91 25.07
32.90 31.96 31.59 30.91 30.39 30.29 30.16 29.71 28.90 30.07 29.79 28.38 28.43 28.05 28.11 27.83 28.90 29.51 29.63 29.75 31.97 32.72 32.77 32.95 32.81 31.19 30.31 30.50 30.42 30.93 31.41 31.16 29.36 29.67 28.69 28.07 27.14 27.02 27.35 28.25 26.53 25.91 23.43
29.06 28.19 26.77 27.24 27.06 27.10 26.60 26.60 26.97 26.33 26.46 26.39 25.84 26.04 27.03 26.52 25.38 25.40 26.06 27.31 29.64 30.25 30.16 29.96 30.83 31.76 29.78 30.09 29.71 29.13 29.04 29.20 28.91 28.92 28.59 27.52 26.89 26.61 27.04 27.03 26.14 25.08 23.36
25.53 25.32 25.48 25.04 25.17 24.55 24.07 23.57 22.60 25.12 24.83 24.24 23.35 23.49 23.54 23.28 23.68 24.57 24.22 25.91 28.36 29.00 29.29 29.09 30.61 31.88 30.58 29.17 28.61 27.56 27.80 29.88 29.94 28.25 28.33 27.64 27.34 26.95 26.04 26.19 25.85 24.62 23.60
24.55 22.88 23.74 24.10 23.76 23.26 22.45 22.34 22.52 21.34 20.46 21.40 22.48 21.40 20.77 21.14 21.58 22.82 23.10 23.24 26.21 28.81 29.00 30.56 31.03 32.50 31.85 29.85 29.02 28.28 28.29 29.15 28.01 27.67 27.72 28.12 27.53 26.60 26.14 25.57 25.40 24.13 23.50
23.12 21.93 21.88 22.33 21.88 20.32 20.60 19.97 20.14 19.35 18.83 18.47 19.31 19.49 18.63 18.25 19.67 20.34 20.58 19.77 18.96 18.66 21.34 27.25 30.96 32.04 31.66 30.63 30.51 30.09 28.89 29.10 28.66 27.75 27.44 26.93 26.44 25.83 25.99 26.15 25.64 21.74 20.80
21.72 18.91 18.33 19.63 19.06 18.09 17.72 17.25 16.73 16.82 16.07 15.58 15.73 15.56 15.50 15.13 15.49 16.54 17.20 17.42 16.83 16.79 18.56 18.87 19.13 30.28 31.81 31.46 31.18 29.89 29.56 28.99 27.96 27.05 27.17 27.06 26.60 26.05 26.04 25.61 25.26 24.52 22.93
19.48 18.10 15.07 17.40 16.36 15.40 14.96 14.54 14.19 13.90 12.76 12.90 13.24 13.90 10.28 11.88 13.28 14.08 14.54 14.63 14.69 14.79 15.42 15.98 18.21 18.91 22.76 31.00 30.79 30.19 28.87 28.62 27.62 26.65 26.78 25.99 25.74 23.84 25.52 26.53 26.04 24.19 23.72
15.41 14.70 14.92 14.26 14.10 12.57 11.21 11.88 11.97 10.89 10.34 10.17 10.78 11.50 9.08 12.17 11.86 12.04 13.22 12.32 13.36 14.25 14.38 14.25 14.68 16.62 17.51 18.23 22.90 28.54 28.00 27.66 27.34 27.00 26.74 25.91 24.84 24.82 25.13 24.94 24.71 24.26 23.33
13.31 11.65 12.02 11.97 10.97 8.52 8.96 8.64 8.65 8.44 8.13 8.42 8.29 8.12 8.60 9.21 9.21 9.31 10.93 10.50 11.21 12.21 12.59 12.55 12.73 13.22 14.95 15.12 17.73 22.12 24.16 26.56 28.59 28.73 26.68 26.03 25.18 25.17 24.75 24.51 23.84 23.01 22.68
11.04 10.30 9.40 9.19 8.06 6.92 6.36 5.80 6.36 4.85 4.88 5.74 6.18 6.31 6.39 6.95 7.41 7.18 8.88 8.86 8.62 9.88 10.41 11.22 11.44 11.93 11.98 12.76 14.92 18.41 22.30 21.34 23.56 27.69 28.51 27.37 26.02 25.33 25.19 24.53 24.26 23.17 22.55
9.90 8.80 7.91 7.41 5.87 4.73 3.82 4.07 3.79 3.53 3.71 3.75 4.16 4.46 4.84 5.34 5.68 6.21 7.08 6.82 6.50 6.42 6.73 8.60 10.02 10.44 10.75 10.42 11.83 14.42 15.34 14.01 18.54 22.56 26.33 28.43 27.19 26.05 24.76 24.23 24.06 23.21 22.05
9.71 7.94 7.25 6.73 5.62 4.15 3.12 1.90 1.53 1.68 1.21 1.58 2.24 2.60 2.92 2.98 3.86 4.37 4.44 4.55 4.68 3.48 5.00 6.95 8.08 8.21 8.90 10.51 11.93 12.67 10.91 11.24 15.15 18.09 22.48 25.97 27.39 26.08 24.66 23.55 23.22 22.96 20.79

GFSGL_sfc_wetblb_048.txt.gz
Wetbulb
64.27 64.24 63.32 62.17 61.90 61.59 60.31 58.93 58.66 57.63 55.25 50.62 51.62 50.79 47.93 45.75 44.62 42.56 43.55 43.66 43.26 43.63 44.29 44.66 44.73 46.03 44.70 44.69 44.73 43.87 42.57 41.65 37.98 40.00 41.42 41.97 40.53 39.28 39.21 39.52 38.74 37.73 36.96
64.45 64.01 63.57 62.79 61.18 59.99 59.25 58.65 57.34 53.58 51.44 50.42 48.71 45.76 46.36 43.39 43.02 42.68 42.92 41.99 42.19 42.23 44.14 44.44 44.14 44.10 44.42 44.60 43.96 41.80 41.11 42.12 39.73 37.32 39.44 39.35 39.54 39.55 38.65 37.28 36.73 36.24 36.22
63.48 62.22 61.02 58.64 57.33 55.71 54.46 52.98 51.79 50.20 48.61 46.02 45.91 46.53 44.01 43.25 42.02 42.63 43.20 43.47 42.86 44.19 43.82 43.68 43.83 43.87 43.47 43.74 42.90 41.42 41.90 41.16 39.93 38.04 37.03 39.12 38.84 38.85 37.19 37.19 36.13 35.74 35.85
59.42 58.30 56.08 55.05 53.81 52.86 51.89 50.21 48.62 48.47 46.23 45.57 44.50 43.35 42.97 42.49 43.44 43.31 43.48 42.95 43.58 43.62 43.22 43.08 43.97 43.90 43.21 43.09 42.35 41.32 40.60 39.62 38.90 37.74 37.01 36.53 37.03 37.88 36.74 34.04 33.24 34.62 34.20
57.27 55.07 53.32 51.78 51.45 51.65 52.49 51.56 49.69 47.26 45.51 44.90 43.81 42.11 43.24 43.19 43.09 43.28 42.14 41.79 41.97 42.84 43.79 44.69 44.37 43.15 41.19 41.36 42.26 42.37 40.52 38.45 37.72 36.80 35.35 35.28 35.03 35.06 33.68 34.63 31.94 32.64 33.83
55.41 53.32 51.71 51.29 51.05 49.17 47.42 46.61 46.06 43.87 44.57 43.36 44.25 43.70 43.15 43.27 39.37 38.75 39.94 41.88 42.41 43.52 41.94 42.50 43.34 41.45 40.46 37.71 37.00 36.49 37.91 39.26 37.44 35.59 34.24 32.88 34.44 34.71 34.67 33.09 31.23 29.78 28.19
52.09 50.60 48.95 47.43 45.95 45.55 45.64 45.08 44.20 45.34 44.60 44.05 43.12 43.15 42.77 42.79 39.14 39.22 38.13 42.65 41.99 41.99 42.01 41.92 41.35 41.49 39.90 41.57 36.87 34.80 34.07 33.31 30.64 35.96 33.98 34.53 34.31 34.88 34.37 31.85 30.79 30.51 29.95
49.63 47.99 46.85 46.49 45.53 45.55 45.54 45.26 44.40 44.28 43.11 42.53 41.91 42.82 43.20 42.79 38.47 37.02 35.45 40.52 41.47 41.67 41.91 41.62 41.18 41.13 41.58 40.93 40.13 39.50 38.59 38.90 36.78 35.91 35.52 36.02 36.25 36.07 34.54 32.40 31.34 31.11 31.91
47.06 46.53 46.32 46.46 45.59 45.84 44.26 43.59 44.08 42.18 41.29 42.59 43.56 43.45 43.27 43.18 36.82 35.63 35.56 40.60 40.50 40.87 41.24 41.33 41.03 40.66 37.97 36.12 37.42 36.84 37.21 37.09 36.78 34.06 33.59 32.74 30.55 29.13 29.50 31.28 29.13 28.39 27.92
46.03 46.10 46.49 46.40 45.74 44.88 43.06 40.69 39.90 41.30 43.65 43.04 41.67 41.91 39.37 40.90 37.99 36.31 36.28 39.49 38.44 39.00 40.03 40.18 36.28 37.56 35.32 33.61 36.41 35.60 34.55 35.92 35.96 35.89 34.06 31.97 30.95 32.46 29.26 30.62 30.72 27.53 28.08
46.13 45.89 44.88 44.18 41.56 39.66 39.52 41.93 42.95 42.55 41.53 40.71 39.30 40.38 40.19 39.49 39.80 36.08 35.51 37.20 37.64 38.20 37.78 38.45 39.55 34.80 33.43 33.11 33.14 35.74 35.60 36.33 34.68 34.56 34.89 34.18 33.84 33.62 32.97 32.23 31.98 30.93 28.76
43.89 41.04 39.38 40.13 40.34 40.87 40.61 40.68 40.31 40.04 38.88 38.51 39.65 38.44 39.93 39.98 36.35 36.19 34.89 34.24 34.26 35.70 35.17 38.37 38.99 35.73 34.96 33.61 33.36 33.17 32.66 32.74 34.58 34.33 32.45 32.27 31.81 31.74 32.71 33.19 33.27 33.27 33.29
41.17 40.14 39.48 39.09 39.17 39.52 39.57 39.08 39.11 38.76 37.68 36.48 35.26 35.05 35.01 35.32 35.54 32.87 32.01 30.54 30.64 32.05 33.74 35.12 33.40 33.68 33.94 33.18 32.61 31.96 31.73 33.66 33.34 32.35 31.51 31.17 32.06 32.62 32.55 31.97 32.55 32.94 32.34
38.53 38.20 38.57 37.42 37.86 37.63 38.08 36.56 35.22 34.05 32.61 31.54 31.16 30.70 30.94 31.15 31.95 30.91 29.01 29.59 29.13 30.68 31.37 34.37 32.28 31.74 32.32 33.01 34.45 34.41 35.10 34.51 33.24 32.81 32.19 32.76 33.43 32.54 30.41 30.97 29.23 29.67 28.58
36.98 35.98 35.38 34.76 33.69 33.78 33.09 32.14 31.12 31.30 28.71 28.73 28.77 28.34 27.74 27.24 27.40 25.75 26.21 27.08 28.10 27.83 27.93 30.53 31.82 31.39 32.85 32.68 33.62 33.96 34.50 33.69 32.21 32.99 32.73 31.98 31.78 31.00 29.54 30.37 29.29 28.74 27.22
33.21 32.13 30.75 31.98 31.97 31.91 31.65 31.97 26.26 25.76 25.07 25.01 24.13 24.67 26.42 24.89 23.93 23.72 24.66 24.70 25.06 25.70 28.79 28.84 30.21 31.55 30.92 31.58 32.65 33.02 33.12 31.53 32.48 32.58 32.76 31.86 31.01 30.11 29.46 29.39 29.27 27.59 27.14
30.49 29.78 29.80 29.58 30.10 29.11 29.29 28.86 27.88 28.46 25.35 24.46 23.26 22.89 22.51 21.57 21.63 22.50 23.20 23.03 25.09 25.72 26.05 26.16 28.64 30.66 31.90 31.64 32.76 32.77 31.78 31.58 31.94 30.79 31.07 31.48 31.10 30.39 29.48 28.74 28.74 26.86 26.64
27.77 24.92 29.35 29.28 28.65 28.16 27.60 26.67 26.98 25.35 24.22 25.27 24.56 22.31 21.11 20.43 20.16 21.46 21.93 23.21 23.54 23.98 23.93 23.09 23.79 25.89 26.41 27.83 33.22 33.35 32.66 32.25 30.38 30.22 31.10 31.58 31.21 30.13 29.40 27.46 27.38 27.16 26.85
27.71 27.11 27.20 27.40 25.72 24.48 25.40 25.20 24.76 23.81 23.31 22.82 23.31 23.23 22.06 18.69 20.06 20.97 21.25 21.82 19.89 20.15 20.38 20.75 21.49 22.64 23.86 23.26 29.59 33.62 32.17 31.98 31.57 30.86 30.64 30.68 30.90 30.19 29.00 28.19 27.81 27.11 26.41
24.99 20.84 22.22 25.35 24.87 23.78 23.59 22.70 21.98 21.83 21.03 20.90 20.72 20.39 19.70 17.42 19.56 20.42 20.94 20.46 18.90 18.49 18.70 18.65 19.13 20.11 21.32 22.21 22.61 28.20 32.51 31.95 31.66 31.04 30.99 31.03 31.08 30.42 29.04 27.68 27.97 27.30 25.60
25.97 23.49 18.66 23.91 22.69 21.25 20.89 20.53 20.12 19.92 18.94 18.56 19.08 19.08 12.39 13.95 17.81 18.22 17.74 18.39 17.43 16.72 17.08 17.20 17.64 18.62 19.54 19.93 19.73 22.06 24.69 31.43 31.76 31.07 30.41 30.61 30.69 29.24 28.86 28.57 28.13 27.08 26.44
21.55 21.07 21.00 20.29 20.55 19.34 17.47 18.51 18.28 17.63 16.97 16.46 17.13 17.13 13.32 16.55 16.71 16.36 16.34 16.78 16.64 16.34 16.40 16.58 15.84 17.17 17.63 17.73 16.39 18.30 20.43 25.35 30.14 30.42 30.16 29.72 30.02 29.72 28.71 27.94 27.98 27.38 25.85
19.09 19.16 19.01 18.35 17.66 14.62 17.03 16.43 16.11 15.73 15.23 15.00 15.10 14.97 14.81 14.82 14.36 14.68 14.61 15.02 15.52 14.96 15.51 15.15 14.48 14.72 16.56 16.95 16.04 16.37 17.60 20.68 21.19 23.84 28.13 29.55 29.44 29.08 28.67 27.47 26.95 26.26 25.94
17.26 17.27 16.23 16.64 15.44 14.71 14.88 14.08 14.50 12.43 12.00 13.27 13.66 13.76 13.63 13.00 13.25 12.91 12.91 13.79 13.14 13.40 13.51 12.82 12.00 12.96 13.89 14.47 14.58 14.87 16.54 19.58 18.22 20.02 23.56 26.75 29.15 29.24 29.03 28.02 27.67 26.52 26.41
17.11 16.86 16.18 15.48 14.52 13.57 13.09 12.93 12.32 12.21 12.06 11.97 11.86 12.01 12.25 11.99 11.79 12.17 12.38 11.75 10.78 11.06 10.68 10.47 11.70 12.50 11.89 11.91 12.24 13.67 15.01 14.49 14.96 15.63 20.69 23.19 28.87 29.39 28.67 28.41 28.15 27.65 26.87
16.09 15.00 14.60 14.33 13.92 12.71 11.61 10.65 10.43 10.24 9.57 9.94 9.94 10.33 10.46 10.15 10.49 10.55 9.91 9.42 9.28 8.17 8.42 10.55 10.90 10.75 10.30 11.94 13.41 13.95 12.86 12.37 14.08 14.90 16.38 21.02 25.90 28.85 28.99 28.00 28.08 28.04 26.50

GFSGL_sfc_wetblb_054.txt.gz
Wetbulb
62.41 62.08 61.66 60.50 61.06 62.22 62.35 61.24 61.44 59.10 57.99 56.42 55.35 54.68 52.40 49.07 48.71 45.72 44.69 43.84 43.03 43.28 43.16 42.54 42.95 43.66 43.22 44.45 43.81 42.05 39.37 38.42 35.40 36.08 37.26 37.65 37.15 37.69 38.38 38.10 38.62 36.30 36.27
63.33 62.49 62.44 63.00 62.73 61.62 60.37 59.26 58.68 57.32 56.79 55.63 53.27 50.39 48.52 47.06 44.89 43.84 43.05 43.32 42.98 42.28 42.27 42.74 42.93 43.92 43.23 44.01 42.66 40.91 39.65 39.09 37.67 35.00 36.03 35.86 36.45 37.22 37.04 35.40 37.98 38.70 35.18
62.00 61.85 61.85 61.09 58.58 56.57 55.19 54.29 53.43 52.01 50.29 49.61 48.04 46.95 44.98 45.02 43.27 43.21 42.95 42.28 42.17 41.97 42.58 42.73 42.33 42.84 42.10 42.44 41.55 40.92 39.81 41.19 39.41 35.19 35.35 36.27 36.48 35.89 34.54 35.28 34.88 34.30 37.29
59.70 59.48 58.17 56.56 54.89 53.67 52.22 50.72 49.16 48.32 47.15 46.84 46.40 45.29 44.20 43.77 43.23 43.12 42.56 42.02 42.17 42.60 43.04 42.70 42.77 42.82 41.83 41.77 41.38 41.27 40.55 39.06 39.06 37.22 36.30 35.72 34.24 34.95 33.91 31.81 30.71 32.18 31.79
57.85 56.23 54.68 54.27 53.33 51.98 50.41 48.93 47.88 47.06 46.22 44.98 44.12 43.41 43.32 42.99 42.98 42.74 42.69 42.15 42.06 42.21 42.61 43.04 42.94 42.80 42.02 41.53 42.31 40.62 37.39 35.85 35.49 35.07 34.74 33.69 32.79 31.63 30.21 32.00 31.39 30.36 30.40
55.97 54.75 54.76 53.70 53.28 52.12 49.90 48.53 47.34 45.98 45.06 44.60 44.14 43.37 42.38 43.68 40.19 40.14 41.71 41.67 41.74 41.19 40.58 41.37 42.23 41.77 41.43 39.87 40.27 39.26 37.58 35.62 34.61 33.81 34.34 34.09 32.81 33.98 31.61 30.25 30.04 27.13 25.53
54.74 54.67 53.80 51.96 50.40 49.01 48.83 47.71 46.24 45.86 45.78 45.25 44.29 43.87 43.77 42.65 39.22 39.61 38.82 41.36 40.69 40.27 39.99 39.98 39.78 41.22 38.69 38.77 37.79 36.78 35.74 36.15 34.18 35.74 33.54 33.73 33.45 33.57 31.83 30.35 29.51 28.50 28.48
52.11 50.99 50.36 49.14 47.89 47.84 47.45 46.15 45.28 44.97 44.57 44.62 43.71 42.95 42.82 43.04 39.16 39.16 37.85 38.86 37.02 37.71 37.68 37.93 37.23 37.46 38.08 37.26 35.84 34.57 35.81 36.88 36.25 35.18 33.57 34.57 34.55 33.80 32.03 32.23 31.09 29.60 27.17
49.47 49.09 49.06 48.35 47.60 46.73 45.72 44.97 44.49 43.85 42.69 43.45 43.79 42.60 41.82 41.68 39.05 37.48 35.31 36.21 36.11 35.25 37.57 37.02 36.74 35.32 36.14 36.10 33.88 32.69 33.63 34.88 38.10 37.66 37.32 37.08 36.63 36.01 34.04 30.01 27.06 25.95 21.94
48.63 48.47 48.78 48.33 46.95 44.48 44.05 43.38 42.78 43.32 44.17 43.51 41.83 40.70 37.54 36.98 35.95 34.90 35.42 33.33 31.34 29.58 31.47 33.08 33.65 33.97 33.14 32.91 30.54 30.18 29.77 31.66 33.92 34.76 34.78 33.78 34.72 31.67 31.92 30.72 28.97 27.86 27.55
48.87 48.31 46.90 45.81 44.84 44.10 42.29 42.30 42.74 41.31 40.72 37.61 36.83 37.41 38.56 34.43 32.56 31.54 31.01 27.83 26.25 26.49 26.76 27.08 27.86 30.97 30.84 30.44 30.09 26.83 26.68 29.63 30.92 32.07 32.85 33.44 33.34 32.17 31.28 29.98 29.51 29.11 27.35
46.92 45.59 44.82 43.77 43.12 43.12 42.15 40.45 39.88 38.95 36.95 35.53 34.32 33.89 34.51 32.55 31.04 30.59 29.51 28.39 28.17 25.58 25.37 26.17 27.16 28.77 29.41 29.56 28.95 29.57 30.25 30.18 31.07 29.87 29.80 30.58 32.60 32.57 33.95 33.20 31.19 29.39 29.62
44.25 42.89 42.74 42.51 42.08 41.28 39.38 38.19 37.65 36.97 33.39 30.95 30.23 30.23 30.10 29.76 29.54 29.01 27.93 27.16 27.09 25.07 25.90 26.89 26.99 27.36 28.36 28.32 30.27 30.43 28.59 27.15 26.38 26.79 27.38 28.79 30.95 32.83 34.01 33.00 32.52 32.29 30.12
42.26 40.71 40.00 38.96 38.47 38.27 37.19 35.44 33.71 30.75 29.66 29.33 29.18 27.75 27.56 27.30 25.16 24.48 24.13 23.08 25.17 24.81 24.38 23.21 23.56 25.88 26.07 26.67 27.50 28.08 28.92 29.61 29.05 29.43 29.29 30.81 31.96 32.84 32.69 32.84 30.84 29.77 29.58
40.05 39.23 37.69 36.61 35.42 33.61 30.18 30.66 28.20 26.16 26.70 27.49 26.00 26.39 23.06 22.35 22.82 23.02 22.58 22.28 21.73 23.06 21.31 22.30 23.38 24.12 23.32 23.15 23.08 23.72 24.39 25.44 25.20 25.66 26.69 29.70 30.99 32.21 31.63 31.93 31.40 29.93 27.38
36.81 35.01 32.91 32.19 31.50 32.52 29.71 27.71 28.69 26.70 26.33 25.72 24.85 24.17 24.08 24.12 22.81 22.91 23.01 23.78 24.14 24.48 21.43 20.43 18.89 19.00 19.53 20.08 19.75 19.91 20.98 21.51 21.85 23.36 22.59 27.46 30.79 31.05 30.77 31.32 30.50 28.57 26.58
31.41 32.05 30.72 31.15 30.56 29.79 29.28 29.11 24.42 25.35 26.55 25.86 25.04 24.09 23.11 21.45 22.00 22.37 22.69 23.46 24.03 24.62 18.00 19.04 17.38 17.46 17.83 19.09 18.80 18.61 18.68 20.05 20.14 20.78 21.06 26.12 30.82 30.64 30.19 29.61 29.61 28.04 27.13
29.07 30.69 30.49 30.05 29.37 29.35 28.11 27.70 27.69 26.42 24.93 24.18 24.97 24.61 23.58 22.10 21.82 22.24 23.09 23.12 19.75 20.90 19.90 17.97 16.57 17.19 17.49 17.54 17.33 17.42 17.82 18.32 17.96 17.77 19.65 27.36 31.05 28.95 28.57 28.49 28.68 26.61 26.77
28.82 28.37 28.40 26.95 25.57 25.45 26.30 26.35 25.97 25.36 25.14 24.61 24.75 23.88 21.82 21.32 21.35 22.44 23.99 17.74 15.20 16.72 18.03 17.23 15.90 16.22 16.07 16.44 15.53 16.29 16.73 16.08 16.66 16.93 19.90 24.26 29.72 28.80 27.31 25.13 28.02 27.56 27.45
24.36 24.60 26.74 25.88 24.85 24.96 24.98 24.23 24.25 23.78 23.47 23.11 22.23 21.84 20.46 16.75 12.44 13.54 15.34 13.62 12.81 14.24 15.44 15.62 15.94 15.50 14.66 14.51 14.08 14.91 14.75 14.28 15.07 15.76 17.49 17.98 19.33 28.11 24.84 22.57 24.91 28.54 26.77
23.59 22.05 21.92 24.31 23.87 22.77 22.77 22.72 22.51 21.94 21.40 20.83 20.16 15.78 12.87 14.45 12.40 15.80 15.11 13.21 14.67 13.60 12.51 15.07 13.82 13.06 13.59 13.22 12.89 12.33 13.14 11.80 13.66 14.65 15.50 14.98 15.95 18.48 26.96 24.94 28.46 27.64 27.61
23.08 22.76 22.78 22.01 22.27 21.58 19.71 20.37 20.58 20.05 19.84 19.13 18.83 19.06 15.58 14.12 16.01 14.80 13.88 13.57 10.09 12.17 14.01 12.74 12.31 12.63 12.78 12.35 10.44 10.75 10.90 10.57 12.24 12.85 13.10 13.35 13.93 15.63 19.05 24.98 28.52 27.74 26.96
21.55 21.31 20.92 20.42 19.97 17.47 18.82 20.04 19.28 18.92 17.94 17.32 16.68 16.63 16.50 14.78 13.93 14.00 12.53 9.80 11.15 10.37 10.42 11.22 10.33 11.15 10.95 9.68 10.82 12.45 10.79 10.93 10.85 12.23 12.59 11.05 11.51 13.02 16.07 18.44 26.75 27.15 26.96
20.23 20.06 18.69 19.08 19.38 16.50 17.60 17.99 17.12 16.76 16.63 16.07 15.77 15.53 15.07 13.73 11.71 9.71 9.89 10.26 8.30 7.25 7.34 9.48 10.10 7.49 8.40 9.89 11.48 11.03 11.35 10.83 11.32 13.28 12.39 10.25 9.80 13.29 14.78 17.06 20.37 27.00 27.14
19.76 18.93 18.51 18.24 17.84 17.77 17.17 16.62 16.46 15.77 15.36 14.38 14.00 13.97 12.94 12.46 12.19 10.79 8.77 8.61 7.59 7.00 8.55 6.22 7.56 9.30 8.91 7.71 8.06 8.52 9.90 12.93 9.90 8.84 9.96 10.36 10.14 11.57 13.69 16.80 21.37 27.14 26.79
18.57 17.63 16.91 17.03 16.63 16.46 15.71 14.56 13.93 13.97 12.96 12.60 12.40 9.60 10.39 10.24 9.80 7.26 8.33 7.08 8.26 6.33 4.89 6.69 6.43 6.22 6.59 8.17 10.55 11.92 10.93 10.45 9.12 8.00 9.66 10.96 10.32 11.48 14.41 16.21 19.52 25.16 26.28

GFSGL_sfc_wetblb_057.txt.gz
Wetbulb
60.13 59.93 60.29 60.28 60.45 59.38 57.82 56.99 58.42 56.30 55.98 55.72 55.35 53.88 52.80 50.20 48.70 47.31 45.65 45.16 44.62 43.82 43.77 43.83 43.37 43.85 43.44 43.64 43.85 43.69 42.70 39.13 37.67 34.81 36.27 36.49 34.74 35.52 37.33 37.44 37.50 37.51 37.39
60.51 60.17 59.96 59.74 59.28 58.85 58.82 58.44 58.81 57.34 56.40 55.43 54.41 52.87 49.41 47.68 46.29 45.24 44.45 43.69 43.41 42.75 42.64 42.48 42.53 44.09 43.22 43.35 43.26 42.25 41.48 40.49 37.46 34.28 34.53 35.21 35.75 36.31 35.34 34.67 37.06 38.49 35.76
61.33 60.59 59.89 59.85 59.66 58.56 55.94 54.65 54.22 52.90 51.54 50.92 49.78 48.36 46.76 45.45 44.45 43.95 43.74 43.54 43.00 42.66 42.54 42.22 42.89 42.75 41.59 42.02 42.05 41.42 41.12 41.79 38.89 36.96 37.04 34.83 36.73 34.71 34.79 33.91 33.90 33.75 36.22
60.64 58.99 57.56 56.20 55.10 52.79 51.55 51.22 50.39 49.60 48.35 47.53 47.08 45.77 45.16 44.09 43.77 43.73 42.98 42.13 41.99 42.13 42.57 42.84 42.72 42.27 41.74 41.85 41.65 41.23 40.95 39.97 39.89 38.23 38.26 38.29 34.27 37.32 35.67 35.61 33.34 32.43 33.77
56.42 55.60 53.56 52.78 52.04 50.74 49.17 48.20 47.70 47.38 46.83 45.69 44.61 43.95 43.75 43.41 43.16 42.51 42.49 41.59 41.52 41.80 42.25 42.84 42.86 42.89 42.07 41.21 41.54 38.54 37.71 36.91 34.30 33.42 33.81 31.85 30.34 30.89 31.21 33.26 31.92 30.65 30.58
53.82 53.12 52.67 51.92 50.41 49.08 47.66 46.85 45.98 45.20 44.57 44.32 43.81 43.01 42.14 42.63 39.30 40.05 40.85 41.73 42.06 41.50 40.48 40.67 39.76 40.75 40.42 39.40 39.10 39.01 39.10 37.60 35.04 33.14 33.12 32.36 32.74 29.86 30.47 30.02 29.16 29.76 28.71
52.87 52.72 52.46 51.44 49.19 48.21 47.09 45.87 44.67 43.26 42.59 41.42 40.80 40.78 40.13 39.81 39.37 39.79 39.42 41.42 40.21 38.11 37.12 37.70 38.79 39.67 36.26 34.89 34.53 34.66 34.34 35.55 33.30 34.81 33.12 32.62 32.56 32.98 30.85 29.50 29.56 28.90 29.46
51.50 49.89 49.50 48.00 47.37 46.57 44.50 43.45 42.39 42.06 41.33 41.29 42.75 43.13 42.51 41.76 38.82 38.65 36.95 36.58 35.83 34.72 34.40 34.02 32.88 32.11 33.21 32.53 30.44 29.63 30.78 32.26 33.39 34.32 33.92 34.24 34.58 34.89 33.62 34.65 33.75 32.51 29.96
47.89 47.30 47.02 46.29 45.06 44.04 43.18 43.56 42.61 42.32 42.48 42.42 42.49 40.23 39.70 40.10 37.73 37.40 35.64 32.88 32.45 30.44 32.01 31.54 31.38 30.35 32.06 31.71 27.15 25.19 24.71 25.52 30.32 32.31 33.88 34.82 34.74 35.02 35.91 34.33 30.48 27.27 25.85
47.05 46.69 46.42 45.80 44.32 42.71 42.93 42.79 42.53 41.23 42.08 41.80 39.87 37.28 35.23 32.84 34.03 34.78 31.96 27.42 25.63 25.34 27.15 28.82 29.96 29.24 30.59 29.93 26.45 24.99 24.16 24.85 25.37 26.21 27.67 29.81 31.73 31.90 33.49 33.41 33.31 28.96 27.78
46.88 46.08 44.49 43.73 42.81 41.69 41.10 40.02 40.39 39.00 36.37 33.92 33.49 33.92 31.84 30.46 30.39 31.14 29.62 25.37 25.18 25.65 24.88 24.61 24.92 28.42 28.23 28.65 29.45 26.96 26.51 28.12 28.13 27.39 28.13 28.60 28.66 30.06 31.85 31.87 32.22 31.52 30.52
44.47 43.42 42.81 42.27 42.54 41.63 39.54 38.99 37.48 35.44 32.75 31.29 31.19 29.26 27.86 27.45 29.44 29.12 28.59 27.42 26.85 24.65 24.44 24.41 24.63 26.79 27.58 28.56 28.13 29.47 28.96 27.75 27.78 26.80 26.38 26.21 26.68 27.98 29.95 32.92 30.89 31.48 32.81
42.69 41.68 41.42 41.41 41.05 39.64 35.48 34.21 34.29 33.28 30.14 28.18 28.90 27.68 25.95 26.15 24.62 25.95 25.81 25.49 25.46 23.61 24.41 24.41 25.29 26.12 26.90 26.33 26.75 26.02 24.46 22.93 23.11 23.48 23.94 24.52 26.31 29.09 30.29 31.40 33.54 32.05 30.20
40.64 39.77 38.39 36.09 35.19 33.36 33.78 32.26 29.30 26.65 26.54 27.67 26.91 25.85 25.48 23.34 22.38 21.81 22.63 21.93 23.57 23.46 23.16 22.12 22.40 24.12 23.40 22.31 22.63 22.84 22.25 21.24 20.78 20.57 20.50 21.71 23.60 24.28 28.89 30.39 31.12 31.27 29.18
38.22 36.31 35.04 32.13 28.98 27.96 29.07 27.70 25.00 25.66 27.77 25.54 25.29 25.67 22.32 21.41 22.35 23.14 23.01 22.62 20.77 23.45 20.08 19.07 21.05 20.77 20.07 20.21 19.95 20.16 19.88 19.41 18.76 19.42 18.33 18.63 20.65 21.05 23.30 31.22 31.68 30.93 28.20
33.30 31.75 28.94 28.38 27.75 27.77 26.69 25.18 27.27 26.80 27.05 26.94 26.87 24.67 24.60 24.21 23.18 23.37 23.59 23.74 24.42 24.88 19.95 15.66 9.50 7.50 14.60 17.34 16.87 16.56 16.72 16.70 17.54 18.07 17.43 17.12 18.02 19.45 20.48 30.50 30.69 29.17 27.82
29.51 29.88 28.97 28.50 28.37 27.57 26.25 24.61 22.77 25.61 26.89 26.38 25.75 25.12 24.93 22.81 22.39 23.21 23.08 23.74 24.23 22.77 15.97 15.64 8.38 8.03 11.15 16.33 15.95 15.22 14.12 15.73 17.08 15.82 15.37 15.79 18.03 17.77 22.96 29.48 29.42 28.68 27.24
29.22 28.85 27.78 27.26 26.80 26.56 26.14 26.47 25.89 23.98 22.93 23.30 25.39 24.31 24.36 22.68 22.08 22.72 23.75 23.41 18.98 19.46 18.54 15.87 11.91 12.23 14.12 14.68 14.49 13.70 13.44 13.84 13.95 13.55 13.71 14.65 16.19 16.76 18.20 28.83 27.79 27.23 26.39
27.41 26.27 25.15 24.78 25.29 25.44 25.78 25.56 25.16 24.59 24.22 23.75 24.29 23.51 21.91 21.37 20.94 20.82 21.96 15.56 13.21 14.37 16.46 15.72 12.70 13.02 12.36 12.92 7.69 7.16 8.53 10.43 11.75 10.23 11.98 13.49 14.30 13.98 14.79 24.63 27.13 24.66 22.60
25.78 26.05 25.74 25.47 25.13 24.61 24.08 23.82 23.63 23.23 22.99 22.11 21.23 20.14 18.56 15.89 9.56 6.93 10.11 6.74 7.13 11.33 10.70 13.19 13.97 13.29 7.66 8.51 3.80 3.88 7.30 8.57 9.48 9.40 10.67 11.39 12.94 12.90 12.65 15.25 22.12 25.13 26.69
23.24 23.50 24.08 24.49 22.97 22.43 22.42 22.18 21.61 21.12 20.44 19.94 18.47 15.35 14.53 14.27 12.20 11.40 15.01 9.28 9.72 10.36 5.94 9.12 7.60 1.84 3.62 4.62 11.23 7.08 6.75 7.71 7.79 9.58 8.87 9.50 11.92 10.94 12.01 13.50 17.02 22.11 24.39
23.46 23.18 22.73 21.59 22.25 20.17 18.97 19.97 19.89 19.08 19.23 17.99 16.82 16.31 14.08 10.81 13.19 14.10 11.57 7.17 3.75 5.72 7.06 4.89 2.76 4.48 5.23 9.17 6.79 4.77 6.24 7.73 7.84 8.01 6.71 8.26 10.70 10.55 10.86 11.39 14.30 15.30 25.94
21.48 20.83 20.57 19.95 19.44 17.87 18.15 19.00 17.93 17.22 15.80 14.87 14.93 14.71 13.74 10.99 11.51 10.56 6.79 2.32 2.91 3.45 0.92 0.72 -4.03 4.02 3.39 0.71 0.65 8.34 8.12 6.35 7.55 7.12 7.01 7.86 7.48 8.48 8.82 10.16 11.92 14.14 18.60
20.13 19.06 18.84 18.32 17.46 16.33 15.54 14.45 14.34 14.92 14.94 13.62 11.31 10.43 11.01 10.07 5.56 3.39 2.72 0.72 -1.72 -4.03 -7.48 -4.93 -0.44 2.13 4.37 6.79 6.28 6.55 8.29 8.47 8.96 9.87 5.33 5.60 5.50 7.55 8.32 9.29 10.63 12.82 17.08
18.03 16.94 16.34 16.13 14.68 12.60 12.21 12.49 11.13 10.39 9.40 8.48 6.73 8.50 8.18 3.58 4.81 -0.33 -4.40 -4.93 -3.63 -7.47 -1.90 -3.02 -3.01 1.39 1.57 1.55 3.21 4.51 7.33 10.32 10.41 10.50 9.64 7.56 6.30 7.29 8.57 9.61 10.34 14.03 15.82
17.27 16.00 14.70 14.25 13.10 11.09 8.60 5.80 4.75 3.96 4.17 5.13 3.97 -0.02 -1.70 0.60 -0.66 -7.29 -4.85 -4.44 -0.61 -2.64 -4.26 -3.35 -0.18 -0.15 1.44 4.13 6.12 8.60 9.48 10.06 10.10 10.66 10.96 9.71 6.90 8.31 9.69 9.72 10.15 12.03 15.74

GFSGL_sfc_wetblb_060.txt.gz
Wetbulb
58.73 58.86 58.49 58.81 59.43 59.19 58.88 57.92 58.27 57.51 55.75 54.36 55.63 55.75 55.37 53.67 51.58 49.08 47.57 46.92 45.77 44.65 44.66 44.52 44.33 44.86 44.15 43.94 43.93 44.19 43.26 42.11 39.27 40.58 38.10 36.38 34.67 35.12 36.46 37.88 39.35 38.34 38.39
58.96 58.91 58.78 59.01 59.47 58.99 58.94 58.52 58.00 56.35 55.17 54.69 54.65 53.11 51.59 49.72 48.22 46.62 45.81 45.59 44.42 43.61 44.00 43.83 43.56 44.27 42.90 43.30 43.08 42.14 42.11 42.12 39.91 37.62 37.87 36.11 35.24 37.83 38.89 37.34 38.46 38.59 37.39
59.70 59.63 59.27 59.14 59.31 59.64 58.88 59.63 59.36 55.67 54.32 53.58 53.57 52.07 49.01 47.30 45.67 45.26 44.49 44.33 43.97 43.69 43.59 42.80 42.70 42.92 42.15 42.05 41.66 41.40 41.21 41.85 40.55 38.51 38.70 40.28 38.20 35.61 35.05 35.16 35.96 36.11 37.23
59.88 59.41 58.91 58.87 59.06 58.51 56.73 54.64 54.02 53.36 51.15 50.32 49.55 48.24 46.35 44.97 44.78 44.52 44.28 43.66 43.17 42.64 42.66 42.66 43.03 42.71 41.83 41.29 41.27 40.48 40.81 39.41 37.95 37.04 36.76 36.15 34.52 35.76 35.20 35.45 35.39 33.08 34.67
59.42 59.24 58.40 57.96 55.55 53.46 52.62 50.91 49.39 48.93 47.93 47.00 46.44 45.71 44.50 44.19 44.18 43.72 43.28 42.04 41.65 41.47 41.86 42.45 42.66 42.63 42.10 40.25 39.91 40.01 34.99 34.64 35.17 34.16 34.36 33.01 31.23 29.20 30.62 32.47 31.70 33.58 31.69
58.29 56.43 53.99 53.09 51.54 50.33 49.21 48.92 47.48 46.40 46.48 45.19 44.59 44.46 44.02 43.65 39.32 40.07 41.29 41.04 41.26 41.21 40.88 41.23 40.10 39.11 37.74 35.90 35.26 35.12 34.24 32.24 32.77 33.94 33.56 32.43 31.74 31.33 30.90 32.54 32.49 28.35 28.52
54.41 53.32 51.99 51.13 49.05 48.23 47.84 46.69 45.13 44.48 44.46 44.55 42.94 42.62 41.98 41.45 38.84 39.29 38.95 40.91 41.25 39.94 37.60 34.77 34.77 34.60 33.02 31.59 31.40 31.43 31.18 32.44 30.45 29.78 29.99 30.19 30.79 32.63 33.53 32.93 32.06 30.56 31.36
52.68 51.64 50.49 49.42 47.40 46.69 46.09 44.89 45.09 44.25 42.18 41.70 41.24 40.30 39.42 39.38 38.87 38.03 37.11 36.60 33.50 32.73 31.88 31.09 29.63 29.49 30.15 28.70 26.31 24.65 24.85 25.44 25.84 26.85 25.26 26.29 27.85 29.47 30.35 30.86 30.73 31.81 33.89
49.89 49.59 49.13 48.09 46.62 46.09 44.19 42.98 41.40 40.43 40.32 40.68 41.13 40.03 38.95 38.17 37.37 35.23 34.60 31.19 29.81 28.48 29.41 29.14 28.00 26.74 29.80 29.66 26.23 24.96 25.10 26.44 29.95 30.99 31.36 31.61 31.90 32.15 32.19 30.05 27.54 27.38 27.63
48.20 47.39 47.42 46.83 45.21 43.24 41.61 40.85 40.99 41.36 41.59 41.52 39.42 37.52 36.99 36.18 35.04 34.45 31.35 27.23 25.17 25.06 26.40 26.40 28.16 27.46 28.08 28.25 26.19 25.10 24.45 25.50 26.23 27.17 27.91 28.34 29.52 29.22 30.97 29.42 28.18 26.87 26.96
46.78 45.93 44.28 43.59 42.69 42.28 41.49 41.65 40.95 38.21 36.15 34.14 31.63 30.59 30.34 30.54 30.57 31.16 29.78 25.88 25.67 25.56 24.52 24.00 24.48 26.69 27.44 28.50 28.79 26.03 25.20 24.78 24.35 24.07 25.38 26.22 26.11 26.42 27.51 28.46 30.04 30.10 28.12
45.20 43.14 42.46 42.21 42.34 41.99 40.46 39.85 36.73 34.52 31.99 29.80 28.01 26.16 26.85 27.42 29.57 29.22 28.64 27.33 25.96 24.63 23.96 24.55 24.47 26.32 27.39 28.01 26.51 26.09 25.35 23.80 21.55 20.72 20.64 21.05 21.30 21.63 23.53 24.55 25.96 29.81 31.68
42.32 41.48 41.31 41.18 40.42 39.40 37.60 35.02 33.62 32.91 30.82 28.96 27.05 24.93 24.17 24.25 24.07 26.38 26.17 25.79 24.81 23.60 24.62 24.18 24.91 25.62 26.32 25.57 24.70 24.14 22.89 20.56 18.01 17.07 17.89 18.53 19.18 20.09 22.06 23.28 24.35 28.83 32.22
40.57 39.60 39.09 36.29 33.07 32.27 31.87 31.80 30.43 28.33 28.98 28.37 26.90 24.92 23.91 22.68 22.13 22.95 23.09 22.74 23.77 23.68 23.76 23.34 22.73 24.15 22.93 22.74 22.45 22.11 21.37 19.76 17.92 17.07 17.05 17.85 19.04 18.43 18.70 21.01 20.34 22.79 29.15
37.82 34.05 31.38 31.12 29.21 26.59 25.11 25.52 26.32 26.77 27.70 27.37 26.20 26.18 22.77 20.47 22.44 23.45 23.38 23.35 21.77 24.02 20.98 20.35 21.17 19.74 18.69 18.90 19.71 19.08 18.56 17.79 16.42 16.08 15.79 15.23 15.54 16.61 16.80 19.69 19.15 20.71 24.71
31.21 29.60 28.53 27.30 26.73 24.83 23.89 24.36 28.46 28.01 28.71 28.25 27.24 25.38 24.99 24.75 24.07 24.02 23.60 23.77 24.54 24.72 20.89 17.66 14.30 12.69 14.92 16.47 15.85 15.32 15.20 14.20 14.99 15.04 13.87 13.34 13.89 14.07 15.35 16.46 17.50 21.83 27.81
29.20 28.93 28.04 27.73 26.74 25.60 25.50 24.87 23.31 25.84 27.39 26.77 26.75 26.25 24.69 23.90 23.62 23.91 23.55 23.68 23.87 22.11 17.94 15.79 9.45 9.97 11.94 15.49 14.78 13.84 12.50 13.07 14.15 12.72 12.00 10.85 12.57 13.76 13.49 13.57 15.82 17.70 27.31
27.89 28.10 27.08 26.89 26.87 27.05 26.38 25.45 25.32 24.48 23.40 23.78 25.49 24.79 24.39 23.41 22.58 22.72 23.72 23.01 19.24 19.48 18.38 16.27 14.11 14.03 14.09 13.28 13.14 12.12 11.68 9.98 8.69 10.44 8.72 9.19 10.00 10.75 11.50 11.96 13.48 12.75 26.18
26.48 26.22 26.55 26.30 26.21 26.05 25.98 25.55 25.66 25.21 24.76 24.42 24.58 23.80 22.93 22.20 20.63 20.64 20.87 17.41 16.30 15.71 15.49 14.53 14.51 13.94 11.97 11.65 6.76 3.79 -1.68 -0.67 4.22 2.20 4.77 8.15 6.62 8.17 9.89 11.70 12.20 13.53 18.14
26.24 26.06 25.83 25.28 24.85 24.55 24.60 24.27 24.03 23.69 22.91 21.86 21.63 19.45 18.58 17.18 14.36 13.11 14.44 11.71 13.20 14.07 13.33 13.61 13.63 12.04 7.87 7.15 2.03 0.29 -2.30 -1.84 3.10 4.72 5.89 3.52 4.68 7.03 9.16 10.46 10.51 10.94 14.77
24.53 24.69 24.26 23.92 23.22 22.71 22.40 21.85 21.65 20.82 20.24 19.84 18.15 16.99 16.93 16.35 14.61 14.34 15.90 13.11 13.13 12.94 10.65 11.33 8.73 4.49 3.93 3.99 7.40 -1.01 -0.22 -2.82 5.08 6.88 6.56 5.30 4.63 5.10 8.92 9.81 10.33 11.50 13.73
23.12 22.62 22.46 22.18 21.33 19.68 19.44 20.31 19.54 19.11 18.77 17.58 17.07 17.09 16.05 14.48 15.41 15.45 14.31 11.67 8.57 10.65 10.96 8.21 4.70 3.81 4.74 5.01 2.78 -5.67 0.21 3.13 -0.89 3.88 5.23 5.15 5.62 6.76 6.00 7.56 8.55 10.02 11.18
20.87 20.66 20.42 20.18 19.29 18.34 17.97 18.59 16.82 16.53 16.12 15.67 15.79 15.45 14.77 12.86 11.97 11.53 10.15 7.38 8.93 5.71 3.26 1.78 -4.05 -1.15 0.03 -4.94 -3.69 0.98 4.26 3.96 5.36 6.48 5.29 4.87 6.17 5.40 4.62 5.51 7.80 8.57 9.84
19.18 18.41 18.45 17.69 16.72 16.33 15.90 14.66 14.64 15.42 14.71 13.34 11.79 11.60 10.19 8.64 6.49 6.43 4.66 1.62 1.18 -6.76 -9.84 -10.20 -6.26 -1.88 0.07 -4.08 -3.94 -1.15 4.36 6.01 7.14 7.87 8.14 7.39 6.36 6.03 5.46 5.62 7.29 8.61 9.35
17.34 16.28 15.19 14.71 13.67 13.04 13.02 12.63 11.26 10.02 9.53 8.14 7.26 6.08 6.93 3.12 3.40 -3.32 -6.43 -8.44 -8.75 -11.29 -8.29 -6.74 -6.31 -3.60 -2.13 -2.55 -1.17 -0.29 0.84 5.07 7.63 8.34 8.51 8.00 6.93 6.37 5.70 5.70 7.22 8.99 10.22
14.82 14.01 13.32 13.00 11.29 10.40 9.21 7.67 5.92 3.59 2.19 2.38 -0.47 -4.76 -4.22 -4.04 -4.41 -11.47 -11.48 -8.21 -8.05 -8.09 -6.92 -6.34 -5.05 -3.34 -2.39 0.39 2.27 5.28 4.90 4.40 4.87 6.05 7.18 7.29 6.61 6.70 7.09 6.79 8.46 9.50 9.83

GFSGL_sfc_wetblb_063.txt.gz
Wetbulb
54.12 53.89 52.55 52.63 53.61 55.45 56.74 57.76 58.01 57.34 57.17 56.69 56.91 56.92 57.19 56.87 55.24 54.29 51.85 49.37 48.34 46.20 45.64 45.93 44.59 45.48 44.84 44.72 44.45 44.28 43.28 42.68 39.83 41.19 40.81 39.30 37.71 38.29 37.21 36.09 38.32 37.45 38.23
55.91 56.02 55.76 56.09 57.45 57.73 58.17 58.70 59.13 58.07 57.19 57.05 55.58 55.48 54.96 54.05 52.59 50.89 48.98 47.78 46.16 45.20 44.83 44.85 44.41 45.10 43.92 43.69 43.19 42.19 42.08 42.40 40.68 38.65 39.68 37.99 36.84 35.71 35.98 36.71 39.32 39.69 36.72
57.41 57.73 57.93 57.97 58.50 58.61 58.75 59.45 58.95 58.39 56.80 55.22 54.51 53.39 52.63 50.56 49.75 48.16 47.28 46.13 45.50 44.98 44.64 44.39 43.81 43.49 42.22 42.49 41.94 41.23 41.28 41.72 40.20 38.47 38.50 38.42 36.08 36.43 36.10 35.54 35.02 36.46 37.52
57.54 57.97 57.73 58.11 58.58 58.60 58.93 59.13 58.87 57.97 55.89 55.13 54.46 52.26 49.93 47.75 47.01 45.65 45.20 44.47 43.91 43.79 43.51 43.46 43.23 42.89 42.13 41.75 41.04 40.48 40.44 38.71 35.98 34.69 36.60 36.16 34.60 35.19 33.06 32.48 33.99 34.76 34.20
57.28 57.62 57.79 58.26 58.71 58.76 58.01 57.26 53.91 54.96 54.50 53.07 49.19 47.02 46.56 46.54 46.04 44.84 44.61 43.49 42.88 42.18 42.25 42.59 42.77 42.76 41.81 39.94 40.64 39.04 37.43 36.27 35.72 34.95 34.35 33.63 33.24 33.56 29.32 30.91 31.19 32.58 33.39
57.39 57.37 57.96 58.05 57.33 56.86 55.36 51.69 49.74 48.63 49.36 47.19 46.45 45.46 45.49 45.82 39.99 40.63 42.22 42.30 41.88 41.35 40.95 41.46 38.42 36.81 35.70 34.85 34.46 33.91 31.97 28.04 26.27 25.94 26.03 25.69 26.31 27.74 27.96 28.42 29.31 28.91 27.35
56.89 57.40 57.77 56.25 53.62 51.83 50.17 49.46 47.49 47.33 47.48 45.76 44.44 44.61 44.82 43.21 38.96 39.29 39.17 41.59 41.26 40.50 38.47 36.65 34.02 32.62 30.69 28.67 28.94 28.40 27.98 28.93 27.91 25.86 23.73 24.42 24.14 25.28 25.63 25.87 25.79 25.79 25.25
56.83 55.31 53.74 52.17 50.91 50.00 48.90 46.88 46.07 45.83 44.36 43.45 43.99 44.04 43.20 41.08 38.09 38.04 36.99 37.35 34.70 33.04 31.58 31.16 29.31 27.66 28.67 27.31 25.62 24.96 25.73 26.16 26.85 26.59 24.11 24.13 24.54 25.79 25.74 26.91 26.60 27.54 28.64
52.53 51.77 51.08 49.94 48.47 47.21 45.68 45.24 44.99 42.87 42.77 42.37 42.95 41.24 40.57 39.02 36.18 35.81 34.64 31.35 29.08 28.04 27.85 27.04 26.75 26.57 28.68 29.00 26.25 25.64 25.43 26.60 29.43 29.62 29.75 30.41 30.83 31.22 30.73 28.55 26.29 25.77 24.70
51.26 50.69 49.94 48.55 46.90 44.72 44.14 44.38 42.45 42.71 42.35 41.20 39.42 39.71 38.27 36.88 35.49 34.61 31.47 28.07 25.59 25.30 25.84 26.15 28.35 26.82 27.47 28.27 26.16 25.39 24.46 24.22 23.51 23.69 24.05 25.77 27.43 28.11 28.99 27.62 26.35 23.39 23.57
48.85 48.20 46.81 46.30 44.72 43.76 42.09 41.78 41.41 40.20 37.14 33.74 32.16 33.47 33.20 32.57 31.64 32.65 30.93 26.56 25.71 24.80 24.17 24.13 24.40 26.31 27.66 28.57 27.62 25.11 23.78 23.15 22.32 21.47 21.74 22.08 22.90 22.99 23.05 23.51 23.91 22.93 21.29
45.35 44.34 43.77 43.11 42.43 42.27 40.88 38.10 36.06 34.10 31.92 29.73 28.85 27.79 28.33 28.78 29.89 29.83 28.95 27.44 27.06 25.35 24.77 24.45 24.61 26.41 27.48 27.27 24.83 24.73 23.83 22.54 19.91 18.70 18.67 18.92 19.03 19.21 20.18 20.93 21.32 22.62 24.12
42.95 42.44 41.94 41.39 40.54 39.34 36.57 34.85 34.09 32.26 29.87 28.78 27.87 25.99 25.05 24.55 24.75 27.66 27.11 26.12 25.43 24.71 24.70 24.62 25.05 25.90 25.75 24.66 23.46 22.96 22.03 19.92 17.75 15.58 16.18 16.18 17.41 18.41 19.61 19.93 20.89 21.85 22.18
40.97 40.23 38.29 35.08 34.33 34.94 34.95 34.10 32.41 31.19 29.67 27.45 25.92 23.65 22.31 21.79 22.20 23.01 23.45 24.14 24.56 24.30 23.84 24.11 23.70 24.27 22.79 22.23 21.99 21.12 19.79 19.05 17.13 16.19 15.33 16.17 16.95 15.94 16.06 17.74 17.00 17.67 17.67
36.30 34.22 32.71 31.41 29.34 27.77 27.74 28.96 28.73 29.33 30.99 28.95 26.96 24.57 21.65 21.09 22.77 23.87 23.77 23.48 23.56 24.35 22.69 22.44 20.26 19.22 18.30 18.60 18.71 18.23 17.43 16.51 15.27 15.07 14.18 13.79 13.39 13.12 13.74 15.72 16.02 15.53 15.33
31.68 30.89 30.05 28.38 27.57 27.06 25.95 25.28 29.03 29.30 29.75 29.36 28.62 26.25 25.52 25.53 25.24 24.87 24.36 24.47 24.62 25.02 21.69 18.40 15.26 13.92 15.47 16.35 15.53 14.98 14.99 14.19 13.59 13.16 12.22 12.48 10.40 10.57 11.38 12.55 14.24 13.47 14.27
29.86 29.21 27.67 26.94 26.37 25.69 25.55 24.70 22.80 26.18 27.77 27.20 26.81 26.13 25.37 25.24 25.10 24.41 24.14 24.13 24.13 21.97 18.52 16.27 13.14 12.89 14.17 15.10 14.21 13.43 12.11 12.84 12.58 10.54 9.91 10.11 9.06 10.37 8.72 9.40 11.76 12.59 11.69
28.97 28.71 27.72 26.97 26.44 26.12 25.74 26.02 26.05 24.46 22.71 23.47 26.27 25.73 25.97 25.15 23.87 23.09 23.40 23.56 19.41 19.23 18.56 16.01 14.16 13.70 13.62 12.96 12.30 11.23 11.11 10.11 7.98 7.80 7.27 6.53 5.67 7.24 5.45 6.69 9.53 9.57 10.73
27.70 27.32 27.40 27.12 27.12 26.97 26.84 26.32 25.90 25.54 24.81 23.86 23.87 24.30 24.60 23.92 22.23 22.19 20.84 18.55 17.19 16.31 16.02 15.02 15.05 13.89 12.28 11.62 10.37 7.69 4.69 3.04 2.15 -0.91 -0.51 0.26 1.08 2.84 3.33 5.06 7.66 8.55 10.08
26.37 26.15 26.08 25.53 25.02 24.80 24.81 24.42 24.04 23.50 22.94 22.67 21.93 20.06 18.69 18.18 15.34 14.48 14.78 13.75 14.59 15.02 14.17 14.10 13.91 12.47 10.54 9.79 6.97 3.33 -0.25 -3.16 -1.90 -0.84 -0.11 -4.57 -4.57 1.41 3.09 4.17 5.79 6.05 9.52
24.14 23.90 23.67 23.32 22.42 22.13 22.00 21.45 21.28 20.64 19.93 19.38 17.45 18.06 17.72 16.18 15.02 14.91 15.68 13.07 13.73 13.78 12.43 12.15 10.26 8.34 8.21 7.58 7.67 1.66 -1.20 -6.20 -1.11 1.87 1.66 2.62 -0.69 1.43 4.29 5.67 4.60 6.69 9.41
22.43 22.22 21.22 20.05 19.99 19.25 19.78 19.74 19.16 18.75 18.32 16.91 16.88 16.93 16.65 14.18 15.00 14.43 12.65 9.47 8.82 11.73 10.84 8.70 7.04 6.34 5.95 3.97 1.58 -7.29 -5.48 -6.38 -4.21 -1.93 0.65 3.17 4.15 4.16 4.82 4.33 3.42 4.23 7.96
20.45 19.73 19.24 18.66 18.20 17.99 17.15 16.88 16.10 16.18 15.63 15.29 15.43 14.52 13.11 11.42 10.55 10.08 8.38 5.79 8.66 6.16 3.81 2.60 -3.55 -1.04 -0.90 -5.34 -8.02 -4.22 -4.03 0.95 2.25 3.56 3.04 3.12 4.25 4.75 4.62 3.48 3.41 3.60 6.30
17.48 16.84 16.86 16.16 15.90 15.13 14.34 13.49 13.82 13.54 13.04 11.86 11.21 10.33 9.31 6.35 3.45 3.25 1.10 -1.76 -4.79 -9.28 -11.28 -12.19 -8.78 -4.57 -2.65 -6.60 -7.52 -4.65 -0.14 0.30 4.05 4.58 4.67 4.93 4.42 5.14 4.95 4.62 4.74 3.91 5.19
15.65 14.76 13.86 12.63 11.95 11.31 10.56 9.64 8.30 7.52 7.72 6.48 4.03 1.85 3.91 0.26 0.59 -8.20 -14.00 -13.45 -9.46 -14.00 -9.21 -8.71 -8.65 -5.94 -5.06 -5.23 -4.37 -3.22 -2.99 0.76 2.68 4.16 4.17 4.00 3.28 3.23 3.64 4.66 5.34 5.01 5.65
12.70 11.67 10.90 10.23 9.23 8.03 5.76 3.00 0.26 -0.11 -1.68 -2.76 -4.93 -6.74 -4.03 -4.03 -7.65 -16.53 -13.09 -11.64 -10.55 -8.97 -8.49 -7.78 -6.19 -5.39 -4.84 -3.07 -1.30 1.13 -0.36 -0.29 0.23 2.47 3.88 3.63 2.44 2.89 3.97 4.87 5.66 5.77 6.52

GFSGL_sfc_wetblb_066.txt.gz
Wetbulb
53.13 53.24 52.22 51.56 51.59 52.40 53.21 53.56 54.73 56.18 56.53 55.99 56.36 56.47 56.50 56.94 55.52 55.64 56.44 54.27 52.82 51.58 50.15 49.26 48.18 47.15 46.46 45.55 45.12 44.95 43.94 43.11 40.14 41.64 42.23 41.51 40.75 40.57 40.62 40.89 39.64 39.08 39.47
53.24 54.05 52.67 52.01 52.49 52.30 52.90 54.37 55.49 55.57 57.23 57.38 57.69 57.03 56.64 56.30 56.12 55.64 53.91 50.87 50.80 48.34 47.06 46.97 46.03 46.20 44.90 44.49 44.00 43.22 42.60 42.81 41.05 38.87 40.36 39.95 38.92 39.11 38.46 37.22 39.46 40.15 38.72
52.90 53.47 53.61 52.55 52.49 52.67 53.45 54.09 55.11 55.63 56.26 56.70 57.10 56.64 55.98 54.73 53.71 53.18 52.42 50.45 49.15 47.85 46.52 45.87 45.24 44.83 43.32 43.39 42.87 42.02 41.61 41.89 40.67 38.81 38.34 38.79 38.12 37.92 37.27 36.72 36.70 37.50 37.93
53.80 53.63 53.55 53.30 53.24 53.70 54.24 54.54 55.77 57.19 57.68 57.40 57.23 56.66 54.76 52.98 51.50 50.09 49.46 46.86 46.01 45.46 45.33 45.07 44.58 44.09 43.11 42.38 41.69 40.96 40.72 39.04 37.24 37.05 36.44 36.10 36.52 37.10 35.17 33.14 32.58 34.30 33.89
53.70 54.21 54.05 54.99 55.04 55.11 55.23 55.80 55.47 57.33 57.90 57.81 55.58 52.08 49.50 49.21 48.25 47.53 46.91 45.50 44.37 43.57 43.46 43.49 43.33 43.18 41.59 41.04 41.01 39.22 37.93 36.52 35.91 34.70 33.57 31.56 30.30 30.29 29.27 30.75 28.50 28.58 29.41
54.45 54.46 55.54 55.89 56.15 56.11 56.78 57.27 56.92 56.77 56.66 54.77 52.48 51.86 47.85 47.51 44.57 42.76 44.66 44.37 43.34 42.28 41.35 39.45 38.39 37.03 35.90 35.30 34.85 33.56 32.96 29.62 27.88 27.01 27.19 25.08 24.95 27.83 27.69 26.21 25.90 25.54 24.12
54.89 55.27 55.71 56.08 56.35 56.74 57.27 56.10 53.83 53.67 51.61 49.44 48.02 48.09 45.66 43.66 41.47 41.95 40.42 43.14 41.89 41.08 37.99 35.32 33.88 33.16 31.64 29.83 29.51 29.31 29.41 29.68 27.14 26.60 24.12 24.83 24.71 25.60 25.63 24.69 25.33 25.03 24.67
54.78 55.16 55.57 55.65 55.64 53.05 51.72 51.16 49.24 47.76 48.09 46.98 46.64 44.85 43.72 41.12 39.76 39.58 39.20 38.75 36.45 35.35 34.53 33.27 30.62 29.13 29.04 27.71 25.94 26.39 26.59 27.42 27.92 27.71 25.93 26.01 26.66 27.19 27.49 28.19 27.19 26.91 27.41
53.59 54.22 54.60 54.66 51.66 50.22 48.63 47.18 45.94 45.52 44.67 43.97 43.66 43.16 40.53 38.74 36.84 36.21 35.33 32.93 30.94 29.58 29.71 29.76 29.05 28.06 29.27 29.37 26.81 26.39 25.92 26.72 27.32 27.24 27.01 27.36 27.84 28.49 28.93 27.10 24.43 23.46 21.39
54.10 53.01 51.91 51.19 49.42 48.21 46.03 44.78 44.09 43.96 42.07 40.98 40.14 40.00 37.21 36.35 35.42 34.52 32.79 30.37 27.40 26.94 27.69 27.88 28.11 26.88 28.54 28.89 26.75 25.73 23.41 23.20 22.84 22.65 23.19 24.09 25.14 25.45 25.99 24.82 23.43 20.19 20.15
51.27 49.92 48.60 47.78 45.69 44.86 43.02 42.96 42.25 39.96 37.70 35.35 33.86 34.34 34.44 34.31 33.77 33.31 32.20 29.71 27.29 25.09 24.06 23.52 24.91 27.87 28.95 28.83 26.61 25.06 23.70 22.96 21.75 21.12 21.08 21.67 22.53 22.63 22.37 22.59 22.68 20.97 19.08
47.27 46.50 45.60 43.69 42.95 42.33 41.13 39.50 37.64 35.32 32.79 31.45 30.20 29.05 29.08 29.68 30.73 30.98 30.18 28.46 27.50 24.78 23.94 23.65 25.61 28.04 28.53 26.33 24.93 24.64 23.18 21.72 20.56 19.14 18.41 18.53 18.32 18.81 19.73 20.25 20.93 21.75 22.37
44.18 43.00 41.91 41.47 40.56 39.69 37.56 35.76 34.44 33.83 32.51 31.02 29.55 26.86 25.62 27.08 27.57 28.47 27.78 27.32 26.63 24.41 24.77 25.80 26.81 27.26 25.67 24.19 24.06 22.91 21.56 19.54 17.98 16.54 16.15 16.06 16.95 18.09 18.40 18.66 19.83 19.98 20.89
41.72 39.42 38.98 37.32 36.45 36.59 36.55 35.68 33.44 32.22 31.10 29.94 28.01 25.68 24.22 23.54 23.69 24.58 24.06 24.42 25.65 24.73 24.49 24.66 24.71 23.97 22.79 22.17 21.97 21.23 19.90 18.59 16.61 15.70 14.99 15.63 16.53 15.83 14.57 16.20 15.47 16.59 16.10
37.12 35.91 34.21 32.80 31.32 29.60 29.58 30.79 31.72 31.93 32.41 30.39 28.55 26.01 23.03 21.81 22.81 23.91 23.93 23.64 24.39 24.20 23.44 22.80 20.90 19.90 18.98 19.24 19.01 18.22 17.58 16.81 15.25 14.92 13.75 12.73 13.26 12.86 12.16 14.24 13.49 13.73 13.19
32.69 31.79 31.34 30.84 30.12 29.55 28.57 27.64 30.42 30.36 30.42 29.65 28.22 26.22 25.65 25.86 26.04 25.85 25.85 25.81 25.96 25.09 22.04 19.08 16.33 16.12 16.44 16.89 16.31 15.70 15.64 14.57 14.33 13.25 11.95 11.27 11.11 10.11 10.17 11.27 11.50 11.23 11.55
30.74 29.75 28.93 28.87 28.03 27.00 26.57 25.60 23.20 26.84 29.17 29.18 28.57 27.74 27.14 26.63 25.87 25.49 25.58 25.15 24.21 22.49 19.14 16.98 14.81 14.30 14.96 15.82 15.11 14.40 13.05 13.32 13.60 11.21 10.04 9.27 9.92 9.12 8.79 8.26 8.30 8.81 9.41
28.75 28.71 27.86 27.19 26.83 26.13 25.60 25.26 25.26 23.96 22.59 23.58 26.59 26.33 26.37 25.35 25.16 25.34 25.52 24.27 20.21 20.02 18.39 15.92 14.59 14.52 14.70 13.87 13.29 12.27 11.52 11.37 10.07 8.54 7.81 7.39 6.73 6.64 6.14 5.50 5.86 5.45 7.53
27.74 27.36 27.63 27.49 27.41 27.06 26.87 26.32 25.74 24.59 23.27 22.76 23.71 24.46 24.59 25.00 24.40 23.81 22.91 19.74 18.28 17.60 17.44 16.58 16.02 15.55 14.01 13.20 12.12 10.34 8.84 7.89 6.99 5.19 3.73 3.57 2.94 3.79 3.32 3.97 4.31 3.68 5.20
25.66 25.76 25.89 25.34 24.99 24.78 24.80 24.03 23.67 23.33 23.16 22.63 21.35 19.15 18.92 18.53 16.05 15.73 16.06 15.76 16.43 16.62 15.84 15.47 15.49 13.86 11.92 10.94 9.78 7.87 6.12 5.86 4.86 3.96 3.51 1.27 -0.58 0.33 2.41 2.63 3.46 3.98 5.23
23.08 22.27 22.31 22.13 21.69 21.57 21.44 20.88 20.88 20.20 18.97 17.69 16.87 17.84 18.28 16.76 15.83 15.83 15.58 14.24 14.36 14.21 13.07 12.32 11.11 10.07 9.60 8.61 8.15 6.95 4.27 1.71 1.35 1.02 0.73 2.70 -0.82 -0.42 2.89 4.06 4.79 5.18 5.22
20.90 20.35 20.12 19.51 19.83 19.04 18.65 18.56 17.97 17.41 17.04 16.51 16.31 16.05 15.92 14.74 13.77 12.49 10.49 9.38 9.82 10.49 9.82 8.43 6.76 6.14 6.01 4.50 3.12 -0.14 -2.21 -5.64 -4.20 -1.03 -1.09 0.27 2.27 3.58 3.76 3.91 4.22 3.86 4.02
18.65 17.96 17.67 17.70 17.17 16.39 15.97 16.07 15.12 14.28 13.43 13.10 12.81 12.10 11.43 10.32 9.79 8.96 6.92 2.75 3.00 -0.52 -0.20 -0.01 -3.60 -0.53 0.44 -3.69 -5.56 -3.93 -4.92 -1.48 0.64 1.80 1.14 1.75 2.34 3.36 3.92 3.75 3.98 4.02 4.31
16.40 15.95 15.16 14.41 13.93 12.84 11.40 10.79 11.81 11.66 11.01 9.55 8.03 6.65 4.72 2.05 -1.31 -4.03 -6.74 -9.29 -7.66 -10.92 -13.81 -13.99 -8.64 -5.15 -2.83 -5.46 -6.13 -4.53 -1.13 -1.46 1.21 2.61 2.73 2.32 2.48 2.86 3.20 3.50 4.29 4.54 4.79
13.50 12.17 11.14 10.11 9.43 7.74 6.25 5.73 4.78 3.93 3.08 0.27 -2.23 -4.56 1.14 -0.99 -1.66 -12.89 -15.61 -14.35 -12.00 -15.25 -9.72 -10.26 -9.86 -6.50 -5.84 -6.03 -5.52 -4.50 -4.13 -0.18 1.45 1.94 1.70 1.53 1.39 1.35 1.69 2.85 3.54 4.54 5.38
10.58 9.48 8.41 7.54 5.67 3.92 0.83 -3.86 -7.82 -8.18 -9.27 -7.82 -9.99 -9.09 -8.36 -8.73 -8.73 -16.88 -14.89 -12.89 -11.09 -9.84 -9.00 -8.47 -7.26 -6.74 -6.38 -4.49 -2.79 -0.85 -2.58 -1.46 -0.85 -0.01 0.67 1.61 1.01 0.95 1.84 2.54 3.34 4.81 5.85

GFSGL_sfc_wetblb_069.txt.gz
Wetbulb
55.77 55.92 55.88 55.70 55.73 56.01 56.20 56.61 56.38 57.10 57.31 56.71 57.60 57.90 57.73 58.13 58.94 59.03 59.22 59.52 58.30 58.08 55.59 55.21 54.84 54.56 51.70 49.54 49.30 47.80 46.98 48.25 45.21 44.03 44.74 44.72 45.44 47.99 45.58 46.61 46.71 46.57 46.79
56.38 56.03 55.93 55.89 55.45 55.42 55.39 55.44 55.98 56.01 57.06 57.44 56.57 57.19 58.58 58.48 59.14 57.93 56.31 55.49 55.28 54.80 53.46 52.71 52.93 50.19 48.73 47.54 47.41 45.41 45.35 44.76 44.76 42.31 43.09 45.53 44.16 43.14 44.34 44.59 44.09 44.04 44.58
56.04 56.17 55.85 55.31 54.62 55.00 55.28 56.22 57.00 57.25 57.86 57.99 57.79 57.87 57.61 55.98 56.20 56.11 56.01 55.59 54.04 54.16 53.16 50.09 48.85 47.88 46.35 45.26 45.25 43.63 44.27 43.63 43.60 42.23 40.55 41.67 40.64 41.35 42.44 43.07 42.47 42.19 41.42
55.69 55.75 55.72 55.71 55.31 55.76 56.40 56.55 56.95 57.30 57.12 57.29 56.36 57.72 58.23 57.72 56.06 55.87 55.49 54.94 53.02 51.58 49.73 48.95 47.22 46.11 44.94 44.92 44.17 43.52 43.21 42.04 40.54 38.97 38.45 38.65 39.20 42.53 41.41 38.82 37.43 38.31 36.09
55.36 55.27 55.37 56.59 56.19 56.11 56.15 56.49 56.78 56.91 57.09 57.70 57.68 58.28 58.17 56.29 54.54 53.56 52.83 51.93 48.30 46.95 46.51 46.35 45.84 45.26 43.08 43.08 43.22 41.86 41.37 40.00 38.44 37.54 37.62 36.64 37.56 37.42 35.35 36.14 32.69 33.89 34.90
55.63 55.19 55.80 56.22 56.18 55.73 55.86 55.90 56.53 56.93 58.03 59.08 58.98 58.05 52.89 52.29 44.64 44.46 47.92 48.34 46.08 45.30 42.99 41.88 40.97 39.63 38.06 37.28 37.16 36.87 38.69 37.18 35.08 37.27 35.72 34.99 34.62 33.38 33.60 32.28 31.45 30.38 29.76
55.86 55.86 55.95 56.18 56.09 56.69 56.09 56.22 56.87 57.29 58.33 58.64 57.32 55.57 52.45 51.23 42.10 43.01 43.72 46.34 44.25 42.81 39.37 37.22 35.58 34.45 33.86 32.55 31.32 31.06 30.75 30.07 30.11 33.56 33.85 32.53 31.33 32.93 31.65 30.25 29.91 29.97 29.91
56.19 56.02 56.38 56.78 56.61 57.04 57.26 56.91 56.90 57.43 56.05 54.48 51.75 50.00 46.86 43.51 40.46 41.18 40.98 42.80 40.43 38.36 36.60 34.95 33.20 31.35 30.94 29.67 28.99 28.50 29.30 30.09 31.37 31.56 33.08 32.89 32.13 32.01 31.73 31.45 31.08 30.43 30.99
56.26 56.64 56.80 57.14 57.07 57.51 57.25 54.65 49.13 48.95 47.34 46.60 46.17 44.51 41.90 40.24 38.14 37.57 38.05 36.21 33.97 32.56 31.90 31.64 30.97 30.19 30.15 30.86 29.22 28.50 29.67 30.26 28.30 27.36 26.94 26.71 26.88 27.30 28.43 29.91 27.77 26.09 25.47
56.36 57.01 57.67 57.71 57.19 53.54 50.93 47.56 46.13 46.04 43.80 43.16 41.59 41.04 38.35 37.11 36.17 36.02 35.53 32.99 30.09 29.04 29.57 29.00 29.68 29.14 29.25 29.68 30.46 30.71 28.48 28.07 27.41 27.07 27.26 27.09 26.48 27.58 25.09 27.38 26.73 23.49 23.72
55.22 53.67 52.03 51.55 49.76 47.96 45.03 44.82 43.40 41.45 39.29 37.02 35.20 35.73 36.12 35.24 34.67 34.63 34.04 31.52 28.87 27.69 26.86 26.68 28.00 29.73 29.89 28.77 29.02 29.36 27.52 26.60 23.79 25.13 25.19 25.46 25.54 25.35 25.51 25.23 24.92 23.81 23.00
49.20 48.08 46.91 46.39 45.32 44.75 42.88 40.64 38.66 36.26 33.84 32.29 31.19 30.10 30.90 32.28 32.84 32.77 31.95 30.77 30.10 27.66 26.31 28.48 29.70 29.68 28.16 27.07 27.01 25.01 23.56 23.81 24.34 23.74 23.13 22.87 21.90 21.70 22.18 22.62 22.78 23.34 24.67
45.37 44.53 44.39 43.13 42.15 42.37 40.09 37.60 35.05 34.45 32.35 30.82 29.63 27.95 27.32 28.48 29.35 30.46 29.84 28.79 28.44 28.16 28.02 28.51 28.96 28.18 26.46 25.54 24.68 23.29 22.58 23.32 22.59 21.74 20.74 20.53 20.60 21.11 21.63 21.50 22.14 22.98 23.03
42.28 41.20 40.48 38.96 37.82 37.78 37.04 36.02 34.95 33.42 32.25 30.59 28.91 26.71 25.81 25.38 25.63 26.50 26.87 27.33 27.39 27.75 27.41 28.60 27.29 26.05 25.44 24.49 23.76 23.09 22.87 22.27 20.96 20.72 20.07 20.28 20.14 19.73 19.03 19.49 18.70 19.67 19.07
38.84 37.12 35.88 34.80 33.36 31.44 31.54 33.76 33.48 33.43 33.82 31.64 29.63 27.63 25.15 24.30 24.42 25.90 26.05 25.92 26.87 26.23 26.50 25.50 24.37 23.35 22.36 22.40 22.10 21.38 21.39 20.75 19.84 20.06 18.67 17.52 17.03 17.42 17.33 18.07 17.74 17.18 16.02
34.95 34.16 33.80 33.35 32.19 30.87 29.49 28.10 30.34 30.17 30.57 30.52 29.21 27.14 26.63 26.40 27.26 27.62 27.26 26.83 25.86 25.13 24.33 22.71 21.01 21.20 20.94 20.94 20.59 20.16 19.95 17.94 18.39 16.99 16.33 15.50 14.96 15.49 15.50 15.40 16.40 15.49 14.42
32.18 30.84 30.57 30.48 29.54 28.45 27.55 26.99 24.90 28.25 29.86 29.49 29.03 28.60 27.79 27.66 27.84 27.79 27.41 27.25 25.65 23.71 22.44 21.19 20.18 20.14 20.24 20.01 19.56 18.36 17.29 16.82 16.09 15.62 14.56 14.28 14.15 14.08 12.97 13.30 13.91 13.57 13.42
28.83 28.64 27.90 27.45 26.99 26.48 25.87 25.45 25.36 24.05 23.09 24.48 27.73 27.35 27.44 27.18 26.78 26.63 26.05 24.76 23.06 22.60 21.79 20.67 19.80 19.51 19.35 18.34 18.03 16.66 15.77 15.54 14.95 13.99 13.28 12.51 11.91 11.77 11.81 11.83 12.32 11.46 12.45
28.00 27.58 27.72 27.55 27.63 27.44 26.84 26.10 25.83 25.59 25.31 24.58 24.70 25.26 26.05 25.78 25.19 24.42 23.96 22.85 21.05 20.33 20.24 19.63 19.88 19.40 18.20 17.01 16.55 15.13 14.12 13.24 12.62 11.76 11.49 10.58 10.85 11.00 10.45 10.55 11.21 9.28 9.04
24.78 25.47 25.71 25.71 25.38 25.49 26.13 26.40 26.14 25.18 24.16 23.16 21.60 20.85 22.09 22.23 20.96 20.50 20.75 21.02 20.17 19.24 18.70 18.18 17.76 16.93 15.97 15.18 14.52 13.58 13.10 12.55 12.10 11.44 10.78 10.32 10.44 10.43 9.42 9.45 10.12 9.88 10.77
22.92 23.06 23.51 23.38 23.08 23.72 23.86 23.35 23.32 22.63 21.61 20.83 19.96 20.07 19.21 20.41 19.09 18.75 17.77 17.06 16.64 15.90 15.14 15.24 14.87 14.41 13.82 12.95 12.22 11.57 10.29 10.00 9.56 8.73 8.60 8.95 8.88 7.82 8.82 9.90 10.29 10.18 10.47
22.46 21.34 20.98 21.02 20.97 20.65 20.66 20.92 20.73 20.10 19.32 18.37 17.61 16.42 16.32 17.52 16.13 14.94 14.07 13.84 13.57 13.53 13.12 11.94 11.54 11.17 10.58 9.43 8.70 8.24 7.10 6.52 6.92 7.43 7.37 6.72 7.35 8.54 8.87 8.90 9.11 9.60 9.91
20.35 19.24 18.71 18.24 18.04 17.34 17.50 17.46 16.89 16.19 15.50 15.36 15.15 14.63 14.62 14.06 13.07 12.40 10.43 9.95 10.06 9.52 8.95 8.86 8.01 6.75 7.89 6.92 6.81 6.39 5.06 5.26 6.24 6.46 5.63 6.07 6.84 7.58 8.10 8.07 8.40 8.50 9.26
17.72 16.90 15.30 14.74 14.58 14.16 14.34 14.23 13.53 12.19 12.77 12.59 12.69 12.01 11.16 9.76 8.96 7.41 7.09 7.88 7.74 7.35 6.29 5.04 4.65 3.59 3.79 3.89 5.47 6.06 5.75 5.68 5.97 6.05 5.78 5.79 5.80 6.63 7.01 7.42 7.88 7.91 8.49
14.36 13.34 12.11 11.47 10.95 10.58 10.70 10.16 9.59 9.39 8.88 9.09 8.92 9.03 8.42 8.15 7.12 6.44 5.81 5.13 3.54 4.04 3.51 2.95 2.93 2.75 2.33 0.65 0.90 1.43 2.08 1.70 3.19 3.96 4.55 4.89 4.78 4.60 5.11 6.26 6.80 7.89 8.49
10.90 10.24 9.70 9.35 8.09 7.94 7.29 6.49 5.87 5.88 5.48 5.77 5.93 5.57 5.74 5.50 5.19 4.52 3.53 3.03 1.99 1.91 1.61 2.53 2.16 0.45 -0.19 1.27 2.15 1.61 -0.18 -0.61 0.65 1.72 3.54 4.50 4.30 5.25 6.17 6.56 6.59 7.55 8.16

GFSGL_sfc_wetblb_072.txt.gz
Wetbulb
59.41 60.18 60.05 59.78 59.64 60.58 61.21 61.20 61.31 61.64 61.27 60.65 60.22 60.65 60.08 60.67 60.39 60.67 60.53 60.41 60.12 60.75 61.52 60.57 59.80 60.66 56.53 56.00 56.25 55.07 52.45 52.13 48.93 46.63 48.73 47.77 47.30 48.96 48.10 51.26 50.29 49.49 49.65
59.58 60.11 60.28 60.02 59.79 59.63 60.12 61.17 62.10 61.54 61.89 61.50 60.30 59.63 59.74 59.79 60.64 60.89 60.17 60.01 60.08 60.07 60.20 59.33 57.05 56.04 55.00 54.28 52.79 50.46 49.31 51.11 48.86 45.07 44.72 46.47 46.60 48.88 49.88 48.06 46.15 48.56 48.36
59.88 59.54 59.79 59.57 59.67 59.92 59.71 59.72 60.26 60.26 60.50 60.68 60.43 60.41 59.96 60.34 59.77 59.70 60.67 59.95 59.93 59.43 58.95 56.18 55.12 54.98 52.78 49.53 49.44 48.47 48.07 47.59 45.68 45.64 44.50 46.78 48.00 44.48 42.87 44.43 45.89 45.79 45.84
60.12 59.44 58.88 59.29 59.90 59.60 59.65 59.07 59.74 59.59 58.97 59.08 59.80 59.90 60.21 59.44 58.65 58.86 57.09 56.58 56.23 55.61 55.60 55.80 54.96 53.94 52.61 48.75 47.62 46.70 45.17 44.80 44.94 46.35 46.59 41.57 42.40 42.45 43.35 42.69 42.28 43.94 41.65
59.84 59.35 59.98 59.93 59.83 59.51 59.19 59.12 59.55 59.67 59.42 59.47 59.68 60.22 60.16 58.37 56.56 56.99 57.94 57.65 55.11 54.26 52.85 52.24 52.50 49.98 46.81 46.49 47.17 46.40 45.13 43.28 42.51 44.18 39.96 39.71 39.09 39.13 38.75 42.21 39.24 38.99 39.39
59.67 59.15 59.95 60.02 59.88 59.33 59.05 59.00 59.53 59.21 59.21 59.62 60.00 59.62 59.18 58.24 49.58 46.79 54.27 56.25 54.12 51.64 48.94 46.91 46.37 44.95 43.09 40.47 40.59 40.38 42.49 41.32 40.42 39.20 38.39 37.28 39.05 38.99 38.92 37.72 36.82 35.17 33.91
59.60 59.81 59.46 59.62 59.46 59.56 59.23 58.86 58.63 58.79 59.53 59.38 58.89 58.84 59.48 59.76 43.87 44.41 44.23 55.56 52.22 48.99 45.34 42.40 39.39 38.00 37.88 35.76 33.50 32.72 32.13 32.47 33.34 39.59 37.76 37.16 36.13 36.85 37.11 35.55 35.04 34.67 34.50
59.61 59.66 59.59 59.14 58.98 59.35 59.13 58.61 58.84 59.23 58.91 59.22 59.27 59.37 59.09 57.02 42.60 42.60 40.60 48.34 44.05 42.52 41.56 39.26 35.53 34.17 33.34 32.72 30.93 30.14 30.06 30.75 32.36 33.23 34.57 34.90 34.89 37.04 35.99 35.43 35.11 34.42 34.71
59.39 59.35 59.62 59.79 58.92 58.99 58.81 59.28 58.90 58.03 57.58 56.92 55.84 53.98 52.69 47.00 40.78 40.55 41.22 39.29 36.10 34.77 35.27 34.77 33.72 31.76 32.35 33.34 30.48 29.87 29.14 28.56 28.96 28.70 28.37 28.18 28.08 27.78 29.13 33.29 30.88 30.51 29.38
59.57 59.86 60.23 60.15 59.59 59.25 59.46 57.94 52.53 54.11 50.39 45.47 42.98 43.22 39.94 39.94 38.66 38.40 38.87 35.49 32.14 31.51 31.90 31.97 32.39 32.03 31.67 31.70 30.84 29.81 28.84 28.16 28.77 28.60 29.74 27.24 27.78 29.41 25.91 29.28 30.44 27.76 28.37
59.99 60.27 60.20 60.22 59.87 58.83 52.41 51.47 48.53 43.59 41.06 39.16 38.35 37.30 37.49 36.92 35.94 35.87 35.48 33.65 30.71 29.23 28.37 28.30 29.52 30.21 30.23 31.14 31.65 31.93 30.22 30.80 26.91 30.75 30.26 30.83 30.84 30.69 30.70 30.88 30.05 28.52 27.24
56.23 54.83 54.12 53.20 49.74 49.75 47.20 44.76 43.19 39.83 36.17 34.07 32.98 32.19 32.87 33.41 33.47 33.03 32.55 31.93 31.28 28.80 27.56 28.67 30.03 29.73 28.92 28.70 27.43 26.20 25.94 27.98 29.11 28.01 28.31 28.35 28.66 28.15 28.87 28.89 28.51 27.97 28.46
49.89 48.30 46.29 44.97 44.51 44.70 42.46 40.39 37.75 37.12 34.48 32.36 31.01 29.26 28.85 30.37 31.28 31.92 31.31 30.38 29.40 28.75 29.62 29.92 29.27 28.28 27.16 26.28 24.98 24.20 25.68 26.99 27.22 27.40 26.41 27.02 27.14 27.00 26.32 25.83 26.56 26.58 26.85
43.40 41.76 41.43 39.81 38.81 39.34 38.65 37.53 35.72 34.35 32.54 30.90 29.26 27.49 26.80 26.70 27.12 27.73 28.14 28.52 29.29 29.46 29.43 28.71 27.98 27.88 27.98 26.00 24.56 25.87 26.88 25.64 25.03 25.44 24.31 25.22 24.98 24.54 23.63 24.71 23.18 23.57 22.83
38.19 37.15 35.77 34.59 32.91 31.22 31.41 34.13 33.87 33.99 33.64 31.13 29.30 27.78 25.93 24.61 26.11 27.67 27.98 28.09 29.21 29.50 28.70 27.33 26.59 26.10 26.07 26.76 25.77 24.97 25.75 25.13 24.41 24.75 22.80 22.14 22.08 22.22 22.19 23.39 21.53 21.37 20.46
35.02 34.10 33.34 32.55 31.74 30.68 29.27 28.41 30.51 30.70 31.13 30.90 29.87 27.79 27.46 28.07 28.69 29.03 28.74 28.06 27.60 27.37 27.98 27.50 27.18 26.25 25.82 25.32 24.97 24.05 23.88 20.80 22.35 21.59 21.02 20.48 19.64 19.60 20.18 21.12 20.79 20.36 19.65
31.55 32.03 31.35 30.86 30.29 28.98 28.53 27.37 25.11 28.08 29.79 29.49 29.29 29.25 28.91 29.14 29.14 28.69 27.90 27.04 26.24 27.41 27.11 26.23 25.70 25.47 24.65 23.94 23.89 22.70 21.23 20.92 19.52 20.46 19.73 19.04 18.73 18.88 17.96 18.61 18.94 19.15 18.89
29.24 29.16 28.85 28.23 27.47 27.38 26.85 26.48 26.05 24.75 23.60 25.00 28.27 28.58 28.71 28.23 28.66 27.72 26.57 26.06 24.74 25.10 24.34 23.64 22.59 22.47 21.85 21.21 21.07 20.75 20.48 20.20 19.29 18.46 17.91 17.41 16.97 16.62 16.86 17.03 18.05 17.06 17.42
27.79 27.54 28.11 28.06 27.73 27.14 26.78 26.59 26.52 25.89 25.27 25.51 26.34 26.57 27.19 26.80 26.33 25.94 26.28 26.31 24.42 23.60 23.29 22.19 22.31 21.59 20.89 20.38 19.77 19.20 18.36 17.62 16.34 16.12 16.32 16.04 16.15 15.75 15.10 15.72 16.02 14.09 14.16
26.30 26.32 26.83 27.17 27.68 27.83 27.44 26.80 26.76 26.37 25.09 24.69 24.39 23.95 25.46 26.00 24.79 24.05 24.36 24.06 22.87 21.74 21.64 20.71 20.07 19.48 18.84 18.17 18.02 17.50 16.98 16.73 16.22 15.59 15.20 14.68 14.67 14.59 13.86 13.82 14.19 13.93 14.46
26.89 26.41 25.27 25.49 25.22 25.66 25.85 25.35 25.13 24.42 23.04 22.10 21.31 22.85 23.93 23.05 21.83 20.90 20.02 19.82 19.10 18.61 18.36 18.19 17.74 16.96 16.63 16.40 15.79 15.40 14.49 14.46 13.81 13.17 12.92 13.02 13.04 12.14 12.89 13.15 13.32 13.34 13.30
25.96 24.63 24.43 24.42 24.43 23.59 23.15 23.42 23.58 22.14 20.95 19.87 19.32 19.67 19.94 20.55 18.93 17.84 17.03 16.55 16.60 16.23 16.30 15.83 15.78 15.40 14.96 13.75 13.09 12.74 11.72 11.33 11.70 11.71 11.65 11.18 11.24 11.83 11.87 11.69 11.66 12.03 12.39
23.09 22.42 22.00 21.36 21.04 20.65 20.53 20.19 19.96 19.88 19.15 18.86 18.71 17.89 17.79 17.23 16.69 15.40 14.80 14.77 14.70 14.13 13.32 13.57 12.78 11.83 12.81 12.05 11.93 11.50 10.19 10.23 10.51 10.34 9.19 9.17 9.75 10.53 10.80 10.45 10.58 10.56 11.17
21.54 20.26 18.76 18.45 19.03 18.65 18.39 17.66 16.67 15.68 16.46 16.53 16.34 15.71 14.90 14.59 13.91 12.72 12.47 12.37 12.10 12.61 12.04 10.68 10.22 8.59 8.10 8.14 9.93 10.59 10.48 10.06 9.69 8.76 8.52 8.67 8.69 9.32 9.89 9.78 10.02 10.39 10.44
18.95 17.98 17.34 16.88 16.91 16.67 15.96 15.12 14.94 14.59 14.35 14.68 14.40 14.00 13.37 13.04 12.03 11.63 11.31 10.81 8.72 9.12 8.88 8.26 8.97 7.72 6.70 4.88 4.93 5.54 6.14 4.72 4.90 5.58 6.73 7.44 8.01 8.31 8.42 9.04 9.59 10.16 10.50
14.91 14.61 14.44 14.51 13.87 13.43 13.16 12.37 11.72 11.77 11.48 11.65 11.78 11.43 11.14 10.57 10.81 10.04 9.21 8.55 6.76 6.69 6.80 8.20 7.30 5.77 4.71 6.05 6.72 4.64 1.70 1.16 2.15 2.57 5.09 7.14 7.58 8.49 9.47 9.53 9.40 9.75 9.72

GFSGL_sfc_wetblb_075.txt.gz
Wetbulb
62.16 61.88 61.86 62.30 62.58 63.34 62.71 62.85 62.89 62.66 62.12 61.89 61.28 60.77 60.36 60.27 60.87 60.58 60.13 60.76 59.85 60.18 60.60 60.83 60.76 61.77 61.12 61.42 60.19 59.01 57.80 54.85 51.39 51.41 49.85 51.84 50.01 50.15 48.16 50.21 51.30 50.99 50.41
62.88 62.67 62.56 62.55 62.07 62.32 62.73 63.44 63.58 63.04 63.04 62.39 61.99 61.35 61.08 60.76 61.16 61.02 60.28 60.00 60.00 59.78 60.52 60.88 60.16 60.25 59.93 61.05 58.48 55.72 54.91 53.20 51.80 50.35 45.93 47.37 46.54 48.68 48.11 47.69 50.25 50.97 50.77
61.68 61.60 62.63 62.60 62.29 61.85 62.35 63.15 63.20 63.40 62.81 61.95 61.64 61.30 60.88 60.84 60.69 60.93 60.60 60.71 60.61 60.43 60.75 60.53 60.07 60.39 59.01 57.41 55.40 53.88 53.67 52.00 51.28 49.62 45.23 45.98 46.09 46.62 47.30 45.99 45.68 46.70 47.37
61.69 60.99 61.01 62.35 62.39 62.30 62.38 62.35 62.53 62.72 62.47 62.25 61.94 61.72 61.36 61.27 61.02 61.00 60.66 60.60 60.65 60.07 60.32 59.96 60.17 58.64 56.56 55.60 53.11 52.47 51.31 48.98 47.37 46.63 45.36 44.26 44.22 44.84 42.95 43.56 43.19 44.59 43.44
62.20 61.70 61.51 62.70 62.50 62.17 62.20 62.04 62.16 62.10 62.23 62.39 62.11 61.97 62.19 61.31 60.67 60.60 60.28 58.99 57.77 57.78 57.60 57.36 57.00 54.69 50.15 52.53 53.35 51.55 49.17 47.94 45.57 45.02 42.44 42.48 41.90 41.04 41.02 42.46 40.25 41.35 42.88
62.63 62.37 62.39 62.23 62.09 62.17 62.30 62.19 61.81 61.68 61.52 61.74 61.15 61.37 61.20 60.57 51.13 46.66 53.01 56.55 55.46 55.37 55.16 56.31 55.47 48.62 48.07 43.71 43.89 44.18 46.63 46.15 44.78 43.54 41.23 39.86 39.96 40.54 40.12 39.87 38.82 37.01 34.87
62.51 62.42 62.61 62.65 62.25 62.27 61.98 61.29 61.10 60.90 61.35 60.74 60.57 60.77 60.48 61.15 46.48 45.50 44.70 57.00 55.70 56.07 56.26 53.43 46.79 44.67 44.53 40.97 37.06 35.68 35.22 35.29 36.22 40.83 38.65 37.87 37.76 38.34 38.74 37.47 35.10 36.04 35.46
62.10 61.97 62.23 62.23 62.04 62.20 62.03 61.49 61.43 61.25 60.67 60.59 60.78 61.12 60.79 60.38 43.73 44.91 42.97 56.11 57.07 55.42 51.12 46.52 41.84 38.81 38.68 36.92 34.92 32.64 32.07 31.86 32.49 34.79 35.41 34.46 33.59 36.18 36.94 36.70 36.80 36.42 36.97
61.50 61.35 61.43 61.96 61.51 61.71 61.28 61.52 61.62 61.16 60.66 60.22 59.99 59.36 58.55 58.08 41.71 42.98 45.05 43.95 39.19 36.97 37.31 37.71 37.53 35.11 34.97 35.91 33.05 31.96 31.79 29.93 30.98 30.99 30.56 30.15 29.78 29.63 29.56 34.84 32.42 31.54 31.78
61.37 61.53 62.04 62.19 61.63 60.89 61.68 61.55 61.39 60.76 59.25 56.43 48.47 47.31 42.73 45.34 39.72 40.79 41.38 38.37 33.87 33.30 33.76 33.64 33.94 33.15 32.66 33.29 32.02 30.44 27.35 26.76 27.04 26.39 26.89 27.60 28.33 27.49 26.46 30.24 31.45 29.03 29.21
59.24 61.47 61.77 61.54 61.13 60.48 60.60 61.80 60.93 55.00 47.51 42.21 38.67 38.26 38.06 38.27 37.07 38.41 37.58 34.57 32.13 30.53 30.02 29.80 30.88 31.73 32.02 32.19 31.55 31.23 29.26 29.37 28.13 29.38 30.06 30.89 30.95 31.82 31.70 30.73 31.10 29.54 27.54
58.03 58.33 59.42 59.61 57.98 59.73 59.09 54.88 49.11 44.85 39.08 35.58 33.60 32.12 32.95 33.45 34.01 34.22 33.70 32.60 32.10 29.68 28.42 29.06 30.11 30.83 30.18 29.59 27.95 28.49 29.16 29.45 29.26 29.04 28.88 28.44 29.01 29.27 29.98 30.39 30.31 29.68 29.49
53.68 50.47 48.49 46.94 47.09 48.85 46.63 42.65 40.59 40.08 37.57 35.78 33.90 30.76 30.52 31.42 32.08 32.52 32.07 31.40 30.83 29.52 29.20 29.08 29.65 28.38 27.29 26.13 26.37 26.98 28.32 28.40 27.76 27.15 26.39 27.14 28.33 28.07 27.50 27.43 27.98 28.32 27.92
41.05 40.30 39.52 38.24 37.01 37.25 37.77 38.79 38.78 37.44 34.85 32.23 30.18 28.47 27.49 28.02 28.72 29.97 30.12 30.01 30.34 28.78 28.14 27.69 27.83 28.27 26.96 25.19 25.78 27.12 26.78 26.04 25.71 26.15 25.86 26.72 26.88 26.06 25.03 26.05 24.95 24.96 23.01
35.82 35.46 34.29 33.05 32.48 30.98 30.65 32.73 33.00 32.89 33.69 31.49 30.01 28.91 26.88 25.76 27.28 28.83 29.13 28.45 28.43 27.93 27.55 27.58 26.94 26.36 26.33 27.08 25.79 25.39 25.73 25.50 24.83 24.99 24.39 24.09 23.78 23.86 23.51 24.22 23.35 22.71 20.98
32.68 31.98 31.56 31.04 30.45 29.59 28.69 27.81 30.39 30.49 30.72 30.46 29.83 28.39 28.69 29.57 30.40 30.83 31.01 30.29 29.51 28.97 28.38 27.54 28.47 28.67 27.31 26.62 25.86 24.67 24.78 23.05 23.65 22.81 22.74 21.99 21.21 20.86 20.81 21.67 21.63 20.46 19.90
30.15 29.26 29.39 29.17 29.27 27.98 27.88 26.60 24.94 28.27 30.29 30.21 29.94 29.85 29.78 29.68 29.60 29.38 29.07 29.14 29.10 30.50 28.87 28.42 27.80 27.40 26.00 25.39 24.65 23.43 22.62 22.21 21.02 21.89 21.29 20.59 20.30 19.52 18.50 18.59 19.05 19.30 19.02
29.29 29.04 27.87 27.12 26.77 26.76 26.31 25.81 25.56 24.57 23.86 24.70 28.76 28.97 28.82 28.56 28.16 27.92 28.33 27.94 26.51 26.93 26.18 25.00 24.70 24.43 23.60 22.89 22.62 22.02 21.91 21.57 20.77 19.60 18.95 18.98 18.46 17.91 16.83 16.73 17.29 17.12 17.02
28.45 28.31 28.22 28.34 27.86 27.67 27.01 26.62 26.14 25.18 24.12 23.81 24.85 25.59 26.58 27.32 27.69 28.39 29.14 27.17 25.10 24.14 23.94 23.50 24.15 22.79 21.77 21.82 21.33 20.82 19.83 19.54 18.57 18.27 18.48 17.77 17.31 16.13 15.20 15.38 15.74 15.06 14.79
28.31 27.98 29.18 28.87 28.74 28.63 27.67 26.26 25.87 25.72 25.10 24.77 24.58 24.82 26.69 25.62 23.61 23.77 24.43 24.27 23.31 22.58 22.23 20.87 20.71 20.30 19.70 19.68 19.19 19.02 18.36 17.77 17.33 16.71 15.94 15.69 15.58 15.14 13.80 13.40 13.88 13.39 13.61
28.57 28.64 27.91 27.00 26.14 26.34 25.80 24.41 23.46 22.89 21.86 21.00 21.12 22.85 23.42 22.26 20.79 19.90 19.40 19.37 19.21 18.69 18.89 18.88 18.73 18.06 18.05 17.61 17.10 16.64 15.52 15.17 14.88 14.37 13.93 13.98 13.70 12.30 13.07 13.35 13.39 13.37 13.22
24.68 24.43 24.57 23.90 24.22 24.64 24.53 24.24 22.80 21.65 20.61 19.85 19.81 20.25 20.08 19.99 18.56 17.46 16.83 16.76 17.12 17.18 17.29 16.84 16.70 16.07 15.73 14.46 14.09 13.69 12.93 12.34 12.88 12.83 12.18 11.85 11.85 12.09 12.13 12.40 12.21 12.12 11.89
24.70 23.49 22.64 22.18 21.70 21.09 21.32 21.37 20.93 20.32 19.24 19.12 18.75 17.88 17.67 17.17 16.73 16.30 15.71 15.99 15.60 15.25 14.24 14.28 13.77 12.57 13.47 12.62 12.95 12.94 11.57 11.51 11.67 11.44 10.08 9.90 10.18 10.59 11.03 10.36 10.70 10.63 10.99
22.34 21.89 20.67 19.87 20.18 20.06 19.54 18.97 18.54 17.86 18.03 17.74 17.33 16.55 15.95 15.84 15.56 14.13 13.77 13.44 13.27 13.55 13.22 11.89 11.83 10.37 9.09 9.43 11.08 11.31 11.47 10.94 9.82 8.92 8.76 8.80 9.04 9.67 9.70 9.62 9.80 9.93 10.21
20.23 19.75 19.19 18.68 18.06 17.74 17.53 16.73 16.70 16.65 16.38 16.03 15.42 15.15 15.04 14.80 14.13 13.70 12.81 12.02 10.51 10.81 10.49 10.52 10.64 9.65 9.27 6.83 6.99 7.56 7.86 5.54 4.99 4.56 5.85 7.22 7.84 8.30 8.69 9.44 10.04 10.61 11.05
16.98 16.71 16.44 16.56 15.91 15.99 15.55 14.93 14.63 14.38 13.77 13.79 13.60 13.25 13.07 12.68 12.00 11.81 10.83 10.25 7.77 8.03 9.33 10.11 9.67 8.33 7.22 8.25 8.98 5.94 2.95 2.06 2.67 2.93 4.13 5.79 6.95 8.22 9.64 9.94 9.48 9.36 9.55

GFSGL_sfc_wetblb_078.txt.gz
Wetbulb
60.59 60.14 59.64 59.47 59.83 59.53 59.32 59.84 59.25 59.60 58.85 58.21 57.76 57.23 56.94 56.21 56.07 55.63 55.85 56.51 56.25 55.95 55.98 55.76 56.59 57.02 57.48 57.91 57.27 57.12 56.10 55.45 53.11 53.68 52.07 52.00 50.30 50.44 48.32 48.80 48.00 46.73 44.47
60.62 60.69 60.35 60.56 60.18 59.74 60.07 59.96 60.33 59.65 59.79 58.93 58.95 57.95 57.42 56.98 56.36 55.77 55.69 56.46 56.16 55.71 55.80 55.67 55.87 57.12 57.56 57.42 57.15 56.39 56.64 56.42 54.74 52.51 50.61 48.99 49.20 50.26 47.30 46.22 49.09 49.96 48.64
60.45 60.48 60.35 60.13 60.21 59.91 60.15 60.67 60.60 60.19 59.74 59.47 59.20 58.46 57.89 57.34 56.94 56.49 56.01 56.03 56.41 56.37 56.41 56.22 56.28 56.35 55.84 56.54 56.54 56.19 56.66 54.25 53.89 53.43 51.57 48.16 48.01 47.35 46.14 46.05 46.26 46.26 47.00
61.13 60.15 59.69 59.88 60.01 60.02 60.28 60.44 61.05 60.87 60.17 59.75 59.52 59.37 59.01 58.68 58.15 57.59 57.03 56.50 56.63 56.96 56.95 56.85 56.87 56.49 56.08 56.42 56.03 56.22 54.39 53.58 53.18 52.48 51.70 47.12 45.67 45.61 46.35 44.35 42.20 43.72 43.90
61.09 60.41 59.49 60.15 60.64 60.59 60.16 60.04 60.27 60.53 60.66 60.36 59.60 59.10 58.95 58.61 58.49 57.91 57.43 56.91 56.52 56.79 57.17 57.00 57.10 55.86 51.09 53.64 56.14 54.67 54.07 52.57 51.98 50.11 48.92 43.46 42.58 40.47 42.24 43.16 41.81 40.95 41.69
61.48 60.89 60.76 60.12 59.94 60.24 60.22 59.88 59.75 59.52 59.67 59.92 59.74 59.28 58.09 58.66 50.68 47.38 53.54 57.02 56.68 56.31 55.90 56.00 54.07 49.28 48.44 45.30 46.39 46.85 50.88 51.95 50.63 48.83 47.59 43.96 43.82 43.34 42.30 39.27 37.78 35.73 32.97
61.70 61.62 61.46 60.80 59.98 59.75 60.31 59.91 59.28 58.75 58.78 58.77 59.01 59.11 58.64 58.76 47.39 46.14 45.11 56.57 56.35 55.58 53.84 54.24 51.34 49.74 47.21 50.04 37.23 37.93 35.97 35.47 33.84 46.16 44.86 38.45 36.36 38.11 37.10 33.91 32.64 32.31 32.01
61.21 61.35 61.62 61.42 60.54 60.51 59.89 59.51 59.15 59.08 58.37 58.20 58.22 58.45 58.24 58.53 46.35 44.29 42.97 54.11 56.24 53.64 52.49 52.93 52.76 45.74 41.58 38.57 35.05 33.35 33.23 33.20 33.94 35.41 33.98 32.77 34.03 34.83 34.80 34.28 33.20 33.47 34.32
56.12 60.72 61.16 61.13 60.56 60.32 59.85 59.46 59.26 58.72 58.26 58.12 58.10 57.40 56.91 57.00 44.87 42.65 43.66 52.63 49.15 39.22 38.43 39.16 38.75 36.79 36.89 37.50 34.85 32.41 29.51 29.30 32.87 33.80 33.43 32.89 31.89 31.44 31.98 33.16 30.33 30.18 29.85
53.63 57.53 59.74 61.02 60.57 59.85 59.73 59.33 59.34 59.30 58.37 57.97 56.50 52.04 48.66 53.00 39.87 40.38 45.03 42.58 35.16 33.13 33.05 33.82 34.18 34.30 34.52 34.89 33.86 31.57 28.59 27.01 27.42 26.86 27.34 28.91 28.94 28.55 28.04 29.07 28.52 27.92 27.89
50.60 55.42 54.64 57.02 59.99 59.83 59.27 59.03 58.67 58.16 50.35 42.35 37.98 36.86 37.37 38.43 38.83 40.47 40.24 37.98 34.29 32.08 31.10 30.84 31.79 32.92 33.23 32.82 31.55 29.44 27.86 29.15 29.55 29.32 29.29 29.07 29.89 29.73 28.97 28.51 28.86 27.74 26.43
45.48 46.03 46.26 46.49 47.47 54.02 56.30 50.67 49.08 45.18 39.60 35.52 33.83 32.40 32.74 33.49 34.82 36.07 35.55 34.21 33.62 30.93 29.47 30.40 31.34 31.84 31.59 31.12 30.14 30.21 29.98 29.25 28.95 28.04 28.36 27.95 27.70 27.54 27.61 27.24 27.23 26.86 27.45
38.54 36.96 36.79 37.36 39.27 42.93 44.45 43.25 41.57 40.57 37.81 34.59 33.28 31.25 30.51 31.46 32.15 33.29 33.08 32.17 31.23 29.57 30.04 30.33 30.56 29.74 29.07 28.88 29.53 29.54 28.90 28.59 27.91 26.82 25.94 26.40 25.55 25.24 25.95 26.27 26.90 26.91 26.85
35.10 34.04 33.58 32.52 31.98 32.35 36.42 37.12 36.40 34.93 33.85 33.32 31.35 29.51 28.58 28.92 29.72 30.38 30.16 29.93 30.34 28.74 27.91 27.36 26.09 25.82 26.45 27.15 26.69 26.30 25.79 25.74 26.14 25.33 24.83 25.14 25.28 24.86 24.24 24.99 23.90 23.98 22.21
33.29 32.80 31.52 30.85 30.00 29.08 28.88 30.13 31.27 32.16 33.64 31.47 29.55 29.31 27.71 26.04 28.59 29.92 28.69 27.26 26.92 26.89 26.93 26.03 24.94 25.69 25.62 25.06 25.34 25.66 25.92 26.05 24.34 24.11 23.46 23.05 22.82 22.66 22.15 21.82 21.18 20.42 17.59
31.18 30.41 30.04 29.61 29.14 28.41 27.56 27.20 30.55 30.30 30.94 30.89 30.57 29.25 29.93 30.88 30.95 30.41 29.94 29.86 29.88 29.24 27.43 26.33 26.44 25.84 25.18 24.97 24.24 23.88 23.46 21.81 21.71 21.97 21.40 21.06 19.94 19.42 18.69 18.93 18.80 16.92 17.27
28.76 28.49 28.22 27.94 27.39 27.17 26.82 26.08 24.74 28.23 30.18 30.28 30.37 30.39 30.35 30.29 30.49 30.48 30.73 31.19 31.52 30.00 26.67 25.91 24.33 23.78 22.99 22.74 22.24 21.84 20.02 20.25 21.88 20.20 19.25 18.33 17.58 17.86 17.27 16.76 17.08 16.88 16.00
28.64 28.33 27.58 26.96 26.24 25.92 25.52 25.29 25.18 23.86 22.34 23.73 28.12 28.60 29.35 29.64 29.86 29.97 29.23 27.65 24.67 25.29 24.42 22.97 22.00 22.16 22.11 21.23 20.97 20.11 19.45 19.42 18.07 17.12 16.03 14.95 13.08 15.14 13.99 14.09 14.09 10.90 12.96
28.47 28.51 28.12 27.65 27.37 26.86 26.50 25.38 24.83 23.99 23.05 23.12 24.33 25.17 26.02 27.06 26.83 26.88 26.84 23.74 22.16 21.61 21.15 20.59 20.55 20.35 20.17 19.42 19.10 18.39 17.97 16.35 14.79 14.11 14.60 13.67 9.10 9.81 8.51 9.70 8.90 8.56 9.15
27.34 26.97 26.98 26.35 25.29 24.16 23.48 22.30 21.54 21.13 21.16 21.46 22.73 22.28 22.38 20.70 18.81 18.80 19.68 19.13 19.09 19.25 19.06 18.20 18.16 18.09 17.66 17.52 17.11 16.02 15.25 14.53 13.81 12.88 9.05 6.56 5.69 7.07 6.16 6.05 5.74 6.32 10.37
25.11 24.61 25.01 25.84 24.31 23.06 21.74 20.65 20.20 19.32 18.47 18.28 18.43 19.73 19.47 17.48 16.21 16.04 15.98 15.87 15.67 15.98 16.54 17.31 16.40 15.46 15.23 14.41 13.94 13.03 11.73 10.33 11.09 10.45 9.22 9.47 4.40 4.25 7.68 6.77 6.50 8.45 10.23
23.43 22.21 21.98 21.54 22.08 21.54 21.30 21.56 20.91 19.78 18.84 17.62 17.47 17.96 18.27 17.04 15.96 15.42 14.71 14.30 13.83 13.82 14.53 14.32 13.16 12.67 11.89 11.33 10.47 7.87 7.83 5.20 7.03 7.30 5.89 4.66 4.64 4.14 5.11 5.67 4.02 4.40 7.70
21.86 20.92 20.93 20.53 19.71 18.91 18.90 19.12 18.55 17.95 17.15 16.67 16.39 15.59 15.08 14.48 14.31 13.29 12.78 13.21 13.25 12.42 11.43 11.22 9.88 9.69 8.60 7.54 9.04 9.24 7.44 7.66 7.78 6.04 0.55 -0.36 2.44 3.58 1.85 2.38 4.75 3.97 3.88
20.07 19.80 19.04 17.72 17.43 17.28 17.35 17.20 16.88 16.25 16.39 15.50 14.55 13.68 13.05 13.03 12.00 10.88 10.23 9.20 9.56 10.16 7.84 6.36 8.92 5.56 4.74 1.79 2.96 2.40 6.49 2.99 1.78 1.34 1.40 1.55 1.24 3.37 1.27 3.11 4.18 2.91 5.54
17.14 16.54 16.18 16.18 15.53 14.88 14.43 14.06 13.91 13.52 13.06 12.85 12.55 12.49 12.47 11.91 11.11 9.03 7.59 7.73 5.61 5.08 5.62 7.63 3.73 3.49 2.92 -1.00 0.38 2.44 -1.12 -3.24 -5.64 -4.49 -2.97 0.22 0.65 -1.05 1.90 5.17 5.72 8.01 6.23
14.96 14.60 14.33 14.18 13.52 13.17 12.70 11.91 11.53 10.96 10.72 10.76 10.76 10.30 9.86 9.09 7.58 7.70 6.97 2.81 0.09 2.85 3.97 3.33 5.64 1.53 1.45 3.89 2.93 -1.41 -4.51 -3.72 -5.23 -3.04 -4.00 1.55 -0.39 2.16 4.92 3.84 1.97 4.40 5.84

GFSGL_sfc_wetblb_081.txt.gz
Wetbulb
57.83 57.98 57.91 59.13 59.63 59.69 58.85 58.66 58.68 58.60 57.30 55.77 55.69 55.62 56.04 55.97 55.51 54.64 54.73 54.69 55.07 55.56 56.07 55.93 55.65 56.13 55.76 56.04 56.24 56.06 55.57 55.26 52.72 53.87 52.85 52.32 50.45 53.35 54.00 53.09 52.03 50.39 47.42
58.01 57.63 57.28 57.62 58.20 58.69 58.94 58.64 59.01 58.55 58.44 57.21 56.40 54.95 55.19 55.75 55.48 54.72 54.05 54.61 54.16 54.51 55.24 55.28 55.23 55.86 55.12 55.63 55.98 55.78 55.63 56.00 54.32 52.71 54.12 48.81 50.15 50.67 51.88 49.19 49.68 49.77 47.88
58.14 57.85 57.31 57.13 57.27 57.25 57.64 58.01 58.97 58.89 58.84 58.45 57.50 56.42 55.02 55.24 55.17 54.92 54.62 54.30 54.11 54.24 54.92 54.84 54.52 54.64 53.58 54.21 54.90 55.03 55.91 55.62 55.61 54.23 53.10 50.55 51.51 47.66 47.28 46.96 48.00 48.13 48.40
57.75 58.08 57.67 57.64 57.66 57.89 58.09 57.86 58.31 58.50 58.08 57.65 57.56 57.16 56.83 56.24 55.83 55.40 55.01 54.21 54.26 54.36 54.56 54.89 54.91 54.39 54.14 54.21 54.49 55.11 55.65 55.24 54.98 54.38 53.75 51.75 48.02 46.25 48.66 47.39 43.83 45.66 45.87
58.16 57.18 57.65 58.27 58.82 58.65 58.52 58.43 58.86 58.79 58.67 58.61 58.06 57.72 57.43 57.08 56.80 55.97 55.59 54.65 54.00 53.79 54.19 54.83 55.22 54.18 50.51 52.60 54.97 55.19 55.16 54.58 54.44 53.01 51.99 50.99 43.66 41.90 44.21 46.15 45.46 44.81 42.24
58.68 58.23 58.44 57.79 58.30 58.18 58.27 58.10 58.09 58.64 58.82 58.75 58.16 57.86 57.26 57.59 50.85 47.04 52.53 55.22 54.77 53.91 53.34 54.18 54.90 49.52 49.40 45.72 45.72 47.02 51.21 54.35 53.07 52.61 52.22 50.37 48.12 46.47 46.25 44.46 40.51 36.78 35.71
57.20 59.08 59.23 58.61 57.91 58.26 58.58 58.29 57.76 57.69 58.01 58.19 58.44 58.15 57.63 57.70 47.09 46.26 45.21 56.05 55.44 54.85 54.41 54.39 54.22 53.88 48.40 52.35 40.66 38.44 37.06 37.31 35.24 49.25 51.05 50.72 42.62 40.72 38.18 34.71 33.53 33.46 32.39
51.04 52.87 55.75 58.81 58.45 58.07 57.96 58.01 58.06 58.03 57.23 57.14 57.50 57.74 57.85 57.77 46.44 44.47 43.10 54.13 55.94 55.24 54.86 54.51 53.46 49.75 47.37 42.72 37.44 34.87 33.23 33.56 34.53 36.74 37.77 35.64 35.97 37.18 37.35 36.17 34.98 33.55 33.56
46.98 48.92 52.62 51.85 51.84 57.35 57.38 57.34 58.01 57.90 57.36 56.85 57.52 57.32 56.78 57.01 45.63 44.29 43.62 51.86 53.63 54.47 43.32 42.98 49.30 44.95 39.11 39.28 36.03 32.06 31.00 31.06 34.25 34.70 34.48 34.24 34.46 35.07 35.06 34.31 31.59 30.88 29.41
45.13 46.95 47.59 46.83 46.79 47.40 54.31 58.14 58.46 58.10 57.43 57.52 56.91 56.66 52.49 56.78 44.16 43.50 44.52 52.86 45.23 35.89 34.57 34.77 35.87 37.60 35.97 35.86 34.24 32.01 29.26 28.97 29.32 28.94 28.71 29.62 31.04 31.17 31.20 32.50 31.57 29.46 28.92
42.70 42.89 41.99 40.89 41.39 43.02 45.10 53.13 57.16 57.17 56.21 53.96 46.11 39.48 39.23 40.91 40.40 40.12 40.74 43.15 42.12 34.51 32.52 31.60 33.13 34.60 34.97 34.46 33.77 32.44 29.36 28.79 28.26 28.93 28.95 28.97 29.25 29.20 29.08 29.20 29.34 28.55 26.82
39.33 38.12 37.12 36.53 35.74 36.52 39.12 42.40 45.13 49.60 44.74 37.52 34.74 32.75 32.90 33.82 34.96 35.82 36.30 35.97 36.04 33.05 30.60 31.49 32.10 32.75 31.99 31.26 30.48 30.92 30.45 29.64 29.02 27.96 27.42 26.94 25.80 24.92 25.91 26.34 26.69 26.55 26.81
35.87 34.61 33.40 33.28 32.05 32.10 32.03 33.65 38.15 40.25 39.99 35.66 35.58 32.30 30.76 32.42 31.98 33.01 33.08 32.35 31.90 30.43 30.71 31.19 31.36 31.11 30.44 29.73 30.09 29.80 29.00 28.35 27.43 26.11 24.69 24.03 24.85 25.85 26.36 26.10 26.89 26.59 26.28
33.00 32.23 30.99 29.78 29.81 29.79 30.15 30.66 30.84 31.38 35.13 34.24 32.06 30.54 29.24 29.04 28.91 29.62 29.43 28.82 28.73 26.98 26.64 27.12 26.57 26.32 25.99 25.98 26.52 27.20 27.19 26.58 25.62 24.30 23.90 24.77 25.41 24.77 23.44 24.22 23.13 23.15 22.45
30.93 30.35 29.80 28.54 28.68 28.25 28.63 28.80 29.12 29.86 31.15 31.01 30.53 30.40 28.42 26.28 27.17 28.38 27.34 26.24 25.67 26.00 26.67 26.77 25.44 24.77 24.04 24.31 24.67 24.69 24.53 24.24 22.97 23.10 22.66 22.21 22.13 22.05 21.19 21.72 21.16 20.38 18.70
28.29 28.18 27.69 27.71 27.23 27.10 26.90 26.53 30.22 30.25 31.01 31.33 30.91 29.45 29.45 30.10 30.55 30.45 30.42 30.41 29.95 29.29 26.70 24.80 24.08 23.78 23.10 22.46 21.38 20.47 21.02 21.65 22.18 21.81 21.03 20.58 19.34 18.69 18.43 19.15 19.23 17.89 16.54
27.14 27.06 26.71 26.34 26.25 25.61 24.92 24.80 23.55 27.11 29.73 30.32 30.75 30.90 31.19 31.36 31.59 31.27 30.06 29.33 28.98 27.33 23.62 22.56 21.85 21.61 21.26 21.51 20.53 19.82 19.38 19.73 20.25 19.05 18.10 17.71 17.90 17.52 16.75 16.04 15.52 14.62 13.88
27.64 27.13 26.51 26.16 25.43 24.88 23.83 23.43 23.66 22.65 21.62 22.17 26.42 27.81 28.93 29.20 28.87 28.33 27.66 25.75 22.51 23.11 21.71 20.55 19.91 19.90 19.82 19.15 19.13 18.82 18.21 17.46 17.49 17.33 16.03 14.79 13.40 13.93 13.14 12.41 12.29 9.48 10.39
26.02 25.32 24.82 24.21 23.94 23.93 24.02 23.62 23.25 23.14 22.09 21.26 21.36 21.15 22.60 24.77 24.28 24.47 23.90 20.27 18.65 18.15 18.46 17.91 18.23 18.13 18.16 17.92 17.47 16.72 15.65 14.28 13.37 12.31 10.96 10.43 6.72 8.37 5.47 6.72 6.29 6.31 8.17
23.43 24.91 23.78 22.68 21.83 21.02 20.54 19.74 19.21 18.83 18.07 17.60 17.03 17.05 18.07 17.40 15.31 15.24 16.25 16.62 16.81 16.78 16.70 16.14 16.04 15.65 15.02 14.43 13.54 13.48 12.77 11.98 11.43 10.71 7.08 5.62 4.50 6.83 5.64 5.27 4.96 4.69 8.54
21.19 21.35 21.32 21.34 21.23 20.83 20.02 18.69 17.96 17.26 16.52 16.05 15.82 16.74 16.69 14.92 13.66 13.47 12.69 12.53 13.03 13.51 13.35 13.10 12.32 12.14 12.12 11.76 11.71 10.67 9.46 8.61 9.14 8.19 6.20 2.99 -1.99 -0.33 5.08 3.44 1.16 4.85 7.25
21.34 20.29 19.61 19.05 19.28 18.62 17.98 17.89 17.13 16.19 15.67 14.74 14.87 15.30 15.20 14.01 13.04 12.31 11.60 10.70 10.90 11.30 11.85 10.62 8.82 8.33 8.48 8.52 8.02 4.81 4.37 4.70 3.73 1.43 1.05 1.89 2.23 1.30 0.65 -1.13 -2.87 -3.05 2.06
18.49 16.97 17.15 17.64 17.48 16.33 16.24 16.35 15.05 13.84 13.15 12.85 12.68 11.44 10.75 9.67 8.78 8.55 8.48 9.73 8.57 7.37 8.10 7.28 5.28 5.09 5.16 4.26 4.23 4.98 2.83 1.51 -0.21 -3.78 -3.92 -5.57 -1.67 -2.37 -7.72 -4.64 -2.88 -3.58 -3.42
16.41 15.54 15.10 13.95 12.29 12.14 11.73 11.31 11.73 11.18 11.41 10.15 8.96 9.09 9.56 8.34 6.10 4.34 3.27 4.07 4.68 0.47 4.03 2.46 3.14 2.58 2.25 -2.83 -1.17 1.96 0.61 -6.01 -4.21 -6.54 -10.65 -11.17 -7.36 -2.48 -6.09 -2.89 -1.14 -2.13 3.00
13.15 12.56 11.38 11.10 10.74 8.24 7.17 7.00 7.24 4.59 4.85 3.19 6.59 7.26 6.83 5.76 4.44 2.22 -2.21 -2.00 -0.06 0.09 3.92 0.63 -1.91 -2.92 -3.57 -1.81 -1.30 -2.41 -5.88 -5.65 -10.24 -7.59 -9.75 -8.47 -10.08 -10.99 -6.82 1.21 0.57 -0.49 -3.61
11.42 10.51 9.03 8.60 7.56 5.75 2.28 1.35 0.05 -0.58 -1.82 0.38 4.87 1.22 -5.39 -1.53 3.49 -3.27 -6.76 -3.12 -1.47 0.39 -2.02 -1.95 -2.29 -2.41 0.32 0.36 -1.82 -4.45 -7.49 -5.55 -7.56 -3.81 -6.82 -4.64 -5.19 -5.19 -6.64 -6.82 -3.76 -4.12 0.93

GFSGL_sfc_wetblb_084.txt.gz
Wetbulb
56.67 57.01 57.73 58.05 58.40 58.14 57.40 57.29 58.06 58.09 57.37 56.67 56.62 55.22 55.90 55.94 56.10 56.00 56.78 56.79 55.88 56.48 56.35 55.69 55.38 55.42 54.98 55.33 55.47 55.26 54.77 54.57 51.86 53.31 54.94 55.01 52.69 54.00 54.24 53.72 54.06 52.99 52.79
57.07 56.83 56.83 57.89 57.86 57.51 57.67 58.05 58.32 57.99 57.96 57.18 56.65 55.96 54.99 55.20 55.67 55.25 55.36 56.03 54.40 54.71 55.16 55.11 54.70 55.06 54.64 55.18 54.93 54.61 54.63 54.98 53.71 51.85 53.30 51.38 50.55 53.37 54.04 54.43 53.68 53.29 53.23
57.67 57.21 56.99 57.37 57.57 57.60 58.29 58.90 58.79 58.57 58.21 57.73 56.53 55.82 55.34 55.17 54.76 54.98 55.02 54.48 53.94 53.55 53.72 53.89 54.25 54.62 54.34 54.42 54.86 54.29 54.49 54.51 54.26 53.51 53.01 54.55 54.27 49.04 48.93 48.35 48.72 50.49 50.28
57.02 56.86 56.55 56.60 56.86 57.39 57.68 57.95 58.30 58.60 58.29 58.13 57.71 56.60 55.38 54.87 55.08 55.14 54.71 54.09 53.70 53.77 53.46 53.49 53.77 53.79 53.60 53.93 53.83 53.73 54.20 53.77 53.55 53.26 52.90 53.59 53.53 50.08 50.33 49.73 46.85 47.61 48.70
56.39 56.90 56.85 56.85 57.22 57.00 56.85 56.97 57.46 57.55 57.69 57.88 57.50 57.16 56.92 55.51 54.47 54.17 54.42 54.02 53.47 53.18 53.36 53.45 53.68 53.03 50.43 51.89 53.60 52.97 52.70 52.21 52.57 52.35 52.72 53.39 50.37 43.57 46.89 49.76 49.91 48.98 44.68
55.86 57.37 57.65 57.68 57.49 56.97 56.88 56.91 56.97 56.90 57.21 57.27 56.92 56.66 56.37 56.31 50.00 46.00 51.00 53.80 53.57 52.86 52.28 52.77 53.22 48.58 48.28 44.69 45.19 46.32 51.32 52.46 52.13 52.02 52.44 52.09 52.74 49.60 50.28 49.54 46.64 38.47 38.07
49.42 51.29 54.52 54.33 56.94 57.88 57.81 57.51 56.99 56.86 56.99 56.93 56.87 57.07 56.58 56.75 47.37 46.01 44.54 54.83 54.60 53.92 53.30 53.18 52.74 52.93 47.79 52.20 44.48 42.30 40.35 39.09 39.67 53.38 52.89 53.14 52.75 52.73 50.32 44.85 42.82 39.74 35.37
45.69 47.49 48.87 49.10 49.47 51.03 52.64 57.43 57.49 57.40 56.99 57.27 57.38 57.52 57.33 57.31 46.77 44.81 43.27 53.47 55.42 55.38 54.53 53.59 52.99 52.76 51.63 50.53 46.82 42.78 40.79 36.48 36.78 38.37 41.86 43.31 39.01 40.31 42.52 41.00 37.68 33.62 33.74
41.17 42.24 43.65 44.43 45.06 46.37 46.29 47.27 52.23 57.82 57.26 57.02 57.27 57.25 57.34 57.61 46.30 44.68 44.46 53.02 54.45 54.83 55.17 54.60 53.92 52.91 48.96 44.42 44.12 38.96 32.36 31.78 35.19 35.59 35.46 35.28 35.06 35.57 36.75 36.43 33.31 33.29 29.71
38.89 38.81 39.25 39.54 39.61 41.58 42.18 44.05 46.46 48.76 57.17 57.79 57.03 57.07 53.65 56.82 48.43 44.94 45.72 54.10 52.23 52.37 53.24 40.89 37.25 45.72 44.55 39.83 47.80 39.49 33.76 30.66 30.98 30.67 29.79 30.03 31.08 31.20 31.63 33.07 32.92 30.31 28.48
37.51 36.72 35.37 34.77 35.17 36.46 37.37 39.78 42.55 43.87 45.45 54.96 54.57 41.50 41.52 38.34 39.00 38.80 42.25 51.76 51.79 48.98 42.35 33.26 33.10 35.16 35.48 34.99 35.53 35.55 32.75 30.08 29.19 28.28 27.94 27.71 27.25 26.71 26.75 27.41 28.45 29.24 27.19
35.15 33.56 32.17 31.78 31.44 32.75 33.18 34.41 35.96 38.01 39.13 37.21 35.96 34.27 33.86 33.83 34.12 35.16 36.29 37.60 37.20 35.56 31.48 31.98 32.04 32.84 32.56 31.95 30.91 31.23 30.70 29.66 28.82 26.98 25.50 24.90 24.92 25.41 26.44 27.01 27.61 26.96 27.31
33.13 31.12 29.70 29.88 29.50 30.26 30.74 30.49 31.07 33.95 33.92 32.83 32.09 30.74 30.56 31.70 31.42 32.14 32.62 32.56 32.59 31.22 31.06 31.34 31.34 30.75 30.37 29.69 30.09 29.50 28.81 27.78 26.33 24.45 23.36 23.41 24.65 25.66 26.50 26.18 26.71 26.56 26.32
30.45 29.92 28.96 28.64 28.14 28.70 29.68 29.84 29.18 29.21 30.93 30.82 30.56 28.89 28.34 27.35 27.61 27.75 27.46 27.61 28.44 27.09 26.50 26.64 26.59 26.69 26.54 26.24 25.96 26.20 26.08 26.15 25.02 23.68 23.00 23.77 24.40 23.36 22.62 23.75 21.84 22.23 21.28
29.16 28.65 28.23 27.93 27.37 26.73 27.95 28.60 29.03 29.61 29.71 28.53 28.19 28.20 26.85 26.18 27.01 27.86 27.40 26.82 27.25 27.14 26.99 26.41 25.13 24.04 22.84 22.55 22.89 23.27 23.46 23.29 22.35 22.64 21.84 21.14 20.81 20.15 20.02 21.02 20.29 19.86 18.29
27.19 26.82 26.98 26.92 26.43 25.28 25.23 25.51 28.38 28.60 30.44 31.39 31.37 29.59 29.90 30.56 30.83 31.00 30.78 30.28 29.54 28.34 25.30 23.31 22.17 21.49 19.99 20.21 20.17 20.41 21.27 20.96 20.66 20.36 19.60 19.34 18.39 18.28 17.73 17.97 17.78 16.55 15.10
26.28 26.05 25.33 24.48 24.04 23.11 22.76 22.33 20.64 23.94 25.85 26.24 28.15 29.69 30.00 29.76 29.46 29.14 28.59 27.99 27.58 25.66 21.91 21.34 20.67 20.27 19.53 19.66 19.29 18.31 17.27 18.56 19.60 18.44 17.92 17.69 16.94 16.06 15.28 14.20 13.69 13.34 12.81
22.95 23.13 23.44 23.45 22.76 22.12 21.62 21.60 21.00 20.06 18.81 18.93 22.10 23.85 25.37 25.83 25.92 26.04 25.29 23.19 19.68 20.57 19.79 18.52 18.02 18.22 18.75 18.44 17.91 17.11 17.19 17.08 16.22 15.12 14.10 13.69 13.69 13.25 11.95 11.28 10.89 9.92 10.74
22.10 21.91 21.55 20.33 19.71 18.93 19.01 18.24 17.86 17.68 17.34 16.78 17.85 18.73 19.18 22.48 22.06 21.99 21.73 17.84 16.47 16.15 16.64 15.87 16.43 16.06 15.59 15.73 14.79 13.88 12.99 12.13 11.34 10.86 10.44 9.74 9.17 9.96 8.63 8.26 8.39 7.81 8.42
19.64 20.54 19.63 19.10 18.16 17.38 17.33 16.43 16.50 16.18 15.29 14.63 14.13 14.41 15.80 15.19 12.70 12.41 13.30 13.69 13.68 13.63 13.60 13.10 13.30 13.15 13.09 12.93 12.20 11.47 10.95 10.58 9.82 8.48 4.62 3.49 1.53 5.00 5.00 5.50 3.35 2.32 7.46
18.19 18.62 18.11 17.99 17.58 17.40 16.67 15.15 14.70 14.44 13.47 12.82 12.45 14.18 14.10 12.29 10.77 10.26 10.24 9.95 10.65 10.96 10.50 10.10 9.50 9.57 10.29 9.24 9.23 7.39 5.94 3.14 3.98 2.23 2.21 3.55 -1.45 -0.37 3.88 2.99 1.41 4.33 5.91
18.01 17.97 17.86 17.48 17.37 16.17 15.58 15.09 13.53 13.07 12.36 11.25 10.80 10.37 9.53 9.10 9.08 8.38 6.99 5.96 6.74 7.87 7.94 6.61 6.21 6.37 5.95 5.06 5.05 1.51 -1.30 -3.91 -4.79 -4.31 -3.55 -2.65 -0.90 -1.25 -1.25 -1.25 -1.80 -2.30 1.05
15.94 14.78 14.30 14.73 14.96 13.51 13.34 13.35 11.48 9.47 8.66 8.48 8.15 7.07 5.59 3.81 3.85 4.58 4.23 2.32 3.63 3.19 2.80 2.52 1.17 1.42 0.30 -1.44 1.01 1.08 -0.84 -3.35 -5.33 -8.98 -8.97 -8.58 -3.38 -4.61 -9.66 -6.39 -4.76 -5.85 -5.49
13.01 13.13 12.95 10.66 10.10 10.20 8.08 7.24 8.24 7.64 7.04 6.69 5.81 4.64 2.85 0.14 -3.72 -4.44 -4.62 -5.67 -1.91 -2.83 -4.42 -4.80 -1.86 -0.87 -1.20 -8.21 -5.15 -2.88 -3.85 -11.31 -8.63 -10.60 -13.83 -12.01 -7.12 -5.72 -9.84 -6.21 -4.58 -6.57 -6.57
10.51 9.51 8.00 6.82 5.92 5.11 5.55 4.67 2.81 2.62 2.64 0.05 -0.49 -0.63 1.83 -2.37 -3.91 -9.49 -8.39 -4.24 -0.94 -1.92 -1.73 -4.88 -5.35 -3.72 -4.01 -5.12 -5.17 -4.91 -7.35 -7.85 -11.67 -10.57 -11.66 -11.67 -13.83 -12.74 -10.20 -6.94 -10.02 -6.21 -7.66
9.28 8.16 6.59 6.01 3.58 0.67 -0.16 -0.37 -3.87 -4.09 -2.77 -4.94 -5.35 -9.66 -8.93 -5.67 -9.84 -15.82 -12.56 -9.12 -8.61 -7.22 -6.11 -5.49 -3.71 -5.67 -5.68 -5.17 -4.78 -6.62 -8.21 -6.95 -10.12 -9.75 -15.09 -9.71 -12.19 -12.56 -13.10 -12.01 -9.11 -8.93 -3.00

GFSGL_sfc_wetblb_087.txt.gz
Wetbulb
56.37 56.91 57.03 57.26 57.98 58.08 57.64 57.60 57.89 57.20 55.62 54.66 55.16 55.18 55.32 56.43 56.96 56.85 56.80 56.86 56.14 56.07 56.27 55.81 55.60 56.12 55.58 55.44 55.56 55.30 54.51 54.06 51.56 53.33 54.17 53.16 52.30 53.69 54.16 53.61 53.59 53.07 53.66
56.35 56.49 56.19 57.05 57.92 58.05 57.67 57.90 58.06 57.49 57.66 56.61 55.19 54.96 54.48 55.28 55.77 55.87 55.96 56.38 55.24 55.61 56.18 55.85 55.40 55.69 55.11 55.53 55.47 54.91 54.38 54.18 52.93 51.63 53.92 53.55 52.11 53.63 54.84 54.25 53.81 54.28 54.57
56.29 55.96 56.09 56.11 56.59 57.34 57.56 57.73 57.77 57.81 57.93 57.50 56.82 55.75 55.22 54.31 54.61 54.97 55.06 55.14 55.02 54.98 55.26 55.25 54.78 54.47 53.83 54.22 54.37 53.75 53.40 53.63 53.98 52.90 52.45 53.76 53.75 52.37 52.01 52.28 52.77 54.00 54.02
56.81 56.33 55.82 56.02 56.33 56.83 57.14 57.56 57.41 57.81 57.82 57.57 57.43 56.89 56.34 55.83 54.79 54.19 54.43 54.43 54.75 54.82 54.25 54.40 54.34 54.00 53.75 53.77 53.06 52.86 53.03 52.95 53.22 52.70 52.69 53.07 53.49 53.14 50.02 50.38 49.49 48.85 51.50
56.52 57.09 56.75 56.95 57.28 57.86 57.64 57.56 57.69 57.55 57.55 57.47 57.19 56.90 56.35 56.05 55.78 55.18 54.61 53.73 53.59 53.75 54.11 53.71 53.49 52.72 49.99 51.35 53.60 53.15 52.79 52.18 52.31 52.12 51.71 52.17 52.18 49.65 49.21 52.27 50.65 51.89 51.20
50.59 53.10 55.71 57.06 57.09 56.96 56.87 57.06 57.11 57.45 57.10 56.94 56.65 56.71 55.99 55.47 48.91 46.04 51.47 54.04 53.89 53.08 52.68 53.13 53.10 48.20 47.97 43.94 44.59 45.87 50.52 51.86 51.06 51.47 51.28 50.72 51.13 51.71 51.86 51.12 51.40 48.73 45.79
44.17 45.99 46.59 47.59 48.93 49.92 53.16 56.62 56.45 56.24 56.65 56.64 56.87 56.90 56.30 56.47 47.74 45.19 44.05 53.76 53.73 53.51 53.53 53.46 52.99 52.90 47.98 51.52 45.04 42.45 42.84 42.62 44.79 51.99 50.76 51.09 51.11 52.14 52.95 50.91 50.24 50.35 48.49
39.86 40.14 41.62 42.50 43.54 45.57 47.06 46.87 48.08 51.19 56.35 56.56 56.58 56.72 56.92 57.34 48.19 46.54 44.86 52.09 53.46 54.08 53.98 53.57 53.20 52.95 52.04 50.33 49.62 49.04 47.00 48.85 46.54 46.57 49.21 51.75 52.86 48.10 48.31 49.92 51.40 40.38 33.81
37.27 36.75 37.43 37.47 39.20 40.40 40.01 40.73 43.43 44.96 47.63 49.47 56.35 57.07 56.76 56.82 47.69 45.27 45.19 52.45 53.25 53.71 54.67 54.78 54.28 53.22 49.94 45.24 49.45 48.60 47.07 33.67 35.60 36.24 35.44 34.93 34.93 35.70 38.62 38.85 34.83 35.94 30.99
35.35 34.27 34.33 33.49 34.90 34.86 35.88 37.26 38.70 41.09 43.24 46.11 47.79 45.80 39.10 40.48 35.58 36.52 42.32 53.87 52.22 52.29 53.39 53.72 46.66 51.13 45.96 42.56 48.22 49.30 46.28 35.79 31.82 29.82 29.50 28.92 29.35 29.98 30.04 31.79 34.64 35.89 28.52
33.64 32.53 31.56 31.29 32.27 32.31 33.21 34.55 35.81 37.13 39.59 38.43 36.32 33.61 33.15 32.16 33.43 35.17 37.05 41.64 51.15 51.20 50.46 47.59 33.94 35.01 35.15 35.72 39.64 48.68 44.39 31.73 29.10 27.75 26.73 27.09 27.64 27.69 27.69 27.93 27.90 28.48 24.18
32.92 30.26 30.02 29.98 30.76 31.34 30.95 31.12 32.14 34.54 34.31 33.04 32.17 31.26 30.68 30.08 31.28 32.46 33.68 34.50 37.06 34.53 32.84 31.98 32.03 32.89 32.54 32.47 31.93 31.93 30.97 29.17 27.49 26.31 25.60 24.69 24.44 24.31 25.34 26.05 26.23 26.20 26.31
30.77 29.04 28.96 28.39 29.13 29.97 29.26 28.88 29.25 30.73 30.97 30.75 29.77 28.52 27.96 28.62 28.56 30.06 30.57 30.67 31.41 30.59 30.26 30.34 30.07 29.78 29.18 28.62 29.40 28.87 28.04 26.98 25.54 23.46 21.96 22.28 23.57 24.71 25.24 25.30 25.92 24.98 24.97
29.08 28.43 27.97 26.96 27.41 27.20 28.38 29.04 28.61 28.35 27.84 27.23 27.14 26.68 26.65 26.68 26.84 27.86 28.11 28.37 29.41 28.56 28.02 27.42 26.83 26.48 25.71 25.83 25.68 26.04 25.80 25.34 24.02 22.48 21.57 21.93 22.20 21.44 21.10 22.56 21.42 21.98 20.96
27.35 27.72 27.15 27.28 26.05 25.82 25.58 25.28 26.25 27.83 28.97 27.18 27.02 26.95 25.24 26.09 28.65 29.65 28.73 27.32 27.01 26.72 25.45 24.44 22.94 22.46 21.74 21.98 22.09 22.15 22.38 22.36 21.08 21.22 20.12 19.55 19.13 19.04 18.53 20.12 20.04 19.32 17.23
25.48 25.27 25.02 24.62 23.40 23.75 23.71 23.24 26.34 25.96 27.41 28.34 28.66 27.35 27.41 28.52 28.75 28.64 28.21 27.94 27.29 26.21 22.55 20.20 19.48 19.52 18.84 18.53 18.21 18.30 18.87 18.85 19.30 19.40 18.69 18.42 17.52 16.61 16.02 16.71 17.02 16.19 14.05
24.41 24.01 23.59 23.24 22.19 22.29 21.07 20.07 17.58 20.05 23.83 24.92 25.91 26.60 26.83 26.79 26.86 26.65 25.85 25.12 24.54 22.57 18.23 17.91 17.84 17.72 17.29 17.44 17.43 17.32 16.24 16.96 17.81 16.61 16.09 15.94 15.84 15.40 14.02 12.97 13.01 13.36 12.44
20.89 20.19 19.34 18.56 17.83 17.00 16.14 15.59 15.48 14.30 14.35 15.34 20.26 22.14 24.30 24.62 24.56 24.37 23.53 21.21 16.96 17.48 16.74 15.76 15.40 15.98 16.13 15.68 15.61 14.76 14.48 14.14 13.71 13.32 12.70 12.66 12.73 12.32 11.47 10.81 10.75 10.49 10.59
19.22 17.80 16.26 16.18 15.77 15.04 14.93 14.50 13.76 13.05 12.58 12.41 13.45 14.84 16.05 20.50 20.01 19.82 19.06 14.76 13.52 13.31 13.75 13.38 13.77 13.76 13.64 13.53 12.97 12.36 11.41 10.25 10.19 9.42 9.24 9.45 9.00 9.70 8.59 8.68 8.53 8.33 8.25
16.76 17.27 15.60 15.76 14.96 14.16 13.63 13.25 12.49 11.96 10.91 10.25 10.23 10.45 12.10 11.84 9.74 9.51 10.88 11.47 11.10 10.91 11.11 11.00 11.40 11.39 11.51 11.76 10.86 10.61 9.69 9.08 8.28 7.44 5.34 4.99 5.95 7.30 5.49 5.51 5.36 5.02 6.40
15.68 16.22 14.47 15.86 14.94 14.37 13.49 12.81 12.38 11.12 9.92 8.89 7.59 8.73 9.98 8.13 6.62 6.80 6.95 6.66 7.00 6.72 6.66 7.36 6.59 6.78 8.28 7.36 6.82 4.52 3.56 2.50 3.64 3.37 3.78 2.22 -1.62 0.18 2.29 1.90 2.51 4.11 5.18
14.97 15.21 15.27 14.17 13.90 12.77 12.07 11.46 10.79 9.66 8.73 7.84 7.67 6.95 6.38 5.73 5.38 3.96 2.86 2.02 1.93 3.97 4.60 2.98 2.68 3.32 3.82 3.73 2.41 -0.19 -1.74 -4.30 -3.61 -3.65 -1.98 -0.57 0.07 -0.64 -0.63 -1.95 -4.59 -5.13 -0.69
13.36 11.76 12.19 11.75 11.11 9.06 9.11 9.56 8.74 7.48 6.77 5.69 5.38 4.29 2.94 1.69 2.25 1.22 -0.14 -1.78 1.05 -0.20 -1.71 -1.52 -3.46 -1.13 -1.86 -3.43 -2.58 -1.93 -3.00 -5.16 -5.89 -10.24 -10.39 -8.57 -3.90 -6.22 -10.02 -6.96 -4.59 -4.58 -4.77
10.01 9.75 10.42 8.58 7.98 6.74 4.89 3.78 5.27 4.81 4.86 3.52 2.08 0.58 -1.56 -3.11 -3.53 -3.14 -2.78 -3.67 -2.50 -5.53 -9.67 -11.30 -5.88 -3.90 -4.47 -11.29 -8.61 -5.69 -3.92 -11.29 -8.43 -10.22 -13.66 -12.92 -9.65 -7.87 -10.02 -6.40 -5.85 -9.84 -9.84
7.31 6.40 6.04 4.69 4.10 2.43 2.16 0.58 -0.55 -0.37 -1.39 -3.32 -5.30 -4.76 -2.95 -4.50 -4.50 -10.74 -7.84 -6.60 -7.14 -10.74 -7.48 -10.38 -8.02 -6.79 -8.33 -10.90 -9.30 -6.57 -7.84 -8.57 -13.47 -12.92 -13.82 -13.66 -14.01 -13.28 -11.47 -9.84 -13.46 -8.39 -9.65
6.92 5.39 3.57 3.09 0.85 -0.94 -2.53 -5.32 -8.75 -8.93 -8.93 -10.20 -12.92 -14.37 -12.20 -12.19 -14.01 -17.99 -14.19 -11.65 -11.10 -10.92 -8.02 -8.75 -7.84 -8.93 -8.20 -6.23 -5.89 -7.66 -9.84 -9.47 -12.57 -13.28 -17.45 -11.36 -13.83 -14.37 -15.09 -13.64 -11.10 -10.92 -5.48

GFSGL_sfc_wetblb_090.txt.gz
Wetbulb
55.79 56.22 56.30 56.92 56.67 57.62 57.01 55.48 54.93 53.96 53.90 54.04 54.76 54.86 54.89 55.25 55.93 55.21 56.05 56.38 55.33 55.67 55.98 55.42 54.73 55.15 54.25 54.61 54.87 54.67 54.19 53.84 51.44 53.18 53.73 53.82 52.58 53.93 54.23 54.42 54.86 54.16 53.59
56.39 56.50 56.14 56.31 56.28 57.15 57.22 57.34 57.01 55.81 54.58 54.29 54.17 54.18 54.50 54.97 55.59 55.35 54.99 55.22 54.64 54.54 55.13 54.99 54.75 55.29 54.92 55.02 54.88 54.23 54.25 54.68 53.31 51.61 54.09 54.05 52.56 54.82 54.95 54.99 53.99 54.31 54.51
56.37 56.12 56.04 55.79 55.44 55.91 57.38 57.66 57.72 57.45 57.23 55.80 54.75 54.23 53.77 54.25 55.01 55.82 55.87 55.35 55.07 55.05 54.99 54.77 54.82 55.02 54.40 54.79 55.07 54.61 54.73 54.45 54.16 52.92 52.76 54.69 54.47 52.64 53.03 53.60 54.70 55.08 54.38
56.04 55.76 55.76 55.82 55.72 55.62 56.24 57.45 57.51 57.76 57.32 57.17 56.96 56.22 55.46 54.86 54.13 54.36 54.58 54.89 54.91 54.99 55.13 55.34 55.41 55.12 54.60 54.65 53.89 54.01 53.95 53.86 53.58 52.64 52.61 52.75 53.36 53.60 52.79 52.49 52.29 51.98 53.23
57.14 56.50 56.06 55.87 55.96 56.24 55.98 56.50 57.31 57.07 56.55 56.68 56.65 56.43 56.53 55.98 55.29 54.22 54.43 54.46 53.91 53.97 54.48 54.33 54.66 53.89 50.14 52.24 54.47 54.03 53.17 52.38 52.31 51.77 51.50 51.88 51.90 52.17 50.39 52.45 51.12 52.56 53.29
47.64 47.72 48.13 49.55 54.48 55.43 56.78 56.99 56.91 56.77 57.07 57.10 56.58 56.00 55.55 55.76 48.79 45.74 51.02 54.14 53.69 53.47 53.37 53.68 54.08 48.74 48.78 44.25 44.89 46.16 51.55 52.49 51.57 51.45 51.23 50.71 51.52 52.23 52.88 52.34 51.83 50.80 49.10
41.41 42.07 43.11 44.92 45.95 46.26 47.89 47.82 48.81 51.39 56.16 57.00 57.01 56.87 56.42 56.35 47.04 45.94 43.85 53.81 54.75 53.70 53.13 53.13 53.02 53.37 48.43 52.30 45.85 42.23 42.71 42.08 44.03 52.80 51.23 51.02 50.99 52.01 52.36 51.39 51.23 50.74 50.28
37.00 36.69 37.18 39.27 40.70 41.55 42.05 42.37 43.43 44.94 46.67 48.97 50.35 54.50 56.46 56.94 41.79 42.76 43.31 51.17 53.87 54.80 54.44 54.09 53.76 53.86 53.85 52.38 51.34 50.51 47.79 48.81 47.89 47.18 49.99 51.84 52.88 53.37 52.30 51.45 51.13 50.15 37.64
33.97 33.61 33.60 34.87 35.11 36.07 37.16 37.88 39.46 40.91 42.89 44.77 43.68 39.41 38.03 39.60 35.07 35.86 38.14 50.53 52.61 53.23 54.31 54.48 54.50 53.72 50.13 45.86 50.43 49.76 49.03 47.28 36.33 38.06 36.03 34.15 33.86 33.95 35.34 44.15 40.82 36.42 32.96
32.32 31.58 32.00 32.50 32.59 32.58 32.99 33.39 36.35 39.00 40.17 40.25 36.26 34.44 32.78 33.82 33.46 35.40 36.26 41.56 47.75 51.50 52.39 52.56 42.50 37.67 34.73 39.12 48.05 49.98 48.52 47.64 33.02 29.82 29.10 29.35 29.72 29.82 29.66 29.60 33.19 41.33 33.10
31.45 30.94 31.06 31.49 31.73 32.00 31.82 32.72 33.76 35.60 35.65 34.54 32.64 31.40 30.46 30.76 31.43 33.47 34.65 37.36 37.26 33.91 32.67 31.85 32.18 33.19 34.39 35.02 34.81 37.07 36.31 31.88 28.98 28.29 27.20 26.62 26.37 26.24 26.17 26.50 26.60 28.06 25.28
31.02 29.20 29.41 30.10 30.76 30.93 30.53 30.74 31.66 31.97 31.70 30.40 30.15 29.38 29.30 29.19 30.81 31.82 31.76 31.97 32.78 30.57 29.18 29.54 30.52 31.48 31.50 32.13 30.72 30.73 30.85 28.74 26.88 25.27 24.45 23.66 23.61 23.87 24.11 24.94 25.20 25.15 25.36
28.93 27.78 27.57 27.12 27.29 28.85 28.53 28.35 29.07 29.09 28.44 27.86 26.88 25.98 26.37 27.85 28.75 29.66 30.31 29.94 28.93 27.54 27.66 27.47 27.49 27.32 27.19 26.42 27.48 27.75 27.41 26.54 24.85 22.33 21.01 20.72 21.85 23.13 24.56 24.42 24.84 22.75 21.79
27.36 26.74 27.09 25.76 24.77 25.02 26.09 26.84 27.02 27.50 26.70 26.72 25.76 25.44 26.13 26.95 26.89 26.52 26.52 25.98 27.04 25.42 25.08 24.65 24.76 24.59 23.36 23.06 23.01 23.55 23.06 22.45 21.11 19.87 19.22 20.16 21.01 20.59 20.36 22.05 21.60 21.37 18.15
26.73 26.28 25.46 25.33 25.35 24.13 24.50 24.72 25.47 26.95 27.61 25.80 25.53 25.97 25.07 24.51 26.34 27.42 26.53 24.33 22.95 23.24 22.40 21.22 20.26 20.35 19.58 19.64 19.69 19.82 20.94 20.72 19.67 19.99 19.06 18.21 17.68 18.15 17.85 19.77 19.13 17.95 15.73
24.76 23.96 22.86 22.67 22.29 22.20 22.03 21.94 25.60 25.79 26.77 27.51 27.42 25.78 26.23 27.18 27.32 27.43 26.91 25.85 24.89 24.01 19.57 17.62 16.96 17.27 17.17 17.13 16.81 16.86 17.37 17.18 18.11 18.26 17.76 17.05 15.87 15.64 15.38 16.30 16.51 15.57 13.79
20.72 21.10 20.43 19.45 19.31 19.11 17.34 16.46 14.30 18.66 22.80 24.12 25.01 25.71 26.43 26.02 25.97 25.55 24.44 23.82 22.70 20.35 15.81 15.17 14.59 14.92 15.26 15.30 14.82 14.96 13.99 15.37 16.22 15.74 15.47 15.27 15.03 14.26 13.48 13.02 13.56 13.58 12.31
16.32 16.64 16.26 15.59 14.85 14.07 12.98 12.30 12.22 11.38 11.02 11.65 17.81 20.39 23.34 23.32 22.90 22.48 21.04 18.39 13.87 14.72 13.67 13.02 12.79 13.25 13.63 13.30 13.42 12.76 12.46 12.63 12.39 12.50 11.76 12.21 12.74 12.18 11.11 10.85 11.07 10.95 10.67
16.71 14.52 11.03 12.01 12.27 11.22 11.48 11.39 10.84 9.95 9.32 9.16 10.11 11.91 12.73 18.10 17.81 17.59 16.41 10.58 9.88 10.24 11.07 11.11 11.60 12.23 12.27 12.46 12.01 11.40 10.50 9.66 9.42 9.43 9.69 9.71 10.05 10.24 9.04 9.47 9.22 8.43 8.63
12.71 14.08 12.29 11.59 10.87 11.11 11.07 10.32 9.59 8.51 7.28 6.11 5.61 6.62 8.16 8.57 5.91 5.29 5.80 6.00 6.06 6.63 7.43 7.56 8.44 8.93 8.86 9.39 8.52 8.97 8.18 7.83 7.98 7.81 6.38 6.20 7.61 8.04 6.94 6.78 7.06 6.62 7.09
11.45 13.37 11.93 13.41 12.08 11.37 10.80 9.53 8.43 7.16 5.94 4.75 3.09 4.19 5.10 5.01 2.93 2.37 2.70 1.93 2.49 2.97 2.12 4.43 3.99 4.82 6.25 4.96 4.74 3.01 1.53 0.97 2.78 3.14 3.80 3.11 0.41 2.75 4.37 4.94 5.30 6.26 6.12
11.69 12.80 12.63 11.35 10.97 9.17 8.75 8.44 6.61 5.64 5.47 4.27 3.61 4.01 2.53 2.61 2.73 2.16 1.15 0.74 0.59 1.93 2.92 2.74 3.02 2.50 2.47 1.91 1.48 0.24 -1.54 -2.98 -2.49 -2.14 0.16 0.63 1.36 1.25 1.92 1.59 1.21 1.56 3.36
10.28 9.11 9.80 8.93 8.54 5.14 5.06 6.13 4.41 2.59 1.36 0.82 2.07 1.87 1.39 -0.70 -0.36 -0.21 -1.44 -2.16 -1.22 -1.90 -0.16 0.63 0.16 -0.28 -1.24 -2.87 -2.39 -1.51 -2.34 -3.61 -4.24 -7.02 -5.74 -3.98 -0.83 -0.93 -2.10 -0.31 -0.03 0.34 -0.30
7.80 6.16 8.07 4.51 3.64 2.57 -1.42 -2.26 -1.00 0.71 1.13 -2.66 -6.40 -3.26 -2.71 -3.87 -5.64 -4.03 -3.66 -7.28 -7.51 -9.11 -9.65 -8.38 -3.78 -2.94 -2.42 -7.23 -6.68 -2.91 -3.14 -7.33 -5.82 -7.24 -10.42 -6.48 -3.01 -2.89 -2.67 -1.57 -1.19 -4.01 -2.85
4.23 1.59 1.57 1.18 -0.23 -4.96 -5.67 -4.07 -5.85 -8.02 -7.83 -9.27 -8.92 -8.55 -4.66 -6.61 -6.05 -11.62 -13.43 -13.25 -11.08 -11.08 -7.09 -9.26 -8.18 -7.15 -8.75 -10.21 -7.34 -5.42 -8.22 -9.45 -10.81 -11.45 -8.32 -8.30 -8.28 -8.79 -5.80 -4.12 -5.43 -1.92 -3.05
5.43 3.38 1.34 0.32 -2.84 -5.30 -8.03 -10.90 -14.34 -14.16 -14.70 -14.88 -16.33 -16.88 -14.35 -9.85 -10.40 -15.80 -11.81 -9.64 -8.90 -6.18 -5.46 -7.33 -6.14 -7.33 -7.45 -3.91 -3.76 -7.63 -10.91 -10.18 -11.28 -13.82 -11.47 -6.46 -7.24 -7.07 -6.90 -6.15 -5.64 -3.40 -1.72

GFSGL_sfc_wetblb_093.txt.gz
Wetbulb
58.01 58.12 59.13 58.42 58.26 58.51 58.15 57.98 57.26 57.95 58.86 59.55 59.37 57.58 57.03 57.78 58.02 57.30 58.04 57.01 55.72 55.57 56.92 55.52 54.89 55.14 54.76 54.54 54.93 55.05 54.48 54.81 51.78 53.65 55.72 59.52 57.82 58.04 58.36 57.60 56.65 56.05 55.96
58.08 57.40 57.79 58.77 57.92 57.98 59.06 58.42 58.97 59.12 59.38 59.30 59.30 58.81 58.55 59.04 59.30 58.93 58.00 57.31 56.35 55.78 56.13 57.83 56.45 56.00 55.27 55.65 54.96 54.51 56.50 57.43 53.49 51.49 54.38 57.94 58.18 58.99 55.35 55.23 54.73 55.16 55.77
57.03 57.16 57.37 57.35 57.22 57.35 59.42 58.83 58.48 58.66 58.50 58.29 58.62 57.85 57.92 58.23 58.18 58.10 57.38 57.04 57.12 57.40 57.37 57.67 58.44 58.85 58.83 58.67 58.56 57.76 56.52 55.68 55.78 54.59 55.68 58.63 59.10 59.28 58.41 56.22 56.04 56.09 57.23
56.98 57.00 56.41 56.49 56.85 58.45 59.51 59.53 59.13 59.10 58.65 57.17 56.80 57.44 58.17 57.72 57.98 57.82 57.31 56.81 56.91 57.25 58.89 59.38 59.15 59.10 59.23 59.71 59.27 58.97 58.52 58.36 57.40 55.28 54.95 56.58 57.58 59.26 59.22 57.57 57.40 59.07 58.31
56.26 55.94 56.62 57.58 58.13 58.85 59.11 59.19 59.21 59.23 59.19 59.32 58.67 57.95 57.47 57.36 57.15 57.22 57.49 57.81 57.71 57.26 57.53 57.41 57.85 57.05 51.99 55.01 58.55 59.05 58.51 56.70 56.29 55.31 54.18 55.90 56.26 56.49 55.83 57.08 55.98 56.82 58.30
44.64 45.37 47.09 48.54 48.96 49.38 50.68 55.09 57.15 57.33 57.56 57.86 58.22 58.68 58.77 58.17 48.44 45.46 52.24 57.42 57.23 57.13 57.47 57.89 58.17 50.98 51.70 45.77 46.07 47.14 54.77 57.21 55.15 54.24 52.99 52.07 52.47 53.42 54.48 54.38 54.52 53.08 50.89
37.98 39.50 40.87 42.84 43.26 43.85 45.57 46.19 46.17 47.02 49.40 50.90 52.76 54.65 56.30 49.17 36.30 38.88 41.76 54.52 55.08 54.88 54.98 55.33 55.34 55.72 51.05 56.89 47.86 43.26 44.20 43.36 44.86 54.50 52.65 52.24 52.16 53.48 53.66 52.88 52.46 52.08 51.73
35.15 35.65 36.87 37.92 38.49 40.08 40.94 41.30 41.64 43.80 45.52 46.00 41.44 39.87 42.64 36.48 35.16 35.70 35.36 45.03 52.60 55.01 55.22 54.67 54.48 54.60 54.37 53.35 53.21 52.97 51.85 52.33 50.13 48.74 51.27 53.19 51.45 45.17 46.41 50.82 51.92 52.24 51.93
33.29 34.32 34.92 35.86 36.27 37.18 37.53 38.28 39.80 42.10 41.57 38.65 36.86 34.96 36.10 34.16 34.10 34.81 35.70 43.16 48.53 51.54 53.51 46.98 38.25 40.86 36.27 39.19 48.16 51.00 50.31 49.42 35.67 38.92 34.24 32.89 32.55 32.21 33.13 38.26 41.51 39.24 44.70
32.39 33.31 34.50 34.77 34.41 34.15 35.09 35.78 38.04 38.68 37.27 35.52 33.04 32.54 31.99 32.55 33.25 33.95 35.54 40.83 42.23 38.07 34.81 33.15 32.55 34.58 34.18 35.02 41.02 42.75 44.99 44.00 32.34 30.88 29.49 29.15 29.51 29.09 28.86 29.18 31.44 34.11 35.06
32.24 32.23 32.53 33.23 33.11 33.30 33.70 34.23 35.09 35.40 34.74 32.96 31.24 31.16 30.90 31.32 32.47 32.29 32.62 34.45 34.50 31.52 30.25 29.38 29.75 31.32 31.76 32.30 32.83 33.89 34.08 31.91 30.14 28.34 27.55 26.23 25.66 25.45 24.83 24.75 25.12 26.66 25.90
31.10 29.27 29.09 30.00 30.83 31.19 31.85 31.97 32.08 32.20 31.28 30.57 30.62 30.66 30.97 31.17 30.54 31.04 30.14 30.22 30.11 28.79 27.52 28.08 28.65 28.88 28.82 28.58 28.60 28.76 28.86 27.61 26.28 24.02 24.18 22.35 23.28 23.33 23.02 23.82 23.68 23.63 24.04
29.40 27.89 27.70 28.18 28.63 29.20 29.24 29.86 29.89 30.02 29.55 28.60 28.38 27.98 28.01 29.52 30.59 28.68 28.87 28.32 28.04 28.26 28.04 26.98 26.68 26.86 26.83 26.62 26.17 25.79 25.37 24.05 23.81 21.12 21.05 21.56 24.37 25.38 27.41 27.06 25.76 24.88 23.59
27.95 27.79 27.72 26.88 27.14 27.74 28.43 28.81 28.32 28.32 27.99 27.82 27.46 27.15 27.57 28.24 28.45 29.77 29.41 29.61 27.78 27.94 27.20 27.01 26.35 25.77 24.96 25.71 27.26 27.35 27.27 26.87 25.51 24.68 24.20 24.67 25.64 23.62 24.24 25.40 24.13 23.93 21.51
26.95 26.44 26.26 26.16 25.75 25.18 26.02 26.42 26.74 27.87 27.95 26.49 26.82 27.28 26.99 26.50 27.17 27.62 27.89 27.90 27.43 25.54 26.57 26.78 26.06 25.52 24.60 24.73 24.05 24.34 25.52 25.75 24.54 24.68 23.95 23.69 23.02 23.04 22.08 23.40 22.34 21.54 18.97
26.04 25.41 25.24 25.31 24.58 24.63 23.95 22.54 24.97 25.46 26.44 26.92 27.13 27.05 27.45 27.10 26.69 26.33 25.58 24.97 24.01 24.35 24.68 23.48 22.59 22.52 21.88 22.09 22.03 21.77 22.25 21.58 22.38 23.02 22.49 21.53 20.46 20.08 20.36 20.35 20.74 19.47 17.65
23.13 23.49 23.41 22.83 22.61 22.32 21.45 21.27 20.22 20.45 21.53 22.30 24.11 24.93 24.98 25.18 24.62 24.07 22.97 22.48 22.29 23.21 21.74 20.77 20.18 20.26 20.15 20.14 20.22 19.71 18.51 18.95 19.56 19.87 19.80 19.49 19.18 18.36 18.77 18.37 18.22 17.62 16.27
20.11 18.06 21.05 20.50 20.45 20.00 19.55 19.04 19.13 18.95 18.50 17.45 18.47 20.03 21.88 21.86 21.48 21.02 20.95 21.73 20.56 20.36 19.37 18.90 18.29 18.73 18.60 18.00 17.75 17.44 17.34 17.62 17.51 17.47 17.15 17.19 17.49 17.26 16.27 15.63 15.97 15.82 15.38
21.28 19.60 19.33 19.18 18.63 17.92 18.48 18.13 17.73 16.97 16.17 16.02 17.46 16.77 15.16 17.62 17.60 17.59 17.79 17.71 17.00 16.49 16.71 16.57 16.82 16.96 17.11 16.88 16.32 15.76 15.30 14.84 14.95 15.12 15.41 14.94 15.41 15.66 14.01 14.32 13.63 11.61 13.49
19.25 17.09 18.03 19.38 18.69 18.42 17.80 16.96 15.85 15.00 13.95 13.05 12.81 12.77 15.18 15.47 13.34 12.31 12.73 13.66 13.46 13.63 14.30 13.98 14.10 14.15 14.35 14.51 14.18 14.30 14.01 13.67 13.50 13.17 12.87 13.35 13.92 13.66 12.17 12.02 12.76 12.76 12.08
19.59 18.65 16.23 18.45 17.54 16.99 16.12 15.05 14.24 13.42 12.05 11.22 10.25 9.22 7.48 11.80 10.47 10.47 10.15 10.44 10.79 11.14 11.40 11.89 11.50 11.91 12.12 11.70 11.62 11.34 10.24 10.99 10.76 11.07 11.76 11.37 11.10 10.96 11.82 11.99 11.97 11.45 11.33
18.27 17.66 16.94 15.93 15.65 15.11 14.28 13.59 12.81 11.98 11.16 10.28 10.12 8.46 7.20 10.35 9.72 9.02 8.58 8.14 8.79 9.88 10.23 10.22 9.26 8.82 8.14 8.56 8.59 9.24 7.61 6.98 7.66 8.85 9.46 9.36 10.51 10.56 10.76 10.43 10.12 10.15 10.31
16.20 15.67 14.72 14.16 13.64 11.17 12.50 11.83 10.97 10.38 9.37 8.95 8.87 8.33 8.30 7.91 7.83 7.72 7.14 7.30 7.62 7.61 8.09 8.47 7.60 6.56 6.55 6.07 7.14 7.32 6.03 4.95 5.29 5.65 7.62 9.00 9.65 10.43 10.62 10.40 9.41 9.58 8.88
14.10 13.82 12.44 11.36 11.47 10.72 10.70 10.17 9.41 7.23 8.12 7.74 7.75 7.05 6.53 6.13 6.06 5.19 5.58 6.53 6.72 6.60 6.13 5.77 5.30 4.70 5.07 5.69 6.95 7.06 5.99 4.78 5.53 5.12 3.96 6.43 8.29 8.85 9.66 9.09 8.95 6.16 7.86
12.29 11.25 10.42 9.82 9.33 8.85 8.82 8.12 7.57 7.56 7.16 7.14 6.67 6.58 6.06 6.22 5.59 5.23 5.10 5.21 4.50 5.53 4.53 4.56 4.98 4.43 3.05 1.77 2.23 2.61 0.83 -0.39 1.09 -0.79 5.21 4.36 3.82 3.08 5.30 7.77 6.20 8.28 5.97
10.72 10.08 9.39 9.06 8.07 7.80 7.36 6.92 6.13 6.23 5.58 5.43 5.53 5.28 5.28 4.69 4.25 4.38 4.30 3.74 3.80 3.69 3.42 4.14 3.82 2.16 1.60 3.24 3.21 0.80 -0.76 -0.62 0.65 -2.55 2.25 5.45 4.96 6.28 6.64 5.29 0.62 7.39 5.98

GFSGL_sfc_wetblb_096.txt.gz
Wetbulb
59.44 59.32 59.19 58.87 59.45 60.38 61.24 60.73 60.53 59.81 59.89 59.62 58.83 57.12 55.51 55.08 54.58 54.17 54.04 54.06 54.82 57.25 57.63 56.36 57.28 58.90 56.91 58.64 58.52 58.92 57.06 55.04 52.51 54.36 58.11 57.79 59.58 60.58 60.52 61.07 59.81 58.15 55.58
58.51 58.61 58.78 58.89 59.02 59.23 59.54 60.63 60.65 59.12 59.53 59.80 59.92 57.69 57.21 55.68 55.16 54.20 54.08 54.95 55.45 56.72 57.59 55.78 55.60 56.65 57.32 56.00 56.12 57.08 55.59 55.28 53.64 52.19 54.22 56.84 60.08 60.62 60.48 59.65 61.13 61.29 62.18
58.93 59.05 58.98 58.46 58.72 58.41 59.03 61.62 60.83 61.03 60.50 60.61 60.66 59.39 58.58 58.24 57.10 56.85 57.40 57.13 57.98 58.22 56.87 54.90 55.63 56.09 56.25 56.81 55.76 54.81 55.66 56.37 57.34 56.84 57.69 59.15 59.58 61.02 60.55 61.54 62.16 61.95 61.53
57.79 58.20 57.63 57.65 57.86 58.38 59.87 60.83 59.51 59.68 60.30 60.54 60.53 60.89 60.48 60.14 59.97 60.33 60.08 60.22 59.97 58.29 57.92 57.17 56.64 56.52 57.55 59.01 59.73 60.46 60.40 60.47 60.01 57.78 58.57 58.71 59.63 60.95 61.17 59.87 59.75 61.73 61.26
53.51 53.71 55.97 57.52 58.25 58.26 59.99 60.09 59.88 59.66 59.27 59.43 58.99 58.91 59.38 59.59 58.57 58.91 58.80 58.53 57.85 57.60 58.10 58.50 58.75 57.16 52.35 54.73 59.43 60.40 60.65 59.88 59.44 58.27 56.90 58.08 58.64 58.80 58.36 59.91 59.21 60.55 61.11
42.17 42.63 45.15 46.48 48.30 48.98 49.89 50.43 54.25 54.68 56.72 58.90 58.92 59.08 58.68 46.32 36.51 37.66 46.21 58.98 58.51 58.04 58.25 59.53 59.99 52.81 53.18 45.51 45.09 46.27 53.35 57.68 56.61 56.01 56.06 54.88 57.30 58.38 59.30 59.25 58.70 55.07 52.40
39.42 38.81 39.55 41.14 42.35 43.59 44.83 45.32 46.16 47.66 48.61 45.96 45.18 42.11 38.22 37.23 35.50 36.16 35.91 49.61 56.42 58.14 58.68 58.40 57.74 57.47 51.78 58.46 49.07 43.90 44.46 42.92 42.63 54.43 55.08 55.12 54.73 55.24 55.24 54.55 54.92 54.88 54.26
37.56 36.71 38.03 38.36 38.48 40.40 40.82 41.92 44.22 43.99 41.52 39.58 39.05 39.95 37.21 34.97 34.35 34.88 34.60 45.07 48.53 51.64 49.13 42.15 43.92 46.18 42.17 40.18 49.67 54.17 52.72 51.96 50.90 49.89 50.94 46.24 36.55 35.19 37.81 42.28 42.80 44.20 46.42
34.02 34.74 37.39 36.49 36.59 37.91 38.20 39.93 41.15 40.06 37.16 35.67 35.23 35.13 34.68 33.21 33.54 34.27 38.76 45.06 41.81 37.43 34.84 33.78 35.29 34.99 33.96 35.41 41.41 46.09 48.33 43.38 34.53 33.95 33.29 32.16 31.02 30.58 31.34 38.83 38.39 36.23 40.83
32.65 33.47 35.84 35.55 36.01 35.84 37.19 39.23 38.97 37.35 35.39 34.64 33.42 33.57 33.02 33.20 32.19 33.24 39.18 41.75 36.37 33.97 31.38 31.05 30.98 31.77 31.88 32.66 37.07 39.07 39.28 33.29 32.52 30.71 28.53 27.61 27.12 27.06 27.15 27.53 28.39 32.93 35.36
32.64 34.16 33.37 33.26 33.85 35.32 35.90 36.86 37.57 36.82 36.20 35.14 33.87 33.75 33.36 32.23 32.05 31.84 33.39 36.78 34.06 31.19 30.16 29.41 29.97 29.83 30.25 30.46 30.64 30.90 30.15 29.26 27.10 26.62 26.00 25.67 25.36 25.12 25.46 26.25 26.65 26.83 26.94
31.67 30.88 31.18 31.53 32.44 33.58 33.77 34.88 35.82 35.36 34.58 34.48 33.92 33.02 32.92 33.15 30.34 30.30 30.30 31.08 32.19 30.85 29.45 29.86 30.04 29.21 29.24 28.89 28.91 28.30 27.85 28.06 27.54 26.29 25.61 24.44 25.75 25.76 26.83 26.73 27.56 28.60 29.19
32.17 31.11 31.21 30.73 30.74 31.09 31.37 32.37 32.26 32.60 32.42 31.18 30.95 31.25 30.60 31.67 32.21 29.87 28.81 28.65 28.71 29.83 29.65 28.63 28.20 29.09 29.40 29.22 28.38 29.49 29.98 30.30 28.83 27.63 26.32 26.36 27.68 29.41 31.09 30.94 30.02 30.04 28.07
29.95 30.26 30.24 28.63 28.81 29.76 29.87 29.54 29.87 30.32 29.81 29.85 29.85 29.41 29.52 29.29 30.02 31.22 31.03 31.34 30.05 30.46 29.92 30.88 29.55 29.13 28.54 28.62 30.17 30.37 30.43 30.31 29.57 28.07 27.81 28.61 29.26 28.58 27.87 28.64 28.00 28.56 27.99
29.11 28.64 29.17 28.97 26.81 26.02 26.15 27.07 26.95 27.93 28.12 28.18 28.23 28.61 28.25 26.76 27.00 27.42 28.63 29.19 29.67 29.54 31.09 31.93 30.66 29.83 28.67 27.99 27.82 27.44 27.70 28.01 27.18 27.63 27.15 27.31 27.16 27.59 26.70 27.89 27.15 26.81 24.72
29.36 29.27 28.91 29.13 28.92 28.03 26.04 24.02 24.84 25.18 26.26 26.52 26.76 27.80 27.43 26.13 25.83 25.87 25.93 26.15 27.47 28.62 29.48 27.84 26.46 26.45 25.91 25.94 25.88 25.52 25.51 24.67 25.53 26.06 25.97 25.59 24.87 24.50 25.06 25.29 25.48 24.47 23.03
27.68 28.59 28.49 28.56 28.72 27.84 27.72 27.30 24.04 22.91 22.40 23.01 24.11 24.67 24.80 24.26 24.46 24.73 25.26 25.31 26.63 28.08 26.94 25.64 24.84 25.01 24.85 24.82 24.74 24.29 23.31 23.12 23.75 24.08 23.91 23.67 23.63 23.13 23.40 22.97 23.28 22.85 21.73
26.14 25.29 27.74 27.43 27.31 26.71 26.31 25.72 25.94 25.36 23.62 22.38 20.45 21.10 21.66 22.02 22.69 23.47 25.04 26.85 25.92 25.13 24.48 23.27 23.01 23.53 23.19 22.60 22.48 22.15 22.33 22.60 22.15 22.16 22.04 21.90 22.41 22.07 21.24 20.64 20.76 20.36 20.72
26.99 26.37 26.44 25.99 25.53 25.64 26.02 25.72 25.45 24.70 23.80 23.38 23.84 22.84 21.16 20.44 20.60 21.17 22.46 23.71 22.80 21.86 21.70 21.33 21.97 21.79 21.49 21.51 21.22 20.90 20.10 19.30 19.70 20.46 20.54 19.97 20.43 20.36 19.03 19.61 19.14 15.69 17.93
24.66 22.56 24.63 25.95 25.44 25.03 24.84 24.33 23.69 22.96 22.23 21.00 18.87 17.93 22.13 22.31 20.66 19.55 19.90 20.12 19.76 19.63 20.06 19.47 19.49 19.49 19.50 19.64 19.51 19.62 19.83 19.18 18.84 18.93 18.26 18.67 19.08 19.20 18.29 17.63 17.61 17.90 17.36
25.45 24.49 22.38 24.82 24.09 23.73 23.26 22.47 21.78 21.18 19.78 18.38 15.26 13.95 13.67 18.45 17.55 17.11 16.82 17.02 17.41 17.48 17.80 17.92 17.80 17.48 17.94 17.52 17.76 17.48 16.23 16.97 16.05 16.78 17.05 17.59 16.83 17.37 17.69 17.72 17.61 17.17 16.07
24.52 23.78 23.14 22.44 22.35 21.62 20.94 20.57 19.95 18.84 18.16 17.20 16.95 14.43 14.04 17.32 16.59 15.91 15.40 15.14 15.58 16.18 16.71 16.44 15.60 14.81 13.92 14.42 14.53 15.38 13.88 13.25 13.68 14.69 15.55 14.99 16.36 17.08 17.13 16.61 16.23 16.88 16.18
22.51 21.86 21.27 20.56 19.80 18.20 19.16 18.52 17.99 17.65 16.63 16.25 15.91 15.08 15.27 15.05 14.61 14.57 13.76 13.99 14.00 13.69 13.68 14.51 13.61 12.61 13.27 13.17 13.75 13.11 11.91 11.30 11.75 10.58 12.00 13.90 15.05 15.89 16.25 16.21 14.99 14.74 13.60
20.50 20.08 18.55 18.00 18.17 18.38 17.95 17.03 15.10 12.63 14.83 15.21 15.22 14.29 13.53 13.23 13.09 11.75 11.68 12.19 12.82 12.58 12.23 11.62 10.67 8.20 9.37 11.31 12.76 12.57 10.71 9.01 10.24 11.13 8.88 10.90 13.01 13.56 14.43 13.87 14.31 11.73 12.75
18.95 18.04 17.41 17.25 16.66 16.26 16.17 15.37 15.06 14.75 14.58 14.48 14.19 13.77 13.58 13.20 12.30 12.51 11.87 11.24 9.79 11.45 8.94 9.84 9.49 9.31 8.11 5.75 6.21 6.52 4.28 3.69 5.00 3.20 10.16 10.50 10.12 8.97 10.24 11.81 10.80 12.79 11.44
16.57 16.01 16.07 16.17 15.23 15.16 14.92 14.31 13.82 13.93 13.62 13.52 13.67 12.98 12.33 11.94 11.47 11.81 11.16 9.42 9.52 9.57 6.73 10.12 8.68 6.15 6.24 7.61 6.86 5.06 2.57 2.34 3.46 2.04 4.74 10.20 9.77 10.85 11.30 10.77 9.38 11.00 11.60

GFSGL_sfc_wetblb_099.txt.gz
Wetbulb
60.43 60.34 61.42 63.14 62.53 62.44 62.14 62.50 61.00 61.88 60.91 59.37 58.08 57.63 56.06 55.33 55.37 54.73 55.29 55.05 55.35 55.82 56.50 57.46 56.81 59.64 59.35 59.56 59.73 59.29 58.85 58.09 54.85 57.71 59.23 57.57 56.62 57.25 58.71 60.33 61.31 61.70 61.58
59.64 59.97 59.80 61.12 61.43 60.86 60.89 61.98 62.04 61.64 61.76 61.16 59.56 57.87 56.34 55.54 55.25 54.89 54.54 54.21 53.40 53.31 54.62 54.83 55.57 55.44 56.70 59.77 59.08 58.28 58.31 57.43 56.54 56.11 57.29 55.71 57.27 57.65 58.46 58.18 58.94 61.08 61.82
59.26 59.06 59.24 59.08 59.47 59.85 60.38 61.35 61.26 60.50 60.34 61.07 60.58 58.50 57.42 56.34 56.16 55.71 55.04 55.23 55.78 55.78 55.47 57.16 58.05 57.33 57.17 56.35 58.53 58.28 58.35 57.70 56.98 55.17 54.76 57.78 58.91 60.42 60.61 61.26 61.28 61.76 61.83
58.27 58.49 59.01 58.65 59.31 59.27 60.48 61.06 61.31 60.80 60.72 60.61 61.10 60.29 59.34 58.67 57.35 56.50 55.61 55.99 57.31 58.25 58.99 58.95 60.10 57.61 54.91 55.84 55.34 55.78 57.01 56.85 56.62 55.25 56.29 57.61 58.99 60.72 60.73 59.16 59.33 61.11 60.79
47.81 49.95 53.98 58.20 58.71 59.14 59.07 60.49 60.72 60.78 60.69 60.97 60.85 60.96 60.49 59.61 50.41 50.64 56.98 57.22 58.27 57.39 59.38 59.55 58.14 54.99 49.82 51.94 55.38 56.03 57.61 57.11 56.85 55.66 55.85 57.69 58.48 58.82 58.22 59.97 58.86 59.84 60.76
40.83 42.01 45.53 47.29 47.09 48.18 50.19 51.59 57.38 57.05 55.52 55.14 51.53 56.19 45.00 40.86 36.05 36.97 40.76 57.46 58.61 58.28 57.77 58.30 58.40 51.29 51.89 46.13 45.72 46.22 51.60 57.50 56.84 56.72 56.94 56.51 57.84 58.92 59.42 58.92 58.03 56.46 54.10
38.90 39.11 40.19 42.51 43.36 43.67 45.53 45.85 44.96 44.05 43.99 44.07 41.36 39.45 36.92 36.57 34.85 35.95 35.87 50.36 57.47 55.95 50.10 51.36 53.66 46.49 41.04 43.97 45.26 42.89 43.71 41.92 38.49 51.03 52.66 53.66 53.47 42.61 43.04 49.93 52.69 53.04 52.21
35.92 36.64 38.83 39.29 39.60 41.11 41.69 41.18 39.63 39.11 37.81 38.31 37.91 36.81 35.12 33.88 34.27 35.31 35.65 46.65 42.17 37.59 36.46 37.79 38.82 37.25 35.12 36.49 41.77 46.68 46.26 35.40 36.76 38.07 34.70 31.99 31.44 31.76 34.05 39.40 40.20 41.01 43.45
32.47 33.64 35.43 37.18 37.10 39.82 38.23 38.25 37.44 35.77 34.76 34.31 35.35 35.45 33.51 32.64 33.87 35.19 42.64 40.21 35.68 33.39 32.50 32.77 33.69 32.81 32.85 35.13 42.42 44.80 37.10 31.75 32.30 31.74 30.92 30.10 30.31 30.10 30.22 37.15 33.24 34.46 36.73
32.46 33.26 33.48 35.02 35.40 35.80 37.18 37.26 36.44 34.78 34.06 33.87 32.67 32.93 33.54 31.95 32.60 34.13 39.84 38.06 33.96 31.40 30.97 30.93 30.83 30.92 31.50 32.95 35.80 38.42 30.40 29.08 28.48 27.93 27.51 27.61 28.28 28.06 28.95 28.36 28.43 31.52 32.09
32.89 33.38 33.64 33.36 34.25 35.94 36.06 36.68 36.91 36.55 35.97 34.81 33.63 33.47 32.26 32.02 31.58 32.32 34.73 35.95 33.21 31.13 30.26 29.73 30.61 30.55 30.52 30.62 31.12 31.71 29.69 29.99 28.84 28.47 28.21 28.12 28.40 27.94 28.26 29.36 29.14 28.91 28.31
33.24 32.34 33.13 33.41 33.72 35.25 34.86 34.62 35.62 35.90 34.86 34.79 33.57 32.65 33.39 31.65 30.54 30.59 31.05 31.91 33.05 31.65 30.38 30.80 30.92 30.19 30.37 30.55 30.61 29.35 29.45 30.23 30.47 29.39 28.75 28.24 28.62 29.13 29.65 30.02 30.16 29.65 29.31
31.67 30.15 30.24 31.96 31.07 31.34 32.15 32.94 33.03 33.47 32.82 31.90 31.61 30.75 30.47 32.41 32.73 30.56 29.95 29.62 29.92 29.90 30.27 29.59 29.85 30.26 30.40 30.01 29.93 30.16 30.97 32.45 31.72 30.38 28.96 28.69 29.77 30.71 32.02 31.94 32.59 31.75 29.61
30.82 31.05 29.50 28.16 27.90 28.45 29.46 28.55 28.11 30.18 29.78 29.93 30.00 29.16 28.90 28.41 29.17 31.78 32.03 32.16 31.27 31.67 31.13 31.74 30.31 29.70 29.57 29.92 30.65 30.85 30.99 30.82 30.32 29.61 29.06 29.78 31.00 30.34 29.28 30.82 29.67 30.04 29.18
31.09 30.35 29.69 28.75 26.87 24.92 24.34 26.30 26.41 27.09 27.37 27.93 26.76 27.15 26.40 25.15 26.79 28.28 29.61 30.36 31.33 31.01 31.66 31.66 30.84 30.32 28.99 29.12 28.54 28.73 29.29 29.58 28.66 29.00 28.59 28.20 28.34 28.89 27.72 28.75 28.02 28.10 25.96
30.31 29.97 30.27 30.30 30.06 28.68 26.04 22.95 25.03 25.67 26.16 26.59 26.87 27.34 26.49 26.60 27.02 27.84 28.45 28.98 29.50 30.32 29.80 28.19 27.32 27.68 26.81 26.95 26.81 26.39 26.56 25.95 26.91 27.21 27.00 26.57 25.71 25.49 26.02 26.50 26.78 25.60 24.30
28.31 29.44 29.48 29.17 29.04 28.70 28.77 27.92 24.17 23.10 23.39 24.34 24.54 25.04 25.21 25.22 25.82 27.01 27.44 27.42 28.28 29.33 27.04 25.85 25.80 25.99 25.67 25.52 25.71 25.24 24.18 24.52 25.58 25.24 24.93 24.71 25.07 24.59 24.36 23.89 24.61 24.28 23.07
28.09 27.38 27.89 27.95 27.96 27.46 27.41 27.15 27.36 26.14 24.27 23.17 22.53 22.93 23.04 23.86 24.56 25.95 27.76 28.21 26.69 26.30 25.24 24.22 24.09 24.32 24.16 23.42 23.04 22.60 22.46 23.17 23.53 23.40 23.06 22.95 23.41 23.13 22.50 21.26 20.34 20.20 21.52
26.80 27.13 27.65 27.08 26.88 27.05 27.24 26.87 26.44 25.77 24.75 24.28 24.91 24.56 24.29 23.22 23.43 23.89 24.91 24.83 23.55 22.99 22.94 22.50 23.02 22.89 22.77 22.57 22.67 22.56 21.69 21.21 21.41 21.64 21.47 21.27 21.56 21.63 20.12 20.41 21.31 18.61 19.18
26.29 25.18 26.45 27.22 26.83 26.44 26.26 25.70 25.05 24.55 23.47 21.50 19.58 19.61 23.52 23.92 22.33 21.59 22.26 22.63 22.14 21.68 21.93 21.06 21.13 21.11 20.79 21.31 21.32 20.81 21.22 19.99 20.08 20.34 20.27 19.86 20.32 20.61 19.57 19.28 18.87 18.39 18.66
26.49 26.11 25.10 25.83 25.04 25.12 24.86 24.20 23.98 23.42 22.33 19.94 17.17 17.07 17.61 21.17 19.97 19.55 19.13 19.28 19.53 19.63 19.60 19.68 19.08 18.40 18.91 18.83 19.53 18.48 17.44 18.04 17.41 18.24 17.95 18.03 18.97 18.24 18.91 19.14 19.10 18.56 18.13
25.88 25.40 24.73 23.98 23.81 23.03 23.39 23.23 22.80 21.70 21.18 20.24 19.57 17.67 18.09 20.22 19.19 18.39 17.74 17.29 17.75 18.35 18.70 18.00 17.43 16.65 15.93 16.18 16.11 16.45 15.52 14.52 14.66 14.28 15.86 16.86 17.60 18.60 17.98 18.51 17.40 17.31 17.48
24.60 23.86 23.67 22.90 22.69 21.72 22.31 21.69 21.35 20.84 19.99 19.43 19.13 18.17 18.19 17.68 16.95 17.13 16.32 16.49 16.35 15.75 14.99 15.41 14.22 14.07 14.59 15.57 16.11 15.00 12.59 11.60 12.52 13.10 11.28 13.68 15.66 15.75 16.07 16.51 16.04 15.00 14.63
22.94 22.45 21.23 20.44 20.16 21.01 20.66 20.03 18.10 15.68 18.27 18.44 18.30 17.51 16.58 16.37 16.05 15.20 14.55 14.45 15.17 14.60 13.85 13.86 13.21 10.50 9.93 11.53 12.76 13.12 9.19 7.83 9.22 10.15 9.66 11.99 13.20 13.91 13.47 14.46 14.96 14.60 14.21
21.31 20.92 20.16 19.75 19.47 19.36 19.45 18.63 18.33 17.74 17.54 17.34 16.93 16.70 16.48 16.06 15.19 15.12 14.17 13.24 11.85 13.06 12.53 12.53 11.37 10.84 9.63 9.01 8.63 7.81 4.47 4.08 4.92 4.28 8.00 10.34 12.20 10.85 12.03 11.86 12.81 12.31 13.48
18.96 18.90 19.10 19.10 18.18 18.12 17.91 17.63 16.96 16.71 16.27 16.17 16.34 16.03 15.39 14.68 13.91 13.85 12.84 11.69 10.59 11.02 10.21 11.86 10.99 8.80 8.77 11.68 6.90 5.85 3.95 3.80 3.54 2.51 4.14 8.11 10.70 11.35 11.83 10.87 11.50 11.83 11.80

GFSGL_sfc_wetblb_102.txt.gz
Wetbulb
60.97 61.08 60.98 62.31 61.74 62.12 61.33 61.50 61.10 60.70 59.71 58.94 57.75 56.84 56.71 56.86 56.99 57.09 57.08 56.82 56.69 56.77 56.73 56.86 57.13 57.04 55.87 56.73 56.60 56.70 55.85 55.08 52.85 53.34 54.56 55.75 55.77 55.50 57.23 56.90 58.35 59.26 58.71
60.72 59.94 59.88 60.46 60.89 61.13 61.08 61.25 61.24 60.31 59.33 58.60 58.44 56.88 56.43 56.45 56.78 56.23 55.71 56.13 55.89 55.81 56.13 55.73 55.79 57.01 55.72 56.18 56.69 56.19 55.21 55.63 54.10 52.07 53.66 54.10 53.40 54.10 55.07 55.60 56.62 58.11 58.12
59.18 59.19 58.87 58.71 59.25 59.21 60.51 60.92 60.67 60.41 59.61 59.02 58.17 57.16 56.13 55.79 55.15 55.45 55.35 54.32 54.68 55.05 54.78 54.82 54.69 54.19 53.63 53.74 54.70 55.14 55.05 55.88 53.99 52.89 52.67 53.77 54.09 53.89 54.49 55.24 55.61 56.15 57.55
58.11 58.39 57.95 57.93 58.27 58.81 60.28 60.45 60.04 60.19 59.79 59.59 59.06 57.75 57.07 56.26 55.77 55.69 55.47 55.10 54.29 54.30 54.45 54.55 54.78 54.78 53.92 53.62 54.28 53.96 54.49 54.22 53.93 52.67 52.57 53.16 54.03 55.13 55.84 54.76 54.43 57.11 57.55
43.00 44.91 47.95 53.96 58.03 58.62 58.94 59.97 59.78 59.39 59.30 59.50 59.22 58.47 56.82 53.58 44.90 50.24 55.40 55.13 55.13 54.85 55.50 55.76 55.51 54.25 50.46 52.69 54.65 54.43 53.92 52.63 53.12 53.02 52.73 53.55 54.22 54.63 54.66 56.70 56.34 56.27 56.65
38.76 39.81 41.99 44.82 46.46 48.85 50.41 52.86 52.13 50.99 49.81 48.00 48.13 44.74 41.80 38.42 36.15 37.07 41.89 54.74 55.28 55.75 56.49 56.84 57.28 49.40 48.76 43.18 42.82 42.67 48.13 53.12 53.20 53.18 54.13 54.36 54.72 54.90 52.20 52.27 52.54 51.84 50.89
36.63 37.47 38.35 40.29 41.20 42.65 42.77 42.65 42.65 43.23 42.19 40.23 39.16 37.80 36.03 35.80 35.77 36.85 36.74 50.02 45.82 43.96 43.29 45.24 46.18 41.26 38.72 42.46 42.80 40.70 36.94 36.44 35.36 47.27 49.90 48.19 42.92 36.12 37.86 43.74 47.74 46.67 46.16
35.36 36.15 37.59 37.62 38.59 38.34 38.18 37.23 36.87 37.47 37.39 36.27 35.46 35.25 34.57 34.46 35.38 37.13 39.02 40.40 36.57 35.33 35.18 36.43 36.14 35.23 34.42 36.13 40.96 38.24 34.04 32.74 33.80 34.36 32.84 31.33 31.24 31.61 33.25 37.58 39.04 39.81 40.61
32.76 34.36 35.27 36.72 35.99 35.69 35.34 34.98 35.46 34.66 34.13 33.92 34.08 33.28 32.72 32.95 35.14 37.44 36.99 35.62 33.40 32.23 32.64 33.07 33.16 32.76 33.40 36.18 42.62 35.42 31.42 30.16 32.04 32.23 31.51 31.19 31.29 31.30 31.33 36.19 31.64 33.46 34.08
32.37 32.26 33.86 35.24 35.72 34.49 32.99 33.53 34.61 33.12 32.28 32.83 31.59 31.78 32.02 31.63 33.95 36.64 36.30 34.29 32.08 31.08 30.97 31.11 31.60 31.92 32.20 34.07 34.67 32.22 28.16 28.21 28.29 28.22 28.45 29.00 29.63 29.94 30.04 29.49 29.56 30.57 28.76
32.55 33.17 32.60 32.82 33.09 32.64 32.66 33.55 32.84 32.64 32.64 32.23 31.13 30.88 30.64 31.11 31.70 33.50 34.14 32.77 31.40 29.78 29.18 29.21 30.44 31.70 31.16 31.13 30.90 29.98 28.60 29.10 28.69 29.02 29.15 29.30 29.34 29.29 29.17 29.02 28.19 26.80 27.48
31.34 32.04 31.33 31.40 31.57 32.34 32.67 32.96 33.06 32.61 32.14 31.68 30.86 30.85 30.89 30.24 30.71 31.48 31.72 32.07 31.60 29.75 28.88 29.76 30.05 31.13 31.16 31.53 30.86 31.30 31.09 30.91 30.64 29.45 28.41 27.55 27.70 28.77 27.57 24.52 23.51 23.95 23.84
29.85 28.22 27.26 27.06 29.14 29.85 28.44 28.40 31.03 31.60 31.00 30.15 29.29 28.01 27.68 29.03 31.08 30.90 30.76 30.51 30.41 28.88 29.28 30.06 30.63 30.61 30.52 29.35 30.41 30.14 30.43 30.33 29.19 27.51 26.73 27.10 28.01 28.94 28.77 30.06 27.61 24.55 21.53
30.05 28.17 26.91 25.24 24.79 25.69 26.88 26.48 26.04 27.21 27.12 27.02 26.85 25.49 25.42 26.24 27.86 30.32 30.55 31.25 31.71 30.83 30.02 29.85 29.18 28.72 28.59 28.03 28.10 29.07 28.87 28.58 28.08 27.57 27.35 28.04 28.67 27.42 23.16 23.04 21.92 23.08 21.27
30.86 30.30 28.61 27.02 24.59 23.16 24.18 24.40 24.96 25.89 27.25 24.84 24.27 24.94 24.15 24.46 27.22 29.36 29.87 29.37 29.93 29.84 29.40 28.90 27.63 27.07 26.63 26.37 25.39 25.34 25.71 26.71 26.00 26.71 25.63 23.41 21.17 21.28 20.20 21.63 22.11 21.68 18.17
29.35 29.15 29.39 29.81 28.37 24.51 22.58 21.96 26.06 25.85 26.79 26.95 27.15 25.45 26.24 27.88 28.69 29.34 29.90 30.08 30.05 29.55 26.78 25.13 24.74 24.69 23.84 23.65 23.46 21.69 21.45 21.34 22.23 22.48 20.56 21.18 20.08 20.62 21.85 23.01 22.45 19.85 17.24
27.87 28.38 28.63 28.51 28.09 27.80 28.51 24.09 19.94 22.92 25.11 25.21 25.77 26.09 26.73 27.26 28.29 28.68 28.36 28.35 28.87 27.55 23.91 23.48 22.47 21.84 21.25 20.95 20.88 20.34 19.67 19.75 20.71 20.82 20.23 20.45 21.42 21.19 19.61 19.14 19.49 19.87 19.01
28.07 27.17 27.06 27.16 27.19 27.12 27.14 26.71 26.50 24.47 21.83 21.28 23.92 23.69 25.10 25.58 26.30 27.55 27.97 26.45 22.42 23.12 22.09 20.88 20.38 20.52 20.40 19.61 19.45 18.79 17.96 17.91 18.70 19.28 17.19 16.58 15.91 17.52 16.33 18.19 16.77 11.57 15.87
26.24 27.24 27.89 27.64 27.53 27.59 27.29 26.71 26.11 24.64 22.34 20.97 21.47 23.24 24.03 24.79 24.33 24.87 24.84 21.05 19.37 18.94 19.22 18.71 18.65 18.64 18.67 18.26 18.21 17.17 14.77 13.49 12.79 11.41 12.28 14.37 12.27 14.22 11.77 13.30 13.94 11.95 11.80
26.25 25.24 26.99 27.14 26.75 26.31 25.94 25.01 24.51 22.82 19.85 17.12 15.46 16.07 20.07 20.13 17.98 17.39 18.03 18.10 17.29 17.52 17.61 16.73 16.93 16.75 16.01 17.51 13.59 13.46 14.38 11.06 12.64 12.38 12.14 8.97 9.60 12.23 12.17 10.84 9.74 9.39 12.88
26.64 25.66 24.98 25.32 24.45 24.38 23.97 23.05 22.70 21.82 18.40 15.18 13.25 13.66 14.76 17.83 16.38 15.58 15.32 15.22 15.52 15.22 15.17 14.76 13.24 12.24 13.66 12.80 14.88 11.60 10.93 9.83 10.92 12.38 12.28 10.59 9.72 8.58 11.64 10.90 9.91 13.34 14.27
24.72 24.56 23.71 22.61 22.01 20.86 21.78 21.62 20.75 19.46 18.74 17.61 16.05 15.11 14.95 16.79 15.52 14.55 13.86 12.27 11.97 13.87 14.71 13.59 12.99 12.74 11.13 12.14 11.08 10.09 9.74 8.10 8.14 5.78 7.38 10.45 11.78 11.70 10.94 13.00 9.24 6.78 11.29
23.01 22.34 22.18 21.49 21.75 20.18 19.58 18.62 18.75 18.55 17.31 16.37 16.30 15.26 14.98 13.17 12.66 13.91 12.05 12.35 12.62 10.92 9.45 9.68 7.61 8.25 8.54 12.09 11.76 7.84 4.79 3.57 5.68 6.71 3.09 5.87 8.42 9.81 8.89 11.08 7.18 7.42 4.16
21.59 21.27 20.26 18.73 18.16 18.82 19.22 18.16 14.82 11.81 15.82 16.91 15.64 14.22 13.21 11.90 12.86 10.34 8.39 8.43 11.87 7.58 6.21 8.05 8.41 5.00 4.29 3.41 5.33 5.10 3.35 -1.03 2.83 0.97 0.29 5.55 7.54 5.71 2.77 3.79 7.34 2.51 6.18
20.07 19.66 18.69 18.55 18.08 18.13 17.93 16.65 16.13 15.97 15.48 14.52 14.75 14.00 13.81 13.19 12.45 11.95 10.01 7.36 5.27 7.38 8.11 8.68 3.63 4.83 2.04 3.83 2.61 0.65 -2.89 -1.83 -4.65 -4.10 -1.65 0.04 4.03 1.40 5.55 6.19 6.73 4.22 1.89
17.67 17.47 17.42 17.56 16.79 16.13 15.89 15.52 14.36 13.58 12.97 12.42 13.15 12.11 11.14 10.93 9.68 9.00 7.74 6.86 3.32 5.11 5.56 6.21 6.07 2.06 2.70 4.28 1.94 -1.11 -3.11 -2.66 -5.92 -5.21 -4.95 0.76 3.75 3.60 3.74 -0.81 -0.13 4.02 4.30

GFSGL_sfc_wetblb_105.txt.gz
Wetbulb
58.39 58.43 58.48 59.61 60.58 60.58 60.76 59.47 58.49 58.15 58.62 58.47 58.07 57.46 57.28 57.32 57.32 58.10 57.28 57.58 57.74 57.90 57.92 57.68 57.30 56.68 55.82 55.72 55.51 55.82 55.48 55.13 52.59 53.89 54.68 55.32 54.81 55.84 57.16 57.39 57.88 57.38 57.29
50.42 58.29 58.47 58.96 59.89 60.08 60.14 59.80 58.79 58.09 58.67 58.47 57.73 57.22 56.94 56.80 56.88 56.74 56.70 56.98 56.84 56.62 56.96 57.00 56.68 57.17 55.11 55.20 55.56 55.26 55.55 55.61 54.24 52.66 53.38 53.79 54.15 54.67 54.88 55.17 55.59 57.69 57.61
45.71 58.49 58.41 58.59 59.09 59.72 60.04 59.98 59.59 58.65 58.31 58.75 57.63 56.90 56.72 56.80 56.60 56.82 56.70 56.48 56.60 56.74 56.66 56.28 56.32 56.34 55.48 54.87 55.20 55.14 54.91 55.41 54.34 53.12 52.22 53.14 53.09 54.00 53.72 54.11 54.52 54.81 55.99
42.54 45.31 48.89 57.66 58.25 59.34 59.85 60.06 60.01 59.26 58.03 58.14 57.54 57.06 56.63 56.32 56.40 56.58 56.18 55.98 55.94 56.26 56.44 56.12 56.18 55.74 55.29 54.66 54.44 53.54 53.98 53.98 52.63 51.85 51.46 51.40 51.57 52.56 52.25 52.49 52.72 54.34 54.84
39.26 39.68 42.41 46.61 52.11 53.85 54.86 59.21 59.75 59.37 58.97 58.27 57.69 57.15 56.04 54.35 50.12 55.20 55.58 55.22 54.41 54.26 55.03 54.77 55.25 53.84 49.67 51.43 54.57 54.08 52.51 52.29 50.60 50.33 49.96 50.94 51.13 51.85 52.68 53.70 54.65 55.80 53.60
37.13 38.25 39.42 41.11 42.00 43.63 45.28 45.96 48.67 47.36 46.29 44.80 44.34 43.59 41.43 39.17 36.55 37.98 46.53 55.18 55.05 54.57 53.95 54.53 55.09 47.81 46.26 40.60 41.27 39.82 44.12 52.99 50.78 50.88 51.03 50.43 51.44 53.44 48.71 50.83 50.78 49.84 48.20
34.63 35.93 37.93 38.68 38.78 39.32 39.06 38.82 38.83 39.68 39.16 37.72 37.27 37.06 36.61 37.15 36.76 37.89 38.30 48.46 46.18 43.87 43.24 46.59 44.20 40.00 40.06 44.34 37.45 36.04 35.04 34.77 33.06 44.44 49.91 46.28 41.07 35.79 37.29 41.85 45.21 45.70 44.32
33.66 33.56 34.79 37.19 37.16 37.15 37.21 37.27 35.05 35.45 35.16 34.28 34.17 35.09 36.02 37.52 36.89 37.23 36.57 36.86 35.07 34.57 34.92 35.64 35.83 35.71 35.65 39.90 37.07 34.08 32.67 32.83 32.98 33.50 32.44 31.72 31.60 32.08 33.36 37.35 38.89 39.89 34.59
31.42 32.05 32.74 33.72 34.99 35.51 34.84 35.77 35.56 33.42 32.41 31.91 32.35 32.22 33.18 34.83 35.83 35.69 35.02 33.70 32.04 31.58 32.16 33.12 33.09 33.48 35.01 38.86 35.82 31.91 30.49 30.32 32.87 33.18 33.06 32.74 32.08 32.08 32.55 35.98 32.40 33.99 32.74
30.94 31.25 31.75 32.65 32.54 32.73 32.89 33.61 34.17 33.06 31.69 31.40 30.60 30.91 31.97 32.11 34.65 35.67 35.14 33.51 31.31 30.73 31.35 31.60 32.40 32.40 33.25 34.69 34.79 32.77 29.00 28.40 29.05 29.40 29.74 30.53 30.61 29.84 29.56 29.05 27.83 26.75 30.18
30.99 30.25 30.62 31.25 31.03 32.00 32.23 32.94 32.91 32.46 32.20 31.23 29.95 29.88 30.38 31.24 32.06 33.66 33.67 32.51 30.87 29.72 29.48 29.84 31.34 32.31 32.40 32.31 31.75 30.69 29.13 29.84 29.55 29.78 29.65 29.75 29.54 28.90 27.32 26.86 24.35 23.53 22.03
28.60 27.67 27.41 29.08 29.19 29.74 29.74 31.61 32.06 31.77 30.41 29.52 28.62 28.61 29.80 30.32 31.93 32.22 31.96 31.82 31.42 29.57 28.73 29.59 30.48 31.62 31.83 31.93 31.16 31.48 31.25 30.67 29.51 27.99 27.15 26.69 26.89 27.61 21.87 20.07 19.37 21.91 23.33
27.36 25.90 25.51 26.19 26.79 27.32 26.63 27.29 28.34 28.40 28.11 26.87 26.42 26.08 27.21 29.60 30.65 31.69 31.29 30.74 30.24 28.96 29.82 30.06 30.04 30.00 29.71 29.33 30.08 29.95 29.70 28.90 27.23 25.76 25.44 26.14 25.49 25.46 25.13 26.11 23.82 21.85 20.34
27.65 25.93 25.13 24.30 24.36 25.10 25.78 25.96 26.10 25.63 25.09 25.36 24.98 24.52 26.20 27.68 28.57 30.01 30.15 30.75 31.18 30.09 29.29 28.54 27.81 27.29 26.40 25.94 26.32 27.31 27.56 27.15 26.38 25.93 25.24 24.99 24.55 22.60 22.65 21.44 19.92 18.24 17.99
28.86 29.40 25.52 23.95 23.14 23.79 24.62 24.54 25.04 26.22 25.94 24.20 24.60 25.32 25.24 25.85 28.95 30.71 30.22 29.09 28.72 28.29 27.93 27.35 26.06 25.58 23.88 22.77 22.81 23.36 23.63 24.08 22.82 22.50 21.45 18.64 19.15 19.87 21.67 22.37 21.41 20.20 17.90
27.67 27.40 27.57 26.98 23.58 22.45 22.05 22.76 26.65 26.43 27.54 27.92 27.95 25.82 27.04 29.00 30.04 30.17 29.96 29.77 29.11 27.85 25.04 23.25 21.93 21.73 21.16 21.18 20.55 20.39 21.18 21.24 21.56 21.68 20.59 21.03 19.84 19.62 20.34 20.59 20.56 18.10 16.15
26.06 26.86 26.64 26.26 26.31 26.50 21.75 20.90 19.03 22.85 25.72 26.18 26.85 27.42 28.06 29.16 29.03 28.29 27.97 27.70 27.16 25.45 21.44 20.50 19.52 19.21 19.07 19.26 18.36 18.74 18.22 19.49 20.50 19.29 18.13 18.32 19.12 19.88 18.24 17.82 17.51 17.70 17.67
26.31 25.49 24.47 25.85 25.72 24.92 24.13 23.61 22.34 16.73 16.19 18.86 24.44 24.86 25.98 26.45 26.66 26.82 25.53 23.38 19.68 20.38 19.05 18.04 17.70 18.19 19.03 18.94 18.50 17.73 16.84 16.37 17.09 17.66 16.04 15.94 14.46 16.37 15.78 16.01 15.56 10.87 14.92
22.99 25.06 25.96 20.66 20.75 23.10 19.52 20.93 20.69 17.63 15.54 13.35 15.32 17.65 20.63 23.46 23.23 23.21 22.53 17.76 16.58 16.38 16.60 16.02 15.66 16.17 16.36 15.67 15.21 13.36 12.30 12.80 12.03 10.68 10.26 11.66 7.67 11.06 11.18 12.03 11.90 8.66 11.05
20.72 21.20 22.31 21.95 20.99 18.72 17.41 18.39 16.92 14.41 12.13 10.83 11.21 11.75 13.92 15.72 12.81 12.77 13.64 13.32 14.05 14.03 13.69 12.96 12.94 12.64 12.83 13.33 9.35 9.75 10.69 9.61 9.69 10.83 7.99 8.86 8.11 9.17 7.03 8.43 8.54 6.38 11.24
18.43 15.43 19.43 17.97 16.56 18.48 17.13 16.78 17.91 12.02 6.78 5.51 5.11 6.27 11.81 12.62 10.95 8.96 10.79 10.84 11.53 12.35 11.40 10.45 9.23 8.84 9.90 10.36 11.16 7.84 6.58 4.74 6.75 5.79 5.85 7.96 8.54 4.64 9.48 9.71 6.67 10.69 10.97
18.40 19.99 18.76 15.41 15.90 16.61 17.72 16.48 14.13 14.36 14.00 9.20 7.13 12.13 11.44 9.94 9.43 8.74 7.16 4.11 1.82 8.34 9.56 7.90 6.79 7.04 9.88 7.81 4.90 0.49 -0.63 -2.07 1.76 1.14 0.81 3.49 7.77 5.30 6.84 9.01 5.09 1.45 6.03
17.81 15.76 16.82 15.95 19.29 14.26 10.44 12.75 12.95 11.02 8.48 8.68 8.53 8.88 6.66 4.29 5.07 6.03 8.56 6.90 4.51 3.99 1.78 1.88 0.30 2.43 4.92 4.13 1.27 0.72 -2.92 -5.48 -0.95 -7.12 -6.57 -3.12 4.98 0.41 -2.18 0.16 3.39 2.01 2.73
15.50 15.00 17.71 10.55 8.88 10.04 9.05 2.26 2.77 8.11 12.14 9.32 4.98 2.37 2.22 3.90 1.15 -2.62 -5.12 -0.59 1.71 -6.03 -3.13 -2.26 -0.70 -0.63 -0.33 -6.21 -5.15 -3.24 -2.03 -7.50 -5.92 -7.19 -10.56 -8.74 -1.89 2.31 -2.81 -0.60 -0.12 -3.75 -3.49
10.70 12.56 11.33 11.28 9.24 11.84 9.16 9.42 5.52 6.48 2.86 4.01 5.03 4.38 7.33 7.89 8.88 -0.40 -5.14 -5.87 -3.54 -5.74 3.11 -4.20 -4.28 -3.04 0.16 -3.73 -4.94 -4.25 -6.28 -7.12 -10.31 -8.99 -8.65 -8.75 -5.84 1.26 0.40 -1.11 -4.16 -0.91 -3.00
10.19 8.82 9.48 10.12 7.60 4.28 6.78 8.06 5.59 3.49 3.62 3.84 4.75 4.05 4.40 2.50 -1.37 3.59 -2.42 -5.01 -5.88 -0.43 1.23 1.03 -2.28 -1.51 -1.15 -0.80 -2.21 -5.66 -8.32 -8.03 -10.42 -9.16 -12.55 -6.78 -6.02 -8.96 -8.64 -7.84 -5.49 -6.21 -1.78

GFSGL_sfc_wetblb_108.txt.gz
Wetbulb
45.66 54.06 59.74 60.46 59.69 59.64 60.09 59.87 59.40 58.87 57.92 56.88 57.10 57.64 57.65 57.77 58.23 57.99 58.33 58.95 58.53 58.59 58.84 58.26 57.68 57.64 56.60 55.39 55.27 55.35 55.01 54.82 52.18 53.50 54.33 55.10 55.78 56.11 56.64 56.27 56.83 56.74 56.06
43.95 48.05 58.68 58.92 58.61 58.62 59.40 59.15 58.99 58.16 57.80 57.24 57.20 57.22 56.98 56.96 57.33 57.37 57.07 57.81 58.32 58.05 57.77 57.94 57.41 57.42 56.44 56.15 55.65 54.73 54.84 55.41 53.36 51.94 53.70 53.77 53.98 55.62 56.25 55.17 56.78 57.74 56.95
41.84 43.33 46.21 49.14 57.91 57.85 58.84 58.70 58.72 57.96 58.05 57.76 57.77 57.24 56.32 56.38 56.66 56.79 57.35 56.97 57.11 57.72 57.79 57.40 57.34 57.05 56.38 55.96 55.99 55.41 54.96 55.09 54.48 52.99 52.63 53.95 54.39 54.17 54.03 54.22 53.52 53.91 55.20
39.82 40.83 41.15 42.97 46.97 55.92 58.84 59.17 58.68 58.18 57.86 57.86 57.70 57.56 57.30 57.06 56.77 56.80 56.62 56.36 56.48 56.28 56.52 57.12 57.18 57.00 56.66 55.61 55.19 54.82 54.72 54.10 53.86 53.29 53.52 52.84 52.95 53.45 52.90 51.83 50.49 51.81 53.04
36.95 37.42 38.57 40.42 42.20 44.58 50.35 59.31 58.88 58.26 58.34 58.11 57.26 56.88 56.11 55.17 48.44 53.94 56.30 55.94 55.82 55.88 56.20 56.24 56.44 54.91 50.46 52.85 55.71 55.11 53.72 53.12 52.85 52.57 50.92 49.58 49.76 50.10 49.68 51.91 51.88 52.82 49.57
36.14 35.69 36.68 38.19 38.81 40.00 40.77 43.68 45.37 45.01 44.75 44.29 43.31 42.90 42.24 40.93 37.28 38.35 43.36 55.36 55.11 54.80 54.36 54.64 55.23 48.51 43.82 41.64 40.47 38.10 47.04 53.39 52.33 50.97 50.96 48.43 48.44 50.21 48.49 51.07 51.92 51.69 48.76
33.20 35.02 35.50 35.90 35.69 36.62 37.26 36.79 37.52 38.42 40.35 37.91 38.09 39.38 38.68 38.28 37.95 38.91 40.70 46.97 43.86 42.97 43.44 47.80 43.58 40.68 42.48 39.64 36.05 35.56 34.90 34.33 33.78 47.78 49.84 45.40 43.88 38.54 38.94 42.46 44.96 46.03 43.04
31.78 32.02 33.27 34.71 34.18 34.59 33.97 33.66 33.18 33.67 33.91 34.36 34.66 35.86 36.10 35.84 35.73 36.09 36.18 36.86 35.47 34.96 35.47 36.73 37.53 37.36 37.38 39.59 36.79 34.35 33.01 33.34 33.63 34.21 34.29 32.14 32.36 33.19 35.36 38.39 39.59 37.57 33.70
28.88 29.86 31.21 32.51 33.04 32.92 32.73 32.11 32.27 32.62 31.62 31.81 32.69 33.28 33.33 34.30 35.31 35.08 34.89 33.66 32.51 31.92 32.97 34.15 34.73 35.10 36.72 37.89 35.23 32.14 30.76 30.69 33.24 33.45 33.06 32.53 32.25 32.43 34.03 35.88 33.25 34.13 31.93
27.68 28.14 29.88 30.82 30.61 31.63 31.91 31.94 32.01 31.80 31.12 31.17 30.85 31.59 32.86 32.35 34.35 34.75 34.07 32.89 30.87 30.72 31.50 31.98 33.09 33.92 34.77 34.27 33.00 31.09 28.09 28.43 29.66 29.96 30.21 29.95 29.54 29.62 29.47 29.71 31.21 32.39 30.43
27.63 27.67 28.04 28.63 29.26 29.68 31.18 31.66 31.71 31.07 30.48 29.83 29.33 29.88 30.66 31.63 32.70 33.88 33.09 31.50 30.68 29.79 29.85 30.19 31.57 32.56 33.03 32.78 32.02 30.71 29.22 30.33 29.90 29.66 29.48 29.27 27.71 26.44 26.42 26.40 25.52 26.32 25.50
25.79 25.06 25.80 27.03 27.67 28.15 28.55 29.26 29.45 29.22 28.16 27.91 28.27 28.58 29.66 30.57 31.58 32.50 32.30 31.64 31.27 29.07 28.32 29.70 30.79 31.97 32.05 31.82 30.97 31.04 30.55 29.47 28.63 27.60 27.03 26.39 27.22 25.33 22.75 23.36 23.50 23.45 23.77
25.54 24.23 24.61 25.43 26.02 26.59 26.49 26.74 26.19 26.88 26.64 26.48 27.00 27.19 27.87 29.22 30.25 31.44 31.20 30.69 30.16 28.56 28.76 29.12 29.26 29.48 29.56 29.02 29.71 29.71 28.89 28.11 26.94 25.63 24.31 23.75 22.00 20.85 24.68 25.33 25.25 24.18 23.89
25.90 24.07 23.65 24.16 24.23 24.87 25.43 26.05 25.15 24.82 25.04 25.40 25.60 25.91 27.46 28.30 28.75 29.51 29.54 29.87 29.91 28.59 27.78 26.87 26.06 25.88 25.14 25.23 25.52 25.80 25.47 25.26 24.90 23.37 22.22 22.51 22.13 23.26 22.13 21.77 22.55 22.16 20.24
27.58 27.29 23.94 23.22 22.89 23.54 25.12 25.08 25.42 26.91 26.54 24.48 24.68 26.60 26.60 26.89 29.08 30.13 29.31 27.86 27.46 27.28 26.63 25.68 24.25 22.86 21.71 21.95 22.02 22.40 22.81 22.61 21.87 22.00 21.53 21.50 21.46 21.74 21.38 22.51 21.58 20.35 18.27
25.90 26.13 26.13 23.97 22.22 22.07 21.85 22.56 27.10 27.13 28.22 28.64 29.22 26.97 28.05 29.74 29.83 29.85 29.49 28.79 27.81 26.25 22.79 20.78 19.90 20.08 19.36 19.67 19.64 19.73 20.49 20.38 20.77 20.88 20.43 20.99 19.79 19.59 19.75 20.42 20.55 19.28 17.14
23.17 24.98 25.11 25.24 25.50 21.58 19.90 19.57 17.48 21.19 25.84 25.71 27.16 27.67 29.06 27.93 27.80 27.58 26.93 26.07 25.24 23.44 19.30 18.71 18.25 18.00 18.09 18.35 18.42 18.44 17.70 18.88 19.62 18.62 18.16 18.44 19.66 19.54 18.57 18.05 17.68 18.09 17.61
20.61 21.49 19.25 18.74 19.64 19.21 16.70 15.84 13.07 11.86 10.76 12.21 19.40 24.30 25.72 25.97 25.59 24.96 24.09 21.77 17.83 18.35 17.41 16.77 16.35 17.04 17.70 17.05 16.60 15.99 15.45 15.19 15.42 15.64 14.65 13.94 14.51 16.27 14.96 14.84 14.59 12.18 14.89
21.20 22.28 20.38 17.07 17.04 15.44 15.81 13.22 10.87 9.75 8.90 9.15 11.36 15.17 16.65 21.81 21.52 21.24 20.16 15.02 13.96 13.80 14.08 13.80 13.99 14.56 14.00 13.62 11.96 11.26 10.75 10.45 9.39 9.17 9.87 10.21 5.48 10.71 10.84 12.04 11.84 9.93 10.78
14.90 16.47 14.84 13.30 14.88 15.60 14.48 12.66 10.10 8.83 9.12 8.95 8.96 5.47 8.40 11.74 9.97 9.77 10.60 11.27 10.87 10.44 10.71 10.87 11.36 10.88 10.73 10.56 6.39 6.19 7.47 7.42 7.24 7.60 4.86 3.83 4.22 8.08 7.00 6.01 6.21 7.82 10.17
14.57 13.05 12.83 13.97 14.58 13.94 13.36 11.45 7.85 6.28 6.39 8.35 7.88 3.88 6.68 8.55 4.75 4.58 6.48 6.67 8.79 8.99 7.27 8.69 7.19 7.54 8.52 7.58 6.83 3.60 1.39 -0.51 1.86 1.71 2.64 4.65 0.42 3.62 7.20 5.17 5.57 9.15 9.26
15.55 17.32 16.77 13.58 14.11 13.72 12.75 13.13 11.31 9.92 8.86 8.40 5.91 9.83 6.35 3.50 5.41 4.75 2.19 -2.41 -2.78 4.47 5.10 1.96 4.01 6.27 4.02 2.00 0.42 -6.07 -6.05 -6.58 -6.05 -4.86 -2.16 -0.88 1.63 1.43 4.50 3.00 1.71 0.38 4.57
15.30 12.79 14.35 14.97 15.63 9.57 7.59 13.55 8.27 6.35 8.47 4.02 3.97 4.84 3.24 -0.98 -0.96 2.12 0.12 -7.49 -1.75 -2.36 -2.70 -1.59 -1.96 0.37 -2.32 -6.40 -5.38 -4.62 -5.54 -7.67 -7.67 -11.48 -10.57 -7.50 -1.03 -0.81 -6.58 -2.30 -1.42 -2.42 -2.36
12.90 11.23 15.93 9.32 7.31 7.10 2.25 -2.60 2.48 7.83 6.51 0.67 -4.77 -3.50 -2.63 -6.77 -9.48 -8.58 -9.48 -7.85 -8.76 -10.03 -10.93 -8.24 -2.93 -2.30 -3.77 -11.84 -9.87 -6.58 -4.29 -11.66 -9.70 -11.30 -14.56 -13.29 -6.58 -0.31 -5.50 -3.57 -2.66 -6.58 -6.58
4.96 5.84 9.36 7.76 7.99 7.05 6.46 4.75 2.28 1.56 3.83 4.00 5.07 1.38 4.25 -0.60 -2.29 -10.93 -12.02 -10.39 -8.76 -8.94 -5.68 -8.58 -7.49 -3.92 -6.94 -8.79 -7.96 -6.11 -8.44 -10.39 -13.49 -12.20 -12.93 -10.21 -11.30 -10.57 -8.22 -6.95 -9.48 -4.79 -6.40
7.43 5.11 5.03 7.23 4.19 3.85 4.15 3.06 1.85 2.38 2.40 0.30 -1.51 -2.41 -4.05 -4.41 -4.23 -8.97 -10.30 -8.67 -7.49 -4.95 -2.43 -5.71 -6.58 -4.61 -5.41 -6.55 -6.00 -7.71 -10.46 -9.30 -12.39 -12.57 -17.64 -10.95 -12.57 -12.57 -12.41 -10.93 -8.58 -8.94 -4.08

GFSGL_sfc_wetblb_111.txt.gz
Wetbulb
42.44 44.43 47.52 55.33 58.56 62.48 61.64 60.36 59.95 59.76 58.72 58.52 58.02 57.58 57.62 57.18 57.52 57.43 57.58 58.10 58.17 58.63 58.93 58.39 57.48 57.75 56.94 56.58 56.30 56.20 55.03 54.20 51.73 52.94 54.14 55.12 55.25 55.64 55.63 55.23 55.42 54.72 54.83
41.33 42.76 44.30 46.50 49.84 59.75 60.25 60.14 59.60 59.42 59.11 58.65 57.90 57.24 57.32 56.80 57.40 57.12 56.96 57.47 57.83 57.89 58.43 58.11 57.36 57.38 56.42 56.44 55.88 54.94 55.19 54.96 53.29 51.59 53.28 53.29 54.27 55.53 56.22 56.12 56.56 56.95 56.94
39.43 40.59 41.85 42.73 44.17 46.38 52.35 59.01 59.32 59.00 58.44 58.22 57.80 57.04 57.04 56.92 56.74 57.06 57.04 56.92 57.53 58.04 57.83 57.86 57.32 56.98 56.02 55.80 55.49 54.63 54.50 54.73 54.36 52.60 52.44 54.17 54.33 54.11 54.32 54.76 55.13 55.92 55.59
37.97 38.18 38.90 39.61 41.57 42.18 43.63 47.42 58.66 58.76 58.08 57.72 57.58 57.36 56.66 56.62 56.72 56.70 56.68 56.78 56.84 57.52 58.10 58.04 57.82 57.08 56.68 56.22 55.88 55.44 55.30 54.44 54.31 53.81 53.44 53.01 53.59 53.76 53.77 53.14 52.31 52.58 51.30
34.83 35.79 36.73 38.24 39.19 39.06 38.88 39.30 42.23 57.04 58.01 57.93 57.48 57.18 56.98 56.70 53.91 56.48 56.58 56.30 56.14 55.72 56.00 56.40 57.22 55.64 50.99 53.52 56.26 55.96 55.26 54.48 53.92 53.43 52.84 51.46 51.29 50.69 51.67 52.25 51.95 52.19 47.92
33.84 33.43 35.41 36.53 37.00 36.80 36.76 36.80 36.41 37.71 41.34 46.93 47.07 47.76 45.53 42.30 37.83 39.08 45.97 56.10 55.92 55.40 55.26 55.46 55.60 49.21 48.14 44.52 44.34 46.33 52.21 54.43 53.41 53.19 52.83 51.68 50.96 51.66 51.09 51.76 51.60 50.56 47.16
31.30 32.64 33.17 34.70 34.88 35.15 35.44 35.33 34.76 34.48 34.55 35.42 37.05 39.21 38.26 37.72 38.13 39.42 40.71 49.26 47.98 45.93 46.93 51.65 45.85 43.25 43.70 41.29 36.55 36.12 35.38 34.98 34.86 50.94 52.39 51.07 48.66 45.29 45.55 45.34 46.82 47.89 43.54
29.26 29.98 31.46 32.22 32.95 33.70 33.49 33.10 33.19 33.46 32.84 32.28 32.75 34.19 35.36 35.28 35.66 36.44 36.59 37.72 35.96 35.48 36.08 37.82 39.80 40.13 40.18 39.70 37.22 34.31 33.26 33.10 33.49 34.88 34.90 32.72 32.90 34.71 38.27 40.69 42.36 35.68 33.37
27.14 27.73 28.72 30.53 31.09 31.43 31.49 31.79 32.03 32.08 31.65 31.83 31.91 32.02 32.96 33.52 34.88 34.82 34.87 34.01 32.72 32.16 33.11 34.70 35.57 37.24 37.19 37.89 34.82 31.77 30.77 30.85 32.96 33.19 32.85 32.79 32.61 33.22 35.00 36.95 34.15 34.47 31.57
25.40 26.54 27.32 28.25 28.24 29.69 29.83 30.50 31.01 31.12 30.68 31.30 30.36 31.26 32.04 32.03 33.90 34.40 33.70 32.63 30.76 30.76 31.64 32.18 33.74 34.23 34.01 34.29 33.03 31.32 28.45 28.89 29.69 29.27 28.58 28.65 29.46 29.56 29.26 29.36 32.18 32.84 30.51
24.60 25.47 25.86 26.04 27.01 27.62 28.74 29.36 29.62 29.35 29.59 29.33 29.26 29.84 30.43 31.19 31.86 33.53 33.50 31.97 30.98 29.75 29.92 30.38 31.52 32.65 32.84 32.87 32.22 31.20 29.92 30.63 29.96 29.62 28.23 26.76 26.36 26.64 26.26 26.46 26.90 29.51 28.59
24.57 24.17 24.11 24.42 25.51 26.01 26.23 26.35 27.08 28.07 27.91 28.13 28.31 28.42 29.32 30.20 31.54 31.93 31.78 31.47 31.02 29.15 28.30 29.60 31.08 31.95 31.73 31.06 30.28 30.45 30.25 29.67 29.01 27.70 26.94 24.99 23.71 23.45 24.08 24.51 24.78 24.63 24.47
24.98 23.37 23.66 24.63 25.06 25.20 24.76 24.25 25.01 26.25 26.29 26.61 27.35 27.23 27.85 29.07 29.50 31.00 30.94 29.79 29.03 27.30 27.66 28.66 29.08 29.18 29.14 28.25 29.10 28.97 28.52 27.57 26.18 24.33 23.39 23.14 23.82 25.77 26.42 24.69 24.47 24.65 23.60
26.50 23.88 23.25 22.89 23.93 24.73 25.12 25.77 25.28 24.74 24.37 25.39 25.98 26.20 27.48 28.03 28.28 28.46 28.25 27.93 28.53 27.24 25.87 25.27 25.50 25.40 24.50 24.62 24.76 25.15 25.25 24.86 23.77 22.29 21.65 22.41 23.63 22.91 22.40 22.86 21.20 21.19 19.52
25.94 26.15 23.33 22.66 22.20 22.19 24.37 25.18 25.44 26.95 27.65 25.71 25.25 26.94 25.86 26.04 28.28 29.56 28.39 26.51 25.62 25.26 24.30 23.37 22.47 22.19 21.64 21.88 21.87 22.23 22.38 22.52 21.67 22.31 21.79 21.44 21.19 21.32 21.17 22.52 21.51 20.14 17.94
24.61 24.77 24.85 22.50 21.11 21.32 20.19 20.55 25.79 25.90 27.38 28.39 29.28 26.47 27.14 28.63 28.96 28.54 27.83 27.15 26.08 25.02 21.51 19.46 18.83 19.04 18.83 19.20 19.35 19.35 19.86 19.96 20.71 21.13 20.82 20.70 19.93 19.99 20.07 21.02 21.05 19.17 17.07
23.42 23.63 22.80 22.93 23.84 20.28 18.26 17.80 13.90 17.31 23.51 24.52 26.50 27.13 27.10 26.97 26.89 26.50 25.58 24.74 24.02 21.75 17.14 17.01 17.07 17.40 17.68 17.65 17.61 17.11 16.11 17.37 18.52 18.00 18.29 18.93 19.38 19.03 18.65 18.00 18.60 18.46 17.23
19.69 18.99 17.41 18.05 16.96 16.43 12.85 9.84 8.39 6.48 6.73 10.12 16.94 22.40 24.15 24.15 23.98 23.70 22.53 20.11 15.84 16.53 15.51 14.51 13.76 14.74 15.15 15.01 14.67 14.11 13.58 13.60 14.08 14.58 13.82 13.87 15.50 16.14 15.50 14.98 15.05 14.91 15.78
17.96 15.31 11.74 9.99 13.06 14.21 11.55 7.60 3.75 4.96 4.51 5.78 10.18 12.59 12.55 19.59 19.21 18.94 17.74 11.69 11.15 11.17 12.51 12.12 12.20 12.07 11.39 10.55 8.16 8.23 7.51 7.75 8.45 9.09 9.63 10.21 9.46 12.61 11.58 12.21 11.47 10.03 11.29
10.72 12.61 10.05 7.18 6.88 8.21 6.64 6.53 6.88 6.75 7.38 6.81 6.91 4.72 7.42 9.33 6.74 5.81 6.65 6.29 6.66 7.49 8.71 8.99 9.35 8.93 8.29 7.44 5.07 4.90 5.66 5.14 5.53 6.87 5.62 5.79 5.84 9.98 7.71 8.57 8.66 9.43 10.22
10.14 12.01 10.29 11.77 11.31 9.47 7.54 5.82 4.44 4.49 4.79 5.18 1.55 -0.62 4.17 5.68 3.10 2.95 5.03 4.50 3.97 3.95 2.07 5.19 4.65 3.93 5.42 3.58 3.89 0.87 -0.79 -2.17 1.25 2.35 2.24 3.31 -1.12 3.70 5.46 6.10 7.46 9.42 9.31
13.23 15.52 15.31 12.41 12.62 9.82 9.80 12.17 8.36 6.99 7.00 6.39 2.64 5.61 2.22 -0.18 1.73 0.83 -0.71 -6.24 -8.42 0.56 2.12 0.87 2.37 1.47 0.21 -0.60 -2.14 -9.20 -8.10 -9.71 -8.43 -5.43 -3.07 -1.29 -0.07 0.11 1.87 1.01 -0.60 -1.62 3.16
12.68 10.70 12.18 13.76 12.87 8.06 5.30 9.45 9.04 7.60 2.75 -1.00 1.15 2.49 -0.35 -5.70 -5.70 -2.07 -6.24 -11.32 -5.90 -6.63 -6.08 -3.44 -4.34 -3.82 -5.94 -8.83 -7.97 -6.57 -7.26 -10.06 -10.60 -14.77 -14.04 -11.86 -4.07 -4.79 -8.96 -4.09 -3.39 -3.40 -4.45
10.53 8.23 12.14 8.07 3.89 5.80 -3.34 -2.62 2.98 6.70 7.15 -0.44 -6.24 -5.52 -6.06 -8.60 -10.59 -10.05 -12.23 -12.77 -11.50 -14.40 -15.85 -12.04 -5.94 -5.10 -6.88 -14.76 -11.69 -8.42 -6.16 -13.68 -11.87 -13.50 -16.03 -13.68 -7.87 -3.82 -8.06 -5.41 -4.81 -9.32 -8.78
1.60 0.28 2.26 4.25 3.70 2.22 1.81 3.05 -3.70 -3.52 0.61 -0.30 -2.26 -4.25 -3.52 -8.24 -6.43 -12.77 -13.68 -11.68 -9.14 -11.68 -9.14 -10.77 -8.42 -7.61 -10.28 -11.32 -9.34 -7.39 -9.97 -12.23 -15.15 -14.22 -14.04 -12.04 -13.86 -12.95 -10.96 -9.33 -12.04 -6.61 -8.60
5.52 4.68 4.01 3.33 0.98 0.47 0.78 -0.14 -1.41 -1.20 -5.70 -7.15 -5.34 -3.54 -4.61 -3.34 -6.61 -13.14 -12.43 -10.59 -8.24 -5.34 -7.34 -10.77 -9.15 -7.73 -9.43 -8.44 -7.11 -8.99 -11.16 -10.41 -14.40 -15.85 -19.48 -12.08 -13.32 -13.31 -13.49 -12.41 -10.59 -10.77 -6.24

GFSGL_sfc_wetblb_114.txt.gz
Wetbulb
40.39 42.41 43.91 45.11 47.36 52.95 56.19 61.91 61.06 60.44 59.65 58.84 59.87 60.15 60.05 59.46 59.46 59.12 58.74 58.18 57.94 58.00 58.26 58.15 57.96 58.84 57.64 56.87 56.77 56.35 55.26 54.43 51.74 52.80 55.14 55.72 54.88 55.73 55.91 55.70 55.99 55.92 55.58
39.40 40.57 41.84 42.89 44.07 45.07 47.65 49.33 60.98 60.26 60.16 59.65 59.63 59.30 58.80 58.38 58.18 57.76 57.14 56.98 56.78 56.47 57.02 57.92 57.98 57.48 56.70 56.47 55.98 55.22 54.87 54.69 53.17 51.30 53.15 53.47 54.45 55.62 56.07 54.91 55.49 56.05 56.41
37.20 38.30 39.24 39.85 40.83 41.35 42.34 44.61 47.08 59.08 59.78 59.14 58.90 58.30 57.94 57.72 57.24 56.82 56.43 56.52 57.17 57.39 57.89 57.95 57.84 57.50 56.56 56.48 56.06 55.52 55.44 54.93 54.67 53.08 52.58 54.28 54.59 55.16 55.18 55.80 55.80 54.43 47.36
35.86 36.00 36.69 37.61 38.71 39.56 40.45 41.30 41.95 43.97 52.73 58.24 58.38 58.29 58.29 57.87 57.12 57.02 56.34 56.70 56.94 57.27 57.83 58.00 58.19 57.27 56.47 56.10 55.78 55.64 55.56 54.73 54.46 53.42 52.77 52.71 53.39 54.14 54.15 53.17 52.09 52.39 45.11
33.69 34.18 35.08 36.34 37.10 37.72 38.40 39.32 39.71 39.38 39.61 41.96 52.71 57.66 57.52 57.02 54.47 56.50 56.60 56.18 56.08 56.13 56.68 57.38 57.82 55.90 51.39 53.71 56.06 55.56 55.24 54.72 54.12 53.29 52.58 52.78 52.20 51.24 52.11 53.32 53.56 51.48 46.07
31.73 31.82 33.69 34.68 34.81 34.95 35.75 36.43 37.32 37.32 36.96 36.82 37.17 39.32 40.26 40.48 38.01 39.79 50.99 56.12 56.05 55.61 55.27 55.69 56.33 49.87 48.08 44.47 45.56 46.83 52.17 54.48 53.80 53.62 53.34 52.46 52.74 53.14 52.74 52.97 52.60 49.12 44.89
29.82 30.48 31.13 32.66 33.01 33.45 33.87 33.81 34.04 34.84 35.94 35.49 35.42 35.30 35.04 35.33 35.99 36.93 39.34 51.95 51.57 47.42 47.64 51.97 49.25 46.36 46.23 42.82 37.07 36.68 35.56 35.53 36.48 53.67 53.59 53.41 52.90 52.64 51.82 49.52 50.70 50.24 45.45
27.51 28.15 28.92 29.96 30.92 31.73 31.99 31.62 32.04 32.48 32.70 33.08 33.29 34.40 34.16 33.77 34.82 35.15 35.45 37.54 36.56 35.89 36.46 38.57 42.11 41.58 41.27 40.97 38.11 35.24 33.60 33.41 34.25 35.64 36.99 34.86 34.32 37.30 44.25 45.85 45.76 35.44 34.04
24.99 25.89 26.83 27.97 28.66 29.28 29.46 30.00 30.77 30.85 30.51 31.01 31.62 31.85 32.18 32.21 34.06 34.46 33.99 33.41 32.54 32.46 33.69 36.18 37.32 37.78 37.17 38.68 35.83 32.91 31.69 30.83 33.08 33.53 33.44 33.38 33.63 34.46 36.13 40.31 36.64 37.77 31.89
23.87 24.39 25.32 26.94 26.92 27.51 28.12 28.52 29.91 30.77 30.13 30.17 29.62 30.47 31.39 30.77 32.81 33.83 33.74 32.46 31.15 31.22 31.85 32.33 33.51 33.79 34.25 34.36 33.51 32.24 29.50 28.89 29.37 29.05 29.09 29.56 29.63 29.89 29.49 31.38 34.29 34.27 31.04
24.10 24.82 24.49 24.27 25.65 25.55 26.73 28.39 28.62 28.87 29.62 29.35 29.07 29.44 29.48 30.63 30.98 31.90 32.16 30.50 30.56 29.83 30.07 30.60 31.63 32.75 32.81 32.75 32.35 31.08 30.01 30.37 29.12 27.47 26.60 26.71 26.78 26.22 26.14 26.78 27.15 30.96 31.56
24.63 23.66 24.11 24.88 24.98 25.34 24.67 24.88 26.23 27.22 27.65 27.70 27.25 27.85 28.80 29.06 30.60 31.06 30.60 29.85 28.98 27.10 26.57 28.03 29.74 31.24 31.23 31.08 30.29 30.55 29.96 29.40 28.65 26.04 24.19 23.45 23.38 23.86 24.13 24.73 25.10 25.06 25.55
25.04 23.50 23.12 24.61 25.39 25.39 25.62 25.84 25.31 24.46 25.09 25.79 26.41 26.20 26.66 28.18 28.47 29.22 29.87 29.31 27.94 25.95 26.77 27.83 28.03 27.75 27.28 26.86 27.86 27.54 27.46 26.79 25.89 23.85 22.51 22.63 23.69 24.81 24.91 24.70 24.97 25.23 24.57
25.40 24.29 23.23 22.54 22.71 24.73 25.12 25.38 25.54 25.83 25.04 24.44 25.14 24.36 25.40 26.99 26.66 26.98 26.81 26.19 26.83 25.51 25.22 24.91 25.13 25.30 24.52 24.19 24.30 24.86 24.54 24.17 23.45 22.63 22.31 23.45 24.93 23.87 22.81 23.85 22.52 22.73 21.27
24.99 24.83 24.06 22.51 21.77 20.90 22.40 24.41 24.05 25.58 27.24 25.36 24.34 25.28 24.42 24.26 26.40 27.94 27.27 25.61 24.05 23.87 23.43 22.71 21.70 21.55 20.82 21.16 21.33 21.57 22.36 23.19 22.28 22.60 22.04 21.86 21.91 22.06 21.62 22.78 21.70 20.53 19.26
23.65 23.82 23.30 23.45 20.69 20.36 18.99 17.92 23.98 24.86 25.87 26.68 26.86 25.11 25.75 26.67 26.88 26.88 26.45 25.75 24.59 24.15 20.41 18.88 18.13 18.30 17.95 18.31 18.12 18.31 19.10 19.72 20.94 21.73 21.65 21.54 20.88 21.06 20.60 20.99 20.97 19.64 17.87
22.11 22.41 21.26 20.70 20.91 19.08 16.24 14.76 12.49 15.78 21.91 22.78 23.95 24.75 24.63 24.71 25.31 24.81 23.88 23.24 22.45 20.02 15.63 15.15 14.72 15.42 16.21 16.47 16.22 15.70 14.84 16.57 18.07 18.11 18.57 19.36 19.71 19.27 19.73 18.82 19.20 18.74 17.55
14.18 14.71 13.91 13.39 10.34 9.63 5.80 4.75 4.59 4.14 3.08 6.89 14.21 18.58 21.94 22.06 22.16 21.86 21.07 18.12 13.82 14.66 13.77 12.61 12.52 12.77 12.97 12.54 12.43 12.47 12.29 13.13 13.92 14.56 14.27 15.07 16.59 16.75 16.45 15.65 16.04 16.03 16.01
15.78 11.50 5.35 4.39 6.91 6.21 3.12 1.70 1.57 3.67 4.89 4.03 7.02 10.07 9.50 17.37 17.91 17.38 15.71 9.30 9.47 9.97 11.12 10.45 10.27 9.95 9.04 8.74 7.56 7.73 7.62 7.64 7.98 9.36 9.95 10.83 11.68 14.26 13.35 13.37 12.82 11.87 12.53
9.77 10.44 7.77 4.13 4.03 5.33 3.46 4.74 5.80 5.26 5.23 4.01 4.72 2.71 4.48 6.84 3.89 3.24 4.07 2.37 5.22 6.33 7.54 8.06 7.76 6.59 5.71 6.12 3.37 3.44 5.25 4.95 6.13 7.43 6.77 7.12 8.73 11.11 10.61 11.06 11.23 10.98 10.89
8.94 11.39 9.28 10.13 8.91 7.11 5.78 4.41 3.18 2.13 1.50 1.87 -1.40 -3.21 1.28 3.36 0.40 0.59 2.85 1.58 1.74 2.55 2.28 4.45 2.76 1.97 4.46 2.96 3.10 0.48 -1.09 -2.22 1.27 2.51 3.61 4.84 2.52 7.15 9.26 9.86 10.37 10.67 10.44
12.17 12.61 13.16 10.63 11.01 7.64 8.71 9.94 6.09 5.52 5.37 3.65 0.77 3.48 -0.57 -2.92 -0.30 -0.64 -1.90 -6.29 -7.38 0.12 1.91 0.74 0.51 0.05 -0.44 -0.26 -1.28 -4.92 -6.12 -6.39 -3.91 -2.34 -0.11 1.67 4.05 4.34 6.11 5.66 5.87 6.01 8.18
11.74 10.52 11.19 11.02 9.51 6.13 3.46 9.96 8.22 4.84 0.22 -2.30 -0.56 0.28 -1.81 -7.38 -7.02 -2.73 -5.38 -12.27 -5.09 -5.75 -4.25 -3.40 -4.36 -3.66 -5.38 -7.30 -5.08 -3.72 -4.15 -5.40 -6.29 -8.55 -5.02 -1.91 1.79 1.99 1.18 3.14 3.24 3.80 3.62
8.82 6.23 9.53 5.56 3.11 5.55 -1.58 -2.12 4.05 6.73 3.60 -2.30 -7.56 -6.47 -6.65 -9.92 -12.45 -11.00 -11.91 -12.09 -8.28 -11.19 -13.00 -10.30 -4.38 -3.65 -4.50 -9.92 -6.18 -3.77 -4.09 -8.41 -7.04 -7.88 -9.37 -4.73 -0.34 0.24 0.59 1.29 1.53 -1.64 -0.54
1.44 -1.58 -1.04 0.96 -1.94 -4.84 -3.03 1.60 -0.59 -0.93 -2.32 -0.55 -1.96 -3.93 -0.96 -5.93 -6.29 -12.45 -13.54 -11.55 -6.83 -8.47 -5.95 -7.75 -6.58 -5.97 -7.81 -8.88 -7.14 -5.85 -8.34 -10.82 -11.46 -13.01 -7.64 -6.75 -5.77 -5.30 -3.12 -1.84 -2.76 0.40 -2.07
4.01 2.52 0.95 0.23 -0.69 -5.38 -7.74 -8.28 -5.20 -1.65 -2.35 -3.41 -3.94 -3.07 -1.48 -1.47 -3.44 -9.74 -9.23 -9.74 -7.74 -6.11 -6.85 -8.10 -6.53 -7.67 -7.82 -7.36 -6.61 -8.19 -11.01 -10.82 -11.96 -15.75 -11.76 -5.45 -5.03 -4.83 -4.48 -3.96 -4.29 -2.08 -1.32

GFSGL_sfc_wetblb_117.txt.gz
Wetbulb
39.81 41.29 42.35 43.63 45.21 46.86 49.36 53.43 53.86 61.69 61.76 61.38 62.01 62.31 62.09 61.31 61.25 60.91 61.64 61.67 61.05 60.38 60.26 60.27 60.10 61.11 60.11 60.03 59.58 59.62 57.48 56.91 54.25 54.68 56.32 56.47 57.04 57.33 57.36 58.96 60.03 59.60 59.26
38.14 39.36 40.03 40.88 42.10 43.02 43.72 45.31 48.67 50.61 61.63 61.20 60.85 60.69 61.09 61.23 61.46 60.33 59.79 60.06 59.94 59.17 59.11 59.22 59.12 59.01 59.37 59.38 58.85 57.29 56.87 56.85 55.34 52.08 54.27 54.93 55.25 56.62 57.16 57.03 58.38 58.88 59.69
37.40 37.58 37.89 38.22 38.91 39.97 41.06 42.51 44.00 46.03 49.05 57.80 60.54 59.89 60.06 59.83 59.62 59.56 59.75 59.30 58.90 58.98 58.17 57.79 57.95 58.97 58.23 58.79 57.49 56.61 56.31 55.77 55.57 53.67 53.52 54.85 55.23 55.69 55.67 57.13 58.51 58.52 50.68
35.44 35.50 36.07 36.38 37.25 37.84 38.91 40.38 41.07 42.36 42.28 44.12 45.80 56.11 58.85 58.71 58.47 58.45 58.84 58.36 58.11 58.31 59.30 58.46 59.31 59.01 58.37 56.99 56.53 57.28 55.91 55.04 54.74 54.10 53.46 53.66 54.53 55.05 55.85 55.00 55.55 52.65 48.91
33.37 33.76 33.91 35.69 36.58 36.58 36.89 37.64 38.93 39.28 39.95 40.50 40.29 40.35 40.89 40.06 38.94 40.54 49.80 57.15 57.45 57.61 58.33 58.40 59.02 57.12 51.68 54.19 57.03 56.45 55.73 54.62 54.16 53.28 52.89 52.76 53.43 52.59 53.35 55.35 54.80 50.88 46.45
30.97 31.51 33.27 33.88 33.76 34.09 34.59 35.18 35.78 35.89 36.72 37.23 37.62 37.82 36.73 37.40 36.26 37.00 39.68 50.38 57.23 56.59 56.13 57.48 58.35 50.94 50.68 45.07 45.25 47.13 54.24 55.04 54.62 53.35 53.18 52.63 52.95 53.97 53.98 53.43 53.01 47.91 45.27
29.70 29.85 30.87 32.26 32.57 32.94 33.02 33.56 32.92 33.87 34.07 34.09 34.31 35.27 34.73 34.82 35.64 36.23 38.07 38.86 42.93 48.52 49.23 51.91 54.14 49.85 48.66 46.11 38.02 37.33 36.19 36.18 37.80 54.59 53.64 53.72 53.36 54.09 53.79 52.74 52.96 51.48 49.77
27.37 27.66 28.54 30.12 31.47 32.07 32.02 31.96 31.95 32.29 32.55 31.57 31.63 32.56 32.78 33.26 34.55 35.20 35.06 35.31 34.32 34.24 35.49 37.55 40.73 42.40 42.13 42.70 40.48 36.58 34.20 33.99 35.18 36.43 38.31 37.82 37.27 41.05 50.99 53.28 53.58 45.15 35.56
25.62 26.47 27.25 28.50 28.94 29.92 30.35 31.27 32.06 31.62 31.30 30.59 30.46 30.57 31.02 31.40 33.67 34.21 35.29 34.82 33.66 32.26 32.41 33.54 35.34 35.58 35.98 39.01 37.17 33.51 31.42 31.08 33.72 34.02 33.79 33.82 33.85 34.05 34.79 42.20 38.31 39.91 33.07
25.29 26.30 26.94 28.40 27.64 27.76 29.12 30.03 31.91 32.70 31.82 32.49 31.24 30.66 30.96 30.69 32.45 32.81 32.80 33.33 32.25 31.75 31.58 31.33 32.55 33.03 33.57 33.97 34.81 33.78 30.46 30.81 30.38 29.88 29.66 29.31 29.85 29.93 30.44 32.02 35.46 39.17 33.03
27.33 27.17 27.50 27.65 28.25 28.51 29.86 30.32 30.25 31.67 31.73 31.27 31.48 31.46 30.64 30.83 31.21 31.25 31.07 29.35 28.76 27.58 28.00 28.77 30.15 31.67 32.05 32.48 32.15 30.94 29.52 29.09 28.22 27.72 26.86 27.56 26.86 25.80 25.46 26.95 28.09 32.56 32.74
28.02 26.96 27.12 27.48 28.00 28.84 28.31 29.65 30.03 28.93 29.09 28.80 29.13 29.58 30.75 31.05 29.92 30.44 30.00 29.21 29.09 27.75 26.68 27.28 28.55 29.78 29.63 29.11 29.05 29.79 29.50 28.37 27.17 25.87 24.34 24.16 24.27 23.61 24.88 25.40 26.13 26.29 26.69
28.24 26.95 26.56 26.84 27.03 27.97 27.90 28.20 28.20 28.42 27.01 26.88 27.33 27.47 27.18 28.97 30.21 29.31 28.86 28.57 27.54 28.12 28.16 27.82 27.57 27.79 27.64 27.20 27.87 27.16 26.94 26.56 25.59 23.43 22.27 22.54 23.77 24.56 25.71 25.95 26.48 26.91 26.19
26.30 26.87 26.85 25.99 26.17 26.20 26.77 27.12 26.89 27.61 26.84 26.02 25.94 26.53 26.62 27.02 27.37 28.21 29.52 30.19 28.47 27.91 27.71 27.53 26.62 25.96 25.35 25.34 26.28 26.78 27.13 26.28 25.67 23.92 23.04 23.85 25.35 24.36 23.44 25.10 23.77 24.65 23.37
26.08 26.03 26.43 26.22 25.64 25.10 24.96 24.79 25.09 26.64 26.65 25.20 25.36 25.86 25.58 24.84 25.82 26.71 26.89 26.68 27.79 25.64 27.30 26.98 26.05 25.43 23.73 23.32 23.78 23.89 25.07 25.76 25.40 25.51 24.48 24.45 24.73 24.68 23.97 24.80 25.30 25.09 23.81
24.50 24.80 24.64 25.31 25.19 24.44 23.65 24.23 23.81 23.61 24.13 24.47 25.17 25.13 25.71 25.41 25.61 25.39 25.14 24.55 23.57 24.28 25.30 24.13 23.27 23.18 22.33 21.87 20.62 20.51 20.88 21.16 23.24 24.24 24.41 24.61 24.17 23.55 22.51 23.01 24.01 23.33 22.36
22.44 23.33 24.21 23.80 23.50 21.69 21.28 20.15 20.03 22.66 20.61 20.63 21.37 23.02 23.26 23.21 23.77 23.74 22.79 22.10 21.93 23.20 22.07 21.44 20.90 21.01 21.03 20.96 20.31 19.27 18.00 18.88 20.60 21.07 21.80 22.23 22.43 21.97 22.57 22.06 22.41 22.35 20.93
21.37 18.42 22.26 22.85 22.03 20.80 19.44 19.15 18.73 17.72 17.69 17.96 18.36 17.96 20.01 20.79 20.95 20.64 20.34 21.57 20.63 20.08 19.78 18.95 18.39 18.67 18.62 18.40 17.88 17.70 17.58 18.43 18.07 18.48 19.14 20.00 20.64 20.72 20.27 19.92 20.79 20.87 20.65
20.96 21.86 21.06 21.80 21.06 18.08 19.57 19.56 18.63 18.00 16.98 16.61 17.48 17.20 15.11 16.71 17.46 17.26 17.59 17.82 17.40 17.02 17.25 16.67 17.22 17.06 16.71 16.54 16.78 16.54 16.78 15.97 16.59 17.14 17.49 18.11 19.58 19.51 18.14 17.93 17.17 16.79 18.39
19.85 18.22 17.77 21.09 20.82 20.41 19.55 18.99 18.38 17.54 16.46 15.71 14.34 13.85 16.07 16.17 14.94 14.34 14.40 15.26 15.40 15.14 15.30 14.74 14.33 14.36 14.39 15.02 15.19 15.86 16.21 15.88 16.50 16.68 16.83 17.98 19.12 19.09 17.67 17.09 17.43 16.65 16.21
19.80 20.32 16.98 20.66 19.98 19.60 18.83 18.13 17.61 17.24 16.03 15.07 13.65 11.78 7.12 13.63 12.47 12.31 12.23 12.11 12.51 12.62 12.78 12.84 12.26 12.22 12.74 11.78 11.91 12.34 11.99 12.82 12.63 14.09 15.72 16.01 16.79 17.01 17.60 17.68 16.74 16.11 16.05
17.95 18.20 18.83 18.50 18.77 18.18 17.61 17.94 17.68 16.97 16.19 15.11 14.61 12.54 7.68 13.08 12.25 11.25 10.50 9.54 10.30 10.93 10.94 10.68 9.74 8.95 8.19 8.35 8.54 9.30 8.39 8.94 10.04 11.15 12.74 13.73 15.78 16.02 16.43 15.71 15.48 15.19 15.28
16.48 16.31 16.77 16.82 16.73 15.38 16.61 16.14 17.12 17.25 16.15 15.53 14.56 13.63 13.08 12.25 11.49 11.08 9.88 9.29 9.52 9.04 8.76 9.12 8.15 6.76 6.42 6.06 6.91 7.03 6.55 5.46 5.80 6.57 10.28 12.70 13.78 14.58 15.29 14.66 13.42 13.49 13.10
15.15 15.20 14.52 14.74 14.86 14.59 15.03 15.07 14.85 13.51 14.71 15.07 14.98 13.95 13.24 12.27 11.85 9.93 9.38 9.64 9.54 8.59 7.53 7.02 6.82 5.84 5.20 5.14 6.37 6.29 4.87 4.06 5.25 5.38 5.31 10.20 11.95 12.40 12.82 12.19 11.85 9.70 10.93
14.14 13.89 13.59 13.37 12.83 12.49 12.80 13.48 13.69 13.51 13.72 14.25 14.22 13.74 12.70 11.88 11.38 11.37 10.11 8.86 7.84 9.00 5.91 6.43 7.14 4.58 3.02 1.47 1.87 1.96 0.25 -0.69 0.52 -1.05 6.99 6.92 7.04 7.20 8.66 10.14 9.64 10.18 8.02
13.32 12.69 12.63 12.98 12.83 12.70 12.17 11.71 11.94 12.15 12.25 12.64 12.67 12.53 12.25 12.03 11.56 10.85 9.88 8.00 8.13 7.85 5.86 7.65 5.61 1.35 1.03 3.96 2.70 -0.25 -0.89 -0.96 0.24 -3.41 3.89 7.91 8.31 8.60 9.24 7.17 3.21 9.78 6.72

GFSGL_sfc_wetblb_120.txt.gz
Wetbulb
40.12 41.17 42.35 43.68 44.90 46.21 46.91 48.68 51.20 54.09 54.85 63.08 63.69 63.74 63.38 63.33 62.46 61.95 62.31 62.72 62.41 62.44 63.08 62.92 62.92 62.98 61.75 62.83 62.67 62.62 60.45 58.66 55.51 56.91 57.88 59.40 58.13 58.34 58.70 58.85 59.20 60.51 60.81
38.53 39.40 39.62 40.22 41.19 41.97 42.99 44.43 46.74 49.58 50.88 56.39 62.33 63.05 62.99 62.50 62.17 61.20 61.21 61.44 61.40 61.18 62.29 61.82 61.85 61.64 60.81 62.30 61.37 60.60 59.91 59.93 57.49 55.07 55.71 56.33 56.79 58.40 58.04 57.34 58.27 59.51 61.99
38.27 38.33 38.25 38.49 38.52 39.27 39.91 41.34 42.61 44.34 45.90 47.46 48.23 51.77 59.34 60.90 61.53 61.59 61.01 60.69 60.82 61.03 61.48 61.38 61.63 60.64 59.60 60.50 60.40 59.56 61.63 60.38 58.16 55.91 54.21 56.05 56.33 57.09 56.89 57.19 57.25 58.00 53.26
37.82 38.46 36.87 37.07 38.06 37.89 38.36 39.00 40.14 41.11 41.89 42.48 42.57 42.47 42.90 42.59 42.11 43.47 49.26 59.12 60.12 60.23 60.60 61.37 60.76 59.56 59.75 60.46 59.26 60.84 60.16 58.08 56.73 55.45 54.38 54.48 55.28 55.61 56.27 54.97 54.64 52.37 49.74
35.66 36.27 37.36 36.79 36.85 37.23 37.38 37.41 38.13 37.90 38.80 39.18 39.54 38.58 39.01 38.61 37.49 38.38 41.94 47.94 56.67 58.79 59.24 58.99 59.13 57.63 52.55 55.77 60.74 59.98 58.30 56.67 55.49 54.55 53.53 53.72 53.48 52.96 52.85 54.48 54.13 51.14 49.41
34.38 34.05 35.52 37.08 36.55 35.22 35.99 36.40 36.42 35.82 36.22 36.25 36.38 35.53 35.16 35.96 35.53 36.49 39.16 47.51 45.65 52.08 56.21 57.87 58.56 51.96 52.87 44.72 44.91 46.36 53.34 56.01 54.99 54.09 53.44 52.68 53.55 53.53 54.17 53.51 52.94 47.97 44.93
32.60 33.05 33.89 34.60 34.85 35.34 34.64 34.37 33.31 33.77 34.04 34.08 34.31 34.77 34.12 33.60 34.72 35.82 36.01 39.07 37.83 37.40 38.77 41.05 43.82 49.26 46.54 54.76 39.75 38.10 36.79 36.39 37.82 55.14 54.03 54.76 53.54 54.66 54.29 53.72 53.76 51.53 51.20
30.06 30.38 31.50 32.72 33.08 33.92 34.29 34.39 34.54 33.62 33.17 32.02 32.07 33.36 33.09 32.78 33.60 33.96 35.34 37.88 35.48 34.53 34.29 35.04 36.58 37.18 37.36 42.08 44.48 39.44 35.96 34.64 35.15 36.93 38.48 37.84 38.92 42.99 53.86 54.61 54.33 46.98 37.58
29.15 29.12 29.84 30.93 31.52 32.16 31.85 32.60 34.02 33.81 33.92 32.56 32.73 32.29 32.00 31.57 32.85 32.98 33.74 34.81 33.89 32.73 32.66 33.90 34.11 34.05 34.55 37.34 38.68 33.71 31.65 31.55 33.20 33.72 33.12 32.94 32.89 33.20 35.40 47.01 41.99 42.33 34.39
29.53 29.93 29.92 30.84 30.53 30.76 32.22 31.90 33.45 33.77 32.38 33.78 32.40 32.22 31.37 31.72 32.00 31.85 32.16 31.55 30.29 29.01 30.41 30.99 31.89 32.34 33.02 33.62 34.80 34.08 30.57 29.37 31.09 30.68 29.85 29.23 29.41 28.96 29.70 30.81 35.63 47.17 33.67
30.94 31.21 30.75 30.73 30.93 31.51 31.98 32.76 32.03 32.58 32.75 32.22 32.22 32.22 31.78 31.68 31.40 31.22 30.66 32.33 32.24 29.08 27.62 28.03 29.58 30.95 31.59 32.01 31.55 29.76 28.85 29.29 28.46 28.02 28.07 27.37 27.69 27.18 26.76 27.59 28.54 32.28 33.49
32.64 30.86 30.75 31.36 32.35 32.81 32.43 33.27 33.11 32.58 31.85 31.67 31.82 31.91 32.44 31.81 30.38 30.65 30.35 29.53 30.21 31.19 29.70 29.72 29.72 29.98 29.84 29.47 28.97 29.27 28.90 28.32 27.11 25.81 24.68 24.28 24.47 25.19 26.25 27.04 27.37 27.49 28.64
32.39 31.99 31.61 31.39 31.31 31.67 31.53 31.16 30.96 32.14 31.04 30.52 29.79 29.95 29.88 31.98 32.52 29.71 29.99 29.74 29.29 30.59 29.66 28.98 28.77 28.78 28.98 28.57 28.78 28.54 28.35 26.83 25.80 24.28 22.69 23.10 24.21 25.33 26.54 27.34 27.67 28.58 27.71
30.80 30.64 31.63 31.15 31.07 31.18 30.72 30.48 28.46 27.29 27.63 27.24 26.79 26.98 28.10 28.64 29.00 30.34 30.64 31.23 29.74 30.58 30.43 31.41 29.88 29.17 29.00 28.86 29.67 30.06 29.79 29.79 27.67 25.91 26.43 26.91 28.33 27.34 26.08 27.42 26.23 26.27 25.15
29.84 29.66 29.48 30.07 29.88 29.59 29.67 27.52 26.42 25.86 24.72 24.61 24.85 25.64 24.89 24.96 26.22 26.72 26.68 27.73 28.62 28.41 30.93 31.50 30.30 29.45 28.18 29.10 28.45 28.30 28.94 29.21 28.13 28.57 28.11 27.80 27.14 27.18 26.84 28.61 28.02 27.51 25.61
27.35 27.87 27.88 28.77 28.55 27.93 27.78 28.31 23.48 22.90 22.20 22.44 22.81 23.80 25.24 24.22 24.64 24.98 24.26 24.31 25.42 26.70 29.00 27.99 26.74 26.84 26.42 26.43 26.41 26.87 27.41 27.03 27.84 27.88 27.34 26.34 25.37 25.55 25.16 25.80 26.45 26.24 25.15
25.42 24.99 27.04 26.91 27.04 25.95 25.79 25.12 24.36 26.16 23.52 21.92 20.78 20.80 21.98 21.85 22.45 23.13 23.37 24.09 23.94 27.20 27.19 26.47 25.74 25.78 25.90 25.68 25.81 25.72 24.73 24.85 26.08 26.42 26.41 26.16 25.71 24.52 24.10 23.53 23.62 23.39 22.70
24.97 24.33 25.84 26.43 26.16 25.71 25.21 24.94 24.78 23.57 22.90 23.59 23.07 20.67 19.84 20.10 20.61 21.37 22.57 25.48 25.51 24.84 24.50 24.01 23.83 23.87 23.85 24.00 24.14 24.35 24.65 25.22 24.75 25.16 25.47 25.49 25.64 25.10 24.21 23.51 23.40 22.58 21.56
24.06 24.68 24.40 26.01 25.76 24.66 24.97 25.04 24.40 23.78 22.71 22.50 22.47 21.60 21.14 19.95 20.42 20.35 21.09 22.73 22.10 21.81 22.08 21.76 22.34 22.36 22.39 22.69 23.03 22.97 22.91 22.70 23.56 24.21 24.38 24.17 24.71 24.37 22.79 22.11 21.09 20.69 22.09
23.53 22.52 22.34 24.50 24.43 24.21 24.02 23.26 22.86 22.42 21.94 21.40 20.38 18.14 18.67 21.01 19.87 19.61 20.08 19.80 19.76 19.16 19.82 19.87 19.78 19.87 19.67 20.50 21.09 21.36 22.31 22.24 22.53 22.85 23.10 23.70 24.04 23.72 22.10 21.68 21.87 21.02 20.82
22.89 22.90 20.98 23.37 23.07 22.65 22.38 21.77 21.69 21.30 20.57 20.11 19.63 16.68 12.63 18.24 17.94 17.64 17.16 16.87 16.77 17.01 17.22 17.58 17.40 17.13 17.91 18.20 18.59 19.05 18.66 19.69 19.51 20.39 21.54 21.83 22.14 22.12 22.16 22.03 21.15 20.62 20.52
21.28 21.24 21.34 21.08 21.10 20.95 20.32 20.67 20.73 20.06 19.49 18.71 18.72 18.04 13.53 18.39 17.52 16.80 16.22 15.58 15.58 16.04 16.56 16.10 16.07 14.85 13.77 14.16 14.44 16.09 15.37 15.82 16.49 17.70 18.93 19.31 20.73 20.83 20.78 20.31 20.23 20.12 19.73
20.17 19.54 19.74 19.72 19.46 18.45 19.63 19.62 19.41 19.82 19.85 18.84 17.81 17.36 17.06 16.49 16.11 15.84 15.22 14.87 14.67 14.33 14.03 14.53 13.85 12.40 13.06 12.83 13.19 12.67 11.63 11.31 12.52 12.53 16.02 17.98 18.84 19.71 19.99 19.06 18.10 18.12 17.28
18.97 18.65 18.13 18.29 18.29 17.30 17.92 17.51 17.97 17.09 17.49 17.56 17.69 17.21 16.37 15.77 15.37 14.64 14.62 14.31 13.93 13.85 13.33 12.76 11.30 8.97 9.89 11.04 12.02 11.81 9.67 8.31 10.98 12.31 12.14 14.97 16.93 17.21 17.66 16.90 16.29 14.42 15.77
18.89 17.99 17.40 16.90 16.56 16.42 16.34 16.42 16.40 16.55 16.80 17.01 17.09 17.09 16.31 15.81 15.00 14.80 14.68 14.07 12.48 12.71 9.87 10.94 11.70 9.22 7.66 6.30 6.34 6.29 4.01 3.63 4.47 4.83 12.76 12.61 11.87 11.39 12.67 14.67 13.76 14.76 12.61
18.60 17.89 17.50 17.19 16.64 16.31 15.80 15.11 15.13 15.05 15.00 16.04 15.94 15.60 15.49 14.72 14.72 14.38 13.75 12.96 12.29 12.34 10.03 12.61 9.48 4.80 4.63 7.21 7.27 3.92 2.96 2.60 4.14 2.73 8.66 13.08 12.58 13.51 14.19 11.90 7.08 14.65 11.52

GFSGL_sfc_wetblb_123.txt.gz
Wetbulb
40.13 41.12 42.47 44.46 45.58 45.13 45.54 46.60 49.05 52.26 51.69 53.56 59.65 64.58 64.61 64.16 63.66 63.63 63.42 63.58 63.58 62.73 63.28 63.77 63.54 64.85 64.30 63.65 63.43 64.07 61.89 61.22 58.95 61.25 61.64 62.50 62.02 61.61 61.13 60.00 60.05 59.77 58.06
39.59 39.65 40.43 40.91 40.83 40.76 41.63 43.17 46.12 46.96 48.12 47.43 49.88 50.23 57.23 62.16 63.42 62.21 61.77 61.95 62.63 62.89 62.51 61.95 62.38 62.63 62.41 62.85 62.37 61.76 61.65 61.46 61.09 56.93 59.84 59.53 59.93 60.64 59.70 59.05 59.22 60.05 59.64
39.23 39.05 38.69 38.52 38.57 38.36 38.88 39.33 41.10 41.42 42.49 42.89 43.08 43.35 42.46 42.94 43.26 44.64 47.33 57.68 61.31 61.61 62.22 62.01 61.96 62.02 61.50 61.87 61.46 61.11 61.45 60.00 61.07 58.19 57.89 59.77 59.46 59.28 57.94 58.27 58.09 58.59 57.75
37.22 38.46 37.54 37.03 37.31 38.01 38.47 38.05 38.01 38.26 38.47 38.73 39.68 38.98 39.63 38.76 38.50 39.60 42.24 45.78 50.14 56.76 60.86 61.17 61.64 61.29 60.69 60.66 60.37 60.49 60.35 60.41 60.95 58.62 58.05 55.84 55.64 56.95 57.12 56.00 54.99 56.70 50.02
36.26 36.69 38.00 39.50 38.81 38.10 37.42 36.71 36.65 36.76 36.77 37.14 37.67 36.80 36.73 36.37 36.51 37.46 40.75 46.03 48.79 49.03 51.93 59.59 60.41 58.77 53.10 55.06 59.59 59.47 59.24 58.57 58.13 56.90 55.56 54.82 54.38 53.91 53.88 55.56 54.58 51.18 47.51
34.64 34.58 36.95 37.45 37.44 36.94 36.09 36.49 35.98 35.21 35.34 35.37 35.59 35.53 34.46 34.88 34.81 36.28 38.71 40.29 39.66 39.62 39.92 43.34 46.09 49.08 45.09 45.30 46.57 45.30 52.55 58.06 57.08 55.70 55.20 53.27 53.79 54.55 54.83 54.56 53.52 47.76 45.30
32.14 32.91 34.18 35.89 35.83 36.51 37.06 35.95 34.56 33.90 33.96 33.23 33.58 34.15 33.24 33.20 33.92 34.79 35.96 36.47 35.69 34.70 34.44 35.72 38.54 39.52 39.18 40.60 43.86 38.38 36.97 36.03 34.41 51.06 55.00 54.55 54.45 54.87 54.75 53.57 52.94 50.33 50.72
30.74 31.13 32.60 33.63 33.61 34.18 34.16 34.80 35.12 34.89 33.87 33.19 32.58 32.71 32.37 31.97 32.74 33.81 33.86 34.84 33.22 32.44 32.23 32.54 33.31 34.74 35.51 36.88 42.02 37.53 34.57 33.75 34.14 36.14 36.24 34.92 34.35 35.93 46.46 55.38 54.16 49.35 40.07
30.42 30.36 31.18 31.77 31.95 32.32 32.44 33.11 34.45 34.18 33.90 33.23 33.06 32.74 32.29 32.27 32.40 32.27 34.58 32.82 31.12 30.75 30.98 31.42 31.60 31.70 33.38 35.66 37.23 33.57 32.61 31.80 32.93 32.90 32.74 32.40 32.30 32.77 33.56 44.39 42.56 43.82 34.42
31.98 31.59 31.73 32.63 32.00 31.98 33.35 33.06 34.18 34.45 33.47 34.53 33.33 32.91 31.85 31.80 31.82 31.68 32.51 32.71 32.52 31.32 30.72 30.09 30.89 31.08 31.80 32.20 33.51 33.39 31.35 29.16 30.60 30.61 30.11 29.73 29.81 29.50 29.69 30.06 31.89 44.07 34.78
34.14 33.70 33.72 33.39 32.85 33.27 33.33 34.93 33.88 34.24 34.23 33.33 33.15 33.33 32.61 32.18 31.58 31.46 31.20 31.31 31.03 31.44 30.99 30.43 30.71 30.47 30.52 30.47 30.29 29.45 29.15 30.17 29.19 28.01 28.35 28.16 28.21 27.63 28.31 27.98 28.57 30.02 33.15
34.96 34.19 33.42 34.11 34.44 34.23 33.99 33.80 33.14 33.05 32.63 31.97 32.20 32.71 33.65 32.49 30.36 30.08 30.93 30.76 30.88 30.86 29.60 30.86 31.44 30.45 30.57 30.23 30.11 29.92 29.18 29.09 27.84 26.20 25.25 24.61 25.20 26.16 27.20 28.19 28.59 28.89 30.02
33.84 33.14 33.77 32.81 33.61 33.41 32.57 32.20 30.34 30.77 30.46 29.27 29.14 29.46 30.02 31.56 31.28 28.95 29.23 30.02 30.50 31.34 32.07 31.33 31.21 30.79 30.33 30.31 30.10 29.85 30.41 30.00 28.39 26.32 25.34 25.40 26.16 27.84 28.75 28.41 28.91 29.45 28.60
32.20 31.92 32.30 32.35 31.98 32.57 31.76 30.52 28.79 26.09 26.15 25.83 25.13 25.78 26.85 27.88 27.34 29.15 29.05 30.17 29.30 30.71 31.25 32.66 31.54 30.58 30.95 30.66 30.67 30.99 31.04 30.74 29.70 28.93 27.87 28.60 30.04 30.03 29.50 30.52 28.80 27.88 25.64
30.34 30.45 30.19 31.40 31.19 30.69 30.71 28.99 28.07 25.63 23.82 23.08 22.85 24.24 23.52 22.44 24.20 25.39 26.35 27.37 28.43 29.10 30.56 31.62 30.41 30.19 29.56 29.61 30.04 29.63 30.32 30.71 29.81 29.60 28.60 28.09 28.14 28.37 27.72 29.68 29.66 28.71 26.16
28.27 28.12 29.17 29.66 29.78 29.50 29.15 29.22 24.20 24.31 23.10 22.77 22.27 21.92 23.25 23.11 23.20 24.34 25.05 25.63 26.32 28.16 29.52 28.13 27.44 27.71 27.57 27.41 27.33 27.31 27.35 26.97 27.95 28.64 28.29 27.63 26.76 26.35 26.03 26.81 27.38 27.28 26.10
25.32 26.90 27.45 28.21 27.87 27.12 27.01 26.60 25.60 27.70 25.38 24.34 22.70 22.77 22.04 21.85 22.40 22.93 24.57 26.39 26.61 27.55 26.57 26.14 25.73 25.71 26.31 26.29 26.51 26.69 25.82 26.26 27.46 27.09 27.05 27.04 26.95 26.49 26.19 25.06 25.41 25.24 24.39
24.86 25.52 25.74 26.95 26.98 26.36 26.11 25.95 26.24 25.01 24.51 25.80 25.77 23.46 22.12 22.47 22.52 22.66 23.32 26.06 25.67 25.73 24.93 23.79 23.26 23.96 24.27 24.24 24.06 23.52 23.95 24.91 25.73 25.92 25.86 25.94 26.14 25.83 25.18 24.66 24.58 23.89 23.09
24.95 25.62 24.97 26.06 26.73 25.96 26.20 25.86 25.69 25.04 24.42 24.55 24.88 24.06 22.00 21.51 23.16 22.68 22.42 21.83 21.56 21.42 22.10 22.13 22.00 21.36 21.35 22.00 22.72 23.56 23.98 23.61 24.03 24.70 25.05 24.81 25.34 25.34 23.94 23.52 22.52 22.70 24.26
24.99 24.05 23.78 24.66 25.35 25.33 24.93 24.28 24.03 23.75 23.37 23.23 22.77 20.66 19.67 20.07 21.45 20.92 20.99 19.75 19.38 19.18 19.12 19.72 19.51 19.32 19.85 19.87 21.75 21.80 22.27 22.21 22.74 23.45 23.70 24.59 24.80 24.86 23.48 23.09 23.19 22.95 22.62
24.36 24.28 22.97 24.37 23.93 23.47 23.24 22.70 22.42 22.45 22.07 21.99 22.02 19.48 15.24 17.87 19.22 19.19 18.58 17.66 17.01 17.23 17.15 17.42 18.23 17.62 17.52 18.01 18.15 18.74 18.77 19.90 19.73 20.88 21.27 22.39 22.59 22.64 23.17 23.16 22.66 21.98 22.06
23.25 22.97 22.75 22.45 22.68 22.04 21.21 21.34 21.58 21.07 20.94 21.19 21.11 20.94 18.50 19.79 18.74 18.02 17.69 16.71 17.21 16.81 16.77 16.60 16.37 16.06 15.44 15.05 15.16 15.59 16.04 15.54 15.82 16.47 19.27 20.05 21.03 21.37 21.40 21.08 21.36 21.17 20.84
22.29 21.62 21.34 21.39 21.21 20.17 20.09 20.42 19.91 20.21 19.70 19.74 20.17 20.19 19.74 18.99 18.21 17.63 16.99 16.98 16.51 15.92 15.51 14.67 14.24 13.42 13.97 14.79 15.24 14.04 12.24 11.94 13.42 13.68 14.58 18.34 18.62 18.94 20.19 19.55 18.80 18.85 17.58
21.81 20.77 19.84 19.95 19.85 18.68 19.33 18.95 18.88 18.50 18.30 18.77 19.32 19.90 19.30 19.09 18.08 17.37 17.34 16.82 15.35 15.89 15.26 14.16 13.56 10.14 9.73 10.91 12.03 11.71 8.87 7.79 10.48 12.05 13.30 15.03 17.00 17.27 18.25 17.52 16.72 15.32 16.37
21.27 20.41 19.73 18.99 18.62 18.53 18.15 18.23 17.59 17.97 18.10 18.23 17.81 18.05 17.78 18.06 17.05 18.12 17.64 16.38 14.97 14.12 14.18 13.19 12.56 12.17 10.15 8.56 7.60 6.78 4.97 4.32 5.71 5.00 12.71 14.89 13.50 14.19 13.06 15.17 13.97 15.55 13.52
20.97 20.36 20.04 19.68 19.00 18.93 18.38 17.49 17.00 17.07 16.31 16.83 16.92 17.55 17.55 16.98 16.93 16.61 16.53 15.32 14.59 13.74 13.39 13.63 12.84 8.86 8.44 11.60 7.97 5.06 3.99 3.82 4.29 4.75 7.97 13.87 12.97 13.81 13.60 13.15 12.06 14.64 12.87

GFSGL_sfc_wetblb_126.txt.gz
Wetbulb
39.41 39.63 39.23 40.44 41.55 42.18 42.87 44.55 45.82 45.70 46.15 47.17 48.51 49.21 49.95 54.11 59.04 62.89 63.71 63.73 63.88 63.62 63.44 62.54 62.19 62.33 59.97 59.60 62.25 61.68 61.31 60.08 58.02 58.99 59.40 59.74 59.94 59.41 59.47 59.07 59.91 60.53 59.72
39.43 37.77 38.66 38.89 39.44 39.23 39.11 40.82 41.56 41.78 42.32 42.11 43.34 43.87 43.96 42.78 43.92 46.62 49.27 57.44 61.08 61.54 62.95 62.60 60.60 60.71 59.60 61.05 62.03 61.57 61.31 61.42 59.96 58.03 59.12 58.29 57.84 58.71 59.42 59.23 59.68 60.70 60.89
38.23 37.82 35.86 35.65 36.72 36.57 37.56 37.97 38.28 39.01 39.36 39.04 39.46 39.31 38.81 39.88 40.33 42.07 44.17 46.60 50.45 53.54 59.24 61.20 61.01 60.23 59.56 60.43 60.90 61.09 60.77 60.48 60.38 59.14 58.14 58.22 58.05 58.23 57.32 59.36 59.25 59.30 59.75
36.44 36.02 35.57 35.33 35.33 36.37 36.18 36.24 36.54 37.37 37.16 37.52 36.92 37.09 36.98 37.28 38.57 40.05 44.57 46.53 46.78 47.34 47.88 48.51 50.15 52.18 57.24 61.02 61.20 61.29 61.05 59.96 59.69 58.90 58.43 58.00 56.94 57.48 56.94 56.58 56.08 57.46 51.19
34.19 34.73 35.04 34.98 36.76 35.51 35.10 34.84 35.08 34.66 35.13 35.62 34.96 34.28 34.64 35.70 36.45 38.03 41.08 39.83 39.57 39.59 40.55 40.53 42.73 42.06 40.04 40.08 45.39 55.36 59.92 59.22 58.77 57.84 57.10 55.41 54.81 53.83 54.13 55.62 55.46 55.28 48.24
32.48 33.16 34.68 34.88 35.32 35.46 35.23 35.16 34.52 34.04 33.63 33.79 33.61 32.72 32.33 33.19 34.81 35.39 36.27 36.39 35.63 34.66 34.64 35.92 39.06 38.32 37.74 37.28 39.06 38.99 38.48 50.03 56.92 56.20 55.58 54.26 54.58 54.95 55.18 54.58 54.51 48.09 46.25
31.05 31.95 32.93 33.63 33.66 34.21 34.78 34.39 33.69 32.73 33.15 32.48 32.67 32.50 31.45 32.00 33.54 35.08 34.26 33.93 32.82 31.92 31.93 32.14 33.91 34.57 34.42 36.17 38.56 37.18 34.94 34.19 32.16 40.54 49.66 52.66 53.55 54.31 54.97 53.72 53.90 50.45 51.18
30.32 30.87 31.74 32.47 32.45 32.60 32.90 33.25 32.92 32.91 32.21 31.59 31.29 31.55 31.01 31.54 32.49 33.38 34.38 33.85 32.09 31.26 30.82 31.19 31.15 31.34 32.26 34.61 37.99 35.15 33.17 32.45 32.41 32.88 31.94 31.68 32.07 32.84 35.78 47.38 53.69 51.10 41.38
30.76 30.11 31.56 31.81 31.68 32.32 31.90 32.31 32.95 32.57 32.59 32.22 31.46 30.20 29.81 29.71 32.00 31.91 32.25 32.53 31.42 31.42 31.56 31.20 30.75 30.50 31.78 32.91 33.55 33.73 32.87 32.04 33.25 33.47 32.74 32.39 31.67 32.31 32.43 38.22 42.04 43.20 34.79
31.49 31.58 31.31 32.09 31.15 30.62 31.33 31.68 32.90 32.64 32.03 32.63 31.97 30.80 30.57 28.86 31.05 31.75 30.89 30.24 29.64 29.96 30.45 30.14 30.85 30.35 31.48 31.28 29.20 28.77 27.72 27.90 28.62 29.75 30.78 30.96 31.00 30.85 30.79 30.27 31.71 35.33 34.43
33.37 32.83 31.92 31.87 30.99 31.19 30.46 30.17 29.74 30.82 29.89 29.62 30.39 30.84 29.88 28.85 28.28 29.85 30.56 29.77 29.60 29.04 29.17 29.32 30.31 30.64 30.80 30.94 30.74 28.76 27.96 28.37 27.58 27.21 27.13 27.49 28.21 28.79 29.12 29.77 29.98 30.72 32.22
32.51 31.94 31.18 31.52 31.67 31.14 29.42 28.00 27.05 27.11 26.49 25.73 26.17 26.37 28.26 27.26 27.64 28.13 28.95 29.18 30.04 29.67 29.27 30.26 30.76 31.65 30.91 30.82 29.86 30.79 30.82 29.86 28.81 27.41 26.89 26.36 26.94 27.47 28.32 28.91 28.97 29.47 30.53
31.25 29.91 30.69 30.19 30.57 30.12 28.48 26.75 23.86 23.49 22.86 22.71 22.57 22.35 23.06 24.00 23.63 26.26 27.12 27.88 28.63 28.74 29.72 31.49 31.75 31.86 31.49 29.37 30.50 30.43 28.87 28.73 28.48 26.69 26.18 26.85 28.22 29.51 30.60 30.22 29.61 29.41 28.63
28.79 28.97 29.08 28.93 29.01 29.26 28.39 27.59 24.20 22.34 21.52 20.95 19.78 19.69 20.57 20.46 20.62 22.53 24.27 24.61 26.80 28.13 28.54 30.64 30.11 29.35 29.85 29.77 28.25 28.12 28.39 29.11 28.12 27.00 26.74 28.09 28.98 28.03 27.56 29.77 27.91 28.16 25.73
28.05 27.64 27.05 28.24 27.57 27.21 26.27 25.01 25.50 22.13 22.16 20.51 18.99 18.92 17.77 17.25 19.57 23.17 23.91 24.05 24.45 26.17 29.09 28.30 26.89 26.81 26.08 26.32 27.02 25.35 25.73 26.12 26.55 27.78 26.89 26.18 25.80 26.54 26.20 27.98 28.25 26.72 24.13
24.79 25.47 25.67 26.61 26.56 25.91 25.44 25.35 25.46 23.59 23.96 23.81 23.83 20.69 20.05 22.91 24.09 24.47 24.88 26.38 27.51 27.69 26.39 24.40 23.62 23.66 23.43 23.00 22.90 23.99 23.42 22.98 24.27 25.28 25.35 25.96 25.59 25.33 25.15 25.80 26.49 25.60 24.67
23.01 24.94 24.42 24.98 25.45 24.57 24.23 24.27 22.85 26.37 25.59 24.75 24.79 23.53 23.15 22.73 24.63 24.38 24.29 25.66 26.85 25.53 21.09 20.21 19.67 20.51 21.11 21.14 21.08 20.63 20.49 21.93 24.07 24.24 23.72 24.13 25.13 25.71 25.20 24.90 24.66 24.22 23.04
23.16 24.46 23.40 23.77 24.17 24.26 23.79 23.74 23.53 22.33 21.47 22.00 25.65 22.13 22.25 22.40 23.98 23.81 23.10 21.97 19.25 20.40 19.14 18.83 17.33 17.91 18.76 19.56 19.41 20.56 21.73 20.92 21.51 23.62 22.94 21.16 23.19 21.59 20.93 21.34 21.74 22.00 22.11
23.80 23.56 22.79 23.22 23.58 23.11 23.56 23.03 22.60 22.28 21.38 21.28 21.83 21.05 17.78 20.93 23.17 22.96 21.79 16.69 15.43 16.10 16.44 17.38 16.47 16.12 17.04 17.04 19.15 17.81 20.47 19.23 20.53 21.49 21.81 22.21 21.66 18.85 16.67 18.54 17.72 16.13 18.14
22.65 21.26 20.20 22.04 22.59 22.30 21.94 21.15 20.31 20.19 20.21 20.18 19.94 17.76 15.80 16.21 16.16 16.29 15.93 13.13 13.26 14.57 14.36 14.63 16.26 14.61 13.78 14.47 15.07 16.00 15.83 16.36 16.08 18.04 18.81 15.82 20.36 20.60 16.17 15.30 15.36 14.16 17.14
21.87 22.28 18.47 21.63 21.19 20.87 20.26 18.62 18.91 19.51 18.73 18.83 19.36 14.83 11.11 14.06 15.87 14.15 16.37 12.34 11.98 13.20 12.41 13.85 13.92 13.22 11.81 12.05 12.47 12.44 13.65 13.06 12.11 12.66 14.62 17.31 18.04 13.72 19.32 18.75 16.15 16.01 16.53
20.97 21.14 20.84 19.97 20.55 19.44 18.70 19.02 19.05 17.90 17.89 17.46 17.77 18.83 18.17 14.81 16.31 13.46 14.94 13.04 12.53 12.00 11.58 11.09 12.76 12.03 10.70 11.96 11.48 8.86 9.30 8.42 9.29 9.27 9.84 13.29 16.89 16.95 18.46 13.39 15.73 15.84 14.89
19.53 20.41 19.68 19.43 19.19 17.50 17.53 18.20 17.44 16.83 16.89 16.60 16.69 16.79 18.38 18.36 15.60 13.21 14.31 12.77 10.90 10.13 12.70 9.07 7.57 4.32 6.01 9.19 10.42 6.85 3.91 2.88 4.65 7.48 7.31 10.42 14.39 13.51 15.00 13.37 12.73 11.08 9.42
20.05 19.87 19.37 18.60 18.48 17.42 17.64 16.64 16.64 14.88 15.39 15.84 16.11 16.64 16.36 17.12 16.69 16.23 14.11 15.04 8.84 7.19 10.39 5.97 9.15 5.92 3.16 0.67 4.14 5.19 2.93 0.06 2.50 2.68 2.55 5.99 10.70 10.96 11.52 13.28 11.28 8.81 8.78
19.53 18.92 19.21 18.74 18.15 17.45 17.11 17.47 17.07 16.74 16.43 15.94 15.29 15.54 15.84 16.10 15.11 13.71 14.62 14.70 10.32 6.43 7.47 7.44 9.61 5.48 3.84 2.99 -0.46 -0.50 -3.26 -1.79 -3.78 -2.17 3.27 5.18 7.86 9.76 7.83 7.91 5.84 10.33 6.63
18.77 18.87 18.98 19.12 18.38 18.13 17.73 17.12 16.67 16.73 15.61 15.15 13.93 13.35 14.24 15.55 15.35 14.83 14.46 13.18 11.73 8.74 5.79 9.76 10.95 6.77 3.04 7.08 2.12 -1.46 -3.41 -3.01 -3.45 -2.01 1.97 9.33 5.79 5.75 5.88 8.66 6.54 10.25 7.99

GFSGL_sfc_wetblb_129.txt.gz
Wetbulb
34.63 36.53 37.99 39.04 39.48 40.04 40.27 40.86 42.48 44.84 44.98 44.21 45.74 45.48 46.52 47.66 50.11 53.33 57.28 60.74 62.80 62.73 62.88 62.29 62.00 61.87 62.04 62.03 59.23 58.33 57.27 56.69 54.74 59.06 59.80 59.61 58.53 59.79 59.53 60.24 60.07 59.18 58.99
32.95 32.95 36.77 37.49 37.80 36.83 36.78 38.08 39.38 39.80 41.33 40.49 40.50 40.89 41.35 43.79 45.21 47.27 48.53 51.08 53.15 53.23 56.93 60.89 60.97 61.42 60.67 59.24 57.78 57.55 58.08 58.95 58.74 56.36 58.43 57.98 58.09 59.22 59.90 59.59 59.41 59.95 59.75
33.49 32.40 35.85 36.11 35.67 35.44 34.34 34.81 35.92 36.38 36.45 37.02 37.23 37.40 37.44 38.76 41.36 44.32 45.27 44.58 45.64 45.80 46.17 48.58 47.03 46.41 46.94 49.61 56.26 58.95 59.73 59.98 59.30 58.18 58.19 58.09 59.07 58.23 57.84 58.71 58.71 58.93 59.25
33.74 34.38 34.26 34.35 35.30 34.97 34.41 33.64 33.22 34.18 33.29 33.68 34.09 35.00 35.77 35.98 37.49 39.75 39.74 40.12 40.57 40.77 40.95 43.08 41.31 40.13 40.10 40.80 45.05 46.87 53.64 59.25 59.94 59.23 58.54 58.23 58.23 56.68 58.39 57.41 56.76 57.98 57.68
32.49 32.96 33.16 34.36 34.63 34.36 33.32 33.49 33.56 33.08 32.92 32.86 32.85 33.01 33.74 34.69 34.69 35.77 36.49 35.93 35.91 35.77 36.44 37.77 38.04 36.94 36.95 37.75 40.63 40.49 41.52 47.50 56.43 58.46 57.64 57.36 56.80 54.56 56.03 56.36 56.26 55.54 54.99
31.30 31.84 33.01 33.43 33.60 33.21 33.06 32.36 32.40 32.36 32.39 32.19 31.62 31.68 31.55 32.94 35.18 34.57 33.95 33.03 32.83 32.73 32.34 33.80 35.25 34.82 34.73 36.09 37.92 35.68 34.81 37.43 42.01 44.35 52.81 56.26 56.89 56.28 54.65 54.81 54.85 52.90 48.88
30.53 30.73 31.91 32.55 32.45 32.70 32.57 32.67 32.29 31.04 31.27 30.44 30.25 30.16 30.51 31.53 33.33 34.42 34.11 32.97 31.75 31.09 30.94 30.86 31.91 32.70 32.70 34.75 37.07 35.72 34.47 33.95 31.14 35.83 37.82 34.85 35.76 34.28 35.95 51.82 54.02 53.33 53.07
29.73 30.32 30.57 30.73 30.50 31.67 31.81 31.50 31.70 32.30 30.32 29.55 28.83 28.75 28.66 30.49 32.33 32.63 32.76 32.00 31.27 30.81 30.68 30.71 30.45 30.79 31.53 31.65 32.99 34.19 32.48 32.07 32.41 32.79 32.30 31.88 32.10 32.48 33.43 36.19 38.11 40.80 44.25
29.22 29.48 30.18 29.95 28.52 28.70 28.78 30.05 30.06 30.75 30.96 29.73 28.87 27.65 27.12 27.93 31.39 31.90 31.07 30.68 29.97 29.89 30.29 30.56 30.34 29.87 31.30 32.11 29.42 29.63 28.99 28.78 31.41 32.72 32.68 32.49 32.42 32.44 32.18 34.85 35.74 37.25 36.74
28.38 27.91 28.67 29.48 27.61 25.45 25.90 26.51 27.78 27.43 27.55 28.09 28.25 25.93 26.57 25.69 29.63 30.14 29.80 29.27 29.18 29.11 29.97 30.57 31.32 30.16 30.86 30.61 28.88 28.35 26.57 26.34 27.73 28.33 29.08 29.92 30.52 29.94 30.42 29.63 29.44 31.73 33.28
29.35 29.50 29.23 28.61 27.30 25.47 24.11 24.14 24.13 24.61 23.73 23.82 23.79 23.91 22.10 23.63 24.60 28.67 29.22 27.19 27.84 28.75 29.14 29.46 30.42 31.66 30.94 31.07 30.30 29.26 29.02 27.12 24.20 25.60 27.14 28.74 29.66 29.98 29.73 29.40 29.03 28.05 28.62
28.40 28.04 27.73 27.94 28.15 26.85 23.74 23.46 22.67 21.71 19.78 19.88 20.49 20.63 20.94 20.44 24.58 25.79 28.04 28.15 28.68 27.81 27.77 29.91 30.48 31.70 31.32 29.84 28.44 29.78 29.72 24.33 23.43 23.97 25.05 25.39 26.22 27.22 29.47 30.06 29.58 28.94 28.81
27.12 25.71 26.39 26.57 26.69 26.29 24.07 22.40 20.91 20.60 18.73 18.31 17.92 17.08 17.75 19.47 20.30 24.29 25.59 26.85 27.06 26.09 28.73 30.14 30.48 30.70 30.13 28.37 28.27 27.92 25.72 26.75 24.66 24.77 24.52 25.21 26.30 27.51 27.86 29.01 28.12 29.03 28.73
24.93 24.90 25.75 25.02 24.40 23.54 24.26 23.00 20.42 18.85 18.73 18.61 16.83 13.18 12.64 17.11 19.19 21.43 22.60 23.14 24.92 25.32 27.84 26.98 24.81 26.76 21.84 21.63 21.58 23.79 22.92 23.15 24.03 24.65 23.44 19.31 21.33 23.48 24.26 27.48 23.72 24.91 24.73
24.45 23.83 23.40 24.56 23.65 23.01 22.76 20.64 21.35 18.57 20.79 17.67 11.99 12.23 10.31 15.15 20.38 23.69 24.07 25.46 23.04 24.88 25.57 20.46 19.63 19.82 19.14 19.67 19.85 20.74 20.89 21.56 21.58 20.26 21.51 19.88 17.87 18.57 20.79 21.69 23.36 21.51 23.41
22.28 21.82 22.07 22.78 22.79 22.50 21.74 21.82 25.39 22.22 24.87 25.25 24.21 16.66 12.74 22.69 25.10 24.89 23.98 24.55 24.98 24.03 17.75 13.99 13.12 14.21 17.87 15.26 16.12 15.68 15.23 17.36 21.44 21.67 18.56 20.78 22.13 21.07 21.11 22.33 22.02 20.76 21.47
19.64 21.67 21.11 21.78 21.87 21.62 21.56 20.86 18.30 21.54 25.93 25.95 24.27 23.86 23.44 23.49 24.51 24.01 22.58 21.83 22.08 19.85 16.46 12.80 6.01 9.73 13.70 16.94 17.44 17.65 18.85 18.17 20.54 20.27 18.82 20.28 21.24 21.61 20.94 21.22 21.51 21.85 21.49
15.60 18.58 16.76 16.52 16.25 16.23 15.03 15.18 12.99 10.45 9.88 12.80 20.39 21.11 22.02 22.79 23.00 22.56 20.73 17.89 13.43 15.22 14.20 14.73 13.38 12.40 14.10 14.45 15.47 16.27 17.54 16.87 18.26 19.87 19.04 18.90 19.06 18.56 17.22 18.29 18.90 15.97 18.84
19.24 15.10 9.81 11.67 12.32 10.25 13.04 12.84 9.48 9.09 9.01 8.35 9.60 12.36 12.66 20.66 21.15 20.83 18.87 7.01 5.70 10.52 12.35 12.50 14.30 12.16 10.89 11.58 10.91 12.11 13.69 13.38 12.75 13.14 15.74 16.51 18.03 17.69 11.17 14.16 14.67 10.75 14.47
14.92 14.74 12.79 14.12 13.81 12.73 11.35 10.95 13.15 12.79 13.46 10.94 9.66 11.22 12.69 9.60 2.18 -0.65 2.24 -2.95 -0.97 3.50 4.86 9.83 12.20 11.91 7.92 8.92 7.58 8.70 10.82 9.65 8.60 10.07 9.75 11.20 15.66 16.48 14.83 12.40 11.42 9.88 14.76
11.85 15.09 12.54 16.11 13.97 13.67 10.36 11.46 11.41 10.89 10.11 10.23 9.59 4.90 9.02 12.00 10.92 3.05 5.39 1.31 1.69 2.57 -0.33 3.82 5.31 7.11 6.28 7.93 9.08 4.30 5.07 2.84 3.87 5.86 8.09 9.50 11.88 13.93 15.88 14.97 14.10 14.36 14.12
14.19 16.04 16.43 14.29 15.38 11.19 10.91 13.60 10.09 9.35 10.95 9.56 8.26 11.35 9.79 7.78 15.34 11.62 6.33 1.75 -1.13 2.37 3.75 1.65 1.80 2.51 1.60 5.04 5.70 -7.12 -4.45 -5.49 -2.55 1.15 3.33 5.24 8.83 12.39 13.95 8.88 9.04 9.12 10.95
14.64 13.05 14.88 16.00 13.44 11.39 7.83 10.78 7.66 4.43 5.81 3.51 5.83 8.01 6.60 4.17 6.74 9.82 9.62 4.89 5.14 1.64 1.89 -0.17 -3.13 -1.96 -2.65 -5.12 -3.16 -4.08 -6.57 -5.49 -3.15 -5.49 -1.77 1.10 3.67 9.94 10.53 7.61 6.57 6.57 6.38
14.90 11.43 14.71 14.67 11.83 11.73 4.25 2.14 5.29 7.11 7.71 4.58 0.20 1.96 1.81 2.56 2.18 4.28 2.02 6.95 5.48 -1.95 -4.76 -3.05 -1.25 -0.17 -1.25 -8.42 -7.56 -4.95 -3.08 -8.57 -7.32 -5.86 -4.05 0.50 2.62 7.84 6.33 8.23 6.06 2.49 2.33
10.15 8.77 8.33 10.63 11.05 9.81 12.11 9.16 8.17 8.11 9.40 10.54 6.24 2.04 3.93 0.91 3.76 0.91 0.73 3.90 8.67 0.65 -0.42 -2.35 -1.17 2.99 0.17 -5.67 -5.53 -3.83 -7.88 -6.39 -10.02 -6.98 0.42 1.92 1.19 1.21 0.04 1.35 3.86 6.24 3.64
12.69 13.94 13.99 14.53 14.23 12.88 11.68 10.07 11.11 10.79 11.20 10.90 9.51 10.67 12.96 10.43 4.98 0.96 0.36 0.47 1.75 1.51 -0.43 -0.31 4.91 3.38 -0.08 -1.05 -3.48 -2.90 -6.79 -7.12 -7.77 -4.85 -4.45 -0.04 -3.55 -2.31 1.47 -2.24 2.28 4.79 4.18